<?xml version="1.0" encoding="UTF-8" standalone="no" ?>
<gpx xmlns="http://www.topografix.com/GPX/1/1" xmlns:xsi="http://www.w3.org/2001/XMLSchema-instance" xsi:schemaLocation="http://www.topografix.com/GPX/1/1 http://www.topografix.com/GPX/1/1/gpx.xsd" version="1.1" creator="VisuGPX - https://www.visugpx.com">
  <metadata>
    <name>Parmelan, boucle</name>
  </metadata>
  <trk>
    <name><![CDATA[2017-08-04 21:45:04-Course TT]]></name>
    <extensions>
      <line xmlns="http://www.topografix.com/GPX/gpx_style/0/2">
        <color>0000FF</color>
        <width>4</width>
      </line>
    </extensions>
    <trkseg>
      <trkpt lat="45.96394" lon="6.24365">
        <ele>1494.51</ele>
        <time>2017-08-04T17:16:21Z</time>
      </trkpt>
      <trkpt lat="45.96393" lon="6.24365">
        <ele>1525.27</ele>
        <time>2017-08-04T17:16:22Z</time>
      </trkpt>
      <trkpt lat="45.96391" lon="6.24364">
        <ele>1525.27</ele>
        <time>2017-08-04T17:16:23Z</time>
      </trkpt>
      <trkpt lat="45.96386" lon="6.24363">
        <ele>1494.99</ele>
        <time>2017-08-04T17:16:25Z</time>
      </trkpt>
      <trkpt lat="45.96384" lon="6.24362">
        <ele>1494.51</ele>
        <time>2017-08-04T17:16:26Z</time>
      </trkpt>
      <trkpt lat="45.96372" lon="6.24356">
        <ele>1495.95</ele>
        <time>2017-08-04T17:16:30Z</time>
      </trkpt>
      <trkpt lat="45.96363" lon="6.24351">
        <ele>1495.95</ele>
        <time>2017-08-04T17:16:33Z</time>
      </trkpt>
      <trkpt lat="45.96358" lon="6.24348">
        <ele>1496.43</ele>
        <time>2017-08-04T17:16:35Z</time>
      </trkpt>
      <trkpt lat="45.96352" lon="6.24347">
        <ele>1496.91</ele>
        <time>2017-08-04T17:16:37Z</time>
      </trkpt>
      <trkpt lat="45.9635" lon="6.24347">
        <ele>1497.39</ele>
        <time>2017-08-04T17:16:38Z</time>
      </trkpt>
      <trkpt lat="45.96344" lon="6.24348">
        <ele>1497.87</ele>
        <time>2017-08-04T17:16:40Z</time>
      </trkpt>
      <trkpt lat="45.96339" lon="6.24349">
        <ele>1498.35</ele>
        <time>2017-08-04T17:16:42Z</time>
      </trkpt>
      <trkpt lat="45.96335" lon="6.24349">
        <ele>1499.31</ele>
        <time>2017-08-04T17:16:44Z</time>
      </trkpt>
      <trkpt lat="45.96324" lon="6.24342">
        <ele>1501.24</ele>
        <time>2017-08-04T17:16:50Z</time>
      </trkpt>
      <trkpt lat="45.96321" lon="6.24339">
        <ele>1502.2</ele>
        <time>2017-08-04T17:16:53Z</time>
      </trkpt>
      <trkpt lat="45.96319" lon="6.24339">
        <ele>1502.2</ele>
        <time>2017-08-04T17:16:54Z</time>
      </trkpt>
      <trkpt lat="45.963" lon="6.2434">
        <ele>1503.64</ele>
        <time>2017-08-04T17:17:02Z</time>
      </trkpt>
      <trkpt lat="45.96279" lon="6.24343">
        <ele>1506.52</ele>
        <time>2017-08-04T17:17:11Z</time>
      </trkpt>
      <trkpt lat="45.96265" lon="6.24349">
        <ele>1508.45</ele>
        <time>2017-08-04T17:17:18Z</time>
      </trkpt>
      <trkpt lat="45.96251" lon="6.24368">
        <ele>1509.89</ele>
        <time>2017-08-04T17:17:26Z</time>
      </trkpt>
      <trkpt lat="45.96254" lon="6.24397">
        <ele>1510.37</ele>
        <time>2017-08-04T17:17:34Z</time>
      </trkpt>
      <trkpt lat="45.96255" lon="6.24428">
        <ele>1510.37</ele>
        <time>2017-08-04T17:17:42Z</time>
      </trkpt>
      <trkpt lat="45.96257" lon="6.24458">
        <ele>1510.37</ele>
        <time>2017-08-04T17:17:49Z</time>
      </trkpt>
      <trkpt lat="45.96267" lon="6.24484">
        <ele>1511.33</ele>
        <time>2017-08-04T17:17:56Z</time>
      </trkpt>
      <trkpt lat="45.96278" lon="6.24511">
        <ele>1511.81</ele>
        <time>2017-08-04T17:18:04Z</time>
      </trkpt>
      <trkpt lat="45.96285" lon="6.24537">
        <ele>1512.77</ele>
        <time>2017-08-04T17:18:12Z</time>
      </trkpt>
      <trkpt lat="45.96297" lon="6.24561">
        <ele>1514.69</ele>
        <time>2017-08-04T17:18:21Z</time>
      </trkpt>
      <trkpt lat="45.9631" lon="6.24586">
        <ele>1517.58</ele>
        <time>2017-08-04T17:18:30Z</time>
      </trkpt>
      <trkpt lat="45.96322" lon="6.24607">
        <ele>1519.02</ele>
        <time>2017-08-04T17:18:38Z</time>
      </trkpt>
      <trkpt lat="45.96323" lon="6.2461">
        <ele>1519.5</ele>
        <time>2017-08-04T17:18:39Z</time>
      </trkpt>
      <trkpt lat="45.96324" lon="6.24612">
        <ele>1519.5</ele>
        <time>2017-08-04T17:18:40Z</time>
      </trkpt>
      <trkpt lat="45.96325" lon="6.24614">
        <ele>1519.98</ele>
        <time>2017-08-04T17:18:41Z</time>
      </trkpt>
      <trkpt lat="45.96341" lon="6.24629">
        <ele>1521.9</ele>
        <time>2017-08-04T17:18:50Z</time>
      </trkpt>
      <trkpt lat="45.96357" lon="6.24648">
        <ele>1523.35</ele>
        <time>2017-08-04T17:19:00Z</time>
      </trkpt>
      <trkpt lat="45.96364" lon="6.24663">
        <ele>1524.79</ele>
        <time>2017-08-04T17:19:08Z</time>
      </trkpt>
      <trkpt lat="45.96366" lon="6.24665">
        <ele>1524.79</ele>
        <time>2017-08-04T17:19:09Z</time>
      </trkpt>
      <trkpt lat="45.96367" lon="6.24667">
        <ele>1524.79</ele>
        <time>2017-08-04T17:19:10Z</time>
      </trkpt>
      <trkpt lat="45.96381" lon="6.24691">
        <ele>1526.71</ele>
        <time>2017-08-04T17:19:20Z</time>
      </trkpt>
      <trkpt lat="45.96395" lon="6.24713">
        <ele>1528.63</ele>
        <time>2017-08-04T17:19:29Z</time>
      </trkpt>
      <trkpt lat="45.96411" lon="6.24731">
        <ele>1531.04</ele>
        <time>2017-08-04T17:19:39Z</time>
      </trkpt>
      <trkpt lat="45.96427" lon="6.24749">
        <ele>1533.44</ele>
        <time>2017-08-04T17:19:49Z</time>
      </trkpt>
      <trkpt lat="45.96443" lon="6.24766">
        <ele>1535.36</ele>
        <time>2017-08-04T17:19:58Z</time>
      </trkpt>
      <trkpt lat="45.96458" lon="6.24784">
        <ele>1536.8</ele>
        <time>2017-08-04T17:20:07Z</time>
      </trkpt>
      <trkpt lat="45.96473" lon="6.24804">
        <ele>1537.77</ele>
        <time>2017-08-04T17:20:16Z</time>
      </trkpt>
      <trkpt lat="45.96488" lon="6.24822">
        <ele>1538.73</ele>
        <time>2017-08-04T17:20:25Z</time>
      </trkpt>
      <trkpt lat="45.96503" lon="6.24842">
        <ele>1539.69</ele>
        <time>2017-08-04T17:20:34Z</time>
      </trkpt>
      <trkpt lat="45.9652" lon="6.24861">
        <ele>1541.61</ele>
        <time>2017-08-04T17:20:44Z</time>
      </trkpt>
      <trkpt lat="45.96536" lon="6.24878">
        <ele>1542.57</ele>
        <time>2017-08-04T17:20:54Z</time>
      </trkpt>
      <trkpt lat="45.96556" lon="6.24887">
        <ele>1545.46</ele>
        <time>2017-08-04T17:21:05Z</time>
      </trkpt>
      <trkpt lat="45.96576" lon="6.24897">
        <ele>1547.38</ele>
        <time>2017-08-04T17:21:15Z</time>
      </trkpt>
      <trkpt lat="45.96593" lon="6.24913">
        <ele>1547.86</ele>
        <time>2017-08-04T17:21:24Z</time>
      </trkpt>
      <trkpt lat="45.96599" lon="6.24941">
        <ele>1548.82</ele>
        <time>2017-08-04T17:21:33Z</time>
      </trkpt>
      <trkpt lat="45.96609" lon="6.24965">
        <ele>1548.82</ele>
        <time>2017-08-04T17:21:42Z</time>
      </trkpt>
      <trkpt lat="45.96622" lon="6.24988">
        <ele>1550.26</ele>
        <time>2017-08-04T17:21:52Z</time>
      </trkpt>
      <trkpt lat="45.96632" lon="6.25017">
        <ele>1549.3</ele>
        <time>2017-08-04T17:22:01Z</time>
      </trkpt>
      <trkpt lat="45.96641" lon="6.25039">
        <ele>1548.82</ele>
        <time>2017-08-04T17:22:08Z</time>
      </trkpt>
      <trkpt lat="45.96644" lon="6.25041">
        <ele>1548.34</ele>
        <time>2017-08-04T17:22:09Z</time>
      </trkpt>
      <trkpt lat="45.96646" lon="6.25043">
        <ele>1547.86</ele>
        <time>2017-08-04T17:22:10Z</time>
      </trkpt>
      <trkpt lat="45.96649" lon="6.25046">
        <ele>1547.38</ele>
        <time>2017-08-04T17:22:11Z</time>
      </trkpt>
      <trkpt lat="45.96651" lon="6.25049">
        <ele>1547.38</ele>
        <time>2017-08-04T17:22:12Z</time>
      </trkpt>
      <trkpt lat="45.96665" lon="6.2507">
        <ele>1546.42</ele>
        <time>2017-08-04T17:22:20Z</time>
      </trkpt>
      <trkpt lat="45.96678" lon="6.25091">
        <ele>1544.98</ele>
        <time>2017-08-04T17:22:27Z</time>
      </trkpt>
      <trkpt lat="45.9669" lon="6.25113">
        <ele>1543.05</ele>
        <time>2017-08-04T17:22:34Z</time>
      </trkpt>
      <trkpt lat="45.96697" lon="6.25123">
        <ele>1541.61</ele>
        <time>2017-08-04T17:22:38Z</time>
      </trkpt>
      <trkpt lat="45.96703" lon="6.25136">
        <ele>1539.69</ele>
        <time>2017-08-04T17:22:43Z</time>
      </trkpt>
      <trkpt lat="45.96714" lon="6.25163">
        <ele>1537.29</ele>
        <time>2017-08-04T17:22:51Z</time>
      </trkpt>
      <trkpt lat="45.96718" lon="6.25181">
        <ele>1536.8</ele>
        <time>2017-08-04T17:22:57Z</time>
      </trkpt>
      <trkpt lat="45.96721" lon="6.25211">
        <ele>1534.4</ele>
        <time>2017-08-04T17:23:07Z</time>
      </trkpt>
      <trkpt lat="45.96723" lon="6.25238">
        <ele>1533.92</ele>
        <time>2017-08-04T17:23:15Z</time>
      </trkpt>
      <trkpt lat="45.96722" lon="6.25248">
        <ele>1533.44</ele>
        <time>2017-08-04T17:23:18Z</time>
      </trkpt>
      <trkpt lat="45.96722" lon="6.2525">
        <ele>1533.44</ele>
        <time>2017-08-04T17:23:19Z</time>
      </trkpt>
      <trkpt lat="45.96723" lon="6.25258">
        <ele>1533.44</ele>
        <time>2017-08-04T17:23:22Z</time>
      </trkpt>
      <trkpt lat="45.96722" lon="6.2526">
        <ele>1532.96</ele>
        <time>2017-08-04T17:23:23Z</time>
      </trkpt>
      <trkpt lat="45.96721" lon="6.25262">
        <ele>1532.48</ele>
        <time>2017-08-04T17:23:24Z</time>
      </trkpt>
      <trkpt lat="45.9672" lon="6.25265">
        <ele>1532</ele>
        <time>2017-08-04T17:23:25Z</time>
      </trkpt>
      <trkpt lat="45.9672" lon="6.25267">
        <ele>1531.52</ele>
        <time>2017-08-04T17:23:26Z</time>
      </trkpt>
      <trkpt lat="45.96721" lon="6.2527">
        <ele>1531.04</ele>
        <time>2017-08-04T17:23:27Z</time>
      </trkpt>
      <trkpt lat="45.96721" lon="6.25273">
        <ele>1530.56</ele>
        <time>2017-08-04T17:23:28Z</time>
      </trkpt>
      <trkpt lat="45.96723" lon="6.25292">
        <ele>1529.11</ele>
        <time>2017-08-04T17:23:33Z</time>
      </trkpt>
      <trkpt lat="45.96723" lon="6.25294">
        <ele>1529.59</ele>
        <time>2017-08-04T17:23:34Z</time>
      </trkpt>
      <trkpt lat="45.96723" lon="6.25297">
        <ele>1529.59</ele>
        <time>2017-08-04T17:23:35Z</time>
      </trkpt>
      <trkpt lat="45.96724" lon="6.25302">
        <ele>1529.59</ele>
        <time>2017-08-04T17:23:37Z</time>
      </trkpt>
      <trkpt lat="45.9672" lon="6.25333">
        <ele>1528.63</ele>
        <time>2017-08-04T17:23:47Z</time>
      </trkpt>
      <trkpt lat="45.96718" lon="6.25335">
        <ele>1528.63</ele>
        <time>2017-08-04T17:23:48Z</time>
      </trkpt>
      <trkpt lat="45.96717" lon="6.25337">
        <ele>1529.11</ele>
        <time>2017-08-04T17:23:49Z</time>
      </trkpt>
      <trkpt lat="45.96716" lon="6.2534">
        <ele>1529.11</ele>
        <time>2017-08-04T17:23:50Z</time>
      </trkpt>
      <trkpt lat="45.96715" lon="6.25342">
        <ele>1529.11</ele>
        <time>2017-08-04T17:23:51Z</time>
      </trkpt>
      <trkpt lat="45.96715" lon="6.25345">
        <ele>1529.59</ele>
        <time>2017-08-04T17:23:52Z</time>
      </trkpt>
      <trkpt lat="45.96714" lon="6.25348">
        <ele>1529.59</ele>
        <time>2017-08-04T17:23:53Z</time>
      </trkpt>
      <trkpt lat="45.96711" lon="6.25362">
        <ele>1530.08</ele>
        <time>2017-08-04T17:23:59Z</time>
      </trkpt>
      <trkpt lat="45.96708" lon="6.2537">
        <ele>1531.04</ele>
        <time>2017-08-04T17:24:03Z</time>
      </trkpt>
      <trkpt lat="45.96707" lon="6.25371">
        <ele>1531.52</ele>
        <time>2017-08-04T17:24:04Z</time>
      </trkpt>
      <trkpt lat="45.96706" lon="6.25372">
        <ele>1532</ele>
        <time>2017-08-04T17:24:05Z</time>
      </trkpt>
      <trkpt lat="45.96705" lon="6.25373">
        <ele>1532</ele>
        <time>2017-08-04T17:24:06Z</time>
      </trkpt>
      <trkpt lat="45.96704" lon="6.25374">
        <ele>1532.48</ele>
        <time>2017-08-04T17:24:07Z</time>
      </trkpt>
      <trkpt lat="45.96704" lon="6.25375">
        <ele>1532.96</ele>
        <time>2017-08-04T17:24:08Z</time>
      </trkpt>
      <trkpt lat="45.96702" lon="6.25376">
        <ele>1533.44</ele>
        <time>2017-08-04T17:24:09Z</time>
      </trkpt>
      <trkpt lat="45.96689" lon="6.25391">
        <ele>1532.96</ele>
        <time>2017-08-04T17:24:18Z</time>
      </trkpt>
      <trkpt lat="45.96688" lon="6.25391">
        <ele>1532.96</ele>
        <time>2017-08-04T17:24:19Z</time>
      </trkpt>
      <trkpt lat="45.96686" lon="6.25392">
        <ele>1532.96</ele>
        <time>2017-08-04T17:24:20Z</time>
      </trkpt>
      <trkpt lat="45.96685" lon="6.25393">
        <ele>1532.96</ele>
        <time>2017-08-04T17:24:21Z</time>
      </trkpt>
      <trkpt lat="45.96682" lon="6.25394">
        <ele>1532.48</ele>
        <time>2017-08-04T17:24:22Z</time>
      </trkpt>
      <trkpt lat="45.96666" lon="6.25405">
        <ele>1531.04</ele>
        <time>2017-08-04T17:24:31Z</time>
      </trkpt>
      <trkpt lat="45.96644" lon="6.2542">
        <ele>1531.04</ele>
        <time>2017-08-04T17:24:43Z</time>
      </trkpt>
      <trkpt lat="45.9664" lon="6.25423">
        <ele>1530.56</ele>
        <time>2017-08-04T17:24:47Z</time>
      </trkpt>
      <trkpt lat="45.96638" lon="6.25424">
        <ele>1530.56</ele>
        <time>2017-08-04T17:24:48Z</time>
      </trkpt>
      <trkpt lat="45.96637" lon="6.25426">
        <ele>1530.08</ele>
        <time>2017-08-04T17:24:49Z</time>
      </trkpt>
      <trkpt lat="45.96636" lon="6.25428">
        <ele>1530.08</ele>
        <time>2017-08-04T17:24:50Z</time>
      </trkpt>
      <trkpt lat="45.96634" lon="6.25431">
        <ele>1529.59</ele>
        <time>2017-08-04T17:24:51Z</time>
      </trkpt>
      <trkpt lat="45.96632" lon="6.25434">
        <ele>1529.59</ele>
        <time>2017-08-04T17:24:52Z</time>
      </trkpt>
      <trkpt lat="45.9663" lon="6.25436">
        <ele>1530.08</ele>
        <time>2017-08-04T17:24:53Z</time>
      </trkpt>
      <trkpt lat="45.96628" lon="6.25438">
        <ele>1530.08</ele>
        <time>2017-08-04T17:24:54Z</time>
      </trkpt>
      <trkpt lat="45.96625" lon="6.25439">
        <ele>1530.08</ele>
        <time>2017-08-04T17:24:55Z</time>
      </trkpt>
      <trkpt lat="45.96623" lon="6.25441">
        <ele>1530.56</ele>
        <time>2017-08-04T17:24:56Z</time>
      </trkpt>
      <trkpt lat="45.96622" lon="6.25444">
        <ele>1530.56</ele>
        <time>2017-08-04T17:24:57Z</time>
      </trkpt>
      <trkpt lat="45.9662" lon="6.25448">
        <ele>1530.08</ele>
        <time>2017-08-04T17:24:58Z</time>
      </trkpt>
      <trkpt lat="45.96604" lon="6.2547">
        <ele>1532.96</ele>
        <time>2017-08-04T17:25:11Z</time>
      </trkpt>
      <trkpt lat="45.96603" lon="6.25472">
        <ele>1532.96</ele>
        <time>2017-08-04T17:25:12Z</time>
      </trkpt>
      <trkpt lat="45.96601" lon="6.25475">
        <ele>1533.44</ele>
        <time>2017-08-04T17:25:13Z</time>
      </trkpt>
      <trkpt lat="45.96599" lon="6.25476">
        <ele>1533.44</ele>
        <time>2017-08-04T17:25:14Z</time>
      </trkpt>
      <trkpt lat="45.96597" lon="6.25478">
        <ele>1533.44</ele>
        <time>2017-08-04T17:25:15Z</time>
      </trkpt>
      <trkpt lat="45.96596" lon="6.2548">
        <ele>1533.92</ele>
        <time>2017-08-04T17:25:16Z</time>
      </trkpt>
      <trkpt lat="45.96595" lon="6.25482">
        <ele>1533.92</ele>
        <time>2017-08-04T17:25:17Z</time>
      </trkpt>
      <trkpt lat="45.96594" lon="6.25484">
        <ele>1534.4</ele>
        <time>2017-08-04T17:25:18Z</time>
      </trkpt>
      <trkpt lat="45.96589" lon="6.25491">
        <ele>1534.88</ele>
        <time>2017-08-04T17:25:22Z</time>
      </trkpt>
      <trkpt lat="45.96589" lon="6.25493">
        <ele>1534.4</ele>
        <time>2017-08-04T17:25:23Z</time>
      </trkpt>
      <trkpt lat="45.96588" lon="6.25498">
        <ele>1534.4</ele>
        <time>2017-08-04T17:25:25Z</time>
      </trkpt>
      <trkpt lat="45.96587" lon="6.255">
        <ele>1534.4</ele>
        <time>2017-08-04T17:25:26Z</time>
      </trkpt>
      <trkpt lat="45.96586" lon="6.25501">
        <ele>1534.4</ele>
        <time>2017-08-04T17:25:27Z</time>
      </trkpt>
      <trkpt lat="45.96586" lon="6.25502">
        <ele>1534.4</ele>
        <time>2017-08-04T17:25:28Z</time>
      </trkpt>
      <trkpt lat="45.96585" lon="6.25504">
        <ele>1534.4</ele>
        <time>2017-08-04T17:25:29Z</time>
      </trkpt>
      <trkpt lat="45.96584" lon="6.25506">
        <ele>1534.4</ele>
        <time>2017-08-04T17:25:30Z</time>
      </trkpt>
      <trkpt lat="45.9657" lon="6.25526">
        <ele>1535.84</ele>
        <time>2017-08-04T17:25:44Z</time>
      </trkpt>
      <trkpt lat="45.96568" lon="6.25527">
        <ele>1536.8</ele>
        <time>2017-08-04T17:25:46Z</time>
      </trkpt>
      <trkpt lat="45.96567" lon="6.25528">
        <ele>1536.8</ele>
        <time>2017-08-04T17:25:47Z</time>
      </trkpt>
      <trkpt lat="45.96562" lon="6.25531">
        <ele>1538.73</ele>
        <time>2017-08-04T17:25:56Z</time>
      </trkpt>
      <trkpt lat="45.96561" lon="6.25531">
        <ele>1538.73</ele>
        <time>2017-08-04T17:25:57Z</time>
      </trkpt>
      <trkpt lat="45.9656" lon="6.25532">
        <ele>1538.73</ele>
        <time>2017-08-04T17:25:58Z</time>
      </trkpt>
      <trkpt lat="45.96553" lon="6.25547">
        <ele>1539.21</ele>
        <time>2017-08-04T17:26:08Z</time>
      </trkpt>
      <trkpt lat="45.96551" lon="6.25548">
        <ele>1539.21</ele>
        <time>2017-08-04T17:26:09Z</time>
      </trkpt>
      <trkpt lat="45.96545" lon="6.25553">
        <ele>1539.21</ele>
        <time>2017-08-04T17:26:13Z</time>
      </trkpt>
      <trkpt lat="45.96541" lon="6.25554">
        <ele>1540.17</ele>
        <time>2017-08-04T17:26:16Z</time>
      </trkpt>
      <trkpt lat="45.9654" lon="6.25556">
        <ele>1540.65</ele>
        <time>2017-08-04T17:26:17Z</time>
      </trkpt>
      <trkpt lat="45.96539" lon="6.25558">
        <ele>1540.65</ele>
        <time>2017-08-04T17:26:18Z</time>
      </trkpt>
      <trkpt lat="45.96538" lon="6.2556">
        <ele>1540.65</ele>
        <time>2017-08-04T17:26:19Z</time>
      </trkpt>
      <trkpt lat="45.96537" lon="6.25561">
        <ele>1541.13</ele>
        <time>2017-08-04T17:26:20Z</time>
      </trkpt>
      <trkpt lat="45.96536" lon="6.25561">
        <ele>1541.13</ele>
        <time>2017-08-04T17:26:21Z</time>
      </trkpt>
      <trkpt lat="45.96534" lon="6.25562">
        <ele>1541.61</ele>
        <time>2017-08-04T17:26:22Z</time>
      </trkpt>
      <trkpt lat="45.96532" lon="6.25562">
        <ele>1541.61</ele>
        <time>2017-08-04T17:26:23Z</time>
      </trkpt>
      <trkpt lat="45.96531" lon="6.25562">
        <ele>1542.09</ele>
        <time>2017-08-04T17:26:24Z</time>
      </trkpt>
      <trkpt lat="45.96524" lon="6.25567">
        <ele>1543.53</ele>
        <time>2017-08-04T17:26:30Z</time>
      </trkpt>
      <trkpt lat="45.96523" lon="6.25568">
        <ele>1544.01</ele>
        <time>2017-08-04T17:26:31Z</time>
      </trkpt>
      <trkpt lat="45.96521" lon="6.25568">
        <ele>1544.01</ele>
        <time>2017-08-04T17:26:32Z</time>
      </trkpt>
      <trkpt lat="45.9652" lon="6.25569">
        <ele>1544.5</ele>
        <time>2017-08-04T17:26:33Z</time>
      </trkpt>
      <trkpt lat="45.96519" lon="6.2557">
        <ele>1544.98</ele>
        <time>2017-08-04T17:26:34Z</time>
      </trkpt>
      <trkpt lat="45.96518" lon="6.25571">
        <ele>1544.98</ele>
        <time>2017-08-04T17:26:35Z</time>
      </trkpt>
      <trkpt lat="45.96514" lon="6.25574">
        <ele>1545.94</ele>
        <time>2017-08-04T17:26:38Z</time>
      </trkpt>
      <trkpt lat="45.96506" lon="6.25583">
        <ele>1547.86</ele>
        <time>2017-08-04T17:26:44Z</time>
      </trkpt>
      <trkpt lat="45.96498" lon="6.25591">
        <ele>1550.26</ele>
        <time>2017-08-04T17:26:52Z</time>
      </trkpt>
      <trkpt lat="45.96494" lon="6.25593">
        <ele>1552.19</ele>
        <time>2017-08-04T17:26:57Z</time>
      </trkpt>
      <trkpt lat="45.96485" lon="6.25594">
        <ele>1555.07</ele>
        <time>2017-08-04T17:27:07Z</time>
      </trkpt>
      <trkpt lat="45.96481" lon="6.25598">
        <ele>1554.59</ele>
        <time>2017-08-04T17:27:13Z</time>
      </trkpt>
      <trkpt lat="45.9648" lon="6.25601">
        <ele>1554.59</ele>
        <time>2017-08-04T17:27:14Z</time>
      </trkpt>
      <trkpt lat="45.96479" lon="6.25603">
        <ele>1555.07</ele>
        <time>2017-08-04T17:27:15Z</time>
      </trkpt>
      <trkpt lat="45.96479" lon="6.25605">
        <ele>1555.55</ele>
        <time>2017-08-04T17:27:16Z</time>
      </trkpt>
      <trkpt lat="45.96478" lon="6.25608">
        <ele>1555.55</ele>
        <time>2017-08-04T17:27:17Z</time>
      </trkpt>
      <trkpt lat="45.96478" lon="6.25609">
        <ele>1556.03</ele>
        <time>2017-08-04T17:27:18Z</time>
      </trkpt>
      <trkpt lat="45.96472" lon="6.25628">
        <ele>1558.43</ele>
        <time>2017-08-04T17:27:31Z</time>
      </trkpt>
      <trkpt lat="45.96471" lon="6.25629">
        <ele>1558.92</ele>
        <time>2017-08-04T17:27:32Z</time>
      </trkpt>
      <trkpt lat="45.9647" lon="6.25631">
        <ele>1558.92</ele>
        <time>2017-08-04T17:27:33Z</time>
      </trkpt>
      <trkpt lat="45.96466" lon="6.25638">
        <ele>1559.88</ele>
        <time>2017-08-04T17:27:37Z</time>
      </trkpt>
      <trkpt lat="45.96466" lon="6.25641">
        <ele>1559.88</ele>
        <time>2017-08-04T17:27:38Z</time>
      </trkpt>
      <trkpt lat="45.96466" lon="6.25644">
        <ele>1559.88</ele>
        <time>2017-08-04T17:27:39Z</time>
      </trkpt>
      <trkpt lat="45.96461" lon="6.25662">
        <ele>1560.84</ele>
        <time>2017-08-04T17:27:51Z</time>
      </trkpt>
      <trkpt lat="45.96461" lon="6.25664">
        <ele>1561.32</ele>
        <time>2017-08-04T17:27:53Z</time>
      </trkpt>
      <trkpt lat="45.9646" lon="6.25668">
        <ele>1561.8</ele>
        <time>2017-08-04T17:27:57Z</time>
      </trkpt>
      <trkpt lat="45.96456" lon="6.2567">
        <ele>1562.28</ele>
        <time>2017-08-04T17:28:01Z</time>
      </trkpt>
      <trkpt lat="45.96446" lon="6.25676">
        <ele>1565.16</ele>
        <time>2017-08-04T17:28:14Z</time>
      </trkpt>
      <trkpt lat="45.96446" lon="6.25677">
        <ele>1565.16</ele>
        <time>2017-08-04T17:28:15Z</time>
      </trkpt>
      <trkpt lat="45.96445" lon="6.25679">
        <ele>1565.16</ele>
        <time>2017-08-04T17:28:16Z</time>
      </trkpt>
      <trkpt lat="45.96443" lon="6.25679">
        <ele>1565.64</ele>
        <time>2017-08-04T17:28:17Z</time>
      </trkpt>
      <trkpt lat="45.96442" lon="6.2568">
        <ele>1565.16</ele>
        <time>2017-08-04T17:28:18Z</time>
      </trkpt>
      <trkpt lat="45.96441" lon="6.25682">
        <ele>1565.16</ele>
        <time>2017-08-04T17:28:19Z</time>
      </trkpt>
      <trkpt lat="45.9644" lon="6.25683">
        <ele>1565.64</ele>
        <time>2017-08-04T17:28:20Z</time>
      </trkpt>
      <trkpt lat="45.96433" lon="6.25688">
        <ele>1567.57</ele>
        <time>2017-08-04T17:28:28Z</time>
      </trkpt>
      <trkpt lat="45.9643" lon="6.25687">
        <ele>1567.57</ele>
        <time>2017-08-04T17:28:38Z</time>
      </trkpt>
      <trkpt lat="45.9643" lon="6.2569">
        <ele>1568.05</ele>
        <time>2017-08-04T17:28:40Z</time>
      </trkpt>
      <trkpt lat="45.96429" lon="6.25691">
        <ele>1568.05</ele>
        <time>2017-08-04T17:28:41Z</time>
      </trkpt>
      <trkpt lat="45.96425" lon="6.257">
        <ele>1569.01</ele>
        <time>2017-08-04T17:28:49Z</time>
      </trkpt>
      <trkpt lat="45.96423" lon="6.25702">
        <ele>1569.01</ele>
        <time>2017-08-04T17:28:52Z</time>
      </trkpt>
      <trkpt lat="45.96411" lon="6.25707">
        <ele>1569.01</ele>
        <time>2017-08-04T17:29:00Z</time>
      </trkpt>
      <trkpt lat="45.96408" lon="6.25709">
        <ele>1569.49</ele>
        <time>2017-08-04T17:29:02Z</time>
      </trkpt>
      <trkpt lat="45.96407" lon="6.2571">
        <ele>1569.97</ele>
        <time>2017-08-04T17:29:03Z</time>
      </trkpt>
      <trkpt lat="45.96405" lon="6.25711">
        <ele>1569.97</ele>
        <time>2017-08-04T17:29:04Z</time>
      </trkpt>
      <trkpt lat="45.96404" lon="6.25712">
        <ele>1569.97</ele>
        <time>2017-08-04T17:29:05Z</time>
      </trkpt>
      <trkpt lat="45.96403" lon="6.25713">
        <ele>1569.97</ele>
        <time>2017-08-04T17:29:06Z</time>
      </trkpt>
      <trkpt lat="45.96401" lon="6.25715">
        <ele>1569.97</ele>
        <time>2017-08-04T17:29:07Z</time>
      </trkpt>
      <trkpt lat="45.96399" lon="6.25717">
        <ele>1569.97</ele>
        <time>2017-08-04T17:29:08Z</time>
      </trkpt>
      <trkpt lat="45.96398" lon="6.25718">
        <ele>1570.45</ele>
        <time>2017-08-04T17:29:09Z</time>
      </trkpt>
      <trkpt lat="45.96397" lon="6.2572">
        <ele>1570.93</ele>
        <time>2017-08-04T17:29:10Z</time>
      </trkpt>
      <trkpt lat="45.96396" lon="6.25722">
        <ele>1571.41</ele>
        <time>2017-08-04T17:29:11Z</time>
      </trkpt>
      <trkpt lat="45.96395" lon="6.25724">
        <ele>1571.41</ele>
        <time>2017-08-04T17:29:12Z</time>
      </trkpt>
      <trkpt lat="45.96394" lon="6.25725">
        <ele>1571.89</ele>
        <time>2017-08-04T17:29:13Z</time>
      </trkpt>
      <trkpt lat="45.96393" lon="6.25726">
        <ele>1572.37</ele>
        <time>2017-08-04T17:29:14Z</time>
      </trkpt>
      <trkpt lat="45.96382" lon="6.25744">
        <ele>1575.26</ele>
        <time>2017-08-04T17:29:25Z</time>
      </trkpt>
      <trkpt lat="45.9638" lon="6.25748">
        <ele>1576.22</ele>
        <time>2017-08-04T17:29:28Z</time>
      </trkpt>
      <trkpt lat="45.96376" lon="6.25753">
        <ele>1576.7</ele>
        <time>2017-08-04T17:29:31Z</time>
      </trkpt>
      <trkpt lat="45.96373" lon="6.25755">
        <ele>1577.66</ele>
        <time>2017-08-04T17:29:33Z</time>
      </trkpt>
      <trkpt lat="45.96372" lon="6.25757">
        <ele>1578.14</ele>
        <time>2017-08-04T17:29:34Z</time>
      </trkpt>
      <trkpt lat="45.96371" lon="6.25757">
        <ele>1578.62</ele>
        <time>2017-08-04T17:29:35Z</time>
      </trkpt>
      <trkpt lat="45.96367" lon="6.2576">
        <ele>1579.58</ele>
        <time>2017-08-04T17:29:38Z</time>
      </trkpt>
      <trkpt lat="45.96363" lon="6.25763">
        <ele>1580.54</ele>
        <time>2017-08-04T17:29:41Z</time>
      </trkpt>
      <trkpt lat="45.96358" lon="6.25766">
        <ele>1581.51</ele>
        <time>2017-08-04T17:29:44Z</time>
      </trkpt>
      <trkpt lat="45.96356" lon="6.25767">
        <ele>1581.51</ele>
        <time>2017-08-04T17:29:45Z</time>
      </trkpt>
      <trkpt lat="45.96355" lon="6.25768">
        <ele>1581.99</ele>
        <time>2017-08-04T17:29:46Z</time>
      </trkpt>
      <trkpt lat="45.96354" lon="6.25768">
        <ele>1582.47</ele>
        <time>2017-08-04T17:29:47Z</time>
      </trkpt>
      <trkpt lat="45.96352" lon="6.25769">
        <ele>1582.47</ele>
        <time>2017-08-04T17:29:48Z</time>
      </trkpt>
      <trkpt lat="45.96351" lon="6.2577">
        <ele>1582.95</ele>
        <time>2017-08-04T17:29:49Z</time>
      </trkpt>
      <trkpt lat="45.96343" lon="6.25775">
        <ele>1584.39</ele>
        <time>2017-08-04T17:29:54Z</time>
      </trkpt>
      <trkpt lat="45.96341" lon="6.25776">
        <ele>1584.87</ele>
        <time>2017-08-04T17:29:55Z</time>
      </trkpt>
      <trkpt lat="45.9634" lon="6.25778">
        <ele>1584.87</ele>
        <time>2017-08-04T17:29:56Z</time>
      </trkpt>
      <trkpt lat="45.96339" lon="6.2578">
        <ele>1585.35</ele>
        <time>2017-08-04T17:29:57Z</time>
      </trkpt>
      <trkpt lat="45.96338" lon="6.25781">
        <ele>1585.83</ele>
        <time>2017-08-04T17:29:58Z</time>
      </trkpt>
      <trkpt lat="45.96331" lon="6.25791">
        <ele>1587.27</ele>
        <time>2017-08-04T17:30:04Z</time>
      </trkpt>
      <trkpt lat="45.96329" lon="6.25792">
        <ele>1587.27</ele>
        <time>2017-08-04T17:30:05Z</time>
      </trkpt>
      <trkpt lat="45.96328" lon="6.25793">
        <ele>1587.75</ele>
        <time>2017-08-04T17:30:06Z</time>
      </trkpt>
      <trkpt lat="45.96313" lon="6.258">
        <ele>1590.16</ele>
        <time>2017-08-04T17:30:16Z</time>
      </trkpt>
      <trkpt lat="45.96312" lon="6.258">
        <ele>1590.16</ele>
        <time>2017-08-04T17:30:17Z</time>
      </trkpt>
      <trkpt lat="45.96299" lon="6.25804">
        <ele>1593.04</ele>
        <time>2017-08-04T17:30:27Z</time>
      </trkpt>
      <trkpt lat="45.96293" lon="6.25807">
        <ele>1594.96</ele>
        <time>2017-08-04T17:30:32Z</time>
      </trkpt>
      <trkpt lat="45.96291" lon="6.25807">
        <ele>1594.96</ele>
        <time>2017-08-04T17:30:33Z</time>
      </trkpt>
      <trkpt lat="45.9629" lon="6.25807">
        <ele>1595.45</ele>
        <time>2017-08-04T17:30:34Z</time>
      </trkpt>
      <trkpt lat="45.96288" lon="6.25809">
        <ele>1596.41</ele>
        <time>2017-08-04T17:30:37Z</time>
      </trkpt>
      <trkpt lat="45.96287" lon="6.2581">
        <ele>1596.89</ele>
        <time>2017-08-04T17:30:38Z</time>
      </trkpt>
      <trkpt lat="45.96285" lon="6.25811">
        <ele>1596.89</ele>
        <time>2017-08-04T17:30:39Z</time>
      </trkpt>
      <trkpt lat="45.96284" lon="6.25812">
        <ele>1597.37</ele>
        <time>2017-08-04T17:30:40Z</time>
      </trkpt>
      <trkpt lat="45.96283" lon="6.25814">
        <ele>1597.37</ele>
        <time>2017-08-04T17:30:41Z</time>
      </trkpt>
      <trkpt lat="45.96282" lon="6.25816">
        <ele>1597.85</ele>
        <time>2017-08-04T17:30:42Z</time>
      </trkpt>
      <trkpt lat="45.96282" lon="6.25818">
        <ele>1598.33</ele>
        <time>2017-08-04T17:30:43Z</time>
      </trkpt>
      <trkpt lat="45.96281" lon="6.2582">
        <ele>1598.33</ele>
        <time>2017-08-04T17:30:44Z</time>
      </trkpt>
      <trkpt lat="45.9628" lon="6.25821">
        <ele>1598.81</ele>
        <time>2017-08-04T17:30:45Z</time>
      </trkpt>
      <trkpt lat="45.96278" lon="6.25823">
        <ele>1598.81</ele>
        <time>2017-08-04T17:30:46Z</time>
      </trkpt>
      <trkpt lat="45.96267" lon="6.25841">
        <ele>1602.17</ele>
        <time>2017-08-04T17:30:58Z</time>
      </trkpt>
      <trkpt lat="45.96246" lon="6.25845">
        <ele>1603.62</ele>
        <time>2017-08-04T17:31:11Z</time>
      </trkpt>
      <trkpt lat="45.96229" lon="6.25849">
        <ele>1605.54</ele>
        <time>2017-08-04T17:31:22Z</time>
      </trkpt>
      <trkpt lat="45.96228" lon="6.25851">
        <ele>1605.54</ele>
        <time>2017-08-04T17:31:23Z</time>
      </trkpt>
      <trkpt lat="45.96227" lon="6.25852">
        <ele>1606.02</ele>
        <time>2017-08-04T17:31:24Z</time>
      </trkpt>
      <trkpt lat="45.96223" lon="6.25854">
        <ele>1605.54</ele>
        <time>2017-08-04T17:31:31Z</time>
      </trkpt>
      <trkpt lat="45.9622" lon="6.25854">
        <ele>1604.58</ele>
        <time>2017-08-04T17:31:35Z</time>
      </trkpt>
      <trkpt lat="45.96217" lon="6.25855">
        <ele>1603.62</ele>
        <time>2017-08-04T17:31:40Z</time>
      </trkpt>
      <trkpt lat="45.96216" lon="6.25855">
        <ele>1603.14</ele>
        <time>2017-08-04T17:31:41Z</time>
      </trkpt>
      <trkpt lat="45.96212" lon="6.25856">
        <ele>1602.17</ele>
        <time>2017-08-04T17:31:45Z</time>
      </trkpt>
      <trkpt lat="45.96208" lon="6.25856">
        <ele>1601.21</ele>
        <time>2017-08-04T17:31:48Z</time>
      </trkpt>
      <trkpt lat="45.96204" lon="6.2586">
        <ele>1600.25</ele>
        <time>2017-08-04T17:31:51Z</time>
      </trkpt>
      <trkpt lat="45.96203" lon="6.25861">
        <ele>1600.25</ele>
        <time>2017-08-04T17:31:52Z</time>
      </trkpt>
      <trkpt lat="45.96202" lon="6.25863">
        <ele>1599.77</ele>
        <time>2017-08-04T17:31:53Z</time>
      </trkpt>
      <trkpt lat="45.96201" lon="6.25863">
        <ele>1599.77</ele>
        <time>2017-08-04T17:31:54Z</time>
      </trkpt>
      <trkpt lat="45.96199" lon="6.25864">
        <ele>1599.29</ele>
        <time>2017-08-04T17:31:56Z</time>
      </trkpt>
      <trkpt lat="45.96198" lon="6.25865">
        <ele>1599.29</ele>
        <time>2017-08-04T17:31:57Z</time>
      </trkpt>
      <trkpt lat="45.96197" lon="6.25866">
        <ele>1598.81</ele>
        <time>2017-08-04T17:31:58Z</time>
      </trkpt>
      <trkpt lat="45.96196" lon="6.25867">
        <ele>1598.81</ele>
        <time>2017-08-04T17:31:59Z</time>
      </trkpt>
      <trkpt lat="45.96195" lon="6.25868">
        <ele>1598.81</ele>
        <time>2017-08-04T17:32:00Z</time>
      </trkpt>
      <trkpt lat="45.96194" lon="6.25869">
        <ele>1598.33</ele>
        <time>2017-08-04T17:32:01Z</time>
      </trkpt>
      <trkpt lat="45.96193" lon="6.25869">
        <ele>1598.33</ele>
        <time>2017-08-04T17:32:02Z</time>
      </trkpt>
      <trkpt lat="45.96192" lon="6.25869">
        <ele>1597.85</ele>
        <time>2017-08-04T17:32:03Z</time>
      </trkpt>
      <trkpt lat="45.9619" lon="6.2587">
        <ele>1597.85</ele>
        <time>2017-08-04T17:32:04Z</time>
      </trkpt>
      <trkpt lat="45.96187" lon="6.2587">
        <ele>1598.33</ele>
        <time>2017-08-04T17:32:07Z</time>
      </trkpt>
      <trkpt lat="45.96172" lon="6.25874">
        <ele>1597.85</ele>
        <time>2017-08-04T17:32:19Z</time>
      </trkpt>
      <trkpt lat="45.9615" lon="6.25884">
        <ele>1598.81</ele>
        <time>2017-08-04T17:32:36Z</time>
      </trkpt>
      <trkpt lat="45.96145" lon="6.25887">
        <ele>1599.29</ele>
        <time>2017-08-04T17:32:39Z</time>
      </trkpt>
      <trkpt lat="45.9614" lon="6.25891">
        <ele>1599.29</ele>
        <time>2017-08-04T17:32:42Z</time>
      </trkpt>
      <trkpt lat="45.96138" lon="6.25893">
        <ele>1599.29</ele>
        <time>2017-08-04T17:32:43Z</time>
      </trkpt>
      <trkpt lat="45.96136" lon="6.25894">
        <ele>1599.29</ele>
        <time>2017-08-04T17:32:44Z</time>
      </trkpt>
      <trkpt lat="45.96135" lon="6.25896">
        <ele>1599.77</ele>
        <time>2017-08-04T17:32:45Z</time>
      </trkpt>
      <trkpt lat="45.96133" lon="6.25897">
        <ele>1599.77</ele>
        <time>2017-08-04T17:32:46Z</time>
      </trkpt>
      <trkpt lat="45.96131" lon="6.259">
        <ele>1599.77</ele>
        <time>2017-08-04T17:32:47Z</time>
      </trkpt>
      <trkpt lat="45.96129" lon="6.25902">
        <ele>1599.77</ele>
        <time>2017-08-04T17:32:48Z</time>
      </trkpt>
      <trkpt lat="45.96119" lon="6.25915">
        <ele>1600.25</ele>
        <time>2017-08-04T17:32:54Z</time>
      </trkpt>
      <trkpt lat="45.96114" lon="6.25921">
        <ele>1600.25</ele>
        <time>2017-08-04T17:32:56Z</time>
      </trkpt>
      <trkpt lat="45.96105" lon="6.25936">
        <ele>1599.77</ele>
        <time>2017-08-04T17:33:01Z</time>
      </trkpt>
      <trkpt lat="45.96103" lon="6.25937">
        <ele>1599.77</ele>
        <time>2017-08-04T17:33:02Z</time>
      </trkpt>
      <trkpt lat="45.96101" lon="6.2594">
        <ele>1599.77</ele>
        <time>2017-08-04T17:33:03Z</time>
      </trkpt>
      <trkpt lat="45.96098" lon="6.25941">
        <ele>1599.77</ele>
        <time>2017-08-04T17:33:04Z</time>
      </trkpt>
      <trkpt lat="45.96095" lon="6.25943">
        <ele>1599.77</ele>
        <time>2017-08-04T17:33:05Z</time>
      </trkpt>
      <trkpt lat="45.96093" lon="6.25946">
        <ele>1599.77</ele>
        <time>2017-08-04T17:33:06Z</time>
      </trkpt>
      <trkpt lat="45.96091" lon="6.2595">
        <ele>1599.29</ele>
        <time>2017-08-04T17:33:07Z</time>
      </trkpt>
      <trkpt lat="45.9608" lon="6.25964">
        <ele>1598.33</ele>
        <time>2017-08-04T17:33:13Z</time>
      </trkpt>
      <trkpt lat="45.96078" lon="6.25967">
        <ele>1598.33</ele>
        <time>2017-08-04T17:33:14Z</time>
      </trkpt>
      <trkpt lat="45.96077" lon="6.2597">
        <ele>1598.33</ele>
        <time>2017-08-04T17:33:15Z</time>
      </trkpt>
      <trkpt lat="45.96071" lon="6.25979">
        <ele>1597.37</ele>
        <time>2017-08-04T17:33:19Z</time>
      </trkpt>
      <trkpt lat="45.96069" lon="6.25981">
        <ele>1597.37</ele>
        <time>2017-08-04T17:33:20Z</time>
      </trkpt>
      <trkpt lat="45.96068" lon="6.25985">
        <ele>1597.37</ele>
        <time>2017-08-04T17:33:21Z</time>
      </trkpt>
      <trkpt lat="45.96068" lon="6.25987">
        <ele>1597.85</ele>
        <time>2017-08-04T17:33:22Z</time>
      </trkpt>
      <trkpt lat="45.96068" lon="6.25991">
        <ele>1597.85</ele>
        <time>2017-08-04T17:33:23Z</time>
      </trkpt>
      <trkpt lat="45.96067" lon="6.25994">
        <ele>1597.85</ele>
        <time>2017-08-04T17:33:24Z</time>
      </trkpt>
      <trkpt lat="45.96065" lon="6.25996">
        <ele>1597.85</ele>
        <time>2017-08-04T17:33:25Z</time>
      </trkpt>
      <trkpt lat="45.96065" lon="6.25999">
        <ele>1597.85</ele>
        <time>2017-08-04T17:33:26Z</time>
      </trkpt>
      <trkpt lat="45.96057" lon="6.26012">
        <ele>1596.89</ele>
        <time>2017-08-04T17:33:32Z</time>
      </trkpt>
      <trkpt lat="45.96057" lon="6.26014">
        <ele>1596.41</ele>
        <time>2017-08-04T17:33:33Z</time>
      </trkpt>
      <trkpt lat="45.96056" lon="6.26016">
        <ele>1596.41</ele>
        <time>2017-08-04T17:33:34Z</time>
      </trkpt>
      <trkpt lat="45.96055" lon="6.26019">
        <ele>1596.41</ele>
        <time>2017-08-04T17:33:35Z</time>
      </trkpt>
      <trkpt lat="45.96054" lon="6.26022">
        <ele>1596.41</ele>
        <time>2017-08-04T17:33:36Z</time>
      </trkpt>
      <trkpt lat="45.96052" lon="6.26024">
        <ele>1595.93</ele>
        <time>2017-08-04T17:33:37Z</time>
      </trkpt>
      <trkpt lat="45.96051" lon="6.26026">
        <ele>1595.93</ele>
        <time>2017-08-04T17:33:38Z</time>
      </trkpt>
      <trkpt lat="45.96049" lon="6.26026">
        <ele>1595.93</ele>
        <time>2017-08-04T17:33:39Z</time>
      </trkpt>
      <trkpt lat="45.96047" lon="6.26027">
        <ele>1595.93</ele>
        <time>2017-08-04T17:33:40Z</time>
      </trkpt>
      <trkpt lat="45.96044" lon="6.26027">
        <ele>1595.93</ele>
        <time>2017-08-04T17:33:41Z</time>
      </trkpt>
      <trkpt lat="45.96039" lon="6.26028">
        <ele>1595.45</ele>
        <time>2017-08-04T17:33:43Z</time>
      </trkpt>
      <trkpt lat="45.96037" lon="6.26029">
        <ele>1595.93</ele>
        <time>2017-08-04T17:33:44Z</time>
      </trkpt>
      <trkpt lat="45.96016" lon="6.26037">
        <ele>1597.37</ele>
        <time>2017-08-04T17:33:54Z</time>
      </trkpt>
      <trkpt lat="45.96005" lon="6.26036">
        <ele>1597.85</ele>
        <time>2017-08-04T17:34:00Z</time>
      </trkpt>
      <trkpt lat="45.95984" lon="6.26039">
        <ele>1596.89</ele>
        <time>2017-08-04T17:34:10Z</time>
      </trkpt>
      <trkpt lat="45.9597" lon="6.26044">
        <ele>1595.45</ele>
        <time>2017-08-04T17:34:17Z</time>
      </trkpt>
      <trkpt lat="45.95968" lon="6.26047">
        <ele>1595.45</ele>
        <time>2017-08-04T17:34:18Z</time>
      </trkpt>
      <trkpt lat="45.95961" lon="6.26063">
        <ele>1595.93</ele>
        <time>2017-08-04T17:34:24Z</time>
      </trkpt>
      <trkpt lat="45.95959" lon="6.26064">
        <ele>1596.41</ele>
        <time>2017-08-04T17:34:25Z</time>
      </trkpt>
      <trkpt lat="45.95958" lon="6.26066">
        <ele>1596.41</ele>
        <time>2017-08-04T17:34:26Z</time>
      </trkpt>
      <trkpt lat="45.95957" lon="6.26067">
        <ele>1596.89</ele>
        <time>2017-08-04T17:34:27Z</time>
      </trkpt>
      <trkpt lat="45.95956" lon="6.26069">
        <ele>1596.89</ele>
        <time>2017-08-04T17:34:28Z</time>
      </trkpt>
      <trkpt lat="45.95955" lon="6.26071">
        <ele>1597.37</ele>
        <time>2017-08-04T17:34:29Z</time>
      </trkpt>
      <trkpt lat="45.95954" lon="6.26074">
        <ele>1597.85</ele>
        <time>2017-08-04T17:34:31Z</time>
      </trkpt>
      <trkpt lat="45.95954" lon="6.26075">
        <ele>1597.85</ele>
        <time>2017-08-04T17:34:32Z</time>
      </trkpt>
      <trkpt lat="45.95952" lon="6.26077">
        <ele>1598.81</ele>
        <time>2017-08-04T17:34:41Z</time>
      </trkpt>
      <trkpt lat="45.95952" lon="6.26077">
        <ele>1598.81</ele>
        <time>2017-08-04T17:34:45Z</time>
      </trkpt>
      <trkpt lat="45.95952" lon="6.26077">
        <ele>1598.81</ele>
        <time>2017-08-04T17:34:49Z</time>
      </trkpt>
      <trkpt lat="45.95952" lon="6.26076">
        <ele>1598.81</ele>
        <time>2017-08-04T17:34:51Z</time>
      </trkpt>
      <trkpt lat="45.95952" lon="6.26075">
        <ele>1598.81</ele>
        <time>2017-08-04T17:34:55Z</time>
      </trkpt>
      <trkpt lat="45.95952" lon="6.26076">
        <ele>1598.81</ele>
        <time>2017-08-04T17:34:58Z</time>
      </trkpt>
      <trkpt lat="45.95952" lon="6.26076">
        <ele>1598.81</ele>
        <time>2017-08-04T17:35:01Z</time>
      </trkpt>
      <trkpt lat="45.95952" lon="6.26076">
        <ele>1598.81</ele>
        <time>2017-08-04T17:35:03Z</time>
      </trkpt>
      <trkpt lat="45.95952" lon="6.26076">
        <ele>1598.81</ele>
        <time>2017-08-04T17:35:05Z</time>
      </trkpt>
      <trkpt lat="45.95952" lon="6.26076">
        <ele>1598.81</ele>
        <time>2017-08-04T17:35:07Z</time>
      </trkpt>
      <trkpt lat="45.95952" lon="6.26076">
        <ele>1598.81</ele>
        <time>2017-08-04T17:35:11Z</time>
      </trkpt>
      <trkpt lat="45.95952" lon="6.26076">
        <ele>1598.81</ele>
        <time>2017-08-04T17:35:13Z</time>
      </trkpt>
      <trkpt lat="45.95952" lon="6.26076">
        <ele>1598.81</ele>
        <time>2017-08-04T17:35:19Z</time>
      </trkpt>
      <trkpt lat="45.95953" lon="6.26078">
        <ele>1598.33</ele>
        <time>2017-08-04T17:35:29Z</time>
      </trkpt>
      <trkpt lat="45.95953" lon="6.26077">
        <ele>1598.33</ele>
        <time>2017-08-04T17:35:31Z</time>
      </trkpt>
      <trkpt lat="45.95953" lon="6.26077">
        <ele>1598.33</ele>
        <time>2017-08-04T17:35:35Z</time>
      </trkpt>
      <trkpt lat="45.95954" lon="6.26082">
        <ele>1598.81</ele>
        <time>2017-08-04T17:35:55Z</time>
      </trkpt>
      <trkpt lat="45.95954" lon="6.26084">
        <ele>1598.81</ele>
        <time>2017-08-04T17:35:56Z</time>
      </trkpt>
      <trkpt lat="45.95953" lon="6.26086">
        <ele>1598.81</ele>
        <time>2017-08-04T17:35:57Z</time>
      </trkpt>
      <trkpt lat="45.95953" lon="6.26088">
        <ele>1599.29</ele>
        <time>2017-08-04T17:35:58Z</time>
      </trkpt>
      <trkpt lat="45.95952" lon="6.26091">
        <ele>1599.29</ele>
        <time>2017-08-04T17:35:59Z</time>
      </trkpt>
      <trkpt lat="45.95952" lon="6.26093">
        <ele>1599.29</ele>
        <time>2017-08-04T17:36:00Z</time>
      </trkpt>
      <trkpt lat="45.95951" lon="6.26097">
        <ele>1599.29</ele>
        <time>2017-08-04T17:36:02Z</time>
      </trkpt>
      <trkpt lat="45.9595" lon="6.26101">
        <ele>1598.81</ele>
        <time>2017-08-04T17:36:04Z</time>
      </trkpt>
      <trkpt lat="45.95949" lon="6.26102">
        <ele>1598.81</ele>
        <time>2017-08-04T17:36:05Z</time>
      </trkpt>
      <trkpt lat="45.95951" lon="6.26105">
        <ele>1597.37</ele>
        <time>2017-08-04T17:36:09Z</time>
      </trkpt>
      <trkpt lat="45.95951" lon="6.26107">
        <ele>1596.89</ele>
        <time>2017-08-04T17:36:10Z</time>
      </trkpt>
      <trkpt lat="45.95951" lon="6.26109">
        <ele>1596.41</ele>
        <time>2017-08-04T17:36:11Z</time>
      </trkpt>
      <trkpt lat="45.9595" lon="6.26112">
        <ele>1596.41</ele>
        <time>2017-08-04T17:36:12Z</time>
      </trkpt>
      <trkpt lat="45.9595" lon="6.26114">
        <ele>1596.41</ele>
        <time>2017-08-04T17:36:13Z</time>
      </trkpt>
      <trkpt lat="45.9595" lon="6.26117">
        <ele>1594.96</ele>
        <time>2017-08-04T17:36:14Z</time>
      </trkpt>
      <trkpt lat="45.95949" lon="6.26119">
        <ele>1594</ele>
        <time>2017-08-04T17:36:15Z</time>
      </trkpt>
      <trkpt lat="45.9595" lon="6.26122">
        <ele>1593.52</ele>
        <time>2017-08-04T17:36:16Z</time>
      </trkpt>
      <trkpt lat="45.9595" lon="6.26125">
        <ele>1593.04</ele>
        <time>2017-08-04T17:36:17Z</time>
      </trkpt>
      <trkpt lat="45.9595" lon="6.26128">
        <ele>1592.56</ele>
        <time>2017-08-04T17:36:18Z</time>
      </trkpt>
      <trkpt lat="45.95949" lon="6.26132">
        <ele>1592.08</ele>
        <time>2017-08-04T17:36:20Z</time>
      </trkpt>
      <trkpt lat="45.9595" lon="6.26135">
        <ele>1591.6</ele>
        <time>2017-08-04T17:36:21Z</time>
      </trkpt>
      <trkpt lat="45.9595" lon="6.26138">
        <ele>1591.6</ele>
        <time>2017-08-04T17:36:22Z</time>
      </trkpt>
      <trkpt lat="45.95949" lon="6.26147">
        <ele>1590.64</ele>
        <time>2017-08-04T17:36:25Z</time>
      </trkpt>
      <trkpt lat="45.9595" lon="6.26153">
        <ele>1589.2</ele>
        <time>2017-08-04T17:36:28Z</time>
      </trkpt>
      <trkpt lat="45.95952" lon="6.26154">
        <ele>1589.2</ele>
        <time>2017-08-04T17:36:29Z</time>
      </trkpt>
      <trkpt lat="45.95953" lon="6.26154">
        <ele>1588.72</ele>
        <time>2017-08-04T17:36:30Z</time>
      </trkpt>
      <trkpt lat="45.95955" lon="6.26155">
        <ele>1588.24</ele>
        <time>2017-08-04T17:36:31Z</time>
      </trkpt>
      <trkpt lat="45.95957" lon="6.26157">
        <ele>1587.75</ele>
        <time>2017-08-04T17:36:32Z</time>
      </trkpt>
      <trkpt lat="45.95959" lon="6.26159">
        <ele>1587.27</ele>
        <time>2017-08-04T17:36:33Z</time>
      </trkpt>
      <trkpt lat="45.95961" lon="6.26162">
        <ele>1586.79</ele>
        <time>2017-08-04T17:36:34Z</time>
      </trkpt>
      <trkpt lat="45.95962" lon="6.26165">
        <ele>1586.79</ele>
        <time>2017-08-04T17:36:35Z</time>
      </trkpt>
      <trkpt lat="45.95963" lon="6.26168">
        <ele>1586.31</ele>
        <time>2017-08-04T17:36:36Z</time>
      </trkpt>
      <trkpt lat="45.95972" lon="6.26182">
        <ele>1586.31</ele>
        <time>2017-08-04T17:36:43Z</time>
      </trkpt>
      <trkpt lat="45.95974" lon="6.26195">
        <ele>1586.79</ele>
        <time>2017-08-04T17:36:48Z</time>
      </trkpt>
      <trkpt lat="45.95974" lon="6.26197">
        <ele>1586.79</ele>
        <time>2017-08-04T17:36:49Z</time>
      </trkpt>
      <trkpt lat="45.95974" lon="6.26198">
        <ele>1587.27</ele>
        <time>2017-08-04T17:36:50Z</time>
      </trkpt>
      <trkpt lat="45.95976" lon="6.262">
        <ele>1587.75</ele>
        <time>2017-08-04T17:36:51Z</time>
      </trkpt>
      <trkpt lat="45.95977" lon="6.26201">
        <ele>1587.75</ele>
        <time>2017-08-04T17:36:52Z</time>
      </trkpt>
      <trkpt lat="45.95978" lon="6.26202">
        <ele>1587.75</ele>
        <time>2017-08-04T17:36:53Z</time>
      </trkpt>
      <trkpt lat="45.95979" lon="6.26204">
        <ele>1588.24</ele>
        <time>2017-08-04T17:36:54Z</time>
      </trkpt>
      <trkpt lat="45.95979" lon="6.26206">
        <ele>1588.24</ele>
        <time>2017-08-04T17:36:55Z</time>
      </trkpt>
      <trkpt lat="45.9598" lon="6.26209">
        <ele>1588.24</ele>
        <time>2017-08-04T17:36:56Z</time>
      </trkpt>
      <trkpt lat="45.9598" lon="6.26212">
        <ele>1588.72</ele>
        <time>2017-08-04T17:36:57Z</time>
      </trkpt>
      <trkpt lat="45.9598" lon="6.26214">
        <ele>1588.72</ele>
        <time>2017-08-04T17:36:58Z</time>
      </trkpt>
      <trkpt lat="45.95979" lon="6.26216">
        <ele>1588.72</ele>
        <time>2017-08-04T17:36:59Z</time>
      </trkpt>
      <trkpt lat="45.95976" lon="6.2622">
        <ele>1588.24</ele>
        <time>2017-08-04T17:37:01Z</time>
      </trkpt>
      <trkpt lat="45.95975" lon="6.26223">
        <ele>1588.24</ele>
        <time>2017-08-04T17:37:02Z</time>
      </trkpt>
      <trkpt lat="45.95974" lon="6.26226">
        <ele>1588.24</ele>
        <time>2017-08-04T17:37:03Z</time>
      </trkpt>
      <trkpt lat="45.95973" lon="6.26229">
        <ele>1587.75</ele>
        <time>2017-08-04T17:37:04Z</time>
      </trkpt>
      <trkpt lat="45.95973" lon="6.26232">
        <ele>1587.75</ele>
        <time>2017-08-04T17:37:05Z</time>
      </trkpt>
      <trkpt lat="45.95974" lon="6.26234">
        <ele>1587.27</ele>
        <time>2017-08-04T17:37:06Z</time>
      </trkpt>
      <trkpt lat="45.95975" lon="6.26236">
        <ele>1587.27</ele>
        <time>2017-08-04T17:37:07Z</time>
      </trkpt>
      <trkpt lat="45.95975" lon="6.26238">
        <ele>1587.27</ele>
        <time>2017-08-04T17:37:08Z</time>
      </trkpt>
      <trkpt lat="45.95983" lon="6.26254">
        <ele>1588.24</ele>
        <time>2017-08-04T17:37:16Z</time>
      </trkpt>
      <trkpt lat="45.95984" lon="6.26255">
        <ele>1588.24</ele>
        <time>2017-08-04T17:37:17Z</time>
      </trkpt>
      <trkpt lat="45.95985" lon="6.26256">
        <ele>1588.24</ele>
        <time>2017-08-04T17:37:18Z</time>
      </trkpt>
      <trkpt lat="45.95986" lon="6.26257">
        <ele>1588.72</ele>
        <time>2017-08-04T17:37:19Z</time>
      </trkpt>
      <trkpt lat="45.95987" lon="6.26258">
        <ele>1588.72</ele>
        <time>2017-08-04T17:37:20Z</time>
      </trkpt>
      <trkpt lat="45.95988" lon="6.26259">
        <ele>1589.2</ele>
        <time>2017-08-04T17:37:21Z</time>
      </trkpt>
      <trkpt lat="45.95989" lon="6.2626">
        <ele>1589.68</ele>
        <time>2017-08-04T17:37:22Z</time>
      </trkpt>
      <trkpt lat="45.95989" lon="6.26262">
        <ele>1590.16</ele>
        <time>2017-08-04T17:37:23Z</time>
      </trkpt>
      <trkpt lat="45.95988" lon="6.26264">
        <ele>1590.64</ele>
        <time>2017-08-04T17:37:24Z</time>
      </trkpt>
      <trkpt lat="45.95989" lon="6.26266">
        <ele>1591.12</ele>
        <time>2017-08-04T17:37:26Z</time>
      </trkpt>
      <trkpt lat="45.95988" lon="6.26269">
        <ele>1591.6</ele>
        <time>2017-08-04T17:37:28Z</time>
      </trkpt>
      <trkpt lat="45.95988" lon="6.26272">
        <ele>1591.6</ele>
        <time>2017-08-04T17:37:29Z</time>
      </trkpt>
      <trkpt lat="45.95987" lon="6.26275">
        <ele>1591.6</ele>
        <time>2017-08-04T17:37:30Z</time>
      </trkpt>
      <trkpt lat="45.95985" lon="6.26288">
        <ele>1592.08</ele>
        <time>2017-08-04T17:37:35Z</time>
      </trkpt>
      <trkpt lat="45.95985" lon="6.26291">
        <ele>1592.08</ele>
        <time>2017-08-04T17:37:36Z</time>
      </trkpt>
      <trkpt lat="45.95984" lon="6.26294">
        <ele>1592.08</ele>
        <time>2017-08-04T17:37:37Z</time>
      </trkpt>
      <trkpt lat="45.95984" lon="6.26297">
        <ele>1592.08</ele>
        <time>2017-08-04T17:37:38Z</time>
      </trkpt>
      <trkpt lat="45.95984" lon="6.263">
        <ele>1592.08</ele>
        <time>2017-08-04T17:37:39Z</time>
      </trkpt>
      <trkpt lat="45.95983" lon="6.26302">
        <ele>1592.08</ele>
        <time>2017-08-04T17:37:40Z</time>
      </trkpt>
      <trkpt lat="45.95983" lon="6.26305">
        <ele>1592.08</ele>
        <time>2017-08-04T17:37:41Z</time>
      </trkpt>
      <trkpt lat="45.95983" lon="6.26308">
        <ele>1592.08</ele>
        <time>2017-08-04T17:37:42Z</time>
      </trkpt>
      <trkpt lat="45.95982" lon="6.26311">
        <ele>1591.6</ele>
        <time>2017-08-04T17:37:43Z</time>
      </trkpt>
      <trkpt lat="45.95983" lon="6.26314">
        <ele>1591.6</ele>
        <time>2017-08-04T17:37:44Z</time>
      </trkpt>
      <trkpt lat="45.95983" lon="6.26318">
        <ele>1591.6</ele>
        <time>2017-08-04T17:37:45Z</time>
      </trkpt>
      <trkpt lat="45.95983" lon="6.26321">
        <ele>1591.6</ele>
        <time>2017-08-04T17:37:46Z</time>
      </trkpt>
      <trkpt lat="45.95983" lon="6.26324">
        <ele>1591.6</ele>
        <time>2017-08-04T17:37:47Z</time>
      </trkpt>
      <trkpt lat="45.95983" lon="6.26328">
        <ele>1592.08</ele>
        <time>2017-08-04T17:37:48Z</time>
      </trkpt>
      <trkpt lat="45.95982" lon="6.2633">
        <ele>1592.08</ele>
        <time>2017-08-04T17:37:49Z</time>
      </trkpt>
      <trkpt lat="45.95982" lon="6.2635">
        <ele>1592.08</ele>
        <time>2017-08-04T17:37:55Z</time>
      </trkpt>
      <trkpt lat="45.95982" lon="6.26352">
        <ele>1592.08</ele>
        <time>2017-08-04T17:37:56Z</time>
      </trkpt>
      <trkpt lat="45.95983" lon="6.26355">
        <ele>1592.08</ele>
        <time>2017-08-04T17:37:57Z</time>
      </trkpt>
      <trkpt lat="45.95983" lon="6.26357">
        <ele>1592.08</ele>
        <time>2017-08-04T17:37:58Z</time>
      </trkpt>
      <trkpt lat="45.95984" lon="6.26359">
        <ele>1591.6</ele>
        <time>2017-08-04T17:37:59Z</time>
      </trkpt>
      <trkpt lat="45.95984" lon="6.26361">
        <ele>1591.6</ele>
        <time>2017-08-04T17:38:00Z</time>
      </trkpt>
      <trkpt lat="45.95985" lon="6.26364">
        <ele>1591.12</ele>
        <time>2017-08-04T17:38:01Z</time>
      </trkpt>
      <trkpt lat="45.95986" lon="6.26366">
        <ele>1590.64</ele>
        <time>2017-08-04T17:38:02Z</time>
      </trkpt>
      <trkpt lat="45.95987" lon="6.26369">
        <ele>1590.64</ele>
        <time>2017-08-04T17:38:03Z</time>
      </trkpt>
      <trkpt lat="45.95988" lon="6.26372">
        <ele>1590.16</ele>
        <time>2017-08-04T17:38:04Z</time>
      </trkpt>
      <trkpt lat="45.95989" lon="6.26375">
        <ele>1590.16</ele>
        <time>2017-08-04T17:38:05Z</time>
      </trkpt>
      <trkpt lat="45.95989" lon="6.26377">
        <ele>1589.68</ele>
        <time>2017-08-04T17:38:06Z</time>
      </trkpt>
      <trkpt lat="45.95991" lon="6.26388">
        <ele>1587.75</ele>
        <time>2017-08-04T17:38:11Z</time>
      </trkpt>
      <trkpt lat="45.95991" lon="6.2639">
        <ele>1587.75</ele>
        <time>2017-08-04T17:38:12Z</time>
      </trkpt>
      <trkpt lat="45.95991" lon="6.26393">
        <ele>1586.79</ele>
        <time>2017-08-04T17:38:13Z</time>
      </trkpt>
      <trkpt lat="45.95992" lon="6.26395">
        <ele>1586.31</ele>
        <time>2017-08-04T17:38:14Z</time>
      </trkpt>
      <trkpt lat="45.95993" lon="6.26398">
        <ele>1586.31</ele>
        <time>2017-08-04T17:38:15Z</time>
      </trkpt>
      <trkpt lat="45.95995" lon="6.26401">
        <ele>1585.83</ele>
        <time>2017-08-04T17:38:16Z</time>
      </trkpt>
      <trkpt lat="45.95996" lon="6.26404">
        <ele>1584.87</ele>
        <time>2017-08-04T17:38:17Z</time>
      </trkpt>
      <trkpt lat="45.95996" lon="6.26408">
        <ele>1584.39</ele>
        <time>2017-08-04T17:38:18Z</time>
      </trkpt>
      <trkpt lat="45.95996" lon="6.26414">
        <ele>1584.39</ele>
        <time>2017-08-04T17:38:20Z</time>
      </trkpt>
      <trkpt lat="45.95995" lon="6.26416">
        <ele>1584.39</ele>
        <time>2017-08-04T17:38:21Z</time>
      </trkpt>
      <trkpt lat="45.95994" lon="6.26419">
        <ele>1583.91</ele>
        <time>2017-08-04T17:38:22Z</time>
      </trkpt>
      <trkpt lat="45.95993" lon="6.26425">
        <ele>1583.91</ele>
        <time>2017-08-04T17:38:24Z</time>
      </trkpt>
      <trkpt lat="45.95989" lon="6.26449">
        <ele>1581.51</ele>
        <time>2017-08-04T17:38:31Z</time>
      </trkpt>
      <trkpt lat="45.95989" lon="6.26452">
        <ele>1581.51</ele>
        <time>2017-08-04T17:38:32Z</time>
      </trkpt>
      <trkpt lat="45.9599" lon="6.26455">
        <ele>1581.99</ele>
        <time>2017-08-04T17:38:33Z</time>
      </trkpt>
      <trkpt lat="45.95992" lon="6.26457">
        <ele>1581.51</ele>
        <time>2017-08-04T17:38:34Z</time>
      </trkpt>
      <trkpt lat="45.95993" lon="6.2646">
        <ele>1581.03</ele>
        <time>2017-08-04T17:38:35Z</time>
      </trkpt>
      <trkpt lat="45.95994" lon="6.26462">
        <ele>1581.03</ele>
        <time>2017-08-04T17:38:36Z</time>
      </trkpt>
      <trkpt lat="45.95994" lon="6.26464">
        <ele>1581.03</ele>
        <time>2017-08-04T17:38:37Z</time>
      </trkpt>
      <trkpt lat="45.95995" lon="6.26466">
        <ele>1581.03</ele>
        <time>2017-08-04T17:38:38Z</time>
      </trkpt>
      <trkpt lat="45.95994" lon="6.26468">
        <ele>1580.54</ele>
        <time>2017-08-04T17:38:39Z</time>
      </trkpt>
      <trkpt lat="45.95994" lon="6.26469">
        <ele>1580.54</ele>
        <time>2017-08-04T17:38:40Z</time>
      </trkpt>
      <trkpt lat="45.95994" lon="6.26471">
        <ele>1580.06</ele>
        <time>2017-08-04T17:38:41Z</time>
      </trkpt>
      <trkpt lat="45.95994" lon="6.26474">
        <ele>1579.58</ele>
        <time>2017-08-04T17:38:42Z</time>
      </trkpt>
      <trkpt lat="45.95993" lon="6.26477">
        <ele>1579.1</ele>
        <time>2017-08-04T17:38:43Z</time>
      </trkpt>
      <trkpt lat="45.95993" lon="6.26479">
        <ele>1578.62</ele>
        <time>2017-08-04T17:38:44Z</time>
      </trkpt>
      <trkpt lat="45.95993" lon="6.26481">
        <ele>1578.14</ele>
        <time>2017-08-04T17:38:45Z</time>
      </trkpt>
      <trkpt lat="45.95994" lon="6.26483">
        <ele>1578.14</ele>
        <time>2017-08-04T17:38:46Z</time>
      </trkpt>
      <trkpt lat="45.95994" lon="6.26485">
        <ele>1578.14</ele>
        <time>2017-08-04T17:38:47Z</time>
      </trkpt>
      <trkpt lat="45.95993" lon="6.26487">
        <ele>1578.14</ele>
        <time>2017-08-04T17:38:48Z</time>
      </trkpt>
      <trkpt lat="45.95991" lon="6.26489">
        <ele>1577.66</ele>
        <time>2017-08-04T17:38:49Z</time>
      </trkpt>
      <trkpt lat="45.9599" lon="6.26491">
        <ele>1577.18</ele>
        <time>2017-08-04T17:38:50Z</time>
      </trkpt>
      <trkpt lat="45.95989" lon="6.26493">
        <ele>1577.18</ele>
        <time>2017-08-04T17:38:51Z</time>
      </trkpt>
      <trkpt lat="45.95988" lon="6.26495">
        <ele>1577.18</ele>
        <time>2017-08-04T17:38:52Z</time>
      </trkpt>
      <trkpt lat="45.95987" lon="6.26497">
        <ele>1576.22</ele>
        <time>2017-08-04T17:38:53Z</time>
      </trkpt>
      <trkpt lat="45.95987" lon="6.26499">
        <ele>1575.74</ele>
        <time>2017-08-04T17:38:55Z</time>
      </trkpt>
      <trkpt lat="45.95988" lon="6.26503">
        <ele>1574.3</ele>
        <time>2017-08-04T17:38:58Z</time>
      </trkpt>
      <trkpt lat="45.95988" lon="6.26506">
        <ele>1573.82</ele>
        <time>2017-08-04T17:38:59Z</time>
      </trkpt>
      <trkpt lat="45.95988" lon="6.26508">
        <ele>1573.82</ele>
        <time>2017-08-04T17:39:00Z</time>
      </trkpt>
      <trkpt lat="45.95988" lon="6.2651">
        <ele>1573.33</ele>
        <time>2017-08-04T17:39:01Z</time>
      </trkpt>
      <trkpt lat="45.95989" lon="6.26511">
        <ele>1573.33</ele>
        <time>2017-08-04T17:39:02Z</time>
      </trkpt>
      <trkpt lat="45.95989" lon="6.26513">
        <ele>1573.82</ele>
        <time>2017-08-04T17:39:03Z</time>
      </trkpt>
      <trkpt lat="45.95989" lon="6.26515">
        <ele>1573.82</ele>
        <time>2017-08-04T17:39:04Z</time>
      </trkpt>
      <trkpt lat="45.95992" lon="6.26527">
        <ele>1574.78</ele>
        <time>2017-08-04T17:39:10Z</time>
      </trkpt>
      <trkpt lat="45.95993" lon="6.26528">
        <ele>1574.78</ele>
        <time>2017-08-04T17:39:11Z</time>
      </trkpt>
      <trkpt lat="45.95994" lon="6.26529">
        <ele>1574.78</ele>
        <time>2017-08-04T17:39:12Z</time>
      </trkpt>
      <trkpt lat="45.95995" lon="6.2653">
        <ele>1574.78</ele>
        <time>2017-08-04T17:39:13Z</time>
      </trkpt>
      <trkpt lat="45.95998" lon="6.26531">
        <ele>1573.82</ele>
        <time>2017-08-04T17:39:16Z</time>
      </trkpt>
      <trkpt lat="45.95999" lon="6.26533">
        <ele>1573.82</ele>
        <time>2017-08-04T17:39:17Z</time>
      </trkpt>
      <trkpt lat="45.95999" lon="6.26535">
        <ele>1573.82</ele>
        <time>2017-08-04T17:39:18Z</time>
      </trkpt>
      <trkpt lat="45.96" lon="6.26542">
        <ele>1572.85</ele>
        <time>2017-08-04T17:39:21Z</time>
      </trkpt>
      <trkpt lat="45.95995" lon="6.26561">
        <ele>1571.41</ele>
        <time>2017-08-04T17:39:28Z</time>
      </trkpt>
      <trkpt lat="45.95993" lon="6.26562">
        <ele>1571.41</ele>
        <time>2017-08-04T17:39:29Z</time>
      </trkpt>
      <trkpt lat="45.95991" lon="6.26564">
        <ele>1571.41</ele>
        <time>2017-08-04T17:39:30Z</time>
      </trkpt>
      <trkpt lat="45.95979" lon="6.26573">
        <ele>1568.53</ele>
        <time>2017-08-04T17:39:38Z</time>
      </trkpt>
      <trkpt lat="45.95977" lon="6.26577">
        <ele>1568.05</ele>
        <time>2017-08-04T17:39:39Z</time>
      </trkpt>
      <trkpt lat="45.95975" lon="6.2658">
        <ele>1567.57</ele>
        <time>2017-08-04T17:39:40Z</time>
      </trkpt>
      <trkpt lat="45.95974" lon="6.26583">
        <ele>1567.09</ele>
        <time>2017-08-04T17:39:41Z</time>
      </trkpt>
      <trkpt lat="45.95973" lon="6.26585">
        <ele>1567.57</ele>
        <time>2017-08-04T17:39:42Z</time>
      </trkpt>
      <trkpt lat="45.95972" lon="6.26586">
        <ele>1567.57</ele>
        <time>2017-08-04T17:39:43Z</time>
      </trkpt>
      <trkpt lat="45.95971" lon="6.26588">
        <ele>1567.57</ele>
        <time>2017-08-04T17:39:44Z</time>
      </trkpt>
      <trkpt lat="45.95972" lon="6.26589">
        <ele>1568.05</ele>
        <time>2017-08-04T17:39:45Z</time>
      </trkpt>
      <trkpt lat="45.95972" lon="6.26591">
        <ele>1568.05</ele>
        <time>2017-08-04T17:39:46Z</time>
      </trkpt>
      <trkpt lat="45.95969" lon="6.26599">
        <ele>1568.05</ele>
        <time>2017-08-04T17:39:50Z</time>
      </trkpt>
      <trkpt lat="45.95962" lon="6.26607">
        <ele>1569.97</ele>
        <time>2017-08-04T17:39:56Z</time>
      </trkpt>
      <trkpt lat="45.95961" lon="6.26609">
        <ele>1569.97</ele>
        <time>2017-08-04T17:39:57Z</time>
      </trkpt>
      <trkpt lat="45.9596" lon="6.26611">
        <ele>1570.45</ele>
        <time>2017-08-04T17:39:58Z</time>
      </trkpt>
      <trkpt lat="45.9596" lon="6.26614">
        <ele>1570.45</ele>
        <time>2017-08-04T17:39:59Z</time>
      </trkpt>
      <trkpt lat="45.9596" lon="6.26616">
        <ele>1570.93</ele>
        <time>2017-08-04T17:40:00Z</time>
      </trkpt>
      <trkpt lat="45.95957" lon="6.26627">
        <ele>1573.82</ele>
        <time>2017-08-04T17:40:06Z</time>
      </trkpt>
      <trkpt lat="45.95955" lon="6.26628">
        <ele>1573.82</ele>
        <time>2017-08-04T17:40:07Z</time>
      </trkpt>
      <trkpt lat="45.95954" lon="6.26629">
        <ele>1573.82</ele>
        <time>2017-08-04T17:40:08Z</time>
      </trkpt>
      <trkpt lat="45.95953" lon="6.2663">
        <ele>1574.3</ele>
        <time>2017-08-04T17:40:09Z</time>
      </trkpt>
      <trkpt lat="45.95951" lon="6.26632">
        <ele>1574.3</ele>
        <time>2017-08-04T17:40:10Z</time>
      </trkpt>
      <trkpt lat="45.95951" lon="6.26635">
        <ele>1574.78</ele>
        <time>2017-08-04T17:40:11Z</time>
      </trkpt>
      <trkpt lat="45.9595" lon="6.26637">
        <ele>1574.78</ele>
        <time>2017-08-04T17:40:12Z</time>
      </trkpt>
      <trkpt lat="45.95949" lon="6.26641">
        <ele>1574.3</ele>
        <time>2017-08-04T17:40:13Z</time>
      </trkpt>
      <trkpt lat="45.95948" lon="6.26645">
        <ele>1574.3</ele>
        <time>2017-08-04T17:40:14Z</time>
      </trkpt>
      <trkpt lat="45.9594" lon="6.26658">
        <ele>1574.78</ele>
        <time>2017-08-04T17:40:21Z</time>
      </trkpt>
      <trkpt lat="45.95938" lon="6.2666">
        <ele>1574.3</ele>
        <time>2017-08-04T17:40:22Z</time>
      </trkpt>
      <trkpt lat="45.95937" lon="6.26662">
        <ele>1574.3</ele>
        <time>2017-08-04T17:40:23Z</time>
      </trkpt>
      <trkpt lat="45.95935" lon="6.26663">
        <ele>1574.3</ele>
        <time>2017-08-04T17:40:24Z</time>
      </trkpt>
      <trkpt lat="45.95933" lon="6.26664">
        <ele>1573.82</ele>
        <time>2017-08-04T17:40:25Z</time>
      </trkpt>
      <trkpt lat="45.95918" lon="6.26682">
        <ele>1572.37</ele>
        <time>2017-08-04T17:40:34Z</time>
      </trkpt>
      <trkpt lat="45.9591" lon="6.26705">
        <ele>1570.45</ele>
        <time>2017-08-04T17:40:43Z</time>
      </trkpt>
      <trkpt lat="45.95903" lon="6.26734">
        <ele>1567.57</ele>
        <time>2017-08-04T17:40:52Z</time>
      </trkpt>
      <trkpt lat="45.959" lon="6.26754">
        <ele>1566.61</ele>
        <time>2017-08-04T17:40:57Z</time>
      </trkpt>
      <trkpt lat="45.95901" lon="6.26758">
        <ele>1566.12</ele>
        <time>2017-08-04T17:40:58Z</time>
      </trkpt>
      <trkpt lat="45.95901" lon="6.26762">
        <ele>1566.12</ele>
        <time>2017-08-04T17:40:59Z</time>
      </trkpt>
      <trkpt lat="45.95896" lon="6.26791">
        <ele>1564.2</ele>
        <time>2017-08-04T17:41:09Z</time>
      </trkpt>
      <trkpt lat="45.95895" lon="6.26799">
        <ele>1563.24</ele>
        <time>2017-08-04T17:41:13Z</time>
      </trkpt>
      <trkpt lat="45.95897" lon="6.2681">
        <ele>1561.8</ele>
        <time>2017-08-04T17:41:19Z</time>
      </trkpt>
      <trkpt lat="45.95899" lon="6.26819">
        <ele>1559.4</ele>
        <time>2017-08-04T17:41:23Z</time>
      </trkpt>
      <trkpt lat="45.95898" lon="6.26822">
        <ele>1558.92</ele>
        <time>2017-08-04T17:41:24Z</time>
      </trkpt>
      <trkpt lat="45.95898" lon="6.26849">
        <ele>1558.92</ele>
        <time>2017-08-04T17:41:35Z</time>
      </trkpt>
      <trkpt lat="45.95899" lon="6.26851">
        <ele>1558.43</ele>
        <time>2017-08-04T17:41:37Z</time>
      </trkpt>
      <trkpt lat="45.959" lon="6.26852">
        <ele>1558.43</ele>
        <time>2017-08-04T17:41:38Z</time>
      </trkpt>
      <trkpt lat="45.95902" lon="6.26858">
        <ele>1556.03</ele>
        <time>2017-08-04T17:41:43Z</time>
      </trkpt>
      <trkpt lat="45.95902" lon="6.26862">
        <ele>1555.07</ele>
        <time>2017-08-04T17:41:45Z</time>
      </trkpt>
      <trkpt lat="45.95903" lon="6.26864">
        <ele>1554.11</ele>
        <time>2017-08-04T17:41:46Z</time>
      </trkpt>
      <trkpt lat="45.95904" lon="6.26866">
        <ele>1553.63</ele>
        <time>2017-08-04T17:41:47Z</time>
      </trkpt>
      <trkpt lat="45.95903" lon="6.26877">
        <ele>1551.71</ele>
        <time>2017-08-04T17:41:51Z</time>
      </trkpt>
      <trkpt lat="45.95902" lon="6.26886">
        <ele>1550.26</ele>
        <time>2017-08-04T17:41:55Z</time>
      </trkpt>
      <trkpt lat="45.95901" lon="6.26887">
        <ele>1549.3</ele>
        <time>2017-08-04T17:41:56Z</time>
      </trkpt>
      <trkpt lat="45.95901" lon="6.26889">
        <ele>1548.82</ele>
        <time>2017-08-04T17:41:57Z</time>
      </trkpt>
      <trkpt lat="45.95902" lon="6.2689">
        <ele>1548.82</ele>
        <time>2017-08-04T17:41:58Z</time>
      </trkpt>
      <trkpt lat="45.95903" lon="6.26899">
        <ele>1544.98</ele>
        <time>2017-08-04T17:42:05Z</time>
      </trkpt>
      <trkpt lat="45.95903" lon="6.269">
        <ele>1544.98</ele>
        <time>2017-08-04T17:42:06Z</time>
      </trkpt>
      <trkpt lat="45.95903" lon="6.26902">
        <ele>1544.98</ele>
        <time>2017-08-04T17:42:07Z</time>
      </trkpt>
      <trkpt lat="45.95904" lon="6.26904">
        <ele>1544.98</ele>
        <time>2017-08-04T17:42:08Z</time>
      </trkpt>
      <trkpt lat="45.95903" lon="6.26907">
        <ele>1544.5</ele>
        <time>2017-08-04T17:42:09Z</time>
      </trkpt>
      <trkpt lat="45.95903" lon="6.2691">
        <ele>1544.5</ele>
        <time>2017-08-04T17:42:10Z</time>
      </trkpt>
      <trkpt lat="45.95902" lon="6.26912">
        <ele>1544.01</ele>
        <time>2017-08-04T17:42:11Z</time>
      </trkpt>
      <trkpt lat="45.95902" lon="6.26914">
        <ele>1544.01</ele>
        <time>2017-08-04T17:42:12Z</time>
      </trkpt>
      <trkpt lat="45.95901" lon="6.26916">
        <ele>1544.01</ele>
        <time>2017-08-04T17:42:13Z</time>
      </trkpt>
      <trkpt lat="45.95902" lon="6.26919">
        <ele>1543.53</ele>
        <time>2017-08-04T17:42:14Z</time>
      </trkpt>
      <trkpt lat="45.95902" lon="6.26922">
        <ele>1543.05</ele>
        <time>2017-08-04T17:42:15Z</time>
      </trkpt>
      <trkpt lat="45.95901" lon="6.26923">
        <ele>1543.05</ele>
        <time>2017-08-04T17:42:16Z</time>
      </trkpt>
      <trkpt lat="45.959" lon="6.26924">
        <ele>1542.57</ele>
        <time>2017-08-04T17:42:17Z</time>
      </trkpt>
      <trkpt lat="45.95899" lon="6.26925">
        <ele>1542.09</ele>
        <time>2017-08-04T17:42:18Z</time>
      </trkpt>
      <trkpt lat="45.95898" lon="6.26927">
        <ele>1541.13</ele>
        <time>2017-08-04T17:42:19Z</time>
      </trkpt>
      <trkpt lat="45.95898" lon="6.26929">
        <ele>1540.17</ele>
        <time>2017-08-04T17:42:20Z</time>
      </trkpt>
      <trkpt lat="45.95899" lon="6.26931">
        <ele>1540.17</ele>
        <time>2017-08-04T17:42:21Z</time>
      </trkpt>
      <trkpt lat="45.95899" lon="6.26934">
        <ele>1539.21</ele>
        <time>2017-08-04T17:42:22Z</time>
      </trkpt>
      <trkpt lat="45.95899" lon="6.26936">
        <ele>1538.25</ele>
        <time>2017-08-04T17:42:23Z</time>
      </trkpt>
      <trkpt lat="45.95898" lon="6.26937">
        <ele>1537.77</ele>
        <time>2017-08-04T17:42:24Z</time>
      </trkpt>
      <trkpt lat="45.95897" lon="6.26938">
        <ele>1537.29</ele>
        <time>2017-08-04T17:42:25Z</time>
      </trkpt>
      <trkpt lat="45.95897" lon="6.2694">
        <ele>1536.8</ele>
        <time>2017-08-04T17:42:26Z</time>
      </trkpt>
      <trkpt lat="45.95897" lon="6.26942">
        <ele>1536.32</ele>
        <time>2017-08-04T17:42:27Z</time>
      </trkpt>
      <trkpt lat="45.95896" lon="6.26944">
        <ele>1536.32</ele>
        <time>2017-08-04T17:42:28Z</time>
      </trkpt>
      <trkpt lat="45.95895" lon="6.26946">
        <ele>1535.84</ele>
        <time>2017-08-04T17:42:29Z</time>
      </trkpt>
      <trkpt lat="45.95894" lon="6.26947">
        <ele>1535.36</ele>
        <time>2017-08-04T17:42:30Z</time>
      </trkpt>
      <trkpt lat="45.95893" lon="6.26949">
        <ele>1534.4</ele>
        <time>2017-08-04T17:42:31Z</time>
      </trkpt>
      <trkpt lat="45.95892" lon="6.26957">
        <ele>1531.04</ele>
        <time>2017-08-04T17:42:35Z</time>
      </trkpt>
      <trkpt lat="45.95892" lon="6.26958">
        <ele>1530.56</ele>
        <time>2017-08-04T17:42:36Z</time>
      </trkpt>
      <trkpt lat="45.95889" lon="6.26964">
        <ele>1527.19</ele>
        <time>2017-08-04T17:42:42Z</time>
      </trkpt>
      <trkpt lat="45.95884" lon="6.26971">
        <ele>1523.83</ele>
        <time>2017-08-04T17:42:48Z</time>
      </trkpt>
      <trkpt lat="45.95883" lon="6.26971">
        <ele>1523.35</ele>
        <time>2017-08-04T17:42:49Z</time>
      </trkpt>
      <trkpt lat="45.95883" lon="6.26972">
        <ele>1519.5</ele>
        <time>2017-08-04T17:42:53Z</time>
      </trkpt>
      <trkpt lat="45.95882" lon="6.26976">
        <ele>1518.54</ele>
        <time>2017-08-04T17:42:54Z</time>
      </trkpt>
      <trkpt lat="45.9588" lon="6.26983">
        <ele>1518.06</ele>
        <time>2017-08-04T17:42:56Z</time>
      </trkpt>
      <trkpt lat="45.95873" lon="6.27011">
        <ele>1518.06</ele>
        <time>2017-08-04T17:43:06Z</time>
      </trkpt>
      <trkpt lat="45.95872" lon="6.27019">
        <ele>1517.1</ele>
        <time>2017-08-04T17:43:09Z</time>
      </trkpt>
      <trkpt lat="45.95871" lon="6.27021">
        <ele>1516.62</ele>
        <time>2017-08-04T17:43:10Z</time>
      </trkpt>
      <trkpt lat="45.95867" lon="6.27025">
        <ele>1515.18</ele>
        <time>2017-08-04T17:43:13Z</time>
      </trkpt>
      <trkpt lat="45.95864" lon="6.27032">
        <ele>1511.81</ele>
        <time>2017-08-04T17:43:17Z</time>
      </trkpt>
      <trkpt lat="45.95863" lon="6.27034">
        <ele>1511.33</ele>
        <time>2017-08-04T17:43:18Z</time>
      </trkpt>
      <trkpt lat="45.95862" lon="6.27038">
        <ele>1510.85</ele>
        <time>2017-08-04T17:43:19Z</time>
      </trkpt>
      <trkpt lat="45.95861" lon="6.27041">
        <ele>1510.85</ele>
        <time>2017-08-04T17:43:20Z</time>
      </trkpt>
      <trkpt lat="45.9586" lon="6.27044">
        <ele>1510.37</ele>
        <time>2017-08-04T17:43:21Z</time>
      </trkpt>
      <trkpt lat="45.95859" lon="6.27046">
        <ele>1510.37</ele>
        <time>2017-08-04T17:43:22Z</time>
      </trkpt>
      <trkpt lat="45.95858" lon="6.27049">
        <ele>1509.89</ele>
        <time>2017-08-04T17:43:23Z</time>
      </trkpt>
      <trkpt lat="45.95857" lon="6.27051">
        <ele>1509.41</ele>
        <time>2017-08-04T17:43:24Z</time>
      </trkpt>
      <trkpt lat="45.95857" lon="6.27053">
        <ele>1508.93</ele>
        <time>2017-08-04T17:43:25Z</time>
      </trkpt>
      <trkpt lat="45.95857" lon="6.27055">
        <ele>1507.97</ele>
        <time>2017-08-04T17:43:26Z</time>
      </trkpt>
      <trkpt lat="45.95856" lon="6.27057">
        <ele>1507</ele>
        <time>2017-08-04T17:43:27Z</time>
      </trkpt>
      <trkpt lat="45.95854" lon="6.27059">
        <ele>1507</ele>
        <time>2017-08-04T17:43:28Z</time>
      </trkpt>
      <trkpt lat="45.95854" lon="6.27062">
        <ele>1506.04</ele>
        <time>2017-08-04T17:43:29Z</time>
      </trkpt>
      <trkpt lat="45.95854" lon="6.27064">
        <ele>1505.56</ele>
        <time>2017-08-04T17:43:30Z</time>
      </trkpt>
      <trkpt lat="45.95855" lon="6.27066">
        <ele>1505.08</ele>
        <time>2017-08-04T17:43:31Z</time>
      </trkpt>
      <trkpt lat="45.95856" lon="6.27068">
        <ele>1504.6</ele>
        <time>2017-08-04T17:43:32Z</time>
      </trkpt>
      <trkpt lat="45.95856" lon="6.27069">
        <ele>1504.12</ele>
        <time>2017-08-04T17:43:33Z</time>
      </trkpt>
      <trkpt lat="45.95856" lon="6.27071">
        <ele>1503.64</ele>
        <time>2017-08-04T17:43:34Z</time>
      </trkpt>
      <trkpt lat="45.95856" lon="6.27073">
        <ele>1502.68</ele>
        <time>2017-08-04T17:43:35Z</time>
      </trkpt>
      <trkpt lat="45.95857" lon="6.27076">
        <ele>1502.2</ele>
        <time>2017-08-04T17:43:36Z</time>
      </trkpt>
      <trkpt lat="45.95857" lon="6.27078">
        <ele>1501.72</ele>
        <time>2017-08-04T17:43:37Z</time>
      </trkpt>
      <trkpt lat="45.95858" lon="6.27081">
        <ele>1501.24</ele>
        <time>2017-08-04T17:43:38Z</time>
      </trkpt>
      <trkpt lat="45.95858" lon="6.27083">
        <ele>1500.76</ele>
        <time>2017-08-04T17:43:39Z</time>
      </trkpt>
      <trkpt lat="45.9586" lon="6.27086">
        <ele>1499.31</ele>
        <time>2017-08-04T17:43:41Z</time>
      </trkpt>
      <trkpt lat="45.95862" lon="6.27094">
        <ele>1496.43</ele>
        <time>2017-08-04T17:43:46Z</time>
      </trkpt>
      <trkpt lat="45.95867" lon="6.27101">
        <ele>1494.03</ele>
        <time>2017-08-04T17:43:50Z</time>
      </trkpt>
      <trkpt lat="45.95868" lon="6.27103">
        <ele>1493.55</ele>
        <time>2017-08-04T17:43:51Z</time>
      </trkpt>
      <trkpt lat="45.95869" lon="6.27104">
        <ele>1492.58</ele>
        <time>2017-08-04T17:43:52Z</time>
      </trkpt>
      <trkpt lat="45.9587" lon="6.27106">
        <ele>1492.1</ele>
        <time>2017-08-04T17:43:53Z</time>
      </trkpt>
      <trkpt lat="45.95872" lon="6.27107">
        <ele>1491.62</ele>
        <time>2017-08-04T17:43:54Z</time>
      </trkpt>
      <trkpt lat="45.95873" lon="6.27109">
        <ele>1491.62</ele>
        <time>2017-08-04T17:43:55Z</time>
      </trkpt>
      <trkpt lat="45.95875" lon="6.27111">
        <ele>1491.62</ele>
        <time>2017-08-04T17:43:56Z</time>
      </trkpt>
      <trkpt lat="45.9588" lon="6.27121">
        <ele>1489.7</ele>
        <time>2017-08-04T17:44:01Z</time>
      </trkpt>
      <trkpt lat="45.95881" lon="6.27123">
        <ele>1489.22</ele>
        <time>2017-08-04T17:44:02Z</time>
      </trkpt>
      <trkpt lat="45.95882" lon="6.27126">
        <ele>1488.74</ele>
        <time>2017-08-04T17:44:03Z</time>
      </trkpt>
      <trkpt lat="45.95884" lon="6.27128">
        <ele>1487.78</ele>
        <time>2017-08-04T17:44:04Z</time>
      </trkpt>
      <trkpt lat="45.95885" lon="6.27129">
        <ele>1487.3</ele>
        <time>2017-08-04T17:44:05Z</time>
      </trkpt>
      <trkpt lat="45.95887" lon="6.27131">
        <ele>1487.3</ele>
        <time>2017-08-04T17:44:06Z</time>
      </trkpt>
      <trkpt lat="45.95888" lon="6.27133">
        <ele>1486.82</ele>
        <time>2017-08-04T17:44:07Z</time>
      </trkpt>
      <trkpt lat="45.95892" lon="6.27139">
        <ele>1485.85</ele>
        <time>2017-08-04T17:44:12Z</time>
      </trkpt>
      <trkpt lat="45.95892" lon="6.27141">
        <ele>1485.37</ele>
        <time>2017-08-04T17:44:13Z</time>
      </trkpt>
      <trkpt lat="45.95893" lon="6.27143">
        <ele>1484.89</ele>
        <time>2017-08-04T17:44:14Z</time>
      </trkpt>
      <trkpt lat="45.95893" lon="6.27145">
        <ele>1484.41</ele>
        <time>2017-08-04T17:44:15Z</time>
      </trkpt>
      <trkpt lat="45.95893" lon="6.27148">
        <ele>1483.45</ele>
        <time>2017-08-04T17:44:16Z</time>
      </trkpt>
      <trkpt lat="45.95893" lon="6.2715">
        <ele>1483.45</ele>
        <time>2017-08-04T17:44:17Z</time>
      </trkpt>
      <trkpt lat="45.95893" lon="6.27153">
        <ele>1482.97</ele>
        <time>2017-08-04T17:44:18Z</time>
      </trkpt>
      <trkpt lat="45.95893" lon="6.27155">
        <ele>1482.97</ele>
        <time>2017-08-04T17:44:19Z</time>
      </trkpt>
      <trkpt lat="45.95893" lon="6.27156">
        <ele>1482.49</ele>
        <time>2017-08-04T17:44:20Z</time>
      </trkpt>
      <trkpt lat="45.95895" lon="6.27169">
        <ele>1479.13</ele>
        <time>2017-08-04T17:44:27Z</time>
      </trkpt>
      <trkpt lat="45.95894" lon="6.2718">
        <ele>1477.2</ele>
        <time>2017-08-04T17:44:31Z</time>
      </trkpt>
      <trkpt lat="45.95893" lon="6.27181">
        <ele>1477.2</ele>
        <time>2017-08-04T17:44:32Z</time>
      </trkpt>
      <trkpt lat="45.95892" lon="6.27184">
        <ele>1476.72</ele>
        <time>2017-08-04T17:44:33Z</time>
      </trkpt>
      <trkpt lat="45.95891" lon="6.27187">
        <ele>1476.72</ele>
        <time>2017-08-04T17:44:34Z</time>
      </trkpt>
      <trkpt lat="45.95891" lon="6.27189">
        <ele>1476.72</ele>
        <time>2017-08-04T17:44:35Z</time>
      </trkpt>
      <trkpt lat="45.9589" lon="6.27192">
        <ele>1476.72</ele>
        <time>2017-08-04T17:44:36Z</time>
      </trkpt>
      <trkpt lat="45.95889" lon="6.27194">
        <ele>1476.24</ele>
        <time>2017-08-04T17:44:37Z</time>
      </trkpt>
      <trkpt lat="45.95887" lon="6.27196">
        <ele>1475.76</ele>
        <time>2017-08-04T17:44:38Z</time>
      </trkpt>
      <trkpt lat="45.95886" lon="6.27196">
        <ele>1475.28</ele>
        <time>2017-08-04T17:44:39Z</time>
      </trkpt>
      <trkpt lat="45.95884" lon="6.27195">
        <ele>1473.84</ele>
        <time>2017-08-04T17:44:42Z</time>
      </trkpt>
      <trkpt lat="45.95884" lon="6.27194">
        <ele>1473.36</ele>
        <time>2017-08-04T17:44:43Z</time>
      </trkpt>
      <trkpt lat="45.95881" lon="6.27187">
        <ele>1471.44</ele>
        <time>2017-08-04T17:44:47Z</time>
      </trkpt>
      <trkpt lat="45.9588" lon="6.27186">
        <ele>1470.47</ele>
        <time>2017-08-04T17:44:48Z</time>
      </trkpt>
      <trkpt lat="45.95879" lon="6.27185">
        <ele>1469.99</ele>
        <time>2017-08-04T17:44:49Z</time>
      </trkpt>
      <trkpt lat="45.95878" lon="6.27184">
        <ele>1469.99</ele>
        <time>2017-08-04T17:44:50Z</time>
      </trkpt>
      <trkpt lat="45.95877" lon="6.27183">
        <ele>1469.03</ele>
        <time>2017-08-04T17:44:51Z</time>
      </trkpt>
      <trkpt lat="45.95871" lon="6.27181">
        <ele>1466.63</ele>
        <time>2017-08-04T17:44:57Z</time>
      </trkpt>
      <trkpt lat="45.9587" lon="6.27181">
        <ele>1466.15</ele>
        <time>2017-08-04T17:44:58Z</time>
      </trkpt>
      <trkpt lat="45.95869" lon="6.27183">
        <ele>1465.19</ele>
        <time>2017-08-04T17:44:59Z</time>
      </trkpt>
      <trkpt lat="45.95868" lon="6.27185">
        <ele>1464.71</ele>
        <time>2017-08-04T17:45:00Z</time>
      </trkpt>
      <trkpt lat="45.95867" lon="6.27187">
        <ele>1464.23</ele>
        <time>2017-08-04T17:45:01Z</time>
      </trkpt>
      <trkpt lat="45.95866" lon="6.27189">
        <ele>1463.74</ele>
        <time>2017-08-04T17:45:02Z</time>
      </trkpt>
      <trkpt lat="45.95864" lon="6.27193">
        <ele>1461.82</ele>
        <time>2017-08-04T17:45:05Z</time>
      </trkpt>
      <trkpt lat="45.95863" lon="6.27195">
        <ele>1461.82</ele>
        <time>2017-08-04T17:45:06Z</time>
      </trkpt>
      <trkpt lat="45.95862" lon="6.27198">
        <ele>1460.86</ele>
        <time>2017-08-04T17:45:07Z</time>
      </trkpt>
      <trkpt lat="45.95861" lon="6.27201">
        <ele>1460.38</ele>
        <time>2017-08-04T17:45:08Z</time>
      </trkpt>
      <trkpt lat="45.95861" lon="6.27204">
        <ele>1460.38</ele>
        <time>2017-08-04T17:45:09Z</time>
      </trkpt>
      <trkpt lat="45.95861" lon="6.27207">
        <ele>1460.38</ele>
        <time>2017-08-04T17:45:10Z</time>
      </trkpt>
      <trkpt lat="45.95861" lon="6.2723">
        <ele>1457.02</ele>
        <time>2017-08-04T17:45:18Z</time>
      </trkpt>
      <trkpt lat="45.95855" lon="6.27243">
        <ele>1455.09</ele>
        <time>2017-08-04T17:45:24Z</time>
      </trkpt>
      <trkpt lat="45.95853" lon="6.27245">
        <ele>1455.09</ele>
        <time>2017-08-04T17:45:25Z</time>
      </trkpt>
      <trkpt lat="45.95852" lon="6.27246">
        <ele>1455.09</ele>
        <time>2017-08-04T17:45:26Z</time>
      </trkpt>
      <trkpt lat="45.95852" lon="6.27248">
        <ele>1455.09</ele>
        <time>2017-08-04T17:45:27Z</time>
      </trkpt>
      <trkpt lat="45.95851" lon="6.2725">
        <ele>1454.61</ele>
        <time>2017-08-04T17:45:28Z</time>
      </trkpt>
      <trkpt lat="45.9585" lon="6.2725">
        <ele>1454.61</ele>
        <time>2017-08-04T17:45:29Z</time>
      </trkpt>
      <trkpt lat="45.95849" lon="6.27252">
        <ele>1454.61</ele>
        <time>2017-08-04T17:45:30Z</time>
      </trkpt>
      <trkpt lat="45.95849" lon="6.27255">
        <ele>1453.65</ele>
        <time>2017-08-04T17:45:31Z</time>
      </trkpt>
      <trkpt lat="45.95848" lon="6.27258">
        <ele>1453.17</ele>
        <time>2017-08-04T17:45:32Z</time>
      </trkpt>
      <trkpt lat="45.95849" lon="6.2726">
        <ele>1453.17</ele>
        <time>2017-08-04T17:45:33Z</time>
      </trkpt>
      <trkpt lat="45.95849" lon="6.27263">
        <ele>1452.69</ele>
        <time>2017-08-04T17:45:34Z</time>
      </trkpt>
      <trkpt lat="45.9585" lon="6.27265">
        <ele>1452.21</ele>
        <time>2017-08-04T17:45:35Z</time>
      </trkpt>
      <trkpt lat="45.9585" lon="6.27267">
        <ele>1451.73</ele>
        <time>2017-08-04T17:45:36Z</time>
      </trkpt>
      <trkpt lat="45.95853" lon="6.27271">
        <ele>1450.29</ele>
        <time>2017-08-04T17:45:39Z</time>
      </trkpt>
      <trkpt lat="45.95853" lon="6.27273">
        <ele>1450.29</ele>
        <time>2017-08-04T17:45:40Z</time>
      </trkpt>
      <trkpt lat="45.95854" lon="6.27274">
        <ele>1449.81</ele>
        <time>2017-08-04T17:45:41Z</time>
      </trkpt>
      <trkpt lat="45.95854" lon="6.27279">
        <ele>1448.36</ele>
        <time>2017-08-04T17:45:44Z</time>
      </trkpt>
      <trkpt lat="45.95855" lon="6.27283">
        <ele>1447.88</ele>
        <time>2017-08-04T17:45:46Z</time>
      </trkpt>
      <trkpt lat="45.95855" lon="6.27291">
        <ele>1444.52</ele>
        <time>2017-08-04T17:45:51Z</time>
      </trkpt>
      <trkpt lat="45.95856" lon="6.27293">
        <ele>1444.04</ele>
        <time>2017-08-04T17:45:52Z</time>
      </trkpt>
      <trkpt lat="45.95854" lon="6.27296">
        <ele>1444.04</ele>
        <time>2017-08-04T17:45:54Z</time>
      </trkpt>
      <trkpt lat="45.95853" lon="6.27296">
        <ele>1443.08</ele>
        <time>2017-08-04T17:45:55Z</time>
      </trkpt>
      <trkpt lat="45.95852" lon="6.27295">
        <ele>1442.6</ele>
        <time>2017-08-04T17:45:56Z</time>
      </trkpt>
      <trkpt lat="45.95851" lon="6.27293">
        <ele>1441.63</ele>
        <time>2017-08-04T17:45:57Z</time>
      </trkpt>
      <trkpt lat="45.95849" lon="6.27291">
        <ele>1441.15</ele>
        <time>2017-08-04T17:45:58Z</time>
      </trkpt>
      <trkpt lat="45.95848" lon="6.2729">
        <ele>1440.67</ele>
        <time>2017-08-04T17:45:59Z</time>
      </trkpt>
      <trkpt lat="45.9584" lon="6.27282">
        <ele>1437.79</ele>
        <time>2017-08-04T17:46:07Z</time>
      </trkpt>
      <trkpt lat="45.95837" lon="6.27281">
        <ele>1436.83</ele>
        <time>2017-08-04T17:46:09Z</time>
      </trkpt>
      <trkpt lat="45.95837" lon="6.2728">
        <ele>1436.83</ele>
        <time>2017-08-04T17:46:10Z</time>
      </trkpt>
      <trkpt lat="45.95833" lon="6.27282">
        <ele>1433.94</ele>
        <time>2017-08-04T17:46:16Z</time>
      </trkpt>
      <trkpt lat="45.95831" lon="6.27285">
        <ele>1432.02</ele>
        <time>2017-08-04T17:46:19Z</time>
      </trkpt>
      <trkpt lat="45.95827" lon="6.27284">
        <ele>1428.66</ele>
        <time>2017-08-04T17:46:25Z</time>
      </trkpt>
      <trkpt lat="45.95823" lon="6.27282">
        <ele>1425.77</ele>
        <time>2017-08-04T17:46:29Z</time>
      </trkpt>
      <trkpt lat="45.95821" lon="6.27281">
        <ele>1425.77</ele>
        <time>2017-08-04T17:46:30Z</time>
      </trkpt>
      <trkpt lat="45.95815" lon="6.27278">
        <ele>1424.33</ele>
        <time>2017-08-04T17:46:34Z</time>
      </trkpt>
      <trkpt lat="45.95814" lon="6.27278">
        <ele>1423.85</ele>
        <time>2017-08-04T17:46:35Z</time>
      </trkpt>
      <trkpt lat="45.95813" lon="6.27277">
        <ele>1422.89</ele>
        <time>2017-08-04T17:46:36Z</time>
      </trkpt>
      <trkpt lat="45.95811" lon="6.27277">
        <ele>1421.93</ele>
        <time>2017-08-04T17:46:37Z</time>
      </trkpt>
      <trkpt lat="45.9581" lon="6.27276">
        <ele>1421.45</ele>
        <time>2017-08-04T17:46:38Z</time>
      </trkpt>
      <trkpt lat="45.95808" lon="6.27275">
        <ele>1420.97</ele>
        <time>2017-08-04T17:46:39Z</time>
      </trkpt>
      <trkpt lat="45.95806" lon="6.27275">
        <ele>1420.49</ele>
        <time>2017-08-04T17:46:40Z</time>
      </trkpt>
      <trkpt lat="45.95804" lon="6.27275">
        <ele>1420</ele>
        <time>2017-08-04T17:46:41Z</time>
      </trkpt>
      <trkpt lat="45.95802" lon="6.27276">
        <ele>1419.52</ele>
        <time>2017-08-04T17:46:42Z</time>
      </trkpt>
      <trkpt lat="45.958" lon="6.27277">
        <ele>1418.56</ele>
        <time>2017-08-04T17:46:43Z</time>
      </trkpt>
      <trkpt lat="45.95799" lon="6.27278">
        <ele>1418.08</ele>
        <time>2017-08-04T17:46:44Z</time>
      </trkpt>
      <trkpt lat="45.95796" lon="6.27278">
        <ele>1417.6</ele>
        <time>2017-08-04T17:46:45Z</time>
      </trkpt>
      <trkpt lat="45.95794" lon="6.27278">
        <ele>1417.6</ele>
        <time>2017-08-04T17:46:46Z</time>
      </trkpt>
      <trkpt lat="45.95791" lon="6.27278">
        <ele>1416.64</ele>
        <time>2017-08-04T17:46:47Z</time>
      </trkpt>
      <trkpt lat="45.95789" lon="6.27277">
        <ele>1416.16</ele>
        <time>2017-08-04T17:46:48Z</time>
      </trkpt>
      <trkpt lat="45.95788" lon="6.27276">
        <ele>1415.68</ele>
        <time>2017-08-04T17:46:49Z</time>
      </trkpt>
      <trkpt lat="45.95786" lon="6.27277">
        <ele>1415.2</ele>
        <time>2017-08-04T17:46:50Z</time>
      </trkpt>
      <trkpt lat="45.95785" lon="6.27278">
        <ele>1414.72</ele>
        <time>2017-08-04T17:46:51Z</time>
      </trkpt>
      <trkpt lat="45.95785" lon="6.2728">
        <ele>1413.76</ele>
        <time>2017-08-04T17:46:52Z</time>
      </trkpt>
      <trkpt lat="45.95784" lon="6.27282">
        <ele>1413.28</ele>
        <time>2017-08-04T17:46:53Z</time>
      </trkpt>
      <trkpt lat="45.95784" lon="6.27284">
        <ele>1412.79</ele>
        <time>2017-08-04T17:46:54Z</time>
      </trkpt>
      <trkpt lat="45.95783" lon="6.27286">
        <ele>1411.83</ele>
        <time>2017-08-04T17:46:56Z</time>
      </trkpt>
      <trkpt lat="45.95781" lon="6.27288">
        <ele>1411.35</ele>
        <time>2017-08-04T17:46:58Z</time>
      </trkpt>
      <trkpt lat="45.95779" lon="6.27291">
        <ele>1407.99</ele>
        <time>2017-08-04T17:47:05Z</time>
      </trkpt>
      <trkpt lat="45.95777" lon="6.27299">
        <ele>1404.62</ele>
        <time>2017-08-04T17:47:11Z</time>
      </trkpt>
      <trkpt lat="45.95775" lon="6.27299">
        <ele>1403.18</ele>
        <time>2017-08-04T17:47:12Z</time>
      </trkpt>
      <trkpt lat="45.95775" lon="6.27299">
        <ele>1402.22</ele>
        <time>2017-08-04T17:47:13Z</time>
      </trkpt>
      <trkpt lat="45.95774" lon="6.27299">
        <ele>1401.26</ele>
        <time>2017-08-04T17:47:14Z</time>
      </trkpt>
      <trkpt lat="45.95773" lon="6.27298">
        <ele>1400.78</ele>
        <time>2017-08-04T17:47:15Z</time>
      </trkpt>
      <trkpt lat="45.95772" lon="6.27298">
        <ele>1399.82</ele>
        <time>2017-08-04T17:47:16Z</time>
      </trkpt>
      <trkpt lat="45.9577" lon="6.27299">
        <ele>1399.82</ele>
        <time>2017-08-04T17:47:17Z</time>
      </trkpt>
      <trkpt lat="45.95769" lon="6.273">
        <ele>1399.34</ele>
        <time>2017-08-04T17:47:18Z</time>
      </trkpt>
      <trkpt lat="45.95768" lon="6.273">
        <ele>1398.37</ele>
        <time>2017-08-04T17:47:19Z</time>
      </trkpt>
      <trkpt lat="45.95767" lon="6.27301">
        <ele>1397.89</ele>
        <time>2017-08-04T17:47:20Z</time>
      </trkpt>
      <trkpt lat="45.95763" lon="6.27305">
        <ele>1394.05</ele>
        <time>2017-08-04T17:47:26Z</time>
      </trkpt>
      <trkpt lat="45.95762" lon="6.27304">
        <ele>1393.57</ele>
        <time>2017-08-04T17:47:28Z</time>
      </trkpt>
      <trkpt lat="45.95761" lon="6.27303">
        <ele>1393.09</ele>
        <time>2017-08-04T17:47:29Z</time>
      </trkpt>
      <trkpt lat="45.95759" lon="6.27302">
        <ele>1392.61</ele>
        <time>2017-08-04T17:47:30Z</time>
      </trkpt>
      <trkpt lat="45.95757" lon="6.27301">
        <ele>1392.13</ele>
        <time>2017-08-04T17:47:31Z</time>
      </trkpt>
      <trkpt lat="45.95756" lon="6.273">
        <ele>1391.65</ele>
        <time>2017-08-04T17:47:32Z</time>
      </trkpt>
      <trkpt lat="45.95756" lon="6.27299">
        <ele>1391.17</ele>
        <time>2017-08-04T17:47:33Z</time>
      </trkpt>
      <trkpt lat="45.95755" lon="6.27299">
        <ele>1391.17</ele>
        <time>2017-08-04T17:47:34Z</time>
      </trkpt>
      <trkpt lat="45.95754" lon="6.27299">
        <ele>1390.2</ele>
        <time>2017-08-04T17:47:35Z</time>
      </trkpt>
      <trkpt lat="45.95752" lon="6.27297">
        <ele>1390.2</ele>
        <time>2017-08-04T17:47:36Z</time>
      </trkpt>
      <trkpt lat="45.95751" lon="6.27296">
        <ele>1389.24</ele>
        <time>2017-08-04T17:47:37Z</time>
      </trkpt>
      <trkpt lat="45.9575" lon="6.27295">
        <ele>1389.24</ele>
        <time>2017-08-04T17:47:38Z</time>
      </trkpt>
      <trkpt lat="45.95748" lon="6.27293">
        <ele>1388.28</ele>
        <time>2017-08-04T17:47:40Z</time>
      </trkpt>
      <trkpt lat="45.95747" lon="6.27291">
        <ele>1387.8</ele>
        <time>2017-08-04T17:47:41Z</time>
      </trkpt>
      <trkpt lat="45.95746" lon="6.2729">
        <ele>1387.8</ele>
        <time>2017-08-04T17:47:42Z</time>
      </trkpt>
      <trkpt lat="45.95745" lon="6.27289">
        <ele>1387.32</ele>
        <time>2017-08-04T17:47:43Z</time>
      </trkpt>
      <trkpt lat="45.95743" lon="6.27288">
        <ele>1386.84</ele>
        <time>2017-08-04T17:47:44Z</time>
      </trkpt>
      <trkpt lat="45.95742" lon="6.27287">
        <ele>1386.84</ele>
        <time>2017-08-04T17:47:45Z</time>
      </trkpt>
      <trkpt lat="45.9573" lon="6.27283">
        <ele>1384.44</ele>
        <time>2017-08-04T17:47:54Z</time>
      </trkpt>
      <trkpt lat="45.95729" lon="6.27283">
        <ele>1383.47</ele>
        <time>2017-08-04T17:47:55Z</time>
      </trkpt>
      <trkpt lat="45.95727" lon="6.27284">
        <ele>1382.99</ele>
        <time>2017-08-04T17:47:56Z</time>
      </trkpt>
      <trkpt lat="45.95726" lon="6.27285">
        <ele>1382.99</ele>
        <time>2017-08-04T17:47:57Z</time>
      </trkpt>
      <trkpt lat="45.9572" lon="6.27288">
        <ele>1379.63</ele>
        <time>2017-08-04T17:48:02Z</time>
      </trkpt>
      <trkpt lat="45.9572" lon="6.2729">
        <ele>1379.15</ele>
        <time>2017-08-04T17:48:03Z</time>
      </trkpt>
      <trkpt lat="45.95721" lon="6.27291">
        <ele>1379.15</ele>
        <time>2017-08-04T17:48:04Z</time>
      </trkpt>
      <trkpt lat="45.95722" lon="6.27292">
        <ele>1378.19</ele>
        <time>2017-08-04T17:48:05Z</time>
      </trkpt>
      <trkpt lat="45.95723" lon="6.27292">
        <ele>1377.71</ele>
        <time>2017-08-04T17:48:06Z</time>
      </trkpt>
      <trkpt lat="45.95724" lon="6.27295">
        <ele>1377.23</ele>
        <time>2017-08-04T17:48:07Z</time>
      </trkpt>
      <trkpt lat="45.95723" lon="6.27298">
        <ele>1377.23</ele>
        <time>2017-08-04T17:48:08Z</time>
      </trkpt>
      <trkpt lat="45.95723" lon="6.27299">
        <ele>1376.75</ele>
        <time>2017-08-04T17:48:09Z</time>
      </trkpt>
      <trkpt lat="45.95725" lon="6.273">
        <ele>1375.78</ele>
        <time>2017-08-04T17:48:12Z</time>
      </trkpt>
      <trkpt lat="45.95732" lon="6.27307">
        <ele>1372.9</ele>
        <time>2017-08-04T17:48:20Z</time>
      </trkpt>
      <trkpt lat="45.95733" lon="6.27308">
        <ele>1372.9</ele>
        <time>2017-08-04T17:48:21Z</time>
      </trkpt>
      <trkpt lat="45.95735" lon="6.27309">
        <ele>1372.42</ele>
        <time>2017-08-04T17:48:22Z</time>
      </trkpt>
      <trkpt lat="45.95736" lon="6.2731">
        <ele>1372.42</ele>
        <time>2017-08-04T17:48:23Z</time>
      </trkpt>
      <trkpt lat="45.95738" lon="6.27311">
        <ele>1372.42</ele>
        <time>2017-08-04T17:48:24Z</time>
      </trkpt>
      <trkpt lat="45.95739" lon="6.27313">
        <ele>1371.94</ele>
        <time>2017-08-04T17:48:25Z</time>
      </trkpt>
      <trkpt lat="45.95739" lon="6.27316">
        <ele>1371.94</ele>
        <time>2017-08-04T17:48:26Z</time>
      </trkpt>
      <trkpt lat="45.9574" lon="6.27318">
        <ele>1371.94</ele>
        <time>2017-08-04T17:48:27Z</time>
      </trkpt>
      <trkpt lat="45.95744" lon="6.27335">
        <ele>1368.57</ele>
        <time>2017-08-04T17:48:34Z</time>
      </trkpt>
      <trkpt lat="45.95751" lon="6.27345">
        <ele>1367.13</ele>
        <time>2017-08-04T17:48:39Z</time>
      </trkpt>
      <trkpt lat="45.95752" lon="6.27351">
        <ele>1366.17</ele>
        <time>2017-08-04T17:48:41Z</time>
      </trkpt>
      <trkpt lat="45.95761" lon="6.27368">
        <ele>1363.77</ele>
        <time>2017-08-04T17:48:48Z</time>
      </trkpt>
      <trkpt lat="45.95765" lon="6.27383">
        <ele>1361.36</ele>
        <time>2017-08-04T17:48:54Z</time>
      </trkpt>
      <trkpt lat="45.95765" lon="6.27384">
        <ele>1360.88</ele>
        <time>2017-08-04T17:48:55Z</time>
      </trkpt>
      <trkpt lat="45.95765" lon="6.27385">
        <ele>1360.4</ele>
        <time>2017-08-04T17:48:56Z</time>
      </trkpt>
      <trkpt lat="45.95764" lon="6.27398">
        <ele>1358</ele>
        <time>2017-08-04T17:49:01Z</time>
      </trkpt>
      <trkpt lat="45.95764" lon="6.27398">
        <ele>1357.04</ele>
        <time>2017-08-04T17:49:02Z</time>
      </trkpt>
      <trkpt lat="45.95764" lon="6.27397">
        <ele>1356.56</ele>
        <time>2017-08-04T17:49:03Z</time>
      </trkpt>
      <trkpt lat="45.95762" lon="6.27395">
        <ele>1355.6</ele>
        <time>2017-08-04T17:49:05Z</time>
      </trkpt>
      <trkpt lat="45.9576" lon="6.27394">
        <ele>1354.63</ele>
        <time>2017-08-04T17:49:07Z</time>
      </trkpt>
      <trkpt lat="45.9576" lon="6.27392">
        <ele>1354.63</ele>
        <time>2017-08-04T17:49:08Z</time>
      </trkpt>
      <trkpt lat="45.95748" lon="6.27383">
        <ele>1351.27</ele>
        <time>2017-08-04T17:49:17Z</time>
      </trkpt>
      <trkpt lat="45.95745" lon="6.27382">
        <ele>1350.31</ele>
        <time>2017-08-04T17:49:20Z</time>
      </trkpt>
      <trkpt lat="45.95743" lon="6.27381">
        <ele>1349.83</ele>
        <time>2017-08-04T17:49:21Z</time>
      </trkpt>
      <trkpt lat="45.95742" lon="6.2738">
        <ele>1349.35</ele>
        <time>2017-08-04T17:49:22Z</time>
      </trkpt>
      <trkpt lat="45.9574" lon="6.27379">
        <ele>1348.87</ele>
        <time>2017-08-04T17:49:23Z</time>
      </trkpt>
      <trkpt lat="45.95738" lon="6.27377">
        <ele>1348.87</ele>
        <time>2017-08-04T17:49:24Z</time>
      </trkpt>
      <trkpt lat="45.95737" lon="6.27375">
        <ele>1348.87</ele>
        <time>2017-08-04T17:49:25Z</time>
      </trkpt>
      <trkpt lat="45.95736" lon="6.27374">
        <ele>1348.87</ele>
        <time>2017-08-04T17:49:26Z</time>
      </trkpt>
      <trkpt lat="45.95734" lon="6.27372">
        <ele>1348.39</ele>
        <time>2017-08-04T17:49:27Z</time>
      </trkpt>
      <trkpt lat="45.95733" lon="6.2737">
        <ele>1348.39</ele>
        <time>2017-08-04T17:49:28Z</time>
      </trkpt>
      <trkpt lat="45.95732" lon="6.27369">
        <ele>1347.91</ele>
        <time>2017-08-04T17:49:29Z</time>
      </trkpt>
      <trkpt lat="45.9573" lon="6.27369">
        <ele>1347.91</ele>
        <time>2017-08-04T17:49:30Z</time>
      </trkpt>
      <trkpt lat="45.95728" lon="6.27368">
        <ele>1347.43</ele>
        <time>2017-08-04T17:49:31Z</time>
      </trkpt>
      <trkpt lat="45.95726" lon="6.27369">
        <ele>1347.43</ele>
        <time>2017-08-04T17:49:32Z</time>
      </trkpt>
      <trkpt lat="45.95724" lon="6.27369">
        <ele>1346.94</ele>
        <time>2017-08-04T17:49:33Z</time>
      </trkpt>
      <trkpt lat="45.95723" lon="6.27368">
        <ele>1346.46</ele>
        <time>2017-08-04T17:49:34Z</time>
      </trkpt>
      <trkpt lat="45.95721" lon="6.27367">
        <ele>1346.46</ele>
        <time>2017-08-04T17:49:35Z</time>
      </trkpt>
      <trkpt lat="45.95705" lon="6.27362">
        <ele>1343.1</ele>
        <time>2017-08-04T17:49:44Z</time>
      </trkpt>
      <trkpt lat="45.95698" lon="6.27356">
        <ele>1341.18</ele>
        <time>2017-08-04T17:49:49Z</time>
      </trkpt>
      <trkpt lat="45.95694" lon="6.27354">
        <ele>1340.22</ele>
        <time>2017-08-04T17:49:52Z</time>
      </trkpt>
      <trkpt lat="45.95692" lon="6.27352">
        <ele>1340.22</ele>
        <time>2017-08-04T17:49:53Z</time>
      </trkpt>
      <trkpt lat="45.9569" lon="6.2735">
        <ele>1339.73</ele>
        <time>2017-08-04T17:49:54Z</time>
      </trkpt>
      <trkpt lat="45.95688" lon="6.27348">
        <ele>1338.77</ele>
        <time>2017-08-04T17:49:55Z</time>
      </trkpt>
      <trkpt lat="45.95686" lon="6.27345">
        <ele>1338.77</ele>
        <time>2017-08-04T17:49:56Z</time>
      </trkpt>
      <trkpt lat="45.95684" lon="6.27343">
        <ele>1337.81</ele>
        <time>2017-08-04T17:49:57Z</time>
      </trkpt>
      <trkpt lat="45.95682" lon="6.27341">
        <ele>1337.81</ele>
        <time>2017-08-04T17:49:58Z</time>
      </trkpt>
      <trkpt lat="45.9568" lon="6.2734">
        <ele>1337.33</ele>
        <time>2017-08-04T17:49:59Z</time>
      </trkpt>
      <trkpt lat="45.95663" lon="6.27327">
        <ele>1333.97</ele>
        <time>2017-08-04T17:50:12Z</time>
      </trkpt>
      <trkpt lat="45.95661" lon="6.27326">
        <ele>1333.49</ele>
        <time>2017-08-04T17:50:13Z</time>
      </trkpt>
      <trkpt lat="45.95643" lon="6.27321">
        <ele>1330.6</ele>
        <time>2017-08-04T17:50:22Z</time>
      </trkpt>
      <trkpt lat="45.95641" lon="6.2732">
        <ele>1330.12</ele>
        <time>2017-08-04T17:50:23Z</time>
      </trkpt>
      <trkpt lat="45.95639" lon="6.2732">
        <ele>1329.64</ele>
        <time>2017-08-04T17:50:24Z</time>
      </trkpt>
      <trkpt lat="45.95638" lon="6.27319">
        <ele>1329.16</ele>
        <time>2017-08-04T17:50:25Z</time>
      </trkpt>
      <trkpt lat="45.95636" lon="6.27318">
        <ele>1329.16</ele>
        <time>2017-08-04T17:50:26Z</time>
      </trkpt>
      <trkpt lat="45.95631" lon="6.27316">
        <ele>1327.72</ele>
        <time>2017-08-04T17:50:29Z</time>
      </trkpt>
      <trkpt lat="45.9563" lon="6.27314">
        <ele>1327.24</ele>
        <time>2017-08-04T17:50:30Z</time>
      </trkpt>
      <trkpt lat="45.9563" lon="6.27312">
        <ele>1327.24</ele>
        <time>2017-08-04T17:50:31Z</time>
      </trkpt>
      <trkpt lat="45.95629" lon="6.27312">
        <ele>1327.24</ele>
        <time>2017-08-04T17:50:32Z</time>
      </trkpt>
      <trkpt lat="45.95627" lon="6.27312">
        <ele>1327.24</ele>
        <time>2017-08-04T17:50:33Z</time>
      </trkpt>
      <trkpt lat="45.95626" lon="6.27311">
        <ele>1326.76</ele>
        <time>2017-08-04T17:50:34Z</time>
      </trkpt>
      <trkpt lat="45.95624" lon="6.27312">
        <ele>1325.8</ele>
        <time>2017-08-04T17:50:35Z</time>
      </trkpt>
      <trkpt lat="45.95622" lon="6.27311">
        <ele>1325.8</ele>
        <time>2017-08-04T17:50:36Z</time>
      </trkpt>
      <trkpt lat="45.95621" lon="6.27311">
        <ele>1324.83</ele>
        <time>2017-08-04T17:50:37Z</time>
      </trkpt>
      <trkpt lat="45.95619" lon="6.27311">
        <ele>1324.35</ele>
        <time>2017-08-04T17:50:38Z</time>
      </trkpt>
      <trkpt lat="45.95618" lon="6.27312">
        <ele>1323.87</ele>
        <time>2017-08-04T17:50:39Z</time>
      </trkpt>
      <trkpt lat="45.95616" lon="6.27312">
        <ele>1323.39</ele>
        <time>2017-08-04T17:50:40Z</time>
      </trkpt>
      <trkpt lat="45.95615" lon="6.27313">
        <ele>1322.91</ele>
        <time>2017-08-04T17:50:41Z</time>
      </trkpt>
      <trkpt lat="45.95614" lon="6.27313">
        <ele>1322.43</ele>
        <time>2017-08-04T17:50:42Z</time>
      </trkpt>
      <trkpt lat="45.95609" lon="6.27312">
        <ele>1320.99</ele>
        <time>2017-08-04T17:50:45Z</time>
      </trkpt>
      <trkpt lat="45.95607" lon="6.2731">
        <ele>1320.99</ele>
        <time>2017-08-04T17:50:46Z</time>
      </trkpt>
      <trkpt lat="45.95605" lon="6.27308">
        <ele>1320.99</ele>
        <time>2017-08-04T17:50:47Z</time>
      </trkpt>
      <trkpt lat="45.95604" lon="6.27307">
        <ele>1320.99</ele>
        <time>2017-08-04T17:50:48Z</time>
      </trkpt>
      <trkpt lat="45.95602" lon="6.27306">
        <ele>1320.51</ele>
        <time>2017-08-04T17:50:49Z</time>
      </trkpt>
      <trkpt lat="45.956" lon="6.27304">
        <ele>1320.51</ele>
        <time>2017-08-04T17:50:50Z</time>
      </trkpt>
      <trkpt lat="45.95599" lon="6.27302">
        <ele>1320.51</ele>
        <time>2017-08-04T17:50:51Z</time>
      </trkpt>
      <trkpt lat="45.95599" lon="6.273">
        <ele>1320.51</ele>
        <time>2017-08-04T17:50:52Z</time>
      </trkpt>
      <trkpt lat="45.95598" lon="6.27299">
        <ele>1320.51</ele>
        <time>2017-08-04T17:50:53Z</time>
      </trkpt>
      <trkpt lat="45.95595" lon="6.27299">
        <ele>1320.51</ele>
        <time>2017-08-04T17:50:56Z</time>
      </trkpt>
      <trkpt lat="45.95593" lon="6.273">
        <ele>1320.03</ele>
        <time>2017-08-04T17:50:57Z</time>
      </trkpt>
      <trkpt lat="45.95591" lon="6.273">
        <ele>1319.55</ele>
        <time>2017-08-04T17:50:58Z</time>
      </trkpt>
      <trkpt lat="45.95589" lon="6.27301">
        <ele>1319.07</ele>
        <time>2017-08-04T17:50:59Z</time>
      </trkpt>
      <trkpt lat="45.95587" lon="6.27301">
        <ele>1318.59</ele>
        <time>2017-08-04T17:51:00Z</time>
      </trkpt>
      <trkpt lat="45.95586" lon="6.27302">
        <ele>1318.1</ele>
        <time>2017-08-04T17:51:01Z</time>
      </trkpt>
      <trkpt lat="45.9558" lon="6.27303">
        <ele>1317.14</ele>
        <time>2017-08-04T17:51:04Z</time>
      </trkpt>
      <trkpt lat="45.95578" lon="6.27303">
        <ele>1316.66</ele>
        <time>2017-08-04T17:51:05Z</time>
      </trkpt>
      <trkpt lat="45.95576" lon="6.27304">
        <ele>1316.66</ele>
        <time>2017-08-04T17:51:06Z</time>
      </trkpt>
      <trkpt lat="45.95555" lon="6.27302">
        <ele>1313.78</ele>
        <time>2017-08-04T17:51:16Z</time>
      </trkpt>
      <trkpt lat="45.95554" lon="6.27303">
        <ele>1313.78</ele>
        <time>2017-08-04T17:51:17Z</time>
      </trkpt>
      <trkpt lat="45.95553" lon="6.27303">
        <ele>1313.3</ele>
        <time>2017-08-04T17:51:18Z</time>
      </trkpt>
      <trkpt lat="45.95552" lon="6.27303">
        <ele>1313.3</ele>
        <time>2017-08-04T17:51:19Z</time>
      </trkpt>
      <trkpt lat="45.95551" lon="6.27303">
        <ele>1312.82</ele>
        <time>2017-08-04T17:51:20Z</time>
      </trkpt>
      <trkpt lat="45.95549" lon="6.27302">
        <ele>1312.82</ele>
        <time>2017-08-04T17:51:21Z</time>
      </trkpt>
      <trkpt lat="45.95536" lon="6.27295">
        <ele>1309.45</ele>
        <time>2017-08-04T17:51:29Z</time>
      </trkpt>
      <trkpt lat="45.95535" lon="6.27294">
        <ele>1308.97</ele>
        <time>2017-08-04T17:51:30Z</time>
      </trkpt>
      <trkpt lat="45.95531" lon="6.27294">
        <ele>1308.49</ele>
        <time>2017-08-04T17:51:33Z</time>
      </trkpt>
      <trkpt lat="45.9553" lon="6.27296">
        <ele>1308.01</ele>
        <time>2017-08-04T17:51:34Z</time>
      </trkpt>
      <trkpt lat="45.95517" lon="6.27309">
        <ele>1304.65</ele>
        <time>2017-08-04T17:51:42Z</time>
      </trkpt>
      <trkpt lat="45.95509" lon="6.27314">
        <ele>1304.17</ele>
        <time>2017-08-04T17:51:46Z</time>
      </trkpt>
      <trkpt lat="45.95508" lon="6.27316">
        <ele>1303.2</ele>
        <time>2017-08-04T17:51:47Z</time>
      </trkpt>
      <trkpt lat="45.95491" lon="6.27333">
        <ele>1299.84</ele>
        <time>2017-08-04T17:51:54Z</time>
      </trkpt>
      <trkpt lat="45.95482" lon="6.27337">
        <ele>1295.99</ele>
        <time>2017-08-04T17:51:58Z</time>
      </trkpt>
      <trkpt lat="45.95472" lon="6.27344">
        <ele>1293.11</ele>
        <time>2017-08-04T17:52:02Z</time>
      </trkpt>
      <trkpt lat="45.95471" lon="6.27347">
        <ele>1292.63</ele>
        <time>2017-08-04T17:52:03Z</time>
      </trkpt>
      <trkpt lat="45.95469" lon="6.27349">
        <ele>1291.67</ele>
        <time>2017-08-04T17:52:04Z</time>
      </trkpt>
      <trkpt lat="45.95468" lon="6.2735">
        <ele>1291.19</ele>
        <time>2017-08-04T17:52:05Z</time>
      </trkpt>
      <trkpt lat="45.95461" lon="6.27359">
        <ele>1287.82</ele>
        <time>2017-08-04T17:52:10Z</time>
      </trkpt>
      <trkpt lat="45.9546" lon="6.27361">
        <ele>1286.86</ele>
        <time>2017-08-04T17:52:11Z</time>
      </trkpt>
      <trkpt lat="45.95454" lon="6.27373">
        <ele>1283.98</ele>
        <time>2017-08-04T17:52:16Z</time>
      </trkpt>
      <trkpt lat="45.95442" lon="6.27384">
        <ele>1280.61</ele>
        <time>2017-08-04T17:52:21Z</time>
      </trkpt>
      <trkpt lat="45.95431" lon="6.27393">
        <ele>1276.77</ele>
        <time>2017-08-04T17:52:25Z</time>
      </trkpt>
      <trkpt lat="45.9541" lon="6.27411">
        <ele>1273.88</ele>
        <time>2017-08-04T17:52:33Z</time>
      </trkpt>
      <trkpt lat="45.9539" lon="6.27429">
        <ele>1272.44</ele>
        <time>2017-08-04T17:52:42Z</time>
      </trkpt>
      <trkpt lat="45.95387" lon="6.27429">
        <ele>1271.96</ele>
        <time>2017-08-04T17:52:43Z</time>
      </trkpt>
      <trkpt lat="45.95386" lon="6.27429">
        <ele>1271.96</ele>
        <time>2017-08-04T17:52:44Z</time>
      </trkpt>
      <trkpt lat="45.95384" lon="6.27428">
        <ele>1271.96</ele>
        <time>2017-08-04T17:52:45Z</time>
      </trkpt>
      <trkpt lat="45.95383" lon="6.27428">
        <ele>1271.96</ele>
        <time>2017-08-04T17:52:46Z</time>
      </trkpt>
      <trkpt lat="45.95382" lon="6.27428">
        <ele>1271.96</ele>
        <time>2017-08-04T17:52:47Z</time>
      </trkpt>
      <trkpt lat="45.95381" lon="6.27427">
        <ele>1271.96</ele>
        <time>2017-08-04T17:52:48Z</time>
      </trkpt>
      <trkpt lat="45.9538" lon="6.27426">
        <ele>1271.96</ele>
        <time>2017-08-04T17:52:49Z</time>
      </trkpt>
      <trkpt lat="45.95373" lon="6.27423">
        <ele>1273.4</ele>
        <time>2017-08-04T17:52:57Z</time>
      </trkpt>
      <trkpt lat="45.95362" lon="6.27413">
        <ele>1273.4</ele>
        <time>2017-08-04T17:53:09Z</time>
      </trkpt>
      <trkpt lat="45.95356" lon="6.27406">
        <ele>1273.88</ele>
        <time>2017-08-04T17:53:12Z</time>
      </trkpt>
      <trkpt lat="45.95355" lon="6.27406">
        <ele>1273.88</ele>
        <time>2017-08-04T17:53:13Z</time>
      </trkpt>
      <trkpt lat="45.95353" lon="6.27403">
        <ele>1274.36</ele>
        <time>2017-08-04T17:53:14Z</time>
      </trkpt>
      <trkpt lat="45.95352" lon="6.27401">
        <ele>1274.36</ele>
        <time>2017-08-04T17:53:15Z</time>
      </trkpt>
      <trkpt lat="45.9535" lon="6.274">
        <ele>1274.36</ele>
        <time>2017-08-04T17:53:16Z</time>
      </trkpt>
      <trkpt lat="45.95348" lon="6.27398">
        <ele>1274.85</ele>
        <time>2017-08-04T17:53:17Z</time>
      </trkpt>
      <trkpt lat="45.95341" lon="6.27393">
        <ele>1277.25</ele>
        <time>2017-08-04T17:53:23Z</time>
      </trkpt>
      <trkpt lat="45.95339" lon="6.27392">
        <ele>1278.21</ele>
        <time>2017-08-04T17:53:26Z</time>
      </trkpt>
      <trkpt lat="45.95338" lon="6.27392">
        <ele>1278.21</ele>
        <time>2017-08-04T17:53:27Z</time>
      </trkpt>
      <trkpt lat="45.95337" lon="6.27391">
        <ele>1278.21</ele>
        <time>2017-08-04T17:53:28Z</time>
      </trkpt>
      <trkpt lat="45.95335" lon="6.2739">
        <ele>1278.21</ele>
        <time>2017-08-04T17:53:29Z</time>
      </trkpt>
      <trkpt lat="45.95331" lon="6.27388">
        <ele>1279.17</ele>
        <time>2017-08-04T17:53:34Z</time>
      </trkpt>
      <trkpt lat="45.9533" lon="6.27388">
        <ele>1279.17</ele>
        <time>2017-08-04T17:53:35Z</time>
      </trkpt>
      <trkpt lat="45.9533" lon="6.27387">
        <ele>1279.17</ele>
        <time>2017-08-04T17:53:36Z</time>
      </trkpt>
      <trkpt lat="45.9533" lon="6.27386">
        <ele>1279.17</ele>
        <time>2017-08-04T17:53:37Z</time>
      </trkpt>
      <trkpt lat="45.95331" lon="6.27384">
        <ele>1279.17</ele>
        <time>2017-08-04T17:53:38Z</time>
      </trkpt>
      <trkpt lat="45.95331" lon="6.27381">
        <ele>1279.65</ele>
        <time>2017-08-04T17:53:43Z</time>
      </trkpt>
      <trkpt lat="45.9533" lon="6.27379">
        <ele>1280.13</ele>
        <time>2017-08-04T17:53:44Z</time>
      </trkpt>
      <trkpt lat="45.9533" lon="6.27379">
        <ele>1280.13</ele>
        <time>2017-08-04T17:53:45Z</time>
      </trkpt>
      <trkpt lat="45.9533" lon="6.27378">
        <ele>1280.13</ele>
        <time>2017-08-04T17:53:46Z</time>
      </trkpt>
      <trkpt lat="45.95327" lon="6.27372">
        <ele>1281.57</ele>
        <time>2017-08-04T17:53:52Z</time>
      </trkpt>
      <trkpt lat="45.95321" lon="6.27372">
        <ele>1283.02</ele>
        <time>2017-08-04T17:54:01Z</time>
      </trkpt>
      <trkpt lat="45.95319" lon="6.27371">
        <ele>1283.98</ele>
        <time>2017-08-04T17:54:03Z</time>
      </trkpt>
      <trkpt lat="45.95318" lon="6.27371">
        <ele>1283.98</ele>
        <time>2017-08-04T17:54:04Z</time>
      </trkpt>
      <trkpt lat="45.95317" lon="6.2737">
        <ele>1284.46</ele>
        <time>2017-08-04T17:54:06Z</time>
      </trkpt>
      <trkpt lat="45.95317" lon="6.27369">
        <ele>1284.94</ele>
        <time>2017-08-04T17:54:07Z</time>
      </trkpt>
      <trkpt lat="45.95314" lon="6.27364">
        <ele>1286.86</ele>
        <time>2017-08-04T17:54:17Z</time>
      </trkpt>
      <trkpt lat="45.9531" lon="6.27358">
        <ele>1290.23</ele>
        <time>2017-08-04T17:54:27Z</time>
      </trkpt>
      <trkpt lat="45.95307" lon="6.27355">
        <ele>1291.67</ele>
        <time>2017-08-04T17:54:33Z</time>
      </trkpt>
      <trkpt lat="45.95306" lon="6.27349">
        <ele>1295.03</ele>
        <time>2017-08-04T17:54:44Z</time>
      </trkpt>
      <trkpt lat="45.95305" lon="6.27347">
        <ele>1295.03</ele>
        <time>2017-08-04T17:54:45Z</time>
      </trkpt>
      <trkpt lat="45.95305" lon="6.27344">
        <ele>1295.03</ele>
        <time>2017-08-04T17:54:46Z</time>
      </trkpt>
      <trkpt lat="45.95303" lon="6.27342">
        <ele>1295.03</ele>
        <time>2017-08-04T17:54:47Z</time>
      </trkpt>
      <trkpt lat="45.95302" lon="6.27341">
        <ele>1295.51</ele>
        <time>2017-08-04T17:54:48Z</time>
      </trkpt>
      <trkpt lat="45.953" lon="6.2734">
        <ele>1295.51</ele>
        <time>2017-08-04T17:54:49Z</time>
      </trkpt>
      <trkpt lat="45.95299" lon="6.27338">
        <ele>1295.99</ele>
        <time>2017-08-04T17:54:50Z</time>
      </trkpt>
      <trkpt lat="45.95287" lon="6.27321">
        <ele>1297.44</ele>
        <time>2017-08-04T17:55:00Z</time>
      </trkpt>
      <trkpt lat="45.95265" lon="6.273">
        <ele>1298.4</ele>
        <time>2017-08-04T17:55:13Z</time>
      </trkpt>
      <trkpt lat="45.95251" lon="6.27287">
        <ele>1299.36</ele>
        <time>2017-08-04T17:55:21Z</time>
      </trkpt>
      <trkpt lat="45.95249" lon="6.27285">
        <ele>1299.84</ele>
        <time>2017-08-04T17:55:22Z</time>
      </trkpt>
      <trkpt lat="45.95235" lon="6.27272">
        <ele>1302.24</ele>
        <time>2017-08-04T17:55:33Z</time>
      </trkpt>
      <trkpt lat="45.95234" lon="6.27271">
        <ele>1302.24</ele>
        <time>2017-08-04T17:55:34Z</time>
      </trkpt>
      <trkpt lat="45.95232" lon="6.2727">
        <ele>1302.24</ele>
        <time>2017-08-04T17:55:35Z</time>
      </trkpt>
      <trkpt lat="45.95231" lon="6.27269">
        <ele>1302.24</ele>
        <time>2017-08-04T17:55:36Z</time>
      </trkpt>
      <trkpt lat="45.9523" lon="6.27268">
        <ele>1302.24</ele>
        <time>2017-08-04T17:55:37Z</time>
      </trkpt>
      <trkpt lat="45.95229" lon="6.27267">
        <ele>1302.72</ele>
        <time>2017-08-04T17:55:38Z</time>
      </trkpt>
      <trkpt lat="45.9522" lon="6.27264">
        <ele>1303.69</ele>
        <time>2017-08-04T17:55:44Z</time>
      </trkpt>
      <trkpt lat="45.95219" lon="6.27263">
        <ele>1303.69</ele>
        <time>2017-08-04T17:55:45Z</time>
      </trkpt>
      <trkpt lat="45.95217" lon="6.27262">
        <ele>1304.17</ele>
        <time>2017-08-04T17:55:46Z</time>
      </trkpt>
      <trkpt lat="45.95215" lon="6.27261">
        <ele>1304.17</ele>
        <time>2017-08-04T17:55:47Z</time>
      </trkpt>
      <trkpt lat="45.95214" lon="6.27261">
        <ele>1304.17</ele>
        <time>2017-08-04T17:55:48Z</time>
      </trkpt>
      <trkpt lat="45.95212" lon="6.2726">
        <ele>1304.65</ele>
        <time>2017-08-04T17:55:50Z</time>
      </trkpt>
      <trkpt lat="45.95211" lon="6.27259">
        <ele>1305.13</ele>
        <time>2017-08-04T17:55:51Z</time>
      </trkpt>
      <trkpt lat="45.9521" lon="6.27259">
        <ele>1305.61</ele>
        <time>2017-08-04T17:55:52Z</time>
      </trkpt>
      <trkpt lat="45.95208" lon="6.27257">
        <ele>1305.61</ele>
        <time>2017-08-04T17:55:53Z</time>
      </trkpt>
      <trkpt lat="45.95207" lon="6.27256">
        <ele>1305.61</ele>
        <time>2017-08-04T17:55:54Z</time>
      </trkpt>
      <trkpt lat="45.95207" lon="6.27254">
        <ele>1306.09</ele>
        <time>2017-08-04T17:55:55Z</time>
      </trkpt>
      <trkpt lat="45.95206" lon="6.27252">
        <ele>1306.57</ele>
        <time>2017-08-04T17:55:56Z</time>
      </trkpt>
      <trkpt lat="45.95205" lon="6.2725">
        <ele>1306.57</ele>
        <time>2017-08-04T17:55:57Z</time>
      </trkpt>
      <trkpt lat="45.95204" lon="6.27249">
        <ele>1306.57</ele>
        <time>2017-08-04T17:55:58Z</time>
      </trkpt>
      <trkpt lat="45.95203" lon="6.27248">
        <ele>1307.05</ele>
        <time>2017-08-04T17:55:59Z</time>
      </trkpt>
      <trkpt lat="45.95202" lon="6.27247">
        <ele>1307.05</ele>
        <time>2017-08-04T17:56:00Z</time>
      </trkpt>
      <trkpt lat="45.95201" lon="6.27246">
        <ele>1307.53</ele>
        <time>2017-08-04T17:56:01Z</time>
      </trkpt>
      <trkpt lat="45.952" lon="6.27245">
        <ele>1307.53</ele>
        <time>2017-08-04T17:56:02Z</time>
      </trkpt>
      <trkpt lat="45.95196" lon="6.27237">
        <ele>1308.01</ele>
        <time>2017-08-04T17:56:07Z</time>
      </trkpt>
      <trkpt lat="45.95195" lon="6.27236">
        <ele>1308.49</ele>
        <time>2017-08-04T17:56:08Z</time>
      </trkpt>
      <trkpt lat="45.95194" lon="6.27235">
        <ele>1308.97</ele>
        <time>2017-08-04T17:56:09Z</time>
      </trkpt>
      <trkpt lat="45.95193" lon="6.27232">
        <ele>1308.97</ele>
        <time>2017-08-04T17:56:10Z</time>
      </trkpt>
      <trkpt lat="45.95192" lon="6.2723">
        <ele>1309.45</ele>
        <time>2017-08-04T17:56:11Z</time>
      </trkpt>
      <trkpt lat="45.9519" lon="6.27228">
        <ele>1309.45</ele>
        <time>2017-08-04T17:56:12Z</time>
      </trkpt>
      <trkpt lat="45.95189" lon="6.27227">
        <ele>1309.45</ele>
        <time>2017-08-04T17:56:13Z</time>
      </trkpt>
      <trkpt lat="45.9518" lon="6.27211">
        <ele>1312.82</ele>
        <time>2017-08-04T17:56:25Z</time>
      </trkpt>
      <trkpt lat="45.95177" lon="6.27202">
        <ele>1313.78</ele>
        <time>2017-08-04T17:56:28Z</time>
      </trkpt>
      <trkpt lat="45.95171" lon="6.27178">
        <ele>1316.18</ele>
        <time>2017-08-04T17:56:39Z</time>
      </trkpt>
      <trkpt lat="45.9517" lon="6.27176">
        <ele>1316.18</ele>
        <time>2017-08-04T17:56:40Z</time>
      </trkpt>
      <trkpt lat="45.9517" lon="6.27174">
        <ele>1316.66</ele>
        <time>2017-08-04T17:56:41Z</time>
      </trkpt>
      <trkpt lat="45.95166" lon="6.27165">
        <ele>1317.62</ele>
        <time>2017-08-04T17:56:46Z</time>
      </trkpt>
      <trkpt lat="45.95145" lon="6.27139">
        <ele>1320.51</ele>
        <time>2017-08-04T17:57:03Z</time>
      </trkpt>
      <trkpt lat="45.95125" lon="6.27122">
        <ele>1322.43</ele>
        <time>2017-08-04T17:57:17Z</time>
      </trkpt>
      <trkpt lat="45.95123" lon="6.27122">
        <ele>1322.43</ele>
        <time>2017-08-04T17:57:18Z</time>
      </trkpt>
      <trkpt lat="45.95121" lon="6.27122">
        <ele>1322.43</ele>
        <time>2017-08-04T17:57:19Z</time>
      </trkpt>
      <trkpt lat="45.95119" lon="6.27121">
        <ele>1322.43</ele>
        <time>2017-08-04T17:57:20Z</time>
      </trkpt>
      <trkpt lat="45.95118" lon="6.2712">
        <ele>1321.95</ele>
        <time>2017-08-04T17:57:21Z</time>
      </trkpt>
      <trkpt lat="45.95116" lon="6.27118">
        <ele>1321.95</ele>
        <time>2017-08-04T17:57:22Z</time>
      </trkpt>
      <trkpt lat="45.95114" lon="6.27117">
        <ele>1321.47</ele>
        <time>2017-08-04T17:57:23Z</time>
      </trkpt>
      <trkpt lat="45.95113" lon="6.27116">
        <ele>1321.47</ele>
        <time>2017-08-04T17:57:24Z</time>
      </trkpt>
      <trkpt lat="45.95094" lon="6.27102">
        <ele>1320.51</ele>
        <time>2017-08-04T17:57:34Z</time>
      </trkpt>
      <trkpt lat="45.95075" lon="6.27091">
        <ele>1318.59</ele>
        <time>2017-08-04T17:57:43Z</time>
      </trkpt>
      <trkpt lat="45.95066" lon="6.27089">
        <ele>1317.62</ele>
        <time>2017-08-04T17:57:47Z</time>
      </trkpt>
      <trkpt lat="45.95046" lon="6.27081">
        <ele>1315.22</ele>
        <time>2017-08-04T17:57:56Z</time>
      </trkpt>
      <trkpt lat="45.95024" lon="6.27069">
        <ele>1314.74</ele>
        <time>2017-08-04T17:58:05Z</time>
      </trkpt>
      <trkpt lat="45.95022" lon="6.27067">
        <ele>1314.74</ele>
        <time>2017-08-04T17:58:06Z</time>
      </trkpt>
      <trkpt lat="45.9502" lon="6.27066">
        <ele>1314.74</ele>
        <time>2017-08-04T17:58:07Z</time>
      </trkpt>
      <trkpt lat="45.95018" lon="6.27065">
        <ele>1314.74</ele>
        <time>2017-08-04T17:58:08Z</time>
      </trkpt>
      <trkpt lat="45.95008" lon="6.2706">
        <ele>1314.26</ele>
        <time>2017-08-04T17:58:13Z</time>
      </trkpt>
      <trkpt lat="45.95006" lon="6.2706">
        <ele>1314.26</ele>
        <time>2017-08-04T17:58:14Z</time>
      </trkpt>
      <trkpt lat="45.95004" lon="6.27059">
        <ele>1314.26</ele>
        <time>2017-08-04T17:58:15Z</time>
      </trkpt>
      <trkpt lat="45.9499" lon="6.27048">
        <ele>1314.74</ele>
        <time>2017-08-04T17:58:24Z</time>
      </trkpt>
      <trkpt lat="45.9499" lon="6.27045">
        <ele>1314.74</ele>
        <time>2017-08-04T17:58:25Z</time>
      </trkpt>
      <trkpt lat="45.94989" lon="6.27044">
        <ele>1314.74</ele>
        <time>2017-08-04T17:58:26Z</time>
      </trkpt>
      <trkpt lat="45.94989" lon="6.27042">
        <ele>1314.74</ele>
        <time>2017-08-04T17:58:27Z</time>
      </trkpt>
      <trkpt lat="45.94988" lon="6.2704">
        <ele>1314.74</ele>
        <time>2017-08-04T17:58:28Z</time>
      </trkpt>
      <trkpt lat="45.94988" lon="6.27038">
        <ele>1314.74</ele>
        <time>2017-08-04T17:58:29Z</time>
      </trkpt>
      <trkpt lat="45.94988" lon="6.27036">
        <ele>1314.74</ele>
        <time>2017-08-04T17:58:30Z</time>
      </trkpt>
      <trkpt lat="45.94987" lon="6.27029">
        <ele>1315.22</ele>
        <time>2017-08-04T17:58:33Z</time>
      </trkpt>
      <trkpt lat="45.94987" lon="6.27027">
        <ele>1315.22</ele>
        <time>2017-08-04T17:58:34Z</time>
      </trkpt>
      <trkpt lat="45.94986" lon="6.27024">
        <ele>1315.22</ele>
        <time>2017-08-04T17:58:35Z</time>
      </trkpt>
      <trkpt lat="45.94978" lon="6.27006">
        <ele>1318.59</ele>
        <time>2017-08-04T17:58:43Z</time>
      </trkpt>
      <trkpt lat="45.94977" lon="6.27004">
        <ele>1318.59</ele>
        <time>2017-08-04T17:58:44Z</time>
      </trkpt>
      <trkpt lat="45.94975" lon="6.27001">
        <ele>1319.07</ele>
        <time>2017-08-04T17:58:45Z</time>
      </trkpt>
      <trkpt lat="45.94973" lon="6.26999">
        <ele>1319.07</ele>
        <time>2017-08-04T17:58:46Z</time>
      </trkpt>
      <trkpt lat="45.94972" lon="6.26999">
        <ele>1319.55</ele>
        <time>2017-08-04T17:58:47Z</time>
      </trkpt>
      <trkpt lat="45.94971" lon="6.26998">
        <ele>1320.03</ele>
        <time>2017-08-04T17:58:48Z</time>
      </trkpt>
      <trkpt lat="45.9497" lon="6.26997">
        <ele>1320.03</ele>
        <time>2017-08-04T17:58:49Z</time>
      </trkpt>
      <trkpt lat="45.94968" lon="6.26994">
        <ele>1320.51</ele>
        <time>2017-08-04T17:58:51Z</time>
      </trkpt>
      <trkpt lat="45.94969" lon="6.26993">
        <ele>1320.99</ele>
        <time>2017-08-04T17:58:53Z</time>
      </trkpt>
      <trkpt lat="45.94969" lon="6.26992">
        <ele>1321.47</ele>
        <time>2017-08-04T17:58:54Z</time>
      </trkpt>
      <trkpt lat="45.9497" lon="6.2699">
        <ele>1321.95</ele>
        <time>2017-08-04T17:58:55Z</time>
      </trkpt>
      <trkpt lat="45.9497" lon="6.26988">
        <ele>1322.43</ele>
        <time>2017-08-04T17:58:56Z</time>
      </trkpt>
      <trkpt lat="45.9497" lon="6.26987">
        <ele>1322.43</ele>
        <time>2017-08-04T17:58:57Z</time>
      </trkpt>
      <trkpt lat="45.94969" lon="6.26986">
        <ele>1322.43</ele>
        <time>2017-08-04T17:58:58Z</time>
      </trkpt>
      <trkpt lat="45.94968" lon="6.26984">
        <ele>1322.43</ele>
        <time>2017-08-04T17:58:59Z</time>
      </trkpt>
      <trkpt lat="45.94965" lon="6.26981">
        <ele>1322.43</ele>
        <time>2017-08-04T17:59:01Z</time>
      </trkpt>
      <trkpt lat="45.94965" lon="6.26978">
        <ele>1322.91</ele>
        <time>2017-08-04T17:59:02Z</time>
      </trkpt>
      <trkpt lat="45.94964" lon="6.26976">
        <ele>1322.91</ele>
        <time>2017-08-04T17:59:03Z</time>
      </trkpt>
      <trkpt lat="45.94956" lon="6.26961">
        <ele>1325.31</ele>
        <time>2017-08-04T17:59:11Z</time>
      </trkpt>
      <trkpt lat="45.94954" lon="6.26953">
        <ele>1326.28</ele>
        <time>2017-08-04T17:59:14Z</time>
      </trkpt>
      <trkpt lat="45.94953" lon="6.26953">
        <ele>1326.76</ele>
        <time>2017-08-04T17:59:15Z</time>
      </trkpt>
      <trkpt lat="45.94952" lon="6.26951">
        <ele>1326.76</ele>
        <time>2017-08-04T17:59:16Z</time>
      </trkpt>
      <trkpt lat="45.9495" lon="6.26948">
        <ele>1326.76</ele>
        <time>2017-08-04T17:59:17Z</time>
      </trkpt>
      <trkpt lat="45.94948" lon="6.26947">
        <ele>1327.24</ele>
        <time>2017-08-04T17:59:18Z</time>
      </trkpt>
      <trkpt lat="45.94946" lon="6.26946">
        <ele>1327.24</ele>
        <time>2017-08-04T17:59:19Z</time>
      </trkpt>
      <trkpt lat="45.94945" lon="6.26946">
        <ele>1327.24</ele>
        <time>2017-08-04T17:59:20Z</time>
      </trkpt>
      <trkpt lat="45.94943" lon="6.26945">
        <ele>1327.72</ele>
        <time>2017-08-04T17:59:21Z</time>
      </trkpt>
      <trkpt lat="45.94942" lon="6.26943">
        <ele>1327.72</ele>
        <time>2017-08-04T17:59:22Z</time>
      </trkpt>
      <trkpt lat="45.9494" lon="6.26942">
        <ele>1327.72</ele>
        <time>2017-08-04T17:59:23Z</time>
      </trkpt>
      <trkpt lat="45.94939" lon="6.2694">
        <ele>1328.2</ele>
        <time>2017-08-04T17:59:24Z</time>
      </trkpt>
      <trkpt lat="45.94929" lon="6.26937">
        <ele>1329.16</ele>
        <time>2017-08-04T17:59:30Z</time>
      </trkpt>
      <trkpt lat="45.94928" lon="6.26936">
        <ele>1329.64</ele>
        <time>2017-08-04T17:59:31Z</time>
      </trkpt>
      <trkpt lat="45.94927" lon="6.26936">
        <ele>1329.64</ele>
        <time>2017-08-04T17:59:32Z</time>
      </trkpt>
      <trkpt lat="45.94926" lon="6.26936">
        <ele>1330.6</ele>
        <time>2017-08-04T17:59:33Z</time>
      </trkpt>
      <trkpt lat="45.94926" lon="6.26935">
        <ele>1331.08</ele>
        <time>2017-08-04T17:59:34Z</time>
      </trkpt>
      <trkpt lat="45.94925" lon="6.26934">
        <ele>1331.08</ele>
        <time>2017-08-04T17:59:35Z</time>
      </trkpt>
      <trkpt lat="45.94924" lon="6.26933">
        <ele>1331.56</ele>
        <time>2017-08-04T17:59:36Z</time>
      </trkpt>
      <trkpt lat="45.94924" lon="6.26932">
        <ele>1332.04</ele>
        <time>2017-08-04T17:59:37Z</time>
      </trkpt>
      <trkpt lat="45.94924" lon="6.2693">
        <ele>1332.52</ele>
        <time>2017-08-04T17:59:38Z</time>
      </trkpt>
      <trkpt lat="45.94925" lon="6.26928">
        <ele>1333.01</ele>
        <time>2017-08-04T17:59:39Z</time>
      </trkpt>
      <trkpt lat="45.94925" lon="6.26926">
        <ele>1333.01</ele>
        <time>2017-08-04T17:59:40Z</time>
      </trkpt>
      <trkpt lat="45.94926" lon="6.26921">
        <ele>1334.93</ele>
        <time>2017-08-04T17:59:46Z</time>
      </trkpt>
      <trkpt lat="45.94928" lon="6.26919">
        <ele>1335.89</ele>
        <time>2017-08-04T17:59:49Z</time>
      </trkpt>
      <trkpt lat="45.9493" lon="6.26907">
        <ele>1338.77</ele>
        <time>2017-08-04T17:59:59Z</time>
      </trkpt>
      <trkpt lat="45.94931" lon="6.26899">
        <ele>1342.14</ele>
        <time>2017-08-04T18:00:11Z</time>
      </trkpt>
      <trkpt lat="45.94931" lon="6.26897">
        <ele>1342.62</ele>
        <time>2017-08-04T18:00:13Z</time>
      </trkpt>
      <trkpt lat="45.94929" lon="6.26884">
        <ele>1345.5</ele>
        <time>2017-08-04T18:00:26Z</time>
      </trkpt>
      <trkpt lat="45.94922" lon="6.26863">
        <ele>1348.39</ele>
        <time>2017-08-04T18:00:42Z</time>
      </trkpt>
      <trkpt lat="45.94917" lon="6.26844">
        <ele>1350.79</ele>
        <time>2017-08-04T18:00:53Z</time>
      </trkpt>
      <trkpt lat="45.94921" lon="6.26834">
        <ele>1354.15</ele>
        <time>2017-08-04T18:01:04Z</time>
      </trkpt>
      <trkpt lat="45.94921" lon="6.26822">
        <ele>1357.04</ele>
        <time>2017-08-04T18:01:17Z</time>
      </trkpt>
      <trkpt lat="45.94924" lon="6.26815">
        <ele>1359.92</ele>
        <time>2017-08-04T18:01:29Z</time>
      </trkpt>
      <trkpt lat="45.94925" lon="6.26813">
        <ele>1360.88</ele>
        <time>2017-08-04T18:01:31Z</time>
      </trkpt>
      <trkpt lat="45.94927" lon="6.26802">
        <ele>1363.77</ele>
        <time>2017-08-04T18:01:45Z</time>
      </trkpt>
      <trkpt lat="45.94933" lon="6.26795">
        <ele>1367.13</ele>
        <time>2017-08-04T18:01:59Z</time>
      </trkpt>
      <trkpt lat="45.94935" lon="6.26783">
        <ele>1370.02</ele>
        <time>2017-08-04T18:02:12Z</time>
      </trkpt>
      <trkpt lat="45.94934" lon="6.26777">
        <ele>1370.5</ele>
        <time>2017-08-04T18:02:16Z</time>
      </trkpt>
      <trkpt lat="45.94929" lon="6.2677">
        <ele>1371.94</ele>
        <time>2017-08-04T18:02:24Z</time>
      </trkpt>
      <trkpt lat="45.94925" lon="6.2677">
        <ele>1372.9</ele>
        <time>2017-08-04T18:02:30Z</time>
      </trkpt>
      <trkpt lat="45.94923" lon="6.26768">
        <ele>1372.9</ele>
        <time>2017-08-04T18:02:31Z</time>
      </trkpt>
      <trkpt lat="45.94922" lon="6.26766">
        <ele>1372.9</ele>
        <time>2017-08-04T18:02:32Z</time>
      </trkpt>
      <trkpt lat="45.94921" lon="6.26766">
        <ele>1373.38</ele>
        <time>2017-08-04T18:02:33Z</time>
      </trkpt>
      <trkpt lat="45.94919" lon="6.26765">
        <ele>1373.38</ele>
        <time>2017-08-04T18:02:34Z</time>
      </trkpt>
      <trkpt lat="45.94918" lon="6.26765">
        <ele>1373.38</ele>
        <time>2017-08-04T18:02:35Z</time>
      </trkpt>
      <trkpt lat="45.94914" lon="6.26761">
        <ele>1373.38</ele>
        <time>2017-08-04T18:02:38Z</time>
      </trkpt>
      <trkpt lat="45.94913" lon="6.2676">
        <ele>1373.86</ele>
        <time>2017-08-04T18:02:39Z</time>
      </trkpt>
      <trkpt lat="45.94911" lon="6.26758">
        <ele>1373.86</ele>
        <time>2017-08-04T18:02:40Z</time>
      </trkpt>
      <trkpt lat="45.94909" lon="6.26758">
        <ele>1374.34</ele>
        <time>2017-08-04T18:02:41Z</time>
      </trkpt>
      <trkpt lat="45.94908" lon="6.26757">
        <ele>1374.34</ele>
        <time>2017-08-04T18:02:42Z</time>
      </trkpt>
      <trkpt lat="45.94906" lon="6.26755">
        <ele>1374.82</ele>
        <time>2017-08-04T18:02:43Z</time>
      </trkpt>
      <trkpt lat="45.94905" lon="6.26753">
        <ele>1374.82</ele>
        <time>2017-08-04T18:02:44Z</time>
      </trkpt>
      <trkpt lat="45.94904" lon="6.2675">
        <ele>1374.82</ele>
        <time>2017-08-04T18:02:45Z</time>
      </trkpt>
      <trkpt lat="45.94904" lon="6.26748">
        <ele>1374.82</ele>
        <time>2017-08-04T18:02:46Z</time>
      </trkpt>
      <trkpt lat="45.94903" lon="6.26747">
        <ele>1374.82</ele>
        <time>2017-08-04T18:02:47Z</time>
      </trkpt>
      <trkpt lat="45.949" lon="6.26742">
        <ele>1375.3</ele>
        <time>2017-08-04T18:02:50Z</time>
      </trkpt>
      <trkpt lat="45.949" lon="6.2674">
        <ele>1375.78</ele>
        <time>2017-08-04T18:02:51Z</time>
      </trkpt>
      <trkpt lat="45.94897" lon="6.26741">
        <ele>1376.26</ele>
        <time>2017-08-04T18:02:54Z</time>
      </trkpt>
      <trkpt lat="45.94886" lon="6.26741">
        <ele>1375.78</ele>
        <time>2017-08-04T18:03:00Z</time>
      </trkpt>
      <trkpt lat="45.94885" lon="6.26741">
        <ele>1375.78</ele>
        <time>2017-08-04T18:03:01Z</time>
      </trkpt>
      <trkpt lat="45.94883" lon="6.2674">
        <ele>1375.78</ele>
        <time>2017-08-04T18:03:02Z</time>
      </trkpt>
      <trkpt lat="45.9488" lon="6.2674">
        <ele>1375.3</ele>
        <time>2017-08-04T18:03:03Z</time>
      </trkpt>
      <trkpt lat="45.94878" lon="6.26739">
        <ele>1375.3</ele>
        <time>2017-08-04T18:03:04Z</time>
      </trkpt>
      <trkpt lat="45.94877" lon="6.26739">
        <ele>1374.82</ele>
        <time>2017-08-04T18:03:05Z</time>
      </trkpt>
      <trkpt lat="45.94875" lon="6.26738">
        <ele>1374.82</ele>
        <time>2017-08-04T18:03:06Z</time>
      </trkpt>
      <trkpt lat="45.94874" lon="6.26738">
        <ele>1375.3</ele>
        <time>2017-08-04T18:03:07Z</time>
      </trkpt>
      <trkpt lat="45.94871" lon="6.2674">
        <ele>1376.26</ele>
        <time>2017-08-04T18:03:11Z</time>
      </trkpt>
      <trkpt lat="45.94869" lon="6.2674">
        <ele>1376.26</ele>
        <time>2017-08-04T18:03:12Z</time>
      </trkpt>
      <trkpt lat="45.94867" lon="6.2674">
        <ele>1376.75</ele>
        <time>2017-08-04T18:03:15Z</time>
      </trkpt>
      <trkpt lat="45.94865" lon="6.2674">
        <ele>1376.75</ele>
        <time>2017-08-04T18:03:16Z</time>
      </trkpt>
      <trkpt lat="45.94863" lon="6.26739">
        <ele>1376.75</ele>
        <time>2017-08-04T18:03:17Z</time>
      </trkpt>
      <trkpt lat="45.94855" lon="6.26736">
        <ele>1376.75</ele>
        <time>2017-08-04T18:03:22Z</time>
      </trkpt>
      <trkpt lat="45.94855" lon="6.26734">
        <ele>1376.75</ele>
        <time>2017-08-04T18:03:23Z</time>
      </trkpt>
      <trkpt lat="45.94853" lon="6.26734">
        <ele>1376.26</ele>
        <time>2017-08-04T18:03:24Z</time>
      </trkpt>
      <trkpt lat="45.94852" lon="6.26733">
        <ele>1375.78</ele>
        <time>2017-08-04T18:03:25Z</time>
      </trkpt>
      <trkpt lat="45.9485" lon="6.26733">
        <ele>1375.78</ele>
        <time>2017-08-04T18:03:26Z</time>
      </trkpt>
      <trkpt lat="45.94835" lon="6.26727">
        <ele>1374.82</ele>
        <time>2017-08-04T18:03:35Z</time>
      </trkpt>
      <trkpt lat="45.94834" lon="6.26726">
        <ele>1375.3</ele>
        <time>2017-08-04T18:03:36Z</time>
      </trkpt>
      <trkpt lat="45.94832" lon="6.26725">
        <ele>1375.3</ele>
        <time>2017-08-04T18:03:37Z</time>
      </trkpt>
      <trkpt lat="45.94831" lon="6.26725">
        <ele>1375.78</ele>
        <time>2017-08-04T18:03:38Z</time>
      </trkpt>
      <trkpt lat="45.94829" lon="6.26724">
        <ele>1375.78</ele>
        <time>2017-08-04T18:03:39Z</time>
      </trkpt>
      <trkpt lat="45.94828" lon="6.26723">
        <ele>1375.78</ele>
        <time>2017-08-04T18:03:40Z</time>
      </trkpt>
      <trkpt lat="45.94826" lon="6.26722">
        <ele>1376.26</ele>
        <time>2017-08-04T18:03:41Z</time>
      </trkpt>
      <trkpt lat="45.94825" lon="6.26721">
        <ele>1376.26</ele>
        <time>2017-08-04T18:03:42Z</time>
      </trkpt>
      <trkpt lat="45.94823" lon="6.2672">
        <ele>1376.26</ele>
        <time>2017-08-04T18:03:43Z</time>
      </trkpt>
      <trkpt lat="45.94821" lon="6.26718">
        <ele>1376.26</ele>
        <time>2017-08-04T18:03:44Z</time>
      </trkpt>
      <trkpt lat="45.94818" lon="6.26716">
        <ele>1376.75</ele>
        <time>2017-08-04T18:03:46Z</time>
      </trkpt>
      <trkpt lat="45.94817" lon="6.26714">
        <ele>1376.75</ele>
        <time>2017-08-04T18:03:47Z</time>
      </trkpt>
      <trkpt lat="45.94807" lon="6.26711">
        <ele>1376.75</ele>
        <time>2017-08-04T18:03:53Z</time>
      </trkpt>
      <trkpt lat="45.94806" lon="6.2671">
        <ele>1376.26</ele>
        <time>2017-08-04T18:03:54Z</time>
      </trkpt>
      <trkpt lat="45.94805" lon="6.26709">
        <ele>1376.26</ele>
        <time>2017-08-04T18:03:55Z</time>
      </trkpt>
      <trkpt lat="45.94803" lon="6.26709">
        <ele>1376.26</ele>
        <time>2017-08-04T18:03:56Z</time>
      </trkpt>
      <trkpt lat="45.94802" lon="6.26708">
        <ele>1376.26</ele>
        <time>2017-08-04T18:03:57Z</time>
      </trkpt>
      <trkpt lat="45.948" lon="6.26707">
        <ele>1376.26</ele>
        <time>2017-08-04T18:03:58Z</time>
      </trkpt>
      <trkpt lat="45.94798" lon="6.26705">
        <ele>1376.26</ele>
        <time>2017-08-04T18:03:59Z</time>
      </trkpt>
      <trkpt lat="45.94796" lon="6.26704">
        <ele>1376.26</ele>
        <time>2017-08-04T18:04:00Z</time>
      </trkpt>
      <trkpt lat="45.94795" lon="6.26703">
        <ele>1376.26</ele>
        <time>2017-08-04T18:04:01Z</time>
      </trkpt>
      <trkpt lat="45.94793" lon="6.26702">
        <ele>1376.26</ele>
        <time>2017-08-04T18:04:02Z</time>
      </trkpt>
      <trkpt lat="45.94792" lon="6.26701">
        <ele>1376.26</ele>
        <time>2017-08-04T18:04:03Z</time>
      </trkpt>
      <trkpt lat="45.9479" lon="6.26701">
        <ele>1376.26</ele>
        <time>2017-08-04T18:04:04Z</time>
      </trkpt>
      <trkpt lat="45.94788" lon="6.26702">
        <ele>1376.26</ele>
        <time>2017-08-04T18:04:05Z</time>
      </trkpt>
      <trkpt lat="45.94787" lon="6.26702">
        <ele>1376.26</ele>
        <time>2017-08-04T18:04:06Z</time>
      </trkpt>
      <trkpt lat="45.94785" lon="6.267">
        <ele>1376.26</ele>
        <time>2017-08-04T18:04:07Z</time>
      </trkpt>
      <trkpt lat="45.94783" lon="6.26699">
        <ele>1375.78</ele>
        <time>2017-08-04T18:04:08Z</time>
      </trkpt>
      <trkpt lat="45.94761" lon="6.26688">
        <ele>1374.82</ele>
        <time>2017-08-04T18:04:20Z</time>
      </trkpt>
      <trkpt lat="45.94759" lon="6.26688">
        <ele>1374.82</ele>
        <time>2017-08-04T18:04:21Z</time>
      </trkpt>
      <trkpt lat="45.94757" lon="6.26688">
        <ele>1374.82</ele>
        <time>2017-08-04T18:04:22Z</time>
      </trkpt>
      <trkpt lat="45.94748" lon="6.26687">
        <ele>1375.3</ele>
        <time>2017-08-04T18:04:27Z</time>
      </trkpt>
      <trkpt lat="45.94741" lon="6.26682">
        <ele>1375.78</ele>
        <time>2017-08-04T18:04:32Z</time>
      </trkpt>
      <trkpt lat="45.94739" lon="6.26682">
        <ele>1375.78</ele>
        <time>2017-08-04T18:04:33Z</time>
      </trkpt>
      <trkpt lat="45.9472" lon="6.26676">
        <ele>1374.82</ele>
        <time>2017-08-04T18:04:45Z</time>
      </trkpt>
      <trkpt lat="45.94719" lon="6.26675">
        <ele>1374.82</ele>
        <time>2017-08-04T18:04:46Z</time>
      </trkpt>
      <trkpt lat="45.94717" lon="6.26674">
        <ele>1374.82</ele>
        <time>2017-08-04T18:04:47Z</time>
      </trkpt>
      <trkpt lat="45.94714" lon="6.26675">
        <ele>1374.82</ele>
        <time>2017-08-04T18:04:48Z</time>
      </trkpt>
      <trkpt lat="45.94711" lon="6.26675">
        <ele>1374.82</ele>
        <time>2017-08-04T18:04:49Z</time>
      </trkpt>
      <trkpt lat="45.94705" lon="6.26675">
        <ele>1374.82</ele>
        <time>2017-08-04T18:04:52Z</time>
      </trkpt>
      <trkpt lat="45.94684" lon="6.26666">
        <ele>1373.86</ele>
        <time>2017-08-04T18:05:00Z</time>
      </trkpt>
      <trkpt lat="45.94683" lon="6.26664">
        <ele>1373.86</ele>
        <time>2017-08-04T18:05:01Z</time>
      </trkpt>
      <trkpt lat="45.94681" lon="6.26663">
        <ele>1373.86</ele>
        <time>2017-08-04T18:05:02Z</time>
      </trkpt>
      <trkpt lat="45.94679" lon="6.26662">
        <ele>1373.86</ele>
        <time>2017-08-04T18:05:03Z</time>
      </trkpt>
      <trkpt lat="45.94677" lon="6.26662">
        <ele>1374.34</ele>
        <time>2017-08-04T18:05:04Z</time>
      </trkpt>
      <trkpt lat="45.94675" lon="6.26661">
        <ele>1374.34</ele>
        <time>2017-08-04T18:05:05Z</time>
      </trkpt>
      <trkpt lat="45.94673" lon="6.26661">
        <ele>1374.34</ele>
        <time>2017-08-04T18:05:06Z</time>
      </trkpt>
      <trkpt lat="45.9465" lon="6.26659">
        <ele>1374.82</ele>
        <time>2017-08-04T18:05:18Z</time>
      </trkpt>
      <trkpt lat="45.94649" lon="6.26659">
        <ele>1374.82</ele>
        <time>2017-08-04T18:05:19Z</time>
      </trkpt>
      <trkpt lat="45.94648" lon="6.26659">
        <ele>1374.82</ele>
        <time>2017-08-04T18:05:20Z</time>
      </trkpt>
      <trkpt lat="45.94647" lon="6.2666">
        <ele>1375.3</ele>
        <time>2017-08-04T18:05:21Z</time>
      </trkpt>
      <trkpt lat="45.94645" lon="6.26661">
        <ele>1375.78</ele>
        <time>2017-08-04T18:05:22Z</time>
      </trkpt>
      <trkpt lat="45.94644" lon="6.26662">
        <ele>1375.78</ele>
        <time>2017-08-04T18:05:23Z</time>
      </trkpt>
      <trkpt lat="45.94642" lon="6.26661">
        <ele>1375.78</ele>
        <time>2017-08-04T18:05:24Z</time>
      </trkpt>
      <trkpt lat="45.9464" lon="6.26661">
        <ele>1375.78</ele>
        <time>2017-08-04T18:05:25Z</time>
      </trkpt>
      <trkpt lat="45.94637" lon="6.26661">
        <ele>1375.78</ele>
        <time>2017-08-04T18:05:26Z</time>
      </trkpt>
      <trkpt lat="45.94635" lon="6.2666">
        <ele>1375.78</ele>
        <time>2017-08-04T18:05:27Z</time>
      </trkpt>
      <trkpt lat="45.94628" lon="6.26655">
        <ele>1376.26</ele>
        <time>2017-08-04T18:05:31Z</time>
      </trkpt>
      <trkpt lat="45.94604" lon="6.26657">
        <ele>1377.71</ele>
        <time>2017-08-04T18:05:43Z</time>
      </trkpt>
      <trkpt lat="45.94602" lon="6.26658">
        <ele>1377.71</ele>
        <time>2017-08-04T18:05:44Z</time>
      </trkpt>
      <trkpt lat="45.94598" lon="6.2666">
        <ele>1379.15</ele>
        <time>2017-08-04T18:05:48Z</time>
      </trkpt>
      <trkpt lat="45.94595" lon="6.26659">
        <ele>1379.63</ele>
        <time>2017-08-04T18:05:49Z</time>
      </trkpt>
      <trkpt lat="45.94594" lon="6.26659">
        <ele>1379.63</ele>
        <time>2017-08-04T18:05:50Z</time>
      </trkpt>
      <trkpt lat="45.94592" lon="6.26659">
        <ele>1380.11</ele>
        <time>2017-08-04T18:05:51Z</time>
      </trkpt>
      <trkpt lat="45.9459" lon="6.26659">
        <ele>1380.11</ele>
        <time>2017-08-04T18:05:52Z</time>
      </trkpt>
      <trkpt lat="45.94586" lon="6.26658">
        <ele>1380.59</ele>
        <time>2017-08-04T18:05:55Z</time>
      </trkpt>
      <trkpt lat="45.94584" lon="6.26656">
        <ele>1380.11</ele>
        <time>2017-08-04T18:05:56Z</time>
      </trkpt>
      <trkpt lat="45.94567" lon="6.26641">
        <ele>1381.55</ele>
        <time>2017-08-04T18:06:10Z</time>
      </trkpt>
      <trkpt lat="45.94566" lon="6.2664">
        <ele>1381.55</ele>
        <time>2017-08-04T18:06:11Z</time>
      </trkpt>
      <trkpt lat="45.94564" lon="6.26636">
        <ele>1382.03</ele>
        <time>2017-08-04T18:06:12Z</time>
      </trkpt>
      <trkpt lat="45.94563" lon="6.26636">
        <ele>1382.03</ele>
        <time>2017-08-04T18:06:13Z</time>
      </trkpt>
      <trkpt lat="45.94562" lon="6.26633">
        <ele>1382.03</ele>
        <time>2017-08-04T18:06:14Z</time>
      </trkpt>
      <trkpt lat="45.94561" lon="6.2663">
        <ele>1382.03</ele>
        <time>2017-08-04T18:06:15Z</time>
      </trkpt>
      <trkpt lat="45.9456" lon="6.26628">
        <ele>1382.03</ele>
        <time>2017-08-04T18:06:16Z</time>
      </trkpt>
      <trkpt lat="45.94559" lon="6.26627">
        <ele>1382.51</ele>
        <time>2017-08-04T18:06:17Z</time>
      </trkpt>
      <trkpt lat="45.94554" lon="6.26615">
        <ele>1382.99</ele>
        <time>2017-08-04T18:06:23Z</time>
      </trkpt>
      <trkpt lat="45.94553" lon="6.26612">
        <ele>1383.47</ele>
        <time>2017-08-04T18:06:24Z</time>
      </trkpt>
      <trkpt lat="45.94552" lon="6.2661">
        <ele>1383.47</ele>
        <time>2017-08-04T18:06:25Z</time>
      </trkpt>
      <trkpt lat="45.94541" lon="6.26598">
        <ele>1384.44</ele>
        <time>2017-08-04T18:06:32Z</time>
      </trkpt>
      <trkpt lat="45.9454" lon="6.26597">
        <ele>1384.44</ele>
        <time>2017-08-04T18:06:33Z</time>
      </trkpt>
      <trkpt lat="45.94538" lon="6.26595">
        <ele>1384.92</ele>
        <time>2017-08-04T18:06:34Z</time>
      </trkpt>
      <trkpt lat="45.94537" lon="6.26595">
        <ele>1384.92</ele>
        <time>2017-08-04T18:06:35Z</time>
      </trkpt>
      <trkpt lat="45.94535" lon="6.26595">
        <ele>1384.92</ele>
        <time>2017-08-04T18:06:36Z</time>
      </trkpt>
      <trkpt lat="45.94534" lon="6.26595">
        <ele>1385.4</ele>
        <time>2017-08-04T18:06:37Z</time>
      </trkpt>
      <trkpt lat="45.94534" lon="6.26593">
        <ele>1385.4</ele>
        <time>2017-08-04T18:06:38Z</time>
      </trkpt>
      <trkpt lat="45.94532" lon="6.26592">
        <ele>1385.88</ele>
        <time>2017-08-04T18:06:39Z</time>
      </trkpt>
      <trkpt lat="45.94531" lon="6.26592">
        <ele>1385.88</ele>
        <time>2017-08-04T18:06:40Z</time>
      </trkpt>
      <trkpt lat="45.94529" lon="6.26591">
        <ele>1386.36</ele>
        <time>2017-08-04T18:06:41Z</time>
      </trkpt>
      <trkpt lat="45.94521" lon="6.26588">
        <ele>1387.8</ele>
        <time>2017-08-04T18:06:48Z</time>
      </trkpt>
      <trkpt lat="45.94508" lon="6.26584">
        <ele>1389.72</ele>
        <time>2017-08-04T18:07:01Z</time>
      </trkpt>
      <trkpt lat="45.94492" lon="6.26575">
        <ele>1392.61</ele>
        <time>2017-08-04T18:07:14Z</time>
      </trkpt>
      <trkpt lat="45.94478" lon="6.2657">
        <ele>1393.57</ele>
        <time>2017-08-04T18:07:24Z</time>
      </trkpt>
      <trkpt lat="45.94476" lon="6.26568">
        <ele>1393.57</ele>
        <time>2017-08-04T18:07:25Z</time>
      </trkpt>
      <trkpt lat="45.94475" lon="6.26566">
        <ele>1393.57</ele>
        <time>2017-08-04T18:07:26Z</time>
      </trkpt>
      <trkpt lat="45.94472" lon="6.26563">
        <ele>1393.57</ele>
        <time>2017-08-04T18:07:27Z</time>
      </trkpt>
      <trkpt lat="45.94471" lon="6.26561">
        <ele>1393.57</ele>
        <time>2017-08-04T18:07:28Z</time>
      </trkpt>
      <trkpt lat="45.94469" lon="6.26559">
        <ele>1394.05</ele>
        <time>2017-08-04T18:07:29Z</time>
      </trkpt>
      <trkpt lat="45.94467" lon="6.26556">
        <ele>1394.05</ele>
        <time>2017-08-04T18:07:30Z</time>
      </trkpt>
      <trkpt lat="45.94464" lon="6.26553">
        <ele>1395.01</ele>
        <time>2017-08-04T18:07:32Z</time>
      </trkpt>
      <trkpt lat="45.94461" lon="6.26552">
        <ele>1395.97</ele>
        <time>2017-08-04T18:07:35Z</time>
      </trkpt>
      <trkpt lat="45.94452" lon="6.26547">
        <ele>1396.93</ele>
        <time>2017-08-04T18:07:41Z</time>
      </trkpt>
      <trkpt lat="45.9445" lon="6.26546">
        <ele>1397.41</ele>
        <time>2017-08-04T18:07:42Z</time>
      </trkpt>
      <trkpt lat="45.94448" lon="6.26545">
        <ele>1397.41</ele>
        <time>2017-08-04T18:07:43Z</time>
      </trkpt>
      <trkpt lat="45.94447" lon="6.26544">
        <ele>1397.41</ele>
        <time>2017-08-04T18:07:44Z</time>
      </trkpt>
      <trkpt lat="45.94445" lon="6.26544">
        <ele>1397.41</ele>
        <time>2017-08-04T18:07:45Z</time>
      </trkpt>
      <trkpt lat="45.94444" lon="6.26543">
        <ele>1397.89</ele>
        <time>2017-08-04T18:07:46Z</time>
      </trkpt>
      <trkpt lat="45.94442" lon="6.26543">
        <ele>1397.89</ele>
        <time>2017-08-04T18:07:47Z</time>
      </trkpt>
      <trkpt lat="45.94441" lon="6.26543">
        <ele>1397.89</ele>
        <time>2017-08-04T18:07:48Z</time>
      </trkpt>
      <trkpt lat="45.94439" lon="6.26541">
        <ele>1397.89</ele>
        <time>2017-08-04T18:07:49Z</time>
      </trkpt>
      <trkpt lat="45.94437" lon="6.2654">
        <ele>1398.37</ele>
        <time>2017-08-04T18:07:50Z</time>
      </trkpt>
      <trkpt lat="45.94435" lon="6.26538">
        <ele>1398.37</ele>
        <time>2017-08-04T18:07:51Z</time>
      </trkpt>
      <trkpt lat="45.94433" lon="6.26536">
        <ele>1398.37</ele>
        <time>2017-08-04T18:07:52Z</time>
      </trkpt>
      <trkpt lat="45.94428" lon="6.26533">
        <ele>1399.34</ele>
        <time>2017-08-04T18:07:55Z</time>
      </trkpt>
      <trkpt lat="45.94426" lon="6.26531">
        <ele>1399.34</ele>
        <time>2017-08-04T18:07:56Z</time>
      </trkpt>
      <trkpt lat="45.94407" lon="6.26518">
        <ele>1401.74</ele>
        <time>2017-08-04T18:08:09Z</time>
      </trkpt>
      <trkpt lat="45.94392" lon="6.265">
        <ele>1402.7</ele>
        <time>2017-08-04T18:08:19Z</time>
      </trkpt>
      <trkpt lat="45.94377" lon="6.26488">
        <ele>1403.66</ele>
        <time>2017-08-04T18:08:29Z</time>
      </trkpt>
      <trkpt lat="45.94374" lon="6.26486">
        <ele>1404.14</ele>
        <time>2017-08-04T18:08:31Z</time>
      </trkpt>
      <trkpt lat="45.9436" lon="6.26471">
        <ele>1405.58</ele>
        <time>2017-08-04T18:08:43Z</time>
      </trkpt>
      <trkpt lat="45.94358" lon="6.2647">
        <ele>1405.58</ele>
        <time>2017-08-04T18:08:44Z</time>
      </trkpt>
      <trkpt lat="45.94357" lon="6.2647">
        <ele>1405.58</ele>
        <time>2017-08-04T18:08:45Z</time>
      </trkpt>
      <trkpt lat="45.94355" lon="6.26469">
        <ele>1406.55</ele>
        <time>2017-08-04T18:08:47Z</time>
      </trkpt>
      <trkpt lat="45.94353" lon="6.26467">
        <ele>1407.03</ele>
        <time>2017-08-04T18:08:48Z</time>
      </trkpt>
      <trkpt lat="45.94352" lon="6.26466">
        <ele>1407.03</ele>
        <time>2017-08-04T18:08:49Z</time>
      </trkpt>
      <trkpt lat="45.94351" lon="6.26464">
        <ele>1407.03</ele>
        <time>2017-08-04T18:08:50Z</time>
      </trkpt>
      <trkpt lat="45.94351" lon="6.26463">
        <ele>1407.51</ele>
        <time>2017-08-04T18:08:51Z</time>
      </trkpt>
      <trkpt lat="45.9435" lon="6.26461">
        <ele>1407.99</ele>
        <time>2017-08-04T18:08:52Z</time>
      </trkpt>
      <trkpt lat="45.94349" lon="6.2646">
        <ele>1407.99</ele>
        <time>2017-08-04T18:08:53Z</time>
      </trkpt>
      <trkpt lat="45.94337" lon="6.26434">
        <ele>1407.99</ele>
        <time>2017-08-04T18:09:06Z</time>
      </trkpt>
      <trkpt lat="45.94336" lon="6.26432">
        <ele>1407.99</ele>
        <time>2017-08-04T18:09:07Z</time>
      </trkpt>
      <trkpt lat="45.94336" lon="6.26429">
        <ele>1407.99</ele>
        <time>2017-08-04T18:09:08Z</time>
      </trkpt>
      <trkpt lat="45.94334" lon="6.26425">
        <ele>1407.99</ele>
        <time>2017-08-04T18:09:10Z</time>
      </trkpt>
      <trkpt lat="45.94319" lon="6.264">
        <ele>1408.47</ele>
        <time>2017-08-04T18:09:23Z</time>
      </trkpt>
      <trkpt lat="45.94317" lon="6.26398">
        <ele>1408.47</ele>
        <time>2017-08-04T18:09:24Z</time>
      </trkpt>
      <trkpt lat="45.94316" lon="6.26396">
        <ele>1408.47</ele>
        <time>2017-08-04T18:09:25Z</time>
      </trkpt>
      <trkpt lat="45.94315" lon="6.26394">
        <ele>1408.47</ele>
        <time>2017-08-04T18:09:26Z</time>
      </trkpt>
      <trkpt lat="45.94314" lon="6.26391">
        <ele>1408.95</ele>
        <time>2017-08-04T18:09:27Z</time>
      </trkpt>
      <trkpt lat="45.94306" lon="6.26374">
        <ele>1408.95</ele>
        <time>2017-08-04T18:09:35Z</time>
      </trkpt>
      <trkpt lat="45.94292" lon="6.26342">
        <ele>1410.39</ele>
        <time>2017-08-04T18:09:48Z</time>
      </trkpt>
      <trkpt lat="45.94278" lon="6.26313">
        <ele>1412.31</ele>
        <time>2017-08-04T18:10:01Z</time>
      </trkpt>
      <trkpt lat="45.94259" lon="6.26288">
        <ele>1412.31</ele>
        <time>2017-08-04T18:10:13Z</time>
      </trkpt>
      <trkpt lat="45.94257" lon="6.26285">
        <ele>1412.31</ele>
        <time>2017-08-04T18:10:14Z</time>
      </trkpt>
      <trkpt lat="45.94254" lon="6.26283">
        <ele>1412.31</ele>
        <time>2017-08-04T18:10:15Z</time>
      </trkpt>
      <trkpt lat="45.94252" lon="6.2628">
        <ele>1412.31</ele>
        <time>2017-08-04T18:10:16Z</time>
      </trkpt>
      <trkpt lat="45.9425" lon="6.26279">
        <ele>1412.31</ele>
        <time>2017-08-04T18:10:17Z</time>
      </trkpt>
      <trkpt lat="45.94248" lon="6.26277">
        <ele>1412.31</ele>
        <time>2017-08-04T18:10:18Z</time>
      </trkpt>
      <trkpt lat="45.94235" lon="6.26267">
        <ele>1412.79</ele>
        <time>2017-08-04T18:10:24Z</time>
      </trkpt>
      <trkpt lat="45.94232" lon="6.26264">
        <ele>1412.79</ele>
        <time>2017-08-04T18:10:26Z</time>
      </trkpt>
      <trkpt lat="45.9423" lon="6.26261">
        <ele>1412.79</ele>
        <time>2017-08-04T18:10:27Z</time>
      </trkpt>
      <trkpt lat="45.94218" lon="6.26231">
        <ele>1414.72</ele>
        <time>2017-08-04T18:10:39Z</time>
      </trkpt>
      <trkpt lat="45.94216" lon="6.26228">
        <ele>1415.2</ele>
        <time>2017-08-04T18:10:41Z</time>
      </trkpt>
      <trkpt lat="45.94214" lon="6.26228">
        <ele>1415.2</ele>
        <time>2017-08-04T18:10:42Z</time>
      </trkpt>
      <trkpt lat="45.94213" lon="6.26227">
        <ele>1415.2</ele>
        <time>2017-08-04T18:10:43Z</time>
      </trkpt>
      <trkpt lat="45.94211" lon="6.26226">
        <ele>1415.2</ele>
        <time>2017-08-04T18:10:44Z</time>
      </trkpt>
      <trkpt lat="45.9421" lon="6.26225">
        <ele>1415.2</ele>
        <time>2017-08-04T18:10:45Z</time>
      </trkpt>
      <trkpt lat="45.94209" lon="6.26224">
        <ele>1415.2</ele>
        <time>2017-08-04T18:10:46Z</time>
      </trkpt>
      <trkpt lat="45.94208" lon="6.26222">
        <ele>1415.2</ele>
        <time>2017-08-04T18:10:47Z</time>
      </trkpt>
      <trkpt lat="45.94206" lon="6.26221">
        <ele>1415.68</ele>
        <time>2017-08-04T18:10:48Z</time>
      </trkpt>
      <trkpt lat="45.94204" lon="6.2622">
        <ele>1415.68</ele>
        <time>2017-08-04T18:10:49Z</time>
      </trkpt>
      <trkpt lat="45.94202" lon="6.26218">
        <ele>1415.68</ele>
        <time>2017-08-04T18:10:50Z</time>
      </trkpt>
      <trkpt lat="45.94201" lon="6.26216">
        <ele>1415.2</ele>
        <time>2017-08-04T18:10:51Z</time>
      </trkpt>
      <trkpt lat="45.942" lon="6.26215">
        <ele>1415.2</ele>
        <time>2017-08-04T18:10:52Z</time>
      </trkpt>
      <trkpt lat="45.94198" lon="6.26213">
        <ele>1415.2</ele>
        <time>2017-08-04T18:10:53Z</time>
      </trkpt>
      <trkpt lat="45.94197" lon="6.26211">
        <ele>1415.2</ele>
        <time>2017-08-04T18:10:54Z</time>
      </trkpt>
      <trkpt lat="45.94193" lon="6.26206">
        <ele>1415.2</ele>
        <time>2017-08-04T18:10:57Z</time>
      </trkpt>
      <trkpt lat="45.94192" lon="6.26205">
        <ele>1415.68</ele>
        <time>2017-08-04T18:10:59Z</time>
      </trkpt>
      <trkpt lat="45.94191" lon="6.26204">
        <ele>1415.68</ele>
        <time>2017-08-04T18:11:00Z</time>
      </trkpt>
      <trkpt lat="45.94189" lon="6.26203">
        <ele>1416.16</ele>
        <time>2017-08-04T18:11:01Z</time>
      </trkpt>
      <trkpt lat="45.94187" lon="6.26202">
        <ele>1416.64</ele>
        <time>2017-08-04T18:11:02Z</time>
      </trkpt>
      <trkpt lat="45.94186" lon="6.26201">
        <ele>1416.64</ele>
        <time>2017-08-04T18:11:03Z</time>
      </trkpt>
      <trkpt lat="45.94184" lon="6.262">
        <ele>1416.64</ele>
        <time>2017-08-04T18:11:04Z</time>
      </trkpt>
      <trkpt lat="45.94183" lon="6.26199">
        <ele>1416.64</ele>
        <time>2017-08-04T18:11:05Z</time>
      </trkpt>
      <trkpt lat="45.94182" lon="6.26198">
        <ele>1416.64</ele>
        <time>2017-08-04T18:11:06Z</time>
      </trkpt>
      <trkpt lat="45.9418" lon="6.26198">
        <ele>1416.64</ele>
        <time>2017-08-04T18:11:07Z</time>
      </trkpt>
      <trkpt lat="45.94179" lon="6.26197">
        <ele>1416.64</ele>
        <time>2017-08-04T18:11:08Z</time>
      </trkpt>
      <trkpt lat="45.94177" lon="6.26196">
        <ele>1417.12</ele>
        <time>2017-08-04T18:11:09Z</time>
      </trkpt>
      <trkpt lat="45.94175" lon="6.26195">
        <ele>1417.12</ele>
        <time>2017-08-04T18:11:10Z</time>
      </trkpt>
      <trkpt lat="45.94173" lon="6.26193">
        <ele>1417.6</ele>
        <time>2017-08-04T18:11:11Z</time>
      </trkpt>
      <trkpt lat="45.94171" lon="6.26192">
        <ele>1417.6</ele>
        <time>2017-08-04T18:11:12Z</time>
      </trkpt>
      <trkpt lat="45.9417" lon="6.26192">
        <ele>1417.6</ele>
        <time>2017-08-04T18:11:13Z</time>
      </trkpt>
      <trkpt lat="45.94168" lon="6.26192">
        <ele>1418.08</ele>
        <time>2017-08-04T18:11:14Z</time>
      </trkpt>
      <trkpt lat="45.94157" lon="6.2619">
        <ele>1419.04</ele>
        <time>2017-08-04T18:11:21Z</time>
      </trkpt>
      <trkpt lat="45.94155" lon="6.26188">
        <ele>1419.04</ele>
        <time>2017-08-04T18:11:22Z</time>
      </trkpt>
      <trkpt lat="45.94154" lon="6.26187">
        <ele>1419.04</ele>
        <time>2017-08-04T18:11:23Z</time>
      </trkpt>
      <trkpt lat="45.94153" lon="6.26185">
        <ele>1419.04</ele>
        <time>2017-08-04T18:11:24Z</time>
      </trkpt>
      <trkpt lat="45.94152" lon="6.26185">
        <ele>1419.52</ele>
        <time>2017-08-04T18:11:25Z</time>
      </trkpt>
      <trkpt lat="45.94151" lon="6.26185">
        <ele>1420</ele>
        <time>2017-08-04T18:11:26Z</time>
      </trkpt>
      <trkpt lat="45.94149" lon="6.26185">
        <ele>1420</ele>
        <time>2017-08-04T18:11:27Z</time>
      </trkpt>
      <trkpt lat="45.94148" lon="6.26185">
        <ele>1420.49</ele>
        <time>2017-08-04T18:11:28Z</time>
      </trkpt>
      <trkpt lat="45.94147" lon="6.26184">
        <ele>1420.49</ele>
        <time>2017-08-04T18:11:29Z</time>
      </trkpt>
      <trkpt lat="45.94145" lon="6.26184">
        <ele>1420.97</ele>
        <time>2017-08-04T18:11:30Z</time>
      </trkpt>
      <trkpt lat="45.94143" lon="6.26185">
        <ele>1421.45</ele>
        <time>2017-08-04T18:11:31Z</time>
      </trkpt>
      <trkpt lat="45.94142" lon="6.26186">
        <ele>1421.93</ele>
        <time>2017-08-04T18:11:32Z</time>
      </trkpt>
      <trkpt lat="45.9414" lon="6.26187">
        <ele>1421.93</ele>
        <time>2017-08-04T18:11:33Z</time>
      </trkpt>
      <trkpt lat="45.94138" lon="6.26187">
        <ele>1422.41</ele>
        <time>2017-08-04T18:11:34Z</time>
      </trkpt>
      <trkpt lat="45.94136" lon="6.26188">
        <ele>1422.41</ele>
        <time>2017-08-04T18:11:35Z</time>
      </trkpt>
      <trkpt lat="45.94135" lon="6.26188">
        <ele>1422.41</ele>
        <time>2017-08-04T18:11:36Z</time>
      </trkpt>
      <trkpt lat="45.94134" lon="6.26188">
        <ele>1422.41</ele>
        <time>2017-08-04T18:11:37Z</time>
      </trkpt>
      <trkpt lat="45.94133" lon="6.26188">
        <ele>1422.89</ele>
        <time>2017-08-04T18:11:38Z</time>
      </trkpt>
      <trkpt lat="45.9413" lon="6.26187">
        <ele>1422.89</ele>
        <time>2017-08-04T18:11:40Z</time>
      </trkpt>
      <trkpt lat="45.94127" lon="6.26184">
        <ele>1423.37</ele>
        <time>2017-08-04T18:11:43Z</time>
      </trkpt>
      <trkpt lat="45.94126" lon="6.26182">
        <ele>1423.85</ele>
        <time>2017-08-04T18:11:44Z</time>
      </trkpt>
      <trkpt lat="45.94125" lon="6.2618">
        <ele>1423.85</ele>
        <time>2017-08-04T18:11:45Z</time>
      </trkpt>
      <trkpt lat="45.94124" lon="6.26178">
        <ele>1424.33</ele>
        <time>2017-08-04T18:11:46Z</time>
      </trkpt>
      <trkpt lat="45.94122" lon="6.26178">
        <ele>1424.81</ele>
        <time>2017-08-04T18:11:48Z</time>
      </trkpt>
      <trkpt lat="45.9412" lon="6.26177">
        <ele>1424.81</ele>
        <time>2017-08-04T18:11:49Z</time>
      </trkpt>
      <trkpt lat="45.94109" lon="6.26171">
        <ele>1426.25</ele>
        <time>2017-08-04T18:11:55Z</time>
      </trkpt>
      <trkpt lat="45.94096" lon="6.26166">
        <ele>1428.18</ele>
        <time>2017-08-04T18:12:03Z</time>
      </trkpt>
      <trkpt lat="45.9409" lon="6.26162">
        <ele>1429.14</ele>
        <time>2017-08-04T18:12:10Z</time>
      </trkpt>
      <trkpt lat="45.94075" lon="6.26147">
        <ele>1431.54</ele>
        <time>2017-08-04T18:12:23Z</time>
      </trkpt>
      <trkpt lat="45.94074" lon="6.26146">
        <ele>1431.54</ele>
        <time>2017-08-04T18:12:24Z</time>
      </trkpt>
      <trkpt lat="45.94072" lon="6.26145">
        <ele>1432.02</ele>
        <time>2017-08-04T18:12:25Z</time>
      </trkpt>
      <trkpt lat="45.94071" lon="6.26145">
        <ele>1432.02</ele>
        <time>2017-08-04T18:12:26Z</time>
      </trkpt>
      <trkpt lat="45.9407" lon="6.26144">
        <ele>1432.02</ele>
        <time>2017-08-04T18:12:27Z</time>
      </trkpt>
      <trkpt lat="45.94069" lon="6.26142">
        <ele>1432.5</ele>
        <time>2017-08-04T18:12:28Z</time>
      </trkpt>
      <trkpt lat="45.94068" lon="6.26141">
        <ele>1432.5</ele>
        <time>2017-08-04T18:12:29Z</time>
      </trkpt>
      <trkpt lat="45.94058" lon="6.26139">
        <ele>1433.94</ele>
        <time>2017-08-04T18:12:39Z</time>
      </trkpt>
      <trkpt lat="45.94055" lon="6.26138">
        <ele>1433.94</ele>
        <time>2017-08-04T18:12:42Z</time>
      </trkpt>
      <trkpt lat="45.94051" lon="6.26139">
        <ele>1433.94</ele>
        <time>2017-08-04T18:12:47Z</time>
      </trkpt>
      <trkpt lat="45.94048" lon="6.26139">
        <ele>1434.42</ele>
        <time>2017-08-04T18:12:51Z</time>
      </trkpt>
      <trkpt lat="45.94045" lon="6.26136">
        <ele>1434.42</ele>
        <time>2017-08-04T18:12:53Z</time>
      </trkpt>
      <trkpt lat="45.94044" lon="6.26135">
        <ele>1434.42</ele>
        <time>2017-08-04T18:12:54Z</time>
      </trkpt>
      <trkpt lat="45.94032" lon="6.26121">
        <ele>1436.35</ele>
        <time>2017-08-04T18:13:03Z</time>
      </trkpt>
      <trkpt lat="45.9403" lon="6.26119">
        <ele>1436.35</ele>
        <time>2017-08-04T18:13:04Z</time>
      </trkpt>
      <trkpt lat="45.94028" lon="6.26118">
        <ele>1436.35</ele>
        <time>2017-08-04T18:13:05Z</time>
      </trkpt>
      <trkpt lat="45.94026" lon="6.26117">
        <ele>1436.35</ele>
        <time>2017-08-04T18:13:06Z</time>
      </trkpt>
      <trkpt lat="45.94025" lon="6.26116">
        <ele>1436.35</ele>
        <time>2017-08-04T18:13:07Z</time>
      </trkpt>
      <trkpt lat="45.94024" lon="6.26115">
        <ele>1436.35</ele>
        <time>2017-08-04T18:13:08Z</time>
      </trkpt>
      <trkpt lat="45.94022" lon="6.26114">
        <ele>1436.35</ele>
        <time>2017-08-04T18:13:09Z</time>
      </trkpt>
      <trkpt lat="45.94021" lon="6.26114">
        <ele>1436.35</ele>
        <time>2017-08-04T18:13:10Z</time>
      </trkpt>
      <trkpt lat="45.94019" lon="6.26113">
        <ele>1436.35</ele>
        <time>2017-08-04T18:13:11Z</time>
      </trkpt>
      <trkpt lat="45.94017" lon="6.26112">
        <ele>1436.35</ele>
        <time>2017-08-04T18:13:12Z</time>
      </trkpt>
      <trkpt lat="45.94015" lon="6.2611">
        <ele>1436.35</ele>
        <time>2017-08-04T18:13:13Z</time>
      </trkpt>
      <trkpt lat="45.94011" lon="6.26105">
        <ele>1436.35</ele>
        <time>2017-08-04T18:13:16Z</time>
      </trkpt>
      <trkpt lat="45.94009" lon="6.26105">
        <ele>1436.83</ele>
        <time>2017-08-04T18:13:17Z</time>
      </trkpt>
      <trkpt lat="45.94007" lon="6.26105">
        <ele>1436.83</ele>
        <time>2017-08-04T18:13:18Z</time>
      </trkpt>
      <trkpt lat="45.94006" lon="6.26104">
        <ele>1436.83</ele>
        <time>2017-08-04T18:13:19Z</time>
      </trkpt>
      <trkpt lat="45.94004" lon="6.26105">
        <ele>1436.83</ele>
        <time>2017-08-04T18:13:20Z</time>
      </trkpt>
      <trkpt lat="45.94002" lon="6.26106">
        <ele>1437.31</ele>
        <time>2017-08-04T18:13:21Z</time>
      </trkpt>
      <trkpt lat="45.94" lon="6.26107">
        <ele>1437.31</ele>
        <time>2017-08-04T18:13:22Z</time>
      </trkpt>
      <trkpt lat="45.93998" lon="6.26107">
        <ele>1437.79</ele>
        <time>2017-08-04T18:13:23Z</time>
      </trkpt>
      <trkpt lat="45.93996" lon="6.26108">
        <ele>1437.79</ele>
        <time>2017-08-04T18:13:24Z</time>
      </trkpt>
      <trkpt lat="45.93994" lon="6.26108">
        <ele>1437.79</ele>
        <time>2017-08-04T18:13:25Z</time>
      </trkpt>
      <trkpt lat="45.93992" lon="6.26109">
        <ele>1437.79</ele>
        <time>2017-08-04T18:13:26Z</time>
      </trkpt>
      <trkpt lat="45.9398" lon="6.26115">
        <ele>1439.23</ele>
        <time>2017-08-04T18:13:34Z</time>
      </trkpt>
      <trkpt lat="45.93979" lon="6.26114">
        <ele>1439.71</ele>
        <time>2017-08-04T18:13:35Z</time>
      </trkpt>
      <trkpt lat="45.93977" lon="6.26112">
        <ele>1439.71</ele>
        <time>2017-08-04T18:13:36Z</time>
      </trkpt>
      <trkpt lat="45.93976" lon="6.26109">
        <ele>1439.71</ele>
        <time>2017-08-04T18:13:37Z</time>
      </trkpt>
      <trkpt lat="45.93974" lon="6.26108">
        <ele>1439.71</ele>
        <time>2017-08-04T18:13:38Z</time>
      </trkpt>
      <trkpt lat="45.93974" lon="6.26106">
        <ele>1440.19</ele>
        <time>2017-08-04T18:13:39Z</time>
      </trkpt>
      <trkpt lat="45.93972" lon="6.26106">
        <ele>1440.19</ele>
        <time>2017-08-04T18:13:40Z</time>
      </trkpt>
      <trkpt lat="45.93972" lon="6.26104">
        <ele>1440.19</ele>
        <time>2017-08-04T18:13:41Z</time>
      </trkpt>
      <trkpt lat="45.93971" lon="6.26102">
        <ele>1440.19</ele>
        <time>2017-08-04T18:13:42Z</time>
      </trkpt>
      <trkpt lat="45.9397" lon="6.26101">
        <ele>1440.67</ele>
        <time>2017-08-04T18:13:43Z</time>
      </trkpt>
      <trkpt lat="45.93969" lon="6.26099">
        <ele>1440.67</ele>
        <time>2017-08-04T18:13:44Z</time>
      </trkpt>
      <trkpt lat="45.93967" lon="6.26098">
        <ele>1441.15</ele>
        <time>2017-08-04T18:13:45Z</time>
      </trkpt>
      <trkpt lat="45.93966" lon="6.26095">
        <ele>1441.15</ele>
        <time>2017-08-04T18:13:46Z</time>
      </trkpt>
      <trkpt lat="45.93964" lon="6.26094">
        <ele>1441.15</ele>
        <time>2017-08-04T18:13:47Z</time>
      </trkpt>
      <trkpt lat="45.9396" lon="6.26091">
        <ele>1441.63</ele>
        <time>2017-08-04T18:13:51Z</time>
      </trkpt>
      <trkpt lat="45.93959" lon="6.26091">
        <ele>1441.63</ele>
        <time>2017-08-04T18:13:52Z</time>
      </trkpt>
      <trkpt lat="45.93958" lon="6.2609">
        <ele>1442.11</ele>
        <time>2017-08-04T18:13:53Z</time>
      </trkpt>
      <trkpt lat="45.93957" lon="6.26088">
        <ele>1442.11</ele>
        <time>2017-08-04T18:13:54Z</time>
      </trkpt>
      <trkpt lat="45.93956" lon="6.26085">
        <ele>1442.6</ele>
        <time>2017-08-04T18:13:55Z</time>
      </trkpt>
      <trkpt lat="45.93954" lon="6.26083">
        <ele>1442.6</ele>
        <time>2017-08-04T18:13:56Z</time>
      </trkpt>
      <trkpt lat="45.93953" lon="6.26082">
        <ele>1443.08</ele>
        <time>2017-08-04T18:13:57Z</time>
      </trkpt>
      <trkpt lat="45.93952" lon="6.26081">
        <ele>1443.08</ele>
        <time>2017-08-04T18:13:58Z</time>
      </trkpt>
      <trkpt lat="45.9395" lon="6.26078">
        <ele>1443.56</ele>
        <time>2017-08-04T18:13:59Z</time>
      </trkpt>
      <trkpt lat="45.93949" lon="6.26077">
        <ele>1443.56</ele>
        <time>2017-08-04T18:14:00Z</time>
      </trkpt>
      <trkpt lat="45.93947" lon="6.26076">
        <ele>1443.56</ele>
        <time>2017-08-04T18:14:01Z</time>
      </trkpt>
      <trkpt lat="45.93946" lon="6.26076">
        <ele>1444.04</ele>
        <time>2017-08-04T18:14:02Z</time>
      </trkpt>
      <trkpt lat="45.93945" lon="6.26076">
        <ele>1444.04</ele>
        <time>2017-08-04T18:14:03Z</time>
      </trkpt>
      <trkpt lat="45.93937" lon="6.26076">
        <ele>1445</ele>
        <time>2017-08-04T18:14:08Z</time>
      </trkpt>
      <trkpt lat="45.93936" lon="6.26074">
        <ele>1445</ele>
        <time>2017-08-04T18:14:09Z</time>
      </trkpt>
      <trkpt lat="45.93934" lon="6.26073">
        <ele>1445</ele>
        <time>2017-08-04T18:14:10Z</time>
      </trkpt>
      <trkpt lat="45.93916" lon="6.2606">
        <ele>1447.88</ele>
        <time>2017-08-04T18:14:24Z</time>
      </trkpt>
      <trkpt lat="45.93911" lon="6.26054">
        <ele>1448.36</ele>
        <time>2017-08-04T18:14:28Z</time>
      </trkpt>
      <trkpt lat="45.9391" lon="6.26046">
        <ele>1448.36</ele>
        <time>2017-08-04T18:14:34Z</time>
      </trkpt>
      <trkpt lat="45.93908" lon="6.26044">
        <ele>1448.36</ele>
        <time>2017-08-04T18:14:35Z</time>
      </trkpt>
      <trkpt lat="45.93907" lon="6.26042">
        <ele>1448.84</ele>
        <time>2017-08-04T18:14:36Z</time>
      </trkpt>
      <trkpt lat="45.93906" lon="6.2604">
        <ele>1448.84</ele>
        <time>2017-08-04T18:14:37Z</time>
      </trkpt>
      <trkpt lat="45.93904" lon="6.26039">
        <ele>1449.32</ele>
        <time>2017-08-04T18:14:38Z</time>
      </trkpt>
      <trkpt lat="45.93903" lon="6.26037">
        <ele>1449.81</ele>
        <time>2017-08-04T18:14:39Z</time>
      </trkpt>
      <trkpt lat="45.93891" lon="6.26021">
        <ele>1450.29</ele>
        <time>2017-08-04T18:14:48Z</time>
      </trkpt>
      <trkpt lat="45.9389" lon="6.26019">
        <ele>1450.29</ele>
        <time>2017-08-04T18:14:49Z</time>
      </trkpt>
      <trkpt lat="45.93889" lon="6.26018">
        <ele>1450.29</ele>
        <time>2017-08-04T18:14:50Z</time>
      </trkpt>
      <trkpt lat="45.93869" lon="6.26001">
        <ele>1452.69</ele>
        <time>2017-08-04T18:15:03Z</time>
      </trkpt>
      <trkpt lat="45.93866" lon="6.25999">
        <ele>1453.17</ele>
        <time>2017-08-04T18:15:05Z</time>
      </trkpt>
      <trkpt lat="45.93865" lon="6.25999">
        <ele>1453.17</ele>
        <time>2017-08-04T18:15:06Z</time>
      </trkpt>
      <trkpt lat="45.93864" lon="6.25998">
        <ele>1453.17</ele>
        <time>2017-08-04T18:15:07Z</time>
      </trkpt>
      <trkpt lat="45.93862" lon="6.25997">
        <ele>1453.65</ele>
        <time>2017-08-04T18:15:08Z</time>
      </trkpt>
      <trkpt lat="45.93861" lon="6.25996">
        <ele>1453.65</ele>
        <time>2017-08-04T18:15:09Z</time>
      </trkpt>
      <trkpt lat="45.93852" lon="6.25993">
        <ele>1454.61</ele>
        <time>2017-08-04T18:15:15Z</time>
      </trkpt>
      <trkpt lat="45.93851" lon="6.25992">
        <ele>1455.09</ele>
        <time>2017-08-04T18:15:16Z</time>
      </trkpt>
      <trkpt lat="45.93849" lon="6.25992">
        <ele>1455.09</ele>
        <time>2017-08-04T18:15:17Z</time>
      </trkpt>
      <trkpt lat="45.93848" lon="6.25992">
        <ele>1455.57</ele>
        <time>2017-08-04T18:15:18Z</time>
      </trkpt>
      <trkpt lat="45.93846" lon="6.25991">
        <ele>1455.57</ele>
        <time>2017-08-04T18:15:19Z</time>
      </trkpt>
      <trkpt lat="45.93845" lon="6.2599">
        <ele>1455.57</ele>
        <time>2017-08-04T18:15:20Z</time>
      </trkpt>
      <trkpt lat="45.93843" lon="6.25989">
        <ele>1456.05</ele>
        <time>2017-08-04T18:15:21Z</time>
      </trkpt>
      <trkpt lat="45.93842" lon="6.25988">
        <ele>1456.05</ele>
        <time>2017-08-04T18:15:22Z</time>
      </trkpt>
      <trkpt lat="45.9384" lon="6.25986">
        <ele>1456.53</ele>
        <time>2017-08-04T18:15:23Z</time>
      </trkpt>
      <trkpt lat="45.93839" lon="6.25985">
        <ele>1456.53</ele>
        <time>2017-08-04T18:15:24Z</time>
      </trkpt>
      <trkpt lat="45.93829" lon="6.2597">
        <ele>1457.5</ele>
        <time>2017-08-04T18:15:32Z</time>
      </trkpt>
      <trkpt lat="45.93813" lon="6.25967">
        <ele>1459.42</ele>
        <time>2017-08-04T18:15:41Z</time>
      </trkpt>
      <trkpt lat="45.93812" lon="6.25968">
        <ele>1459.9</ele>
        <time>2017-08-04T18:15:42Z</time>
      </trkpt>
      <trkpt lat="45.93811" lon="6.25968">
        <ele>1459.9</ele>
        <time>2017-08-04T18:15:43Z</time>
      </trkpt>
      <trkpt lat="45.93809" lon="6.25967">
        <ele>1460.38</ele>
        <time>2017-08-04T18:15:44Z</time>
      </trkpt>
      <trkpt lat="45.93807" lon="6.25967">
        <ele>1460.38</ele>
        <time>2017-08-04T18:15:45Z</time>
      </trkpt>
      <trkpt lat="45.93806" lon="6.25966">
        <ele>1460.38</ele>
        <time>2017-08-04T18:15:46Z</time>
      </trkpt>
      <trkpt lat="45.93801" lon="6.2596">
        <ele>1461.82</ele>
        <time>2017-08-04T18:15:51Z</time>
      </trkpt>
      <trkpt lat="45.938" lon="6.25958">
        <ele>1461.82</ele>
        <time>2017-08-04T18:15:52Z</time>
      </trkpt>
      <trkpt lat="45.93799" lon="6.25957">
        <ele>1461.82</ele>
        <time>2017-08-04T18:15:53Z</time>
      </trkpt>
      <trkpt lat="45.93797" lon="6.25956">
        <ele>1461.82</ele>
        <time>2017-08-04T18:15:54Z</time>
      </trkpt>
      <trkpt lat="45.93796" lon="6.25954">
        <ele>1461.82</ele>
        <time>2017-08-04T18:15:55Z</time>
      </trkpt>
      <trkpt lat="45.93794" lon="6.25953">
        <ele>1461.82</ele>
        <time>2017-08-04T18:15:56Z</time>
      </trkpt>
      <trkpt lat="45.93793" lon="6.25951">
        <ele>1461.82</ele>
        <time>2017-08-04T18:15:57Z</time>
      </trkpt>
      <trkpt lat="45.93792" lon="6.25949">
        <ele>1462.3</ele>
        <time>2017-08-04T18:15:58Z</time>
      </trkpt>
      <trkpt lat="45.93791" lon="6.25948">
        <ele>1462.3</ele>
        <time>2017-08-04T18:15:59Z</time>
      </trkpt>
      <trkpt lat="45.9379" lon="6.25946">
        <ele>1462.78</ele>
        <time>2017-08-04T18:16:00Z</time>
      </trkpt>
      <trkpt lat="45.93789" lon="6.25945">
        <ele>1462.78</ele>
        <time>2017-08-04T18:16:01Z</time>
      </trkpt>
      <trkpt lat="45.93788" lon="6.25944">
        <ele>1462.78</ele>
        <time>2017-08-04T18:16:02Z</time>
      </trkpt>
      <trkpt lat="45.93786" lon="6.25943">
        <ele>1462.78</ele>
        <time>2017-08-04T18:16:03Z</time>
      </trkpt>
      <trkpt lat="45.93771" lon="6.25924">
        <ele>1465.19</ele>
        <time>2017-08-04T18:16:16Z</time>
      </trkpt>
      <trkpt lat="45.93767" lon="6.25922">
        <ele>1467.11</ele>
        <time>2017-08-04T18:16:25Z</time>
      </trkpt>
      <trkpt lat="45.93763" lon="6.25912">
        <ele>1467.59</ele>
        <time>2017-08-04T18:16:32Z</time>
      </trkpt>
      <trkpt lat="45.93762" lon="6.25911">
        <ele>1467.59</ele>
        <time>2017-08-04T18:16:33Z</time>
      </trkpt>
      <trkpt lat="45.93757" lon="6.25909">
        <ele>1467.11</ele>
        <time>2017-08-04T18:16:38Z</time>
      </trkpt>
      <trkpt lat="45.93752" lon="6.25907">
        <ele>1467.59</ele>
        <time>2017-08-04T18:16:44Z</time>
      </trkpt>
      <trkpt lat="45.9375" lon="6.25906">
        <ele>1469.03</ele>
        <time>2017-08-04T18:16:48Z</time>
      </trkpt>
      <trkpt lat="45.93741" lon="6.25903">
        <ele>1471.92</ele>
        <time>2017-08-04T18:17:02Z</time>
      </trkpt>
      <trkpt lat="45.93736" lon="6.25899">
        <ele>1473.84</ele>
        <time>2017-08-04T18:17:12Z</time>
      </trkpt>
      <trkpt lat="45.93718" lon="6.25889">
        <ele>1472.88</ele>
        <time>2017-08-04T18:17:25Z</time>
      </trkpt>
      <trkpt lat="45.93714" lon="6.25885">
        <ele>1473.84</ele>
        <time>2017-08-04T18:17:29Z</time>
      </trkpt>
      <trkpt lat="45.93698" lon="6.25878">
        <ele>1475.76</ele>
        <time>2017-08-04T18:17:39Z</time>
      </trkpt>
      <trkpt lat="45.93697" lon="6.25878">
        <ele>1476.24</ele>
        <time>2017-08-04T18:17:40Z</time>
      </trkpt>
      <trkpt lat="45.93691" lon="6.25879">
        <ele>1477.68</ele>
        <time>2017-08-04T18:17:44Z</time>
      </trkpt>
      <trkpt lat="45.9369" lon="6.25878">
        <ele>1478.16</ele>
        <time>2017-08-04T18:17:45Z</time>
      </trkpt>
      <trkpt lat="45.93688" lon="6.25877">
        <ele>1478.16</ele>
        <time>2017-08-04T18:17:46Z</time>
      </trkpt>
      <trkpt lat="45.93687" lon="6.25877">
        <ele>1478.16</ele>
        <time>2017-08-04T18:17:47Z</time>
      </trkpt>
      <trkpt lat="45.93683" lon="6.25872">
        <ele>1479.61</ele>
        <time>2017-08-04T18:17:51Z</time>
      </trkpt>
      <trkpt lat="45.9368" lon="6.2587">
        <ele>1479.61</ele>
        <time>2017-08-04T18:17:53Z</time>
      </trkpt>
      <trkpt lat="45.93679" lon="6.25868">
        <ele>1479.61</ele>
        <time>2017-08-04T18:17:54Z</time>
      </trkpt>
      <trkpt lat="45.93677" lon="6.25867">
        <ele>1479.61</ele>
        <time>2017-08-04T18:17:55Z</time>
      </trkpt>
      <trkpt lat="45.93676" lon="6.25865">
        <ele>1480.09</ele>
        <time>2017-08-04T18:17:56Z</time>
      </trkpt>
      <trkpt lat="45.93676" lon="6.25864">
        <ele>1480.09</ele>
        <time>2017-08-04T18:17:57Z</time>
      </trkpt>
      <trkpt lat="45.93675" lon="6.25861">
        <ele>1480.57</ele>
        <time>2017-08-04T18:17:58Z</time>
      </trkpt>
      <trkpt lat="45.93674" lon="6.25859">
        <ele>1480.57</ele>
        <time>2017-08-04T18:17:59Z</time>
      </trkpt>
      <trkpt lat="45.93673" lon="6.25858">
        <ele>1480.57</ele>
        <time>2017-08-04T18:18:00Z</time>
      </trkpt>
      <trkpt lat="45.93672" lon="6.25856">
        <ele>1480.57</ele>
        <time>2017-08-04T18:18:01Z</time>
      </trkpt>
      <trkpt lat="45.93671" lon="6.25852">
        <ele>1481.05</ele>
        <time>2017-08-04T18:18:02Z</time>
      </trkpt>
      <trkpt lat="45.9367" lon="6.2585">
        <ele>1480.57</ele>
        <time>2017-08-04T18:18:03Z</time>
      </trkpt>
      <trkpt lat="45.93668" lon="6.25847">
        <ele>1480.57</ele>
        <time>2017-08-04T18:18:04Z</time>
      </trkpt>
      <trkpt lat="45.93666" lon="6.25845">
        <ele>1480.57</ele>
        <time>2017-08-04T18:18:05Z</time>
      </trkpt>
      <trkpt lat="45.93665" lon="6.25843">
        <ele>1480.57</ele>
        <time>2017-08-04T18:18:06Z</time>
      </trkpt>
      <trkpt lat="45.93663" lon="6.25842">
        <ele>1481.05</ele>
        <time>2017-08-04T18:18:07Z</time>
      </trkpt>
      <trkpt lat="45.93662" lon="6.2584">
        <ele>1481.05</ele>
        <time>2017-08-04T18:18:08Z</time>
      </trkpt>
      <trkpt lat="45.93661" lon="6.2584">
        <ele>1481.05</ele>
        <time>2017-08-04T18:18:09Z</time>
      </trkpt>
      <trkpt lat="45.9366" lon="6.25837">
        <ele>1481.05</ele>
        <time>2017-08-04T18:18:10Z</time>
      </trkpt>
      <trkpt lat="45.93659" lon="6.25835">
        <ele>1481.53</ele>
        <time>2017-08-04T18:18:11Z</time>
      </trkpt>
      <trkpt lat="45.93656" lon="6.25833">
        <ele>1481.53</ele>
        <time>2017-08-04T18:18:12Z</time>
      </trkpt>
      <trkpt lat="45.93655" lon="6.25831">
        <ele>1482.01</ele>
        <time>2017-08-04T18:18:13Z</time>
      </trkpt>
      <trkpt lat="45.93651" lon="6.25827">
        <ele>1482.01</ele>
        <time>2017-08-04T18:18:16Z</time>
      </trkpt>
      <trkpt lat="45.9365" lon="6.25826">
        <ele>1482.01</ele>
        <time>2017-08-04T18:18:17Z</time>
      </trkpt>
      <trkpt lat="45.93649" lon="6.25825">
        <ele>1482.49</ele>
        <time>2017-08-04T18:18:18Z</time>
      </trkpt>
      <trkpt lat="45.93648" lon="6.25823">
        <ele>1482.97</ele>
        <time>2017-08-04T18:18:19Z</time>
      </trkpt>
      <trkpt lat="45.93648" lon="6.25821">
        <ele>1482.97</ele>
        <time>2017-08-04T18:18:20Z</time>
      </trkpt>
      <trkpt lat="45.93647" lon="6.25818">
        <ele>1482.97</ele>
        <time>2017-08-04T18:18:21Z</time>
      </trkpt>
      <trkpt lat="45.93645" lon="6.25817">
        <ele>1483.45</ele>
        <time>2017-08-04T18:18:22Z</time>
      </trkpt>
      <trkpt lat="45.93644" lon="6.25815">
        <ele>1483.45</ele>
        <time>2017-08-04T18:18:23Z</time>
      </trkpt>
      <trkpt lat="45.93643" lon="6.25813">
        <ele>1483.93</ele>
        <time>2017-08-04T18:18:24Z</time>
      </trkpt>
      <trkpt lat="45.93641" lon="6.25811">
        <ele>1483.93</ele>
        <time>2017-08-04T18:18:25Z</time>
      </trkpt>
      <trkpt lat="45.9364" lon="6.25809">
        <ele>1484.41</ele>
        <time>2017-08-04T18:18:26Z</time>
      </trkpt>
      <trkpt lat="45.93637" lon="6.25806">
        <ele>1484.41</ele>
        <time>2017-08-04T18:18:28Z</time>
      </trkpt>
      <trkpt lat="45.93636" lon="6.25804">
        <ele>1484.41</ele>
        <time>2017-08-04T18:18:29Z</time>
      </trkpt>
      <trkpt lat="45.93635" lon="6.25803">
        <ele>1484.89</ele>
        <time>2017-08-04T18:18:30Z</time>
      </trkpt>
      <trkpt lat="45.93634" lon="6.25801">
        <ele>1484.89</ele>
        <time>2017-08-04T18:18:31Z</time>
      </trkpt>
      <trkpt lat="45.93632" lon="6.25799">
        <ele>1484.89</ele>
        <time>2017-08-04T18:18:32Z</time>
      </trkpt>
      <trkpt lat="45.93631" lon="6.25797">
        <ele>1484.89</ele>
        <time>2017-08-04T18:18:33Z</time>
      </trkpt>
      <trkpt lat="45.93629" lon="6.25795">
        <ele>1485.37</ele>
        <time>2017-08-04T18:18:34Z</time>
      </trkpt>
      <trkpt lat="45.93626" lon="6.25793">
        <ele>1485.37</ele>
        <time>2017-08-04T18:18:35Z</time>
      </trkpt>
      <trkpt lat="45.93624" lon="6.25791">
        <ele>1485.37</ele>
        <time>2017-08-04T18:18:36Z</time>
      </trkpt>
      <trkpt lat="45.93604" lon="6.25774">
        <ele>1487.78</ele>
        <time>2017-08-04T18:18:48Z</time>
      </trkpt>
      <trkpt lat="45.93603" lon="6.25772">
        <ele>1487.78</ele>
        <time>2017-08-04T18:18:49Z</time>
      </trkpt>
      <trkpt lat="45.93601" lon="6.25771">
        <ele>1487.78</ele>
        <time>2017-08-04T18:18:50Z</time>
      </trkpt>
      <trkpt lat="45.93599" lon="6.2577">
        <ele>1487.78</ele>
        <time>2017-08-04T18:18:51Z</time>
      </trkpt>
      <trkpt lat="45.93597" lon="6.25769">
        <ele>1487.78</ele>
        <time>2017-08-04T18:18:52Z</time>
      </trkpt>
      <trkpt lat="45.93585" lon="6.25762">
        <ele>1488.26</ele>
        <time>2017-08-04T18:18:59Z</time>
      </trkpt>
      <trkpt lat="45.93583" lon="6.25761">
        <ele>1488.26</ele>
        <time>2017-08-04T18:19:00Z</time>
      </trkpt>
      <trkpt lat="45.93563" lon="6.25754">
        <ele>1487.3</ele>
        <time>2017-08-04T18:19:10Z</time>
      </trkpt>
      <trkpt lat="45.93555" lon="6.25753">
        <ele>1486.34</ele>
        <time>2017-08-04T18:19:13Z</time>
      </trkpt>
      <trkpt lat="45.93553" lon="6.25752">
        <ele>1486.34</ele>
        <time>2017-08-04T18:19:14Z</time>
      </trkpt>
      <trkpt lat="45.93547" lon="6.25747">
        <ele>1486.34</ele>
        <time>2017-08-04T18:19:18Z</time>
      </trkpt>
      <trkpt lat="45.93546" lon="6.25745">
        <ele>1486.34</ele>
        <time>2017-08-04T18:19:19Z</time>
      </trkpt>
      <trkpt lat="45.93544" lon="6.25744">
        <ele>1485.85</ele>
        <time>2017-08-04T18:19:20Z</time>
      </trkpt>
      <trkpt lat="45.93542" lon="6.25742">
        <ele>1485.85</ele>
        <time>2017-08-04T18:19:21Z</time>
      </trkpt>
      <trkpt lat="45.9354" lon="6.25741">
        <ele>1485.85</ele>
        <time>2017-08-04T18:19:22Z</time>
      </trkpt>
      <trkpt lat="45.93538" lon="6.25739">
        <ele>1485.85</ele>
        <time>2017-08-04T18:19:23Z</time>
      </trkpt>
      <trkpt lat="45.93536" lon="6.25738">
        <ele>1486.34</ele>
        <time>2017-08-04T18:19:24Z</time>
      </trkpt>
      <trkpt lat="45.93534" lon="6.25738">
        <ele>1486.34</ele>
        <time>2017-08-04T18:19:25Z</time>
      </trkpt>
      <trkpt lat="45.93533" lon="6.25736">
        <ele>1486.34</ele>
        <time>2017-08-04T18:19:26Z</time>
      </trkpt>
      <trkpt lat="45.93532" lon="6.25735">
        <ele>1486.82</ele>
        <time>2017-08-04T18:19:27Z</time>
      </trkpt>
      <trkpt lat="45.93531" lon="6.25733">
        <ele>1486.82</ele>
        <time>2017-08-04T18:19:28Z</time>
      </trkpt>
      <trkpt lat="45.93529" lon="6.25732">
        <ele>1486.82</ele>
        <time>2017-08-04T18:19:29Z</time>
      </trkpt>
      <trkpt lat="45.93525" lon="6.25728">
        <ele>1486.82</ele>
        <time>2017-08-04T18:19:32Z</time>
      </trkpt>
      <trkpt lat="45.93523" lon="6.25726">
        <ele>1486.82</ele>
        <time>2017-08-04T18:19:33Z</time>
      </trkpt>
      <trkpt lat="45.93522" lon="6.25725">
        <ele>1486.82</ele>
        <time>2017-08-04T18:19:34Z</time>
      </trkpt>
      <trkpt lat="45.9351" lon="6.25714">
        <ele>1488.74</ele>
        <time>2017-08-04T18:19:42Z</time>
      </trkpt>
      <trkpt lat="45.93507" lon="6.25713">
        <ele>1488.74</ele>
        <time>2017-08-04T18:19:43Z</time>
      </trkpt>
      <trkpt lat="45.93505" lon="6.25712">
        <ele>1489.22</ele>
        <time>2017-08-04T18:19:44Z</time>
      </trkpt>
      <trkpt lat="45.93502" lon="6.2571">
        <ele>1489.22</ele>
        <time>2017-08-04T18:19:45Z</time>
      </trkpt>
      <trkpt lat="45.93499" lon="6.25708">
        <ele>1489.22</ele>
        <time>2017-08-04T18:19:46Z</time>
      </trkpt>
      <trkpt lat="45.93497" lon="6.25706">
        <ele>1489.22</ele>
        <time>2017-08-04T18:19:47Z</time>
      </trkpt>
      <trkpt lat="45.93495" lon="6.25705">
        <ele>1489.22</ele>
        <time>2017-08-04T18:19:48Z</time>
      </trkpt>
      <trkpt lat="45.93493" lon="6.25704">
        <ele>1489.22</ele>
        <time>2017-08-04T18:19:49Z</time>
      </trkpt>
      <trkpt lat="45.93491" lon="6.25702">
        <ele>1489.22</ele>
        <time>2017-08-04T18:19:50Z</time>
      </trkpt>
      <trkpt lat="45.9349" lon="6.25701">
        <ele>1489.22</ele>
        <time>2017-08-04T18:19:51Z</time>
      </trkpt>
      <trkpt lat="45.93488" lon="6.257">
        <ele>1489.7</ele>
        <time>2017-08-04T18:19:52Z</time>
      </trkpt>
      <trkpt lat="45.93485" lon="6.25699">
        <ele>1490.18</ele>
        <time>2017-08-04T18:19:53Z</time>
      </trkpt>
      <trkpt lat="45.93484" lon="6.25697">
        <ele>1490.18</ele>
        <time>2017-08-04T18:19:54Z</time>
      </trkpt>
      <trkpt lat="45.93483" lon="6.25696">
        <ele>1490.66</ele>
        <time>2017-08-04T18:19:55Z</time>
      </trkpt>
      <trkpt lat="45.93482" lon="6.25694">
        <ele>1490.66</ele>
        <time>2017-08-04T18:19:56Z</time>
      </trkpt>
      <trkpt lat="45.9348" lon="6.25693">
        <ele>1490.66</ele>
        <time>2017-08-04T18:19:57Z</time>
      </trkpt>
      <trkpt lat="45.93478" lon="6.25691">
        <ele>1491.14</ele>
        <time>2017-08-04T18:19:58Z</time>
      </trkpt>
      <trkpt lat="45.93476" lon="6.25691">
        <ele>1491.62</ele>
        <time>2017-08-04T18:19:59Z</time>
      </trkpt>
      <trkpt lat="45.93475" lon="6.2569">
        <ele>1491.62</ele>
        <time>2017-08-04T18:20:00Z</time>
      </trkpt>
      <trkpt lat="45.93473" lon="6.25689">
        <ele>1491.62</ele>
        <time>2017-08-04T18:20:01Z</time>
      </trkpt>
      <trkpt lat="45.93471" lon="6.25688">
        <ele>1492.1</ele>
        <time>2017-08-04T18:20:02Z</time>
      </trkpt>
      <trkpt lat="45.93469" lon="6.25687">
        <ele>1492.1</ele>
        <time>2017-08-04T18:20:03Z</time>
      </trkpt>
      <trkpt lat="45.93467" lon="6.25687">
        <ele>1492.1</ele>
        <time>2017-08-04T18:20:04Z</time>
      </trkpt>
      <trkpt lat="45.93466" lon="6.25686">
        <ele>1492.58</ele>
        <time>2017-08-04T18:20:05Z</time>
      </trkpt>
      <trkpt lat="45.93464" lon="6.25685">
        <ele>1492.58</ele>
        <time>2017-08-04T18:20:06Z</time>
      </trkpt>
      <trkpt lat="45.93462" lon="6.25684">
        <ele>1492.58</ele>
        <time>2017-08-04T18:20:07Z</time>
      </trkpt>
      <trkpt lat="45.93459" lon="6.25683">
        <ele>1492.58</ele>
        <time>2017-08-04T18:20:08Z</time>
      </trkpt>
      <trkpt lat="45.93458" lon="6.25681">
        <ele>1492.1</ele>
        <time>2017-08-04T18:20:09Z</time>
      </trkpt>
      <trkpt lat="45.93456" lon="6.25679">
        <ele>1492.1</ele>
        <time>2017-08-04T18:20:10Z</time>
      </trkpt>
      <trkpt lat="45.93436" lon="6.25675">
        <ele>1494.51</ele>
        <time>2017-08-04T18:20:22Z</time>
      </trkpt>
      <trkpt lat="45.93432" lon="6.25673">
        <ele>1494.99</ele>
        <time>2017-08-04T18:20:25Z</time>
      </trkpt>
      <trkpt lat="45.93431" lon="6.25673">
        <ele>1494.99</ele>
        <time>2017-08-04T18:20:26Z</time>
      </trkpt>
      <trkpt lat="45.9343" lon="6.25673">
        <ele>1495.47</ele>
        <time>2017-08-04T18:20:27Z</time>
      </trkpt>
      <trkpt lat="45.93429" lon="6.25673">
        <ele>1495.47</ele>
        <time>2017-08-04T18:20:28Z</time>
      </trkpt>
      <trkpt lat="45.93428" lon="6.25673">
        <ele>1495.95</ele>
        <time>2017-08-04T18:20:29Z</time>
      </trkpt>
      <trkpt lat="45.93427" lon="6.25672">
        <ele>1495.95</ele>
        <time>2017-08-04T18:20:30Z</time>
      </trkpt>
      <trkpt lat="45.93424" lon="6.25669">
        <ele>1496.91</ele>
        <time>2017-08-04T18:20:33Z</time>
      </trkpt>
      <trkpt lat="45.93423" lon="6.25668">
        <ele>1496.91</ele>
        <time>2017-08-04T18:20:34Z</time>
      </trkpt>
      <trkpt lat="45.93422" lon="6.25667">
        <ele>1496.91</ele>
        <time>2017-08-04T18:20:35Z</time>
      </trkpt>
      <trkpt lat="45.93421" lon="6.25665">
        <ele>1497.39</ele>
        <time>2017-08-04T18:20:36Z</time>
      </trkpt>
      <trkpt lat="45.93419" lon="6.25664">
        <ele>1497.39</ele>
        <time>2017-08-04T18:20:37Z</time>
      </trkpt>
      <trkpt lat="45.93418" lon="6.25664">
        <ele>1497.39</ele>
        <time>2017-08-04T18:20:38Z</time>
      </trkpt>
      <trkpt lat="45.93416" lon="6.25664">
        <ele>1497.39</ele>
        <time>2017-08-04T18:20:39Z</time>
      </trkpt>
      <trkpt lat="45.93414" lon="6.25664">
        <ele>1497.87</ele>
        <time>2017-08-04T18:20:40Z</time>
      </trkpt>
      <trkpt lat="45.93412" lon="6.25663">
        <ele>1497.87</ele>
        <time>2017-08-04T18:20:41Z</time>
      </trkpt>
      <trkpt lat="45.9341" lon="6.25663">
        <ele>1498.35</ele>
        <time>2017-08-04T18:20:42Z</time>
      </trkpt>
      <trkpt lat="45.93409" lon="6.25663">
        <ele>1498.35</ele>
        <time>2017-08-04T18:20:43Z</time>
      </trkpt>
      <trkpt lat="45.93408" lon="6.25662">
        <ele>1498.35</ele>
        <time>2017-08-04T18:20:44Z</time>
      </trkpt>
      <trkpt lat="45.93406" lon="6.25662">
        <ele>1498.83</ele>
        <time>2017-08-04T18:20:45Z</time>
      </trkpt>
      <trkpt lat="45.93404" lon="6.25661">
        <ele>1498.83</ele>
        <time>2017-08-04T18:20:46Z</time>
      </trkpt>
      <trkpt lat="45.93402" lon="6.25661">
        <ele>1498.83</ele>
        <time>2017-08-04T18:20:47Z</time>
      </trkpt>
      <trkpt lat="45.93388" lon="6.25653">
        <ele>1499.79</ele>
        <time>2017-08-04T18:20:56Z</time>
      </trkpt>
      <trkpt lat="45.93387" lon="6.25652">
        <ele>1500.27</ele>
        <time>2017-08-04T18:20:57Z</time>
      </trkpt>
      <trkpt lat="45.93385" lon="6.25651">
        <ele>1500.27</ele>
        <time>2017-08-04T18:20:58Z</time>
      </trkpt>
      <trkpt lat="45.93382" lon="6.25651">
        <ele>1500.76</ele>
        <time>2017-08-04T18:21:00Z</time>
      </trkpt>
      <trkpt lat="45.93381" lon="6.25651">
        <ele>1501.24</ele>
        <time>2017-08-04T18:21:01Z</time>
      </trkpt>
      <trkpt lat="45.93379" lon="6.25651">
        <ele>1501.24</ele>
        <time>2017-08-04T18:21:02Z</time>
      </trkpt>
      <trkpt lat="45.93378" lon="6.25651">
        <ele>1501.72</ele>
        <time>2017-08-04T18:21:03Z</time>
      </trkpt>
      <trkpt lat="45.93376" lon="6.2565">
        <ele>1501.72</ele>
        <time>2017-08-04T18:21:04Z</time>
      </trkpt>
      <trkpt lat="45.93375" lon="6.2565">
        <ele>1502.2</ele>
        <time>2017-08-04T18:21:05Z</time>
      </trkpt>
      <trkpt lat="45.93361" lon="6.25646">
        <ele>1504.6</ele>
        <time>2017-08-04T18:21:15Z</time>
      </trkpt>
      <trkpt lat="45.9336" lon="6.25645">
        <ele>1505.08</ele>
        <time>2017-08-04T18:21:16Z</time>
      </trkpt>
      <trkpt lat="45.93357" lon="6.25644">
        <ele>1505.08</ele>
        <time>2017-08-04T18:21:17Z</time>
      </trkpt>
      <trkpt lat="45.93356" lon="6.25642">
        <ele>1505.08</ele>
        <time>2017-08-04T18:21:18Z</time>
      </trkpt>
      <trkpt lat="45.93354" lon="6.2564">
        <ele>1505.56</ele>
        <time>2017-08-04T18:21:19Z</time>
      </trkpt>
      <trkpt lat="45.93353" lon="6.25639">
        <ele>1505.56</ele>
        <time>2017-08-04T18:21:20Z</time>
      </trkpt>
      <trkpt lat="45.9335" lon="6.25636">
        <ele>1506.04</ele>
        <time>2017-08-04T18:21:22Z</time>
      </trkpt>
      <trkpt lat="45.93349" lon="6.25634">
        <ele>1506.04</ele>
        <time>2017-08-04T18:21:23Z</time>
      </trkpt>
      <trkpt lat="45.93346" lon="6.25629">
        <ele>1506.52</ele>
        <time>2017-08-04T18:21:26Z</time>
      </trkpt>
      <trkpt lat="45.93345" lon="6.25626">
        <ele>1507</ele>
        <time>2017-08-04T18:21:27Z</time>
      </trkpt>
      <trkpt lat="45.93343" lon="6.25624">
        <ele>1507</ele>
        <time>2017-08-04T18:21:28Z</time>
      </trkpt>
      <trkpt lat="45.93342" lon="6.25622">
        <ele>1507</ele>
        <time>2017-08-04T18:21:29Z</time>
      </trkpt>
      <trkpt lat="45.93341" lon="6.25621">
        <ele>1507</ele>
        <time>2017-08-04T18:21:30Z</time>
      </trkpt>
      <trkpt lat="45.9334" lon="6.25619">
        <ele>1507</ele>
        <time>2017-08-04T18:21:31Z</time>
      </trkpt>
      <trkpt lat="45.93335" lon="6.25606">
        <ele>1507.97</ele>
        <time>2017-08-04T18:21:37Z</time>
      </trkpt>
      <trkpt lat="45.93334" lon="6.25605">
        <ele>1508.45</ele>
        <time>2017-08-04T18:21:38Z</time>
      </trkpt>
      <trkpt lat="45.93334" lon="6.25603">
        <ele>1508.45</ele>
        <time>2017-08-04T18:21:39Z</time>
      </trkpt>
      <trkpt lat="45.93334" lon="6.25601">
        <ele>1508.93</ele>
        <time>2017-08-04T18:21:40Z</time>
      </trkpt>
      <trkpt lat="45.93334" lon="6.25599">
        <ele>1508.93</ele>
        <time>2017-08-04T18:21:41Z</time>
      </trkpt>
      <trkpt lat="45.93334" lon="6.25597">
        <ele>1509.41</ele>
        <time>2017-08-04T18:21:42Z</time>
      </trkpt>
      <trkpt lat="45.93333" lon="6.25596">
        <ele>1509.89</ele>
        <time>2017-08-04T18:21:43Z</time>
      </trkpt>
      <trkpt lat="45.93332" lon="6.25594">
        <ele>1510.37</ele>
        <time>2017-08-04T18:21:44Z</time>
      </trkpt>
      <trkpt lat="45.93331" lon="6.25593">
        <ele>1510.37</ele>
        <time>2017-08-04T18:21:45Z</time>
      </trkpt>
      <trkpt lat="45.93329" lon="6.25592">
        <ele>1510.37</ele>
        <time>2017-08-04T18:21:46Z</time>
      </trkpt>
      <trkpt lat="45.93312" lon="6.2558">
        <ele>1513.25</ele>
        <time>2017-08-04T18:22:02Z</time>
      </trkpt>
      <trkpt lat="45.93298" lon="6.25577">
        <ele>1513.25</ele>
        <time>2017-08-04T18:22:12Z</time>
      </trkpt>
      <trkpt lat="45.93294" lon="6.25577">
        <ele>1513.73</ele>
        <time>2017-08-04T18:22:14Z</time>
      </trkpt>
      <trkpt lat="45.93292" lon="6.25578">
        <ele>1513.73</ele>
        <time>2017-08-04T18:22:15Z</time>
      </trkpt>
      <trkpt lat="45.9329" lon="6.25578">
        <ele>1513.73</ele>
        <time>2017-08-04T18:22:16Z</time>
      </trkpt>
      <trkpt lat="45.93288" lon="6.25579">
        <ele>1514.21</ele>
        <time>2017-08-04T18:22:17Z</time>
      </trkpt>
      <trkpt lat="45.93285" lon="6.2558">
        <ele>1514.21</ele>
        <time>2017-08-04T18:22:18Z</time>
      </trkpt>
      <trkpt lat="45.93281" lon="6.25581">
        <ele>1514.21</ele>
        <time>2017-08-04T18:22:20Z</time>
      </trkpt>
      <trkpt lat="45.93279" lon="6.25582">
        <ele>1514.21</ele>
        <time>2017-08-04T18:22:21Z</time>
      </trkpt>
      <trkpt lat="45.93277" lon="6.25582">
        <ele>1514.21</ele>
        <time>2017-08-04T18:22:22Z</time>
      </trkpt>
      <trkpt lat="45.93276" lon="6.25582">
        <ele>1514.21</ele>
        <time>2017-08-04T18:22:23Z</time>
      </trkpt>
      <trkpt lat="45.93274" lon="6.25583">
        <ele>1514.69</ele>
        <time>2017-08-04T18:22:24Z</time>
      </trkpt>
      <trkpt lat="45.93272" lon="6.25585">
        <ele>1515.18</ele>
        <time>2017-08-04T18:22:25Z</time>
      </trkpt>
      <trkpt lat="45.9327" lon="6.25587">
        <ele>1515.18</ele>
        <time>2017-08-04T18:22:26Z</time>
      </trkpt>
      <trkpt lat="45.93268" lon="6.25588">
        <ele>1515.18</ele>
        <time>2017-08-04T18:22:27Z</time>
      </trkpt>
      <trkpt lat="45.93267" lon="6.25589">
        <ele>1515.18</ele>
        <time>2017-08-04T18:22:28Z</time>
      </trkpt>
      <trkpt lat="45.93265" lon="6.25589">
        <ele>1515.18</ele>
        <time>2017-08-04T18:22:29Z</time>
      </trkpt>
      <trkpt lat="45.93263" lon="6.25591">
        <ele>1515.18</ele>
        <time>2017-08-04T18:22:30Z</time>
      </trkpt>
      <trkpt lat="45.93261" lon="6.25592">
        <ele>1515.66</ele>
        <time>2017-08-04T18:22:31Z</time>
      </trkpt>
      <trkpt lat="45.93259" lon="6.25594">
        <ele>1515.66</ele>
        <time>2017-08-04T18:22:32Z</time>
      </trkpt>
      <trkpt lat="45.93258" lon="6.25594">
        <ele>1515.66</ele>
        <time>2017-08-04T18:22:33Z</time>
      </trkpt>
      <trkpt lat="45.93256" lon="6.25595">
        <ele>1515.66</ele>
        <time>2017-08-04T18:22:34Z</time>
      </trkpt>
      <trkpt lat="45.93255" lon="6.25594">
        <ele>1515.66</ele>
        <time>2017-08-04T18:22:35Z</time>
      </trkpt>
      <trkpt lat="45.93253" lon="6.25595">
        <ele>1516.14</ele>
        <time>2017-08-04T18:22:36Z</time>
      </trkpt>
      <trkpt lat="45.93252" lon="6.25595">
        <ele>1516.14</ele>
        <time>2017-08-04T18:22:37Z</time>
      </trkpt>
      <trkpt lat="45.93225" lon="6.2559">
        <ele>1515.18</ele>
        <time>2017-08-04T18:22:47Z</time>
      </trkpt>
      <trkpt lat="45.93202" lon="6.25593">
        <ele>1515.18</ele>
        <time>2017-08-04T18:23:00Z</time>
      </trkpt>
      <trkpt lat="45.93198" lon="6.25597">
        <ele>1515.18</ele>
        <time>2017-08-04T18:23:02Z</time>
      </trkpt>
      <trkpt lat="45.93195" lon="6.25598">
        <ele>1515.18</ele>
        <time>2017-08-04T18:23:03Z</time>
      </trkpt>
      <trkpt lat="45.93193" lon="6.25598">
        <ele>1515.18</ele>
        <time>2017-08-04T18:23:04Z</time>
      </trkpt>
      <trkpt lat="45.93169" lon="6.25596">
        <ele>1515.66</ele>
        <time>2017-08-04T18:23:14Z</time>
      </trkpt>
      <trkpt lat="45.93163" lon="6.25596">
        <ele>1516.62</ele>
        <time>2017-08-04T18:23:17Z</time>
      </trkpt>
      <trkpt lat="45.93161" lon="6.25594">
        <ele>1516.62</ele>
        <time>2017-08-04T18:23:19Z</time>
      </trkpt>
      <trkpt lat="45.9316" lon="6.25593">
        <ele>1516.62</ele>
        <time>2017-08-04T18:23:20Z</time>
      </trkpt>
      <trkpt lat="45.93154" lon="6.25589">
        <ele>1517.1</ele>
        <time>2017-08-04T18:23:24Z</time>
      </trkpt>
      <trkpt lat="45.93135" lon="6.25575">
        <ele>1518.06</ele>
        <time>2017-08-04T18:23:34Z</time>
      </trkpt>
      <trkpt lat="45.93133" lon="6.25574">
        <ele>1518.06</ele>
        <time>2017-08-04T18:23:35Z</time>
      </trkpt>
      <trkpt lat="45.93131" lon="6.25573">
        <ele>1518.54</ele>
        <time>2017-08-04T18:23:36Z</time>
      </trkpt>
      <trkpt lat="45.93129" lon="6.25571">
        <ele>1518.54</ele>
        <time>2017-08-04T18:23:37Z</time>
      </trkpt>
      <trkpt lat="45.93128" lon="6.25569">
        <ele>1519.02</ele>
        <time>2017-08-04T18:23:38Z</time>
      </trkpt>
      <trkpt lat="45.93127" lon="6.25567">
        <ele>1519.02</ele>
        <time>2017-08-04T18:23:39Z</time>
      </trkpt>
      <trkpt lat="45.93126" lon="6.25565">
        <ele>1519.02</ele>
        <time>2017-08-04T18:23:40Z</time>
      </trkpt>
      <trkpt lat="45.93124" lon="6.25563">
        <ele>1519.5</ele>
        <time>2017-08-04T18:23:41Z</time>
      </trkpt>
      <trkpt lat="45.93122" lon="6.25562">
        <ele>1519.5</ele>
        <time>2017-08-04T18:23:42Z</time>
      </trkpt>
      <trkpt lat="45.93121" lon="6.2556">
        <ele>1519.98</ele>
        <time>2017-08-04T18:23:43Z</time>
      </trkpt>
      <trkpt lat="45.93105" lon="6.25541">
        <ele>1520.94</ele>
        <time>2017-08-04T18:23:53Z</time>
      </trkpt>
      <trkpt lat="45.9309" lon="6.25525">
        <ele>1522.87</ele>
        <time>2017-08-04T18:24:04Z</time>
      </trkpt>
      <trkpt lat="45.93079" lon="6.25517">
        <ele>1524.79</ele>
        <time>2017-08-04T18:24:12Z</time>
      </trkpt>
      <trkpt lat="45.93078" lon="6.25516">
        <ele>1524.79</ele>
        <time>2017-08-04T18:24:13Z</time>
      </trkpt>
      <trkpt lat="45.93077" lon="6.25514">
        <ele>1524.79</ele>
        <time>2017-08-04T18:24:14Z</time>
      </trkpt>
      <trkpt lat="45.93073" lon="6.25507">
        <ele>1525.27</ele>
        <time>2017-08-04T18:24:18Z</time>
      </trkpt>
      <trkpt lat="45.93074" lon="6.25504">
        <ele>1525.75</ele>
        <time>2017-08-04T18:24:19Z</time>
      </trkpt>
      <trkpt lat="45.93082" lon="6.25482">
        <ele>1526.71</ele>
        <time>2017-08-04T18:24:33Z</time>
      </trkpt>
      <trkpt lat="45.93083" lon="6.25482">
        <ele>1526.71</ele>
        <time>2017-08-04T18:24:34Z</time>
      </trkpt>
      <trkpt lat="45.93086" lon="6.25482">
        <ele>1526.71</ele>
        <time>2017-08-04T18:24:36Z</time>
      </trkpt>
      <trkpt lat="45.93087" lon="6.25483">
        <ele>1527.19</ele>
        <time>2017-08-04T18:24:37Z</time>
      </trkpt>
      <trkpt lat="45.93095" lon="6.25482">
        <ele>1526.71</ele>
        <time>2017-08-04T18:24:44Z</time>
      </trkpt>
      <trkpt lat="45.93101" lon="6.25481">
        <ele>1527.19</ele>
        <time>2017-08-04T18:24:49Z</time>
      </trkpt>
      <trkpt lat="45.93105" lon="6.2548">
        <ele>1527.19</ele>
        <time>2017-08-04T18:24:52Z</time>
      </trkpt>
      <trkpt lat="45.93109" lon="6.25479">
        <ele>1527.19</ele>
        <time>2017-08-04T18:24:56Z</time>
      </trkpt>
      <trkpt lat="45.93113" lon="6.25478">
        <ele>1526.71</ele>
        <time>2017-08-04T18:24:59Z</time>
      </trkpt>
      <trkpt lat="45.93114" lon="6.25478">
        <ele>1527.19</ele>
        <time>2017-08-04T18:25:00Z</time>
      </trkpt>
      <trkpt lat="45.93116" lon="6.25478">
        <ele>1527.19</ele>
        <time>2017-08-04T18:25:01Z</time>
      </trkpt>
      <trkpt lat="45.93121" lon="6.25479">
        <ele>1527.67</ele>
        <time>2017-08-04T18:25:05Z</time>
      </trkpt>
      <trkpt lat="45.9313" lon="6.25479">
        <ele>1527.19</ele>
        <time>2017-08-04T18:25:12Z</time>
      </trkpt>
      <trkpt lat="45.93141" lon="6.2548">
        <ele>1527.67</ele>
        <time>2017-08-04T18:25:21Z</time>
      </trkpt>
      <trkpt lat="45.93161" lon="6.25475">
        <ele>1529.11</ele>
        <time>2017-08-04T18:25:35Z</time>
      </trkpt>
      <trkpt lat="45.93163" lon="6.25475">
        <ele>1529.11</ele>
        <time>2017-08-04T18:25:36Z</time>
      </trkpt>
      <trkpt lat="45.93169" lon="6.25476">
        <ele>1529.59</ele>
        <time>2017-08-04T18:25:39Z</time>
      </trkpt>
      <trkpt lat="45.93178" lon="6.25474">
        <ele>1529.11</ele>
        <time>2017-08-04T18:25:43Z</time>
      </trkpt>
      <trkpt lat="45.93187" lon="6.25469">
        <ele>1530.56</ele>
        <time>2017-08-04T18:25:48Z</time>
      </trkpt>
      <trkpt lat="45.93195" lon="6.25471">
        <ele>1531.04</ele>
        <time>2017-08-04T18:25:52Z</time>
      </trkpt>
      <trkpt lat="45.93196" lon="6.25471">
        <ele>1531.04</ele>
        <time>2017-08-04T18:25:53Z</time>
      </trkpt>
      <trkpt lat="45.93199" lon="6.25471">
        <ele>1531.04</ele>
        <time>2017-08-04T18:25:54Z</time>
      </trkpt>
      <trkpt lat="45.93207" lon="6.25472">
        <ele>1531.04</ele>
        <time>2017-08-04T18:25:58Z</time>
      </trkpt>
      <trkpt lat="45.93228" lon="6.2547">
        <ele>1531.52</ele>
        <time>2017-08-04T18:26:08Z</time>
      </trkpt>
      <trkpt lat="45.93237" lon="6.25471">
        <ele>1532.96</ele>
        <time>2017-08-04T18:26:14Z</time>
      </trkpt>
      <trkpt lat="45.93238" lon="6.2547">
        <ele>1532.96</ele>
        <time>2017-08-04T18:26:15Z</time>
      </trkpt>
      <trkpt lat="45.93239" lon="6.2547">
        <ele>1533.44</ele>
        <time>2017-08-04T18:26:16Z</time>
      </trkpt>
      <trkpt lat="45.93241" lon="6.25469">
        <ele>1533.44</ele>
        <time>2017-08-04T18:26:17Z</time>
      </trkpt>
      <trkpt lat="45.93242" lon="6.25469">
        <ele>1533.44</ele>
        <time>2017-08-04T18:26:18Z</time>
      </trkpt>
      <trkpt lat="45.93243" lon="6.2547">
        <ele>1533.44</ele>
        <time>2017-08-04T18:26:19Z</time>
      </trkpt>
      <trkpt lat="45.93245" lon="6.25471">
        <ele>1533.44</ele>
        <time>2017-08-04T18:26:20Z</time>
      </trkpt>
      <trkpt lat="45.93246" lon="6.25473">
        <ele>1533.44</ele>
        <time>2017-08-04T18:26:21Z</time>
      </trkpt>
      <trkpt lat="45.93252" lon="6.25476">
        <ele>1533.92</ele>
        <time>2017-08-04T18:26:24Z</time>
      </trkpt>
      <trkpt lat="45.93254" lon="6.25476">
        <ele>1534.4</ele>
        <time>2017-08-04T18:26:25Z</time>
      </trkpt>
      <trkpt lat="45.93276" lon="6.2547">
        <ele>1535.36</ele>
        <time>2017-08-04T18:26:34Z</time>
      </trkpt>
      <trkpt lat="45.93286" lon="6.25468">
        <ele>1536.32</ele>
        <time>2017-08-04T18:26:40Z</time>
      </trkpt>
      <trkpt lat="45.933" lon="6.25467">
        <ele>1536.8</ele>
        <time>2017-08-04T18:26:47Z</time>
      </trkpt>
      <trkpt lat="45.93301" lon="6.25468">
        <ele>1536.8</ele>
        <time>2017-08-04T18:26:48Z</time>
      </trkpt>
      <trkpt lat="45.93302" lon="6.2547">
        <ele>1537.29</ele>
        <time>2017-08-04T18:26:50Z</time>
      </trkpt>
      <trkpt lat="45.93306" lon="6.25475">
        <ele>1537.29</ele>
        <time>2017-08-04T18:26:56Z</time>
      </trkpt>
      <trkpt lat="45.93308" lon="6.25476">
        <ele>1537.29</ele>
        <time>2017-08-04T18:26:57Z</time>
      </trkpt>
      <trkpt lat="45.9331" lon="6.25476">
        <ele>1536.8</ele>
        <time>2017-08-04T18:26:58Z</time>
      </trkpt>
      <trkpt lat="45.93312" lon="6.25477">
        <ele>1536.8</ele>
        <time>2017-08-04T18:26:59Z</time>
      </trkpt>
      <trkpt lat="45.93313" lon="6.25478">
        <ele>1536.8</ele>
        <time>2017-08-04T18:27:00Z</time>
      </trkpt>
      <trkpt lat="45.93314" lon="6.25479">
        <ele>1536.32</ele>
        <time>2017-08-04T18:27:01Z</time>
      </trkpt>
      <trkpt lat="45.93315" lon="6.25481">
        <ele>1536.8</ele>
        <time>2017-08-04T18:27:02Z</time>
      </trkpt>
      <trkpt lat="45.93324" lon="6.25486">
        <ele>1536.32</ele>
        <time>2017-08-04T18:27:10Z</time>
      </trkpt>
      <trkpt lat="45.93346" lon="6.25498">
        <ele>1534.88</ele>
        <time>2017-08-04T18:27:21Z</time>
      </trkpt>
      <trkpt lat="45.93364" lon="6.25517">
        <ele>1533.44</ele>
        <time>2017-08-04T18:27:29Z</time>
      </trkpt>
      <trkpt lat="45.93386" lon="6.25528">
        <ele>1533.92</ele>
        <time>2017-08-04T18:27:38Z</time>
      </trkpt>
      <trkpt lat="45.93408" lon="6.25537">
        <ele>1533.92</ele>
        <time>2017-08-04T18:27:47Z</time>
      </trkpt>
      <trkpt lat="45.93428" lon="6.25545">
        <ele>1534.4</ele>
        <time>2017-08-04T18:27:57Z</time>
      </trkpt>
      <trkpt lat="45.93449" lon="6.25547">
        <ele>1535.36</ele>
        <time>2017-08-04T18:28:08Z</time>
      </trkpt>
      <trkpt lat="45.93451" lon="6.25547">
        <ele>1535.36</ele>
        <time>2017-08-04T18:28:09Z</time>
      </trkpt>
      <trkpt lat="45.93453" lon="6.25547">
        <ele>1535.36</ele>
        <time>2017-08-04T18:28:10Z</time>
      </trkpt>
      <trkpt lat="45.93456" lon="6.25547">
        <ele>1535.36</ele>
        <time>2017-08-04T18:28:11Z</time>
      </trkpt>
      <trkpt lat="45.93459" lon="6.25547">
        <ele>1534.88</ele>
        <time>2017-08-04T18:28:12Z</time>
      </trkpt>
      <trkpt lat="45.93461" lon="6.25547">
        <ele>1534.88</ele>
        <time>2017-08-04T18:28:13Z</time>
      </trkpt>
      <trkpt lat="45.93464" lon="6.25547">
        <ele>1534.88</ele>
        <time>2017-08-04T18:28:14Z</time>
      </trkpt>
      <trkpt lat="45.93466" lon="6.25547">
        <ele>1534.88</ele>
        <time>2017-08-04T18:28:15Z</time>
      </trkpt>
      <trkpt lat="45.93468" lon="6.25547">
        <ele>1534.88</ele>
        <time>2017-08-04T18:28:16Z</time>
      </trkpt>
      <trkpt lat="45.9347" lon="6.25548">
        <ele>1534.88</ele>
        <time>2017-08-04T18:28:17Z</time>
      </trkpt>
      <trkpt lat="45.93472" lon="6.25549">
        <ele>1534.4</ele>
        <time>2017-08-04T18:28:18Z</time>
      </trkpt>
      <trkpt lat="45.93474" lon="6.2555">
        <ele>1533.92</ele>
        <time>2017-08-04T18:28:19Z</time>
      </trkpt>
      <trkpt lat="45.93477" lon="6.25551">
        <ele>1533.92</ele>
        <time>2017-08-04T18:28:20Z</time>
      </trkpt>
      <trkpt lat="45.93495" lon="6.25557">
        <ele>1531.04</ele>
        <time>2017-08-04T18:28:27Z</time>
      </trkpt>
      <trkpt lat="45.93503" lon="6.25555">
        <ele>1531.04</ele>
        <time>2017-08-04T18:28:30Z</time>
      </trkpt>
      <trkpt lat="45.93505" lon="6.25553">
        <ele>1531.04</ele>
        <time>2017-08-04T18:28:31Z</time>
      </trkpt>
      <trkpt lat="45.93506" lon="6.25552">
        <ele>1531.52</ele>
        <time>2017-08-04T18:28:32Z</time>
      </trkpt>
      <trkpt lat="45.93508" lon="6.25551">
        <ele>1532</ele>
        <time>2017-08-04T18:28:33Z</time>
      </trkpt>
      <trkpt lat="45.9351" lon="6.2555">
        <ele>1532</ele>
        <time>2017-08-04T18:28:34Z</time>
      </trkpt>
      <trkpt lat="45.93512" lon="6.25549">
        <ele>1532.48</ele>
        <time>2017-08-04T18:28:35Z</time>
      </trkpt>
      <trkpt lat="45.93514" lon="6.25547">
        <ele>1532.96</ele>
        <time>2017-08-04T18:28:36Z</time>
      </trkpt>
      <trkpt lat="45.93516" lon="6.25547">
        <ele>1533.44</ele>
        <time>2017-08-04T18:28:37Z</time>
      </trkpt>
      <trkpt lat="45.93517" lon="6.25548">
        <ele>1533.92</ele>
        <time>2017-08-04T18:28:38Z</time>
      </trkpt>
      <trkpt lat="45.93518" lon="6.25549">
        <ele>1533.92</ele>
        <time>2017-08-04T18:28:39Z</time>
      </trkpt>
      <trkpt lat="45.9352" lon="6.25548">
        <ele>1534.4</ele>
        <time>2017-08-04T18:28:40Z</time>
      </trkpt>
      <trkpt lat="45.93521" lon="6.25548">
        <ele>1534.4</ele>
        <time>2017-08-04T18:28:41Z</time>
      </trkpt>
      <trkpt lat="45.93529" lon="6.25545">
        <ele>1536.32</ele>
        <time>2017-08-04T18:28:47Z</time>
      </trkpt>
      <trkpt lat="45.9353" lon="6.25546">
        <ele>1536.8</ele>
        <time>2017-08-04T18:28:48Z</time>
      </trkpt>
      <trkpt lat="45.93537" lon="6.25542">
        <ele>1539.69</ele>
        <time>2017-08-04T18:28:59Z</time>
      </trkpt>
      <trkpt lat="45.93545" lon="6.2554">
        <ele>1543.05</ele>
        <time>2017-08-04T18:29:11Z</time>
      </trkpt>
      <trkpt lat="45.93546" lon="6.25537">
        <ele>1544.98</ele>
        <time>2017-08-04T18:29:21Z</time>
      </trkpt>
      <trkpt lat="45.93547" lon="6.25528">
        <ele>1548.34</ele>
        <time>2017-08-04T18:29:36Z</time>
      </trkpt>
      <trkpt lat="45.93549" lon="6.25527">
        <ele>1548.82</ele>
        <time>2017-08-04T18:29:38Z</time>
      </trkpt>
      <trkpt lat="45.9355" lon="6.25528">
        <ele>1548.82</ele>
        <time>2017-08-04T18:29:39Z</time>
      </trkpt>
      <trkpt lat="45.93555" lon="6.25525">
        <ele>1552.19</ele>
        <time>2017-08-04T18:29:53Z</time>
      </trkpt>
      <trkpt lat="45.93565" lon="6.25522">
        <ele>1555.07</ele>
        <time>2017-08-04T18:30:08Z</time>
      </trkpt>
      <trkpt lat="45.93568" lon="6.25517">
        <ele>1557.95</ele>
        <time>2017-08-04T18:30:20Z</time>
      </trkpt>
      <trkpt lat="45.93577" lon="6.25511">
        <ele>1560.84</ele>
        <time>2017-08-04T18:30:34Z</time>
      </trkpt>
      <trkpt lat="45.93586" lon="6.25509">
        <ele>1564.2</ele>
        <time>2017-08-04T18:30:48Z</time>
      </trkpt>
      <trkpt lat="45.93593" lon="6.25503">
        <ele>1567.09</ele>
        <time>2017-08-04T18:31:03Z</time>
      </trkpt>
      <trkpt lat="45.93594" lon="6.25497">
        <ele>1570.45</ele>
        <time>2017-08-04T18:31:17Z</time>
      </trkpt>
      <trkpt lat="45.93599" lon="6.25493">
        <ele>1573.82</ele>
        <time>2017-08-04T18:31:28Z</time>
      </trkpt>
      <trkpt lat="45.93596" lon="6.25489">
        <ele>1576.7</ele>
        <time>2017-08-04T18:31:40Z</time>
      </trkpt>
      <trkpt lat="45.93597" lon="6.25481">
        <ele>1579.58</ele>
        <time>2017-08-04T18:31:53Z</time>
      </trkpt>
      <trkpt lat="45.93598" lon="6.25476">
        <ele>1581.51</ele>
        <time>2017-08-04T18:32:02Z</time>
      </trkpt>
      <trkpt lat="45.93596" lon="6.25476">
        <ele>1584.39</ele>
        <time>2017-08-04T18:32:13Z</time>
      </trkpt>
      <trkpt lat="45.93599" lon="6.25474">
        <ele>1587.27</ele>
        <time>2017-08-04T18:32:27Z</time>
      </trkpt>
      <trkpt lat="45.93604" lon="6.25465">
        <ele>1590.64</ele>
        <time>2017-08-04T18:32:41Z</time>
      </trkpt>
      <trkpt lat="45.93605" lon="6.25462">
        <ele>1594</ele>
        <time>2017-08-04T18:32:55Z</time>
      </trkpt>
      <trkpt lat="45.93606" lon="6.25463">
        <ele>1594</ele>
        <time>2017-08-04T18:32:56Z</time>
      </trkpt>
      <trkpt lat="45.9361" lon="6.25466">
        <ele>1595.93</ele>
        <time>2017-08-04T18:33:04Z</time>
      </trkpt>
      <trkpt lat="45.9361" lon="6.25468">
        <ele>1595.93</ele>
        <time>2017-08-04T18:33:05Z</time>
      </trkpt>
      <trkpt lat="45.93626" lon="6.25472">
        <ele>1598.81</ele>
        <time>2017-08-04T18:33:23Z</time>
      </trkpt>
      <trkpt lat="45.93633" lon="6.25472">
        <ele>1601.21</ele>
        <time>2017-08-04T18:33:39Z</time>
      </trkpt>
      <trkpt lat="45.9364" lon="6.25466">
        <ele>1604.1</ele>
        <time>2017-08-04T18:33:51Z</time>
      </trkpt>
      <trkpt lat="45.93645" lon="6.25464">
        <ele>1604.58</ele>
        <time>2017-08-04T18:33:56Z</time>
      </trkpt>
      <trkpt lat="45.93646" lon="6.25463">
        <ele>1604.58</ele>
        <time>2017-08-04T18:33:57Z</time>
      </trkpt>
      <trkpt lat="45.93647" lon="6.25464">
        <ele>1604.58</ele>
        <time>2017-08-04T18:33:58Z</time>
      </trkpt>
      <trkpt lat="45.93648" lon="6.25463">
        <ele>1604.58</ele>
        <time>2017-08-04T18:33:59Z</time>
      </trkpt>
      <trkpt lat="45.93649" lon="6.25464">
        <ele>1604.58</ele>
        <time>2017-08-04T18:34:00Z</time>
      </trkpt>
      <trkpt lat="45.93653" lon="6.25469">
        <ele>1605.06</ele>
        <time>2017-08-04T18:34:05Z</time>
      </trkpt>
      <trkpt lat="45.9366" lon="6.25472">
        <ele>1606.02</ele>
        <time>2017-08-04T18:34:11Z</time>
      </trkpt>
      <trkpt lat="45.93669" lon="6.25496">
        <ele>1609.38</ele>
        <time>2017-08-04T18:34:29Z</time>
      </trkpt>
      <trkpt lat="45.93675" lon="6.25498">
        <ele>1611.79</ele>
        <time>2017-08-04T18:34:40Z</time>
      </trkpt>
      <trkpt lat="45.93677" lon="6.255">
        <ele>1612.27</ele>
        <time>2017-08-04T18:34:43Z</time>
      </trkpt>
      <trkpt lat="45.93678" lon="6.25502">
        <ele>1612.27</ele>
        <time>2017-08-04T18:34:44Z</time>
      </trkpt>
      <trkpt lat="45.93685" lon="6.25506">
        <ele>1613.23</ele>
        <time>2017-08-04T18:34:51Z</time>
      </trkpt>
      <trkpt lat="45.93686" lon="6.25505">
        <ele>1613.23</ele>
        <time>2017-08-04T18:34:52Z</time>
      </trkpt>
      <trkpt lat="45.93687" lon="6.25505">
        <ele>1613.23</ele>
        <time>2017-08-04T18:34:53Z</time>
      </trkpt>
      <trkpt lat="45.93689" lon="6.25505">
        <ele>1612.75</ele>
        <time>2017-08-04T18:34:54Z</time>
      </trkpt>
      <trkpt lat="45.9369" lon="6.25505">
        <ele>1612.75</ele>
        <time>2017-08-04T18:34:55Z</time>
      </trkpt>
      <trkpt lat="45.93692" lon="6.25505">
        <ele>1612.27</ele>
        <time>2017-08-04T18:34:56Z</time>
      </trkpt>
      <trkpt lat="45.93693" lon="6.25506">
        <ele>1611.79</ele>
        <time>2017-08-04T18:34:57Z</time>
      </trkpt>
      <trkpt lat="45.93695" lon="6.25506">
        <ele>1611.79</ele>
        <time>2017-08-04T18:34:58Z</time>
      </trkpt>
      <trkpt lat="45.93696" lon="6.25507">
        <ele>1611.79</ele>
        <time>2017-08-04T18:34:59Z</time>
      </trkpt>
      <trkpt lat="45.93697" lon="6.25508">
        <ele>1611.31</ele>
        <time>2017-08-04T18:35:00Z</time>
      </trkpt>
      <trkpt lat="45.93699" lon="6.25508">
        <ele>1611.31</ele>
        <time>2017-08-04T18:35:01Z</time>
      </trkpt>
      <trkpt lat="45.93701" lon="6.25508">
        <ele>1610.83</ele>
        <time>2017-08-04T18:35:02Z</time>
      </trkpt>
      <trkpt lat="45.93703" lon="6.25508">
        <ele>1610.35</ele>
        <time>2017-08-04T18:35:03Z</time>
      </trkpt>
      <trkpt lat="45.93705" lon="6.25507">
        <ele>1609.86</ele>
        <time>2017-08-04T18:35:04Z</time>
      </trkpt>
      <trkpt lat="45.93706" lon="6.25506">
        <ele>1609.86</ele>
        <time>2017-08-04T18:35:05Z</time>
      </trkpt>
      <trkpt lat="45.93711" lon="6.25504">
        <ele>1610.35</ele>
        <time>2017-08-04T18:35:08Z</time>
      </trkpt>
      <trkpt lat="45.93713" lon="6.25503">
        <ele>1610.83</ele>
        <time>2017-08-04T18:35:09Z</time>
      </trkpt>
      <trkpt lat="45.93714" lon="6.25502">
        <ele>1610.83</ele>
        <time>2017-08-04T18:35:10Z</time>
      </trkpt>
      <trkpt lat="45.93715" lon="6.25503">
        <ele>1611.31</ele>
        <time>2017-08-04T18:35:11Z</time>
      </trkpt>
      <trkpt lat="45.93715" lon="6.25503">
        <ele>1611.31</ele>
        <time>2017-08-04T18:35:12Z</time>
      </trkpt>
      <trkpt lat="45.93716" lon="6.25503">
        <ele>1611.79</ele>
        <time>2017-08-04T18:35:13Z</time>
      </trkpt>
      <trkpt lat="45.93718" lon="6.25503">
        <ele>1612.27</ele>
        <time>2017-08-04T18:35:14Z</time>
      </trkpt>
      <trkpt lat="45.93721" lon="6.25501">
        <ele>1614.67</ele>
        <time>2017-08-04T18:35:20Z</time>
      </trkpt>
      <trkpt lat="45.93725" lon="6.25496">
        <ele>1617.07</ele>
        <time>2017-08-04T18:35:31Z</time>
      </trkpt>
      <trkpt lat="45.93725" lon="6.25491">
        <ele>1620.44</ele>
        <time>2017-08-04T18:35:44Z</time>
      </trkpt>
      <trkpt lat="45.93728" lon="6.2549">
        <ele>1622.36</ele>
        <time>2017-08-04T18:35:53Z</time>
      </trkpt>
      <trkpt lat="45.93731" lon="6.25483">
        <ele>1625.25</ele>
        <time>2017-08-04T18:36:04Z</time>
      </trkpt>
      <trkpt lat="45.93733" lon="6.25478">
        <ele>1628.61</ele>
        <time>2017-08-04T18:36:16Z</time>
      </trkpt>
      <trkpt lat="45.93737" lon="6.25472">
        <ele>1631.98</ele>
        <time>2017-08-04T18:36:28Z</time>
      </trkpt>
      <trkpt lat="45.93741" lon="6.25453">
        <ele>1634.38</ele>
        <time>2017-08-04T18:36:46Z</time>
      </trkpt>
      <trkpt lat="45.93745" lon="6.2543">
        <ele>1632.94</ele>
        <time>2017-08-04T18:36:56Z</time>
      </trkpt>
      <trkpt lat="45.93743" lon="6.25427">
        <ele>1632.46</ele>
        <time>2017-08-04T18:36:57Z</time>
      </trkpt>
      <trkpt lat="45.93743" lon="6.25424">
        <ele>1631.98</ele>
        <time>2017-08-04T18:36:58Z</time>
      </trkpt>
      <trkpt lat="45.93743" lon="6.2542">
        <ele>1631.98</ele>
        <time>2017-08-04T18:36:59Z</time>
      </trkpt>
      <trkpt lat="45.93744" lon="6.25416">
        <ele>1631.49</ele>
        <time>2017-08-04T18:37:00Z</time>
      </trkpt>
      <trkpt lat="45.93744" lon="6.25414">
        <ele>1631.49</ele>
        <time>2017-08-04T18:37:01Z</time>
      </trkpt>
      <trkpt lat="45.93745" lon="6.25412">
        <ele>1631.49</ele>
        <time>2017-08-04T18:37:02Z</time>
      </trkpt>
      <trkpt lat="45.93746" lon="6.2541">
        <ele>1631.98</ele>
        <time>2017-08-04T18:37:03Z</time>
      </trkpt>
      <trkpt lat="45.93747" lon="6.25408">
        <ele>1631.98</ele>
        <time>2017-08-04T18:37:04Z</time>
      </trkpt>
      <trkpt lat="45.93748" lon="6.25406">
        <ele>1631.98</ele>
        <time>2017-08-04T18:37:05Z</time>
      </trkpt>
      <trkpt lat="45.93748" lon="6.25404">
        <ele>1631.98</ele>
        <time>2017-08-04T18:37:06Z</time>
      </trkpt>
      <trkpt lat="45.93748" lon="6.25401">
        <ele>1631.98</ele>
        <time>2017-08-04T18:37:07Z</time>
      </trkpt>
      <trkpt lat="45.93749" lon="6.25399">
        <ele>1631.98</ele>
        <time>2017-08-04T18:37:08Z</time>
      </trkpt>
      <trkpt lat="45.9375" lon="6.25397">
        <ele>1631.98</ele>
        <time>2017-08-04T18:37:09Z</time>
      </trkpt>
      <trkpt lat="45.93752" lon="6.25396">
        <ele>1631.98</ele>
        <time>2017-08-04T18:37:10Z</time>
      </trkpt>
      <trkpt lat="45.93753" lon="6.25394">
        <ele>1631.98</ele>
        <time>2017-08-04T18:37:11Z</time>
      </trkpt>
      <trkpt lat="45.93754" lon="6.25393">
        <ele>1631.98</ele>
        <time>2017-08-04T18:37:12Z</time>
      </trkpt>
      <trkpt lat="45.93754" lon="6.25391">
        <ele>1632.46</ele>
        <time>2017-08-04T18:37:13Z</time>
      </trkpt>
      <trkpt lat="45.93755" lon="6.2539">
        <ele>1632.94</ele>
        <time>2017-08-04T18:37:15Z</time>
      </trkpt>
      <trkpt lat="45.93757" lon="6.25387">
        <ele>1633.9</ele>
        <time>2017-08-04T18:37:18Z</time>
      </trkpt>
      <trkpt lat="45.93758" lon="6.25386">
        <ele>1634.38</ele>
        <time>2017-08-04T18:37:19Z</time>
      </trkpt>
      <trkpt lat="45.93758" lon="6.25385">
        <ele>1634.38</ele>
        <time>2017-08-04T18:37:20Z</time>
      </trkpt>
      <trkpt lat="45.93759" lon="6.25384">
        <ele>1634.38</ele>
        <time>2017-08-04T18:37:21Z</time>
      </trkpt>
      <trkpt lat="45.93759" lon="6.25382">
        <ele>1634.86</ele>
        <time>2017-08-04T18:37:22Z</time>
      </trkpt>
      <trkpt lat="45.93764" lon="6.25361">
        <ele>1638.22</ele>
        <time>2017-08-04T18:37:39Z</time>
      </trkpt>
      <trkpt lat="45.93771" lon="6.2535">
        <ele>1640.63</ele>
        <time>2017-08-04T18:37:53Z</time>
      </trkpt>
      <trkpt lat="45.93777" lon="6.25342">
        <ele>1643.51</ele>
        <time>2017-08-04T18:38:10Z</time>
      </trkpt>
      <trkpt lat="45.93787" lon="6.25337">
        <ele>1646.88</ele>
        <time>2017-08-04T18:38:24Z</time>
      </trkpt>
      <trkpt lat="45.9379" lon="6.25338">
        <ele>1647.36</ele>
        <time>2017-08-04T18:38:27Z</time>
      </trkpt>
      <trkpt lat="45.93791" lon="6.25338">
        <ele>1647.84</ele>
        <time>2017-08-04T18:38:28Z</time>
      </trkpt>
      <trkpt lat="45.93797" lon="6.25345">
        <ele>1650.72</ele>
        <time>2017-08-04T18:38:40Z</time>
      </trkpt>
      <trkpt lat="45.93799" lon="6.2534">
        <ele>1653.6</ele>
        <time>2017-08-04T18:38:52Z</time>
      </trkpt>
      <trkpt lat="45.93799" lon="6.25337">
        <ele>1654.57</ele>
        <time>2017-08-04T18:38:55Z</time>
      </trkpt>
      <trkpt lat="45.93799" lon="6.25336">
        <ele>1654.57</ele>
        <time>2017-08-04T18:38:56Z</time>
      </trkpt>
      <trkpt lat="45.93801" lon="6.25327">
        <ele>1657.93</ele>
        <time>2017-08-04T18:39:11Z</time>
      </trkpt>
      <trkpt lat="45.93805" lon="6.25317">
        <ele>1660.81</ele>
        <time>2017-08-04T18:39:26Z</time>
      </trkpt>
      <trkpt lat="45.93809" lon="6.25307">
        <ele>1664.18</ele>
        <time>2017-08-04T18:39:40Z</time>
      </trkpt>
      <trkpt lat="45.93814" lon="6.25301">
        <ele>1667.54</ele>
        <time>2017-08-04T18:39:56Z</time>
      </trkpt>
      <trkpt lat="45.93817" lon="6.25291">
        <ele>1670.43</ele>
        <time>2017-08-04T18:40:10Z</time>
      </trkpt>
      <trkpt lat="45.9382" lon="6.2528">
        <ele>1673.79</ele>
        <time>2017-08-04T18:40:25Z</time>
      </trkpt>
      <trkpt lat="45.93819" lon="6.25271">
        <ele>1676.68</ele>
        <time>2017-08-04T18:40:38Z</time>
      </trkpt>
      <trkpt lat="45.9382" lon="6.25261">
        <ele>1679.56</ele>
        <time>2017-08-04T18:40:50Z</time>
      </trkpt>
      <trkpt lat="45.93825" lon="6.25258">
        <ele>1682.93</ele>
        <time>2017-08-04T18:41:05Z</time>
      </trkpt>
      <trkpt lat="45.93827" lon="6.2525">
        <ele>1686.29</ele>
        <time>2017-08-04T18:41:19Z</time>
      </trkpt>
      <trkpt lat="45.93828" lon="6.25241">
        <ele>1689.17</ele>
        <time>2017-08-04T18:41:34Z</time>
      </trkpt>
      <trkpt lat="45.93831" lon="6.25232">
        <ele>1692.54</ele>
        <time>2017-08-04T18:41:48Z</time>
      </trkpt>
      <trkpt lat="45.93829" lon="6.25226">
        <ele>1694.46</ele>
        <time>2017-08-04T18:41:57Z</time>
      </trkpt>
      <trkpt lat="45.93829" lon="6.25217">
        <ele>1697.34</ele>
        <time>2017-08-04T18:42:13Z</time>
      </trkpt>
      <trkpt lat="45.93828" lon="6.25211">
        <ele>1700.23</ele>
        <time>2017-08-04T18:42:25Z</time>
      </trkpt>
      <trkpt lat="45.93829" lon="6.25202">
        <ele>1703.11</ele>
        <time>2017-08-04T18:42:41Z</time>
      </trkpt>
      <trkpt lat="45.9383" lon="6.25195">
        <ele>1706</ele>
        <time>2017-08-04T18:42:57Z</time>
      </trkpt>
      <trkpt lat="45.93829" lon="6.2519">
        <ele>1709.36</ele>
        <time>2017-08-04T18:43:12Z</time>
      </trkpt>
      <trkpt lat="45.93827" lon="6.25181">
        <ele>1712.25</ele>
        <time>2017-08-04T18:43:27Z</time>
      </trkpt>
      <trkpt lat="45.9383" lon="6.25172">
        <ele>1715.61</ele>
        <time>2017-08-04T18:43:40Z</time>
      </trkpt>
      <trkpt lat="45.9383" lon="6.25173">
        <ele>1715.61</ele>
        <time>2017-08-04T18:43:42Z</time>
      </trkpt>
      <trkpt lat="45.9383" lon="6.25172">
        <ele>1716.09</ele>
        <time>2017-08-04T18:43:43Z</time>
      </trkpt>
      <trkpt lat="45.93832" lon="6.25165">
        <ele>1718.97</ele>
        <time>2017-08-04T18:43:58Z</time>
      </trkpt>
      <trkpt lat="45.93833" lon="6.25157">
        <ele>1722.34</ele>
        <time>2017-08-04T18:44:09Z</time>
      </trkpt>
      <trkpt lat="45.93836" lon="6.25158">
        <ele>1723.3</ele>
        <time>2017-08-04T18:44:15Z</time>
      </trkpt>
      <trkpt lat="45.93841" lon="6.25152">
        <ele>1726.18</ele>
        <time>2017-08-04T18:44:26Z</time>
      </trkpt>
      <trkpt lat="45.93845" lon="6.25146">
        <ele>1729.07</ele>
        <time>2017-08-04T18:44:41Z</time>
      </trkpt>
      <trkpt lat="45.93846" lon="6.25135">
        <ele>1732.43</ele>
        <time>2017-08-04T18:44:57Z</time>
      </trkpt>
      <trkpt lat="45.93846" lon="6.25131">
        <ele>1735.32</ele>
        <time>2017-08-04T18:45:12Z</time>
      </trkpt>
      <trkpt lat="45.93852" lon="6.25121">
        <ele>1738.2</ele>
        <time>2017-08-04T18:45:25Z</time>
      </trkpt>
      <trkpt lat="45.93853" lon="6.25125">
        <ele>1740.6</ele>
        <time>2017-08-04T18:45:35Z</time>
      </trkpt>
      <trkpt lat="45.93854" lon="6.2512">
        <ele>1743.97</ele>
        <time>2017-08-04T18:45:48Z</time>
      </trkpt>
      <trkpt lat="45.93863" lon="6.2511">
        <ele>1746.85</ele>
        <time>2017-08-04T18:46:09Z</time>
      </trkpt>
      <trkpt lat="45.93865" lon="6.25106">
        <ele>1747.81</ele>
        <time>2017-08-04T18:46:14Z</time>
      </trkpt>
      <trkpt lat="45.93869" lon="6.25096">
        <ele>1747.33</ele>
        <time>2017-08-04T18:46:19Z</time>
      </trkpt>
      <trkpt lat="45.93872" lon="6.25087">
        <ele>1747.81</ele>
        <time>2017-08-04T18:46:24Z</time>
      </trkpt>
      <trkpt lat="45.93872" lon="6.25084">
        <ele>1747.81</ele>
        <time>2017-08-04T18:46:26Z</time>
      </trkpt>
      <trkpt lat="45.93872" lon="6.25076">
        <ele>1751.18</ele>
        <time>2017-08-04T18:46:41Z</time>
      </trkpt>
      <trkpt lat="45.93874" lon="6.25067">
        <ele>1753.58</ele>
        <time>2017-08-04T18:47:00Z</time>
      </trkpt>
      <trkpt lat="45.93876" lon="6.25062">
        <ele>1755.99</ele>
        <time>2017-08-04T18:47:10Z</time>
      </trkpt>
      <trkpt lat="45.93876" lon="6.25058">
        <ele>1758.39</ele>
        <time>2017-08-04T18:47:19Z</time>
      </trkpt>
      <trkpt lat="45.93876" lon="6.25049">
        <ele>1761.27</ele>
        <time>2017-08-04T18:47:32Z</time>
      </trkpt>
      <trkpt lat="45.93874" lon="6.25038">
        <ele>1764.64</ele>
        <time>2017-08-04T18:47:49Z</time>
      </trkpt>
      <trkpt lat="45.93871" lon="6.25025">
        <ele>1767.52</ele>
        <time>2017-08-04T18:48:08Z</time>
      </trkpt>
      <trkpt lat="45.93867" lon="6.25016">
        <ele>1770.41</ele>
        <time>2017-08-04T18:48:28Z</time>
      </trkpt>
      <trkpt lat="45.93868" lon="6.2501">
        <ele>1772.81</ele>
        <time>2017-08-04T18:48:39Z</time>
      </trkpt>
      <trkpt lat="45.93868" lon="6.25009">
        <ele>1773.29</ele>
        <time>2017-08-04T18:48:40Z</time>
      </trkpt>
      <trkpt lat="45.93869" lon="6.24994">
        <ele>1776.17</ele>
        <time>2017-08-04T18:48:57Z</time>
      </trkpt>
      <trkpt lat="45.93863" lon="6.24986">
        <ele>1779.54</ele>
        <time>2017-08-04T18:49:18Z</time>
      </trkpt>
      <trkpt lat="45.93862" lon="6.24977">
        <ele>1782.42</ele>
        <time>2017-08-04T18:49:32Z</time>
      </trkpt>
      <trkpt lat="45.93862" lon="6.24976">
        <ele>1782.42</ele>
        <time>2017-08-04T18:49:33Z</time>
      </trkpt>
      <trkpt lat="45.93862" lon="6.24974">
        <ele>1782.42</ele>
        <time>2017-08-04T18:49:34Z</time>
      </trkpt>
      <trkpt lat="45.93863" lon="6.24973">
        <ele>1782.42</ele>
        <time>2017-08-04T18:49:35Z</time>
      </trkpt>
      <trkpt lat="45.93863" lon="6.24972">
        <ele>1782.9</ele>
        <time>2017-08-04T18:49:36Z</time>
      </trkpt>
      <trkpt lat="45.93862" lon="6.24965">
        <ele>1784.34</ele>
        <time>2017-08-04T18:49:47Z</time>
      </trkpt>
      <trkpt lat="45.93856" lon="6.24958">
        <ele>1787.23</ele>
        <time>2017-08-04T18:50:03Z</time>
      </trkpt>
      <trkpt lat="45.93855" lon="6.24948">
        <ele>1790.59</ele>
        <time>2017-08-04T18:50:17Z</time>
      </trkpt>
      <trkpt lat="45.93857" lon="6.24942">
        <ele>1792.52</ele>
        <time>2017-08-04T18:50:26Z</time>
      </trkpt>
      <trkpt lat="45.93867" lon="6.2493">
        <ele>1793</ele>
        <time>2017-08-04T18:50:53Z</time>
      </trkpt>
      <trkpt lat="45.93871" lon="6.24925">
        <ele>1793.96</ele>
        <time>2017-08-04T18:51:00Z</time>
      </trkpt>
      <trkpt lat="45.93873" lon="6.24925">
        <ele>1794.92</ele>
        <time>2017-08-04T18:51:06Z</time>
      </trkpt>
      <trkpt lat="45.93873" lon="6.24925">
        <ele>1794.92</ele>
        <time>2017-08-04T18:51:14Z</time>
      </trkpt>
      <trkpt lat="45.93873" lon="6.24924">
        <ele>1794.44</ele>
        <time>2017-08-04T18:51:23Z</time>
      </trkpt>
      <trkpt lat="45.93872" lon="6.24923">
        <ele>1794.44</ele>
        <time>2017-08-04T18:51:26Z</time>
      </trkpt>
      <trkpt lat="45.93873" lon="6.24922">
        <ele>1794.44</ele>
        <time>2017-08-04T18:51:31Z</time>
      </trkpt>
      <trkpt lat="45.93876" lon="6.24917">
        <ele>1793</ele>
        <time>2017-08-04T18:51:38Z</time>
      </trkpt>
      <trkpt lat="45.93876" lon="6.24915">
        <ele>1792.52</ele>
        <time>2017-08-04T18:51:39Z</time>
      </trkpt>
      <trkpt lat="45.93883" lon="6.24891">
        <ele>1793</ele>
        <time>2017-08-04T18:52:03Z</time>
      </trkpt>
      <trkpt lat="45.93885" lon="6.24889">
        <ele>1793.48</ele>
        <time>2017-08-04T18:52:05Z</time>
      </trkpt>
      <trkpt lat="45.93887" lon="6.24881">
        <ele>1794.44</ele>
        <time>2017-08-04T18:52:14Z</time>
      </trkpt>
      <trkpt lat="45.93891" lon="6.24871">
        <ele>1797.32</ele>
        <time>2017-08-04T18:52:27Z</time>
      </trkpt>
      <trkpt lat="45.93892" lon="6.24866">
        <ele>1800.21</ele>
        <time>2017-08-04T18:52:40Z</time>
      </trkpt>
      <trkpt lat="45.93895" lon="6.24864">
        <ele>1801.65</ele>
        <time>2017-08-04T18:52:49Z</time>
      </trkpt>
      <trkpt lat="45.93901" lon="6.24863">
        <ele>1804.53</ele>
        <time>2017-08-04T18:53:03Z</time>
      </trkpt>
      <trkpt lat="45.93903" lon="6.24857">
        <ele>1807.9</ele>
        <time>2017-08-04T18:53:18Z</time>
      </trkpt>
      <trkpt lat="45.93909" lon="6.24845">
        <ele>1809.34</ele>
        <time>2017-08-04T18:53:36Z</time>
      </trkpt>
      <trkpt lat="45.9391" lon="6.24845">
        <ele>1809.34</ele>
        <time>2017-08-04T18:53:37Z</time>
      </trkpt>
      <trkpt lat="45.93911" lon="6.24844">
        <ele>1808.86</ele>
        <time>2017-08-04T18:53:38Z</time>
      </trkpt>
      <trkpt lat="45.93912" lon="6.24843">
        <ele>1808.38</ele>
        <time>2017-08-04T18:53:39Z</time>
      </trkpt>
      <trkpt lat="45.93913" lon="6.24842">
        <ele>1807.9</ele>
        <time>2017-08-04T18:53:40Z</time>
      </trkpt>
      <trkpt lat="45.93914" lon="6.24841">
        <ele>1807.9</ele>
        <time>2017-08-04T18:53:41Z</time>
      </trkpt>
      <trkpt lat="45.93914" lon="6.24841">
        <ele>1807.9</ele>
        <time>2017-08-04T18:53:42Z</time>
      </trkpt>
      <trkpt lat="45.93918" lon="6.24839">
        <ele>1805.49</ele>
        <time>2017-08-04T18:53:49Z</time>
      </trkpt>
      <trkpt lat="45.93918" lon="6.24839">
        <ele>1805.49</ele>
        <time>2017-08-04T18:53:50Z</time>
      </trkpt>
      <trkpt lat="45.93919" lon="6.24838">
        <ele>1804.53</ele>
        <time>2017-08-04T18:53:51Z</time>
      </trkpt>
      <trkpt lat="45.93921" lon="6.24837">
        <ele>1804.05</ele>
        <time>2017-08-04T18:53:53Z</time>
      </trkpt>
      <trkpt lat="45.93929" lon="6.24832">
        <ele>1802.61</ele>
        <time>2017-08-04T18:54:00Z</time>
      </trkpt>
      <trkpt lat="45.9393" lon="6.24831">
        <ele>1802.61</ele>
        <time>2017-08-04T18:54:01Z</time>
      </trkpt>
      <trkpt lat="45.93933" lon="6.24827">
        <ele>1801.17</ele>
        <time>2017-08-04T18:54:05Z</time>
      </trkpt>
      <trkpt lat="45.93937" lon="6.2482">
        <ele>1800.69</ele>
        <time>2017-08-04T18:54:09Z</time>
      </trkpt>
      <trkpt lat="45.93937" lon="6.24817">
        <ele>1800.21</ele>
        <time>2017-08-04T18:54:10Z</time>
      </trkpt>
      <trkpt lat="45.93937" lon="6.24815">
        <ele>1800.21</ele>
        <time>2017-08-04T18:54:11Z</time>
      </trkpt>
      <trkpt lat="45.93937" lon="6.24813">
        <ele>1800.69</ele>
        <time>2017-08-04T18:54:12Z</time>
      </trkpt>
      <trkpt lat="45.93936" lon="6.24811">
        <ele>1800.69</ele>
        <time>2017-08-04T18:54:13Z</time>
      </trkpt>
      <trkpt lat="45.93936" lon="6.2481">
        <ele>1801.17</ele>
        <time>2017-08-04T18:54:14Z</time>
      </trkpt>
      <trkpt lat="45.93936" lon="6.24808">
        <ele>1801.17</ele>
        <time>2017-08-04T18:54:15Z</time>
      </trkpt>
      <trkpt lat="45.93938" lon="6.24798">
        <ele>1804.05</ele>
        <time>2017-08-04T18:54:27Z</time>
      </trkpt>
      <trkpt lat="45.9394" lon="6.24786">
        <ele>1803.57</ele>
        <time>2017-08-04T18:54:35Z</time>
      </trkpt>
      <trkpt lat="45.93942" lon="6.24776">
        <ele>1803.57</ele>
        <time>2017-08-04T18:54:39Z</time>
      </trkpt>
      <trkpt lat="45.93942" lon="6.24774">
        <ele>1804.05</ele>
        <time>2017-08-04T18:54:40Z</time>
      </trkpt>
      <trkpt lat="45.93942" lon="6.24772">
        <ele>1804.53</ele>
        <time>2017-08-04T18:54:41Z</time>
      </trkpt>
      <trkpt lat="45.93943" lon="6.24768">
        <ele>1805.97</ele>
        <time>2017-08-04T18:54:45Z</time>
      </trkpt>
      <trkpt lat="45.93943" lon="6.24767">
        <ele>1805.97</ele>
        <time>2017-08-04T18:54:46Z</time>
      </trkpt>
      <trkpt lat="45.93943" lon="6.24765">
        <ele>1805.97</ele>
        <time>2017-08-04T18:54:47Z</time>
      </trkpt>
      <trkpt lat="45.93944" lon="6.24764">
        <ele>1805.97</ele>
        <time>2017-08-04T18:54:48Z</time>
      </trkpt>
      <trkpt lat="45.93944" lon="6.24763">
        <ele>1805.97</ele>
        <time>2017-08-04T18:54:49Z</time>
      </trkpt>
      <trkpt lat="45.93946" lon="6.24763">
        <ele>1806.45</ele>
        <time>2017-08-04T18:54:50Z</time>
      </trkpt>
      <trkpt lat="45.93947" lon="6.24762">
        <ele>1805.97</ele>
        <time>2017-08-04T18:54:51Z</time>
      </trkpt>
      <trkpt lat="45.93947" lon="6.24762">
        <ele>1805.97</ele>
        <time>2017-08-04T18:54:52Z</time>
      </trkpt>
      <trkpt lat="45.9395" lon="6.24762">
        <ele>1805.97</ele>
        <time>2017-08-04T18:54:55Z</time>
      </trkpt>
      <trkpt lat="45.93952" lon="6.24761">
        <ele>1805.97</ele>
        <time>2017-08-04T18:54:56Z</time>
      </trkpt>
      <trkpt lat="45.93955" lon="6.24759">
        <ele>1805.01</ele>
        <time>2017-08-04T18:54:58Z</time>
      </trkpt>
      <trkpt lat="45.93959" lon="6.24756">
        <ele>1804.05</ele>
        <time>2017-08-04T18:55:00Z</time>
      </trkpt>
      <trkpt lat="45.93961" lon="6.24756">
        <ele>1804.05</ele>
        <time>2017-08-04T18:55:01Z</time>
      </trkpt>
      <trkpt lat="45.93963" lon="6.24757">
        <ele>1804.05</ele>
        <time>2017-08-04T18:55:02Z</time>
      </trkpt>
      <trkpt lat="45.93968" lon="6.24761">
        <ele>1804.05</ele>
        <time>2017-08-04T18:55:06Z</time>
      </trkpt>
      <trkpt lat="45.93975" lon="6.24771">
        <ele>1801.65</ele>
        <time>2017-08-04T18:55:16Z</time>
      </trkpt>
      <trkpt lat="45.93978" lon="6.24771">
        <ele>1801.17</ele>
        <time>2017-08-04T18:55:19Z</time>
      </trkpt>
      <trkpt lat="45.93979" lon="6.24772">
        <ele>1801.17</ele>
        <time>2017-08-04T18:55:20Z</time>
      </trkpt>
      <trkpt lat="45.9398" lon="6.24773">
        <ele>1801.17</ele>
        <time>2017-08-04T18:55:21Z</time>
      </trkpt>
      <trkpt lat="45.9398" lon="6.24774">
        <ele>1800.69</ele>
        <time>2017-08-04T18:55:22Z</time>
      </trkpt>
      <trkpt lat="45.93981" lon="6.24776">
        <ele>1800.69</ele>
        <time>2017-08-04T18:55:23Z</time>
      </trkpt>
      <trkpt lat="45.93983" lon="6.24778">
        <ele>1801.17</ele>
        <time>2017-08-04T18:55:26Z</time>
      </trkpt>
      <trkpt lat="45.93984" lon="6.24777">
        <ele>1801.17</ele>
        <time>2017-08-04T18:55:27Z</time>
      </trkpt>
      <trkpt lat="45.93985" lon="6.24776">
        <ele>1801.65</ele>
        <time>2017-08-04T18:55:28Z</time>
      </trkpt>
      <trkpt lat="45.93986" lon="6.24776">
        <ele>1801.65</ele>
        <time>2017-08-04T18:55:29Z</time>
      </trkpt>
      <trkpt lat="45.93987" lon="6.24775">
        <ele>1801.17</ele>
        <time>2017-08-04T18:55:30Z</time>
      </trkpt>
      <trkpt lat="45.93989" lon="6.24775">
        <ele>1801.17</ele>
        <time>2017-08-04T18:55:31Z</time>
      </trkpt>
      <trkpt lat="45.9399" lon="6.24773">
        <ele>1800.69</ele>
        <time>2017-08-04T18:55:32Z</time>
      </trkpt>
      <trkpt lat="45.93992" lon="6.24772">
        <ele>1800.21</ele>
        <time>2017-08-04T18:55:33Z</time>
      </trkpt>
      <trkpt lat="45.93992" lon="6.2477">
        <ele>1800.21</ele>
        <time>2017-08-04T18:55:34Z</time>
      </trkpt>
      <trkpt lat="45.93993" lon="6.24769">
        <ele>1799.73</ele>
        <time>2017-08-04T18:55:35Z</time>
      </trkpt>
      <trkpt lat="45.93994" lon="6.24767">
        <ele>1799.24</ele>
        <time>2017-08-04T18:55:36Z</time>
      </trkpt>
      <trkpt lat="45.93995" lon="6.24765">
        <ele>1799.24</ele>
        <time>2017-08-04T18:55:37Z</time>
      </trkpt>
      <trkpt lat="45.93996" lon="6.24764">
        <ele>1799.24</ele>
        <time>2017-08-04T18:55:38Z</time>
      </trkpt>
      <trkpt lat="45.93996" lon="6.24763">
        <ele>1799.24</ele>
        <time>2017-08-04T18:55:39Z</time>
      </trkpt>
      <trkpt lat="45.93997" lon="6.24762">
        <ele>1799.73</ele>
        <time>2017-08-04T18:55:40Z</time>
      </trkpt>
      <trkpt lat="45.94" lon="6.24764">
        <ele>1802.13</ele>
        <time>2017-08-04T18:55:49Z</time>
      </trkpt>
      <trkpt lat="45.94001" lon="6.24762">
        <ele>1802.13</ele>
        <time>2017-08-04T18:55:50Z</time>
      </trkpt>
      <trkpt lat="45.94002" lon="6.24761">
        <ele>1802.61</ele>
        <time>2017-08-04T18:55:51Z</time>
      </trkpt>
      <trkpt lat="45.94003" lon="6.24761">
        <ele>1802.61</ele>
        <time>2017-08-04T18:55:52Z</time>
      </trkpt>
      <trkpt lat="45.94005" lon="6.24762">
        <ele>1802.61</ele>
        <time>2017-08-04T18:55:53Z</time>
      </trkpt>
      <trkpt lat="45.94006" lon="6.24763">
        <ele>1802.61</ele>
        <time>2017-08-04T18:55:54Z</time>
      </trkpt>
      <trkpt lat="45.94007" lon="6.24764">
        <ele>1802.61</ele>
        <time>2017-08-04T18:55:55Z</time>
      </trkpt>
      <trkpt lat="45.94009" lon="6.24765">
        <ele>1802.61</ele>
        <time>2017-08-04T18:55:57Z</time>
      </trkpt>
      <trkpt lat="45.9401" lon="6.24766">
        <ele>1802.61</ele>
        <time>2017-08-04T18:55:58Z</time>
      </trkpt>
      <trkpt lat="45.94015" lon="6.24769">
        <ele>1804.05</ele>
        <time>2017-08-04T18:56:06Z</time>
      </trkpt>
      <trkpt lat="45.94018" lon="6.24762">
        <ele>1803.57</ele>
        <time>2017-08-04T18:56:16Z</time>
      </trkpt>
      <trkpt lat="45.94018" lon="6.2476">
        <ele>1803.57</ele>
        <time>2017-08-04T18:56:17Z</time>
      </trkpt>
      <trkpt lat="45.94019" lon="6.24759">
        <ele>1803.09</ele>
        <time>2017-08-04T18:56:18Z</time>
      </trkpt>
      <trkpt lat="45.94019" lon="6.24758">
        <ele>1803.09</ele>
        <time>2017-08-04T18:56:19Z</time>
      </trkpt>
      <trkpt lat="45.94023" lon="6.24757">
        <ele>1802.61</ele>
        <time>2017-08-04T18:56:22Z</time>
      </trkpt>
      <trkpt lat="45.94025" lon="6.24758">
        <ele>1802.61</ele>
        <time>2017-08-04T18:56:23Z</time>
      </trkpt>
      <trkpt lat="45.94027" lon="6.24758">
        <ele>1802.13</ele>
        <time>2017-08-04T18:56:24Z</time>
      </trkpt>
      <trkpt lat="45.94028" lon="6.24758">
        <ele>1802.13</ele>
        <time>2017-08-04T18:56:25Z</time>
      </trkpt>
      <trkpt lat="45.9403" lon="6.24758">
        <ele>1802.13</ele>
        <time>2017-08-04T18:56:26Z</time>
      </trkpt>
      <trkpt lat="45.94032" lon="6.24758">
        <ele>1802.61</ele>
        <time>2017-08-04T18:56:29Z</time>
      </trkpt>
      <trkpt lat="45.94033" lon="6.2476">
        <ele>1802.61</ele>
        <time>2017-08-04T18:56:30Z</time>
      </trkpt>
      <trkpt lat="45.94034" lon="6.24762">
        <ele>1802.61</ele>
        <time>2017-08-04T18:56:31Z</time>
      </trkpt>
      <trkpt lat="45.94035" lon="6.24764">
        <ele>1802.61</ele>
        <time>2017-08-04T18:56:32Z</time>
      </trkpt>
      <trkpt lat="45.94036" lon="6.24767">
        <ele>1802.13</ele>
        <time>2017-08-04T18:56:33Z</time>
      </trkpt>
      <trkpt lat="45.94037" lon="6.24768">
        <ele>1801.65</ele>
        <time>2017-08-04T18:56:34Z</time>
      </trkpt>
      <trkpt lat="45.94038" lon="6.24769">
        <ele>1801.65</ele>
        <time>2017-08-04T18:56:35Z</time>
      </trkpt>
      <trkpt lat="45.94039" lon="6.24771">
        <ele>1801.17</ele>
        <time>2017-08-04T18:56:36Z</time>
      </trkpt>
      <trkpt lat="45.9404" lon="6.24773">
        <ele>1800.69</ele>
        <time>2017-08-04T18:56:37Z</time>
      </trkpt>
      <trkpt lat="45.9404" lon="6.24775">
        <ele>1800.69</ele>
        <time>2017-08-04T18:56:38Z</time>
      </trkpt>
      <trkpt lat="45.9404" lon="6.24776">
        <ele>1800.21</ele>
        <time>2017-08-04T18:56:39Z</time>
      </trkpt>
      <trkpt lat="45.94041" lon="6.2478">
        <ele>1798.76</ele>
        <time>2017-08-04T18:56:45Z</time>
      </trkpt>
      <trkpt lat="45.94045" lon="6.24779">
        <ele>1795.4</ele>
        <time>2017-08-04T18:56:53Z</time>
      </trkpt>
      <trkpt lat="45.94047" lon="6.2478">
        <ele>1793.96</ele>
        <time>2017-08-04T18:56:56Z</time>
      </trkpt>
      <trkpt lat="45.94048" lon="6.24779">
        <ele>1793</ele>
        <time>2017-08-04T18:56:58Z</time>
      </trkpt>
      <trkpt lat="45.94048" lon="6.24777">
        <ele>1792.52</ele>
        <time>2017-08-04T18:56:59Z</time>
      </trkpt>
      <trkpt lat="45.94049" lon="6.24775">
        <ele>1792.03</ele>
        <time>2017-08-04T18:57:00Z</time>
      </trkpt>
      <trkpt lat="45.94049" lon="6.24773">
        <ele>1792.03</ele>
        <time>2017-08-04T18:57:01Z</time>
      </trkpt>
      <trkpt lat="45.94048" lon="6.2477">
        <ele>1791.07</ele>
        <time>2017-08-04T18:57:02Z</time>
      </trkpt>
      <trkpt lat="45.94047" lon="6.24767">
        <ele>1790.59</ele>
        <time>2017-08-04T18:57:03Z</time>
      </trkpt>
      <trkpt lat="45.94046" lon="6.24764">
        <ele>1790.11</ele>
        <time>2017-08-04T18:57:04Z</time>
      </trkpt>
      <trkpt lat="45.94046" lon="6.24758">
        <ele>1790.11</ele>
        <time>2017-08-04T18:57:07Z</time>
      </trkpt>
      <trkpt lat="45.94047" lon="6.24756">
        <ele>1790.59</ele>
        <time>2017-08-04T18:57:08Z</time>
      </trkpt>
      <trkpt lat="45.94049" lon="6.24755">
        <ele>1790.59</ele>
        <time>2017-08-04T18:57:09Z</time>
      </trkpt>
      <trkpt lat="45.9405" lon="6.24753">
        <ele>1790.59</ele>
        <time>2017-08-04T18:57:10Z</time>
      </trkpt>
      <trkpt lat="45.94051" lon="6.24751">
        <ele>1790.59</ele>
        <time>2017-08-04T18:57:11Z</time>
      </trkpt>
      <trkpt lat="45.94052" lon="6.2475">
        <ele>1790.59</ele>
        <time>2017-08-04T18:57:12Z</time>
      </trkpt>
      <trkpt lat="45.94053" lon="6.24748">
        <ele>1790.59</ele>
        <time>2017-08-04T18:57:13Z</time>
      </trkpt>
      <trkpt lat="45.94055" lon="6.24743">
        <ele>1790.59</ele>
        <time>2017-08-04T18:57:16Z</time>
      </trkpt>
      <trkpt lat="45.94055" lon="6.24741">
        <ele>1790.59</ele>
        <time>2017-08-04T18:57:17Z</time>
      </trkpt>
      <trkpt lat="45.94057" lon="6.24737">
        <ele>1790.59</ele>
        <time>2017-08-04T18:57:19Z</time>
      </trkpt>
      <trkpt lat="45.94059" lon="6.24735">
        <ele>1792.03</ele>
        <time>2017-08-04T18:57:22Z</time>
      </trkpt>
      <trkpt lat="45.94062" lon="6.24729">
        <ele>1793.96</ele>
        <time>2017-08-04T18:57:32Z</time>
      </trkpt>
      <trkpt lat="45.94067" lon="6.24725">
        <ele>1795.4</ele>
        <time>2017-08-04T18:57:40Z</time>
      </trkpt>
      <trkpt lat="45.94072" lon="6.24725">
        <ele>1795.88</ele>
        <time>2017-08-04T18:57:47Z</time>
      </trkpt>
      <trkpt lat="45.94082" lon="6.24734">
        <ele>1799.24</ele>
        <time>2017-08-04T18:58:01Z</time>
      </trkpt>
      <trkpt lat="45.94084" lon="6.24728">
        <ele>1802.61</ele>
        <time>2017-08-04T18:58:12Z</time>
      </trkpt>
      <trkpt lat="45.94088" lon="6.24725">
        <ele>1803.09</ele>
        <time>2017-08-04T18:58:18Z</time>
      </trkpt>
      <trkpt lat="45.9409" lon="6.24727">
        <ele>1803.57</ele>
        <time>2017-08-04T18:58:21Z</time>
      </trkpt>
      <trkpt lat="45.9409" lon="6.24728">
        <ele>1803.57</ele>
        <time>2017-08-04T18:58:22Z</time>
      </trkpt>
      <trkpt lat="45.94091" lon="6.24728">
        <ele>1804.05</ele>
        <time>2017-08-04T18:58:23Z</time>
      </trkpt>
      <trkpt lat="45.94093" lon="6.24729">
        <ele>1804.05</ele>
        <time>2017-08-04T18:58:26Z</time>
      </trkpt>
      <trkpt lat="45.94095" lon="6.24728">
        <ele>1804.05</ele>
        <time>2017-08-04T18:58:27Z</time>
      </trkpt>
      <trkpt lat="45.941" lon="6.24727">
        <ele>1803.09</ele>
        <time>2017-08-04T18:58:33Z</time>
      </trkpt>
      <trkpt lat="45.94101" lon="6.24728">
        <ele>1802.61</ele>
        <time>2017-08-04T18:58:34Z</time>
      </trkpt>
      <trkpt lat="45.94101" lon="6.24729">
        <ele>1802.61</ele>
        <time>2017-08-04T18:58:35Z</time>
      </trkpt>
      <trkpt lat="45.94108" lon="6.24727">
        <ele>1801.17</ele>
        <time>2017-08-04T18:58:42Z</time>
      </trkpt>
      <trkpt lat="45.94111" lon="6.24723">
        <ele>1802.13</ele>
        <time>2017-08-04T18:58:47Z</time>
      </trkpt>
      <trkpt lat="45.94113" lon="6.24722">
        <ele>1802.13</ele>
        <time>2017-08-04T18:58:49Z</time>
      </trkpt>
      <trkpt lat="45.94114" lon="6.24722">
        <ele>1802.13</ele>
        <time>2017-08-04T18:58:50Z</time>
      </trkpt>
      <trkpt lat="45.94115" lon="6.24722">
        <ele>1802.61</ele>
        <time>2017-08-04T18:58:51Z</time>
      </trkpt>
      <trkpt lat="45.94125" lon="6.24721">
        <ele>1803.57</ele>
        <time>2017-08-04T18:59:01Z</time>
      </trkpt>
      <trkpt lat="45.94124" lon="6.24718">
        <ele>1803.57</ele>
        <time>2017-08-04T18:59:04Z</time>
      </trkpt>
      <trkpt lat="45.94125" lon="6.24716">
        <ele>1804.05</ele>
        <time>2017-08-04T18:59:05Z</time>
      </trkpt>
      <trkpt lat="45.94125" lon="6.24715">
        <ele>1804.05</ele>
        <time>2017-08-04T18:59:06Z</time>
      </trkpt>
      <trkpt lat="45.94126" lon="6.24714">
        <ele>1804.05</ele>
        <time>2017-08-04T18:59:07Z</time>
      </trkpt>
      <trkpt lat="45.94127" lon="6.24713">
        <ele>1804.05</ele>
        <time>2017-08-04T18:59:08Z</time>
      </trkpt>
      <trkpt lat="45.94128" lon="6.24712">
        <ele>1804.05</ele>
        <time>2017-08-04T18:59:09Z</time>
      </trkpt>
      <trkpt lat="45.9413" lon="6.24712">
        <ele>1804.05</ele>
        <time>2017-08-04T18:59:10Z</time>
      </trkpt>
      <trkpt lat="45.94131" lon="6.24711">
        <ele>1804.05</ele>
        <time>2017-08-04T18:59:11Z</time>
      </trkpt>
      <trkpt lat="45.94132" lon="6.24711">
        <ele>1804.05</ele>
        <time>2017-08-04T18:59:12Z</time>
      </trkpt>
      <trkpt lat="45.94133" lon="6.24711">
        <ele>1804.05</ele>
        <time>2017-08-04T18:59:14Z</time>
      </trkpt>
      <trkpt lat="45.94134" lon="6.2471">
        <ele>1804.05</ele>
        <time>2017-08-04T18:59:15Z</time>
      </trkpt>
      <trkpt lat="45.9414" lon="6.24706">
        <ele>1805.49</ele>
        <time>2017-08-04T18:59:23Z</time>
      </trkpt>
      <trkpt lat="45.94142" lon="6.24705">
        <ele>1805.97</ele>
        <time>2017-08-04T18:59:24Z</time>
      </trkpt>
      <trkpt lat="45.94143" lon="6.24703">
        <ele>1805.97</ele>
        <time>2017-08-04T18:59:25Z</time>
      </trkpt>
      <trkpt lat="45.94147" lon="6.24692">
        <ele>1805.97</ele>
        <time>2017-08-04T18:59:30Z</time>
      </trkpt>
      <trkpt lat="45.94148" lon="6.24686">
        <ele>1806.45</ele>
        <time>2017-08-04T18:59:33Z</time>
      </trkpt>
      <trkpt lat="45.94149" lon="6.24683">
        <ele>1807.42</ele>
        <time>2017-08-04T18:59:35Z</time>
      </trkpt>
      <trkpt lat="45.94149" lon="6.24676">
        <ele>1808.38</ele>
        <time>2017-08-04T18:59:38Z</time>
      </trkpt>
      <trkpt lat="45.94149" lon="6.24675">
        <ele>1808.38</ele>
        <time>2017-08-04T18:59:39Z</time>
      </trkpt>
      <trkpt lat="45.94149" lon="6.24673">
        <ele>1808.86</ele>
        <time>2017-08-04T18:59:40Z</time>
      </trkpt>
      <trkpt lat="45.9415" lon="6.24671">
        <ele>1809.34</ele>
        <time>2017-08-04T18:59:41Z</time>
      </trkpt>
      <trkpt lat="45.9415" lon="6.2467">
        <ele>1809.82</ele>
        <time>2017-08-04T18:59:42Z</time>
      </trkpt>
      <trkpt lat="45.9415" lon="6.24668">
        <ele>1809.82</ele>
        <time>2017-08-04T18:59:43Z</time>
      </trkpt>
      <trkpt lat="45.94151" lon="6.24666">
        <ele>1810.3</ele>
        <time>2017-08-04T18:59:44Z</time>
      </trkpt>
      <trkpt lat="45.94152" lon="6.2466">
        <ele>1811.26</ele>
        <time>2017-08-04T18:59:48Z</time>
      </trkpt>
      <trkpt lat="45.94152" lon="6.24658">
        <ele>1811.74</ele>
        <time>2017-08-04T18:59:49Z</time>
      </trkpt>
      <trkpt lat="45.94152" lon="6.24656">
        <ele>1811.74</ele>
        <time>2017-08-04T18:59:50Z</time>
      </trkpt>
      <trkpt lat="45.94153" lon="6.24654">
        <ele>1812.22</ele>
        <time>2017-08-04T18:59:51Z</time>
      </trkpt>
      <trkpt lat="45.94153" lon="6.24653">
        <ele>1812.22</ele>
        <time>2017-08-04T18:59:52Z</time>
      </trkpt>
      <trkpt lat="45.94154" lon="6.24651">
        <ele>1812.7</ele>
        <time>2017-08-04T18:59:53Z</time>
      </trkpt>
      <trkpt lat="45.94155" lon="6.24649">
        <ele>1812.7</ele>
        <time>2017-08-04T18:59:54Z</time>
      </trkpt>
      <trkpt lat="45.94155" lon="6.24647">
        <ele>1813.18</ele>
        <time>2017-08-04T18:59:55Z</time>
      </trkpt>
      <trkpt lat="45.94156" lon="6.24646">
        <ele>1813.18</ele>
        <time>2017-08-04T18:59:56Z</time>
      </trkpt>
      <trkpt lat="45.94156" lon="6.24644">
        <ele>1813.18</ele>
        <time>2017-08-04T18:59:57Z</time>
      </trkpt>
      <trkpt lat="45.94156" lon="6.24643">
        <ele>1813.66</ele>
        <time>2017-08-04T18:59:58Z</time>
      </trkpt>
      <trkpt lat="45.94156" lon="6.24641">
        <ele>1813.66</ele>
        <time>2017-08-04T18:59:59Z</time>
      </trkpt>
      <trkpt lat="45.94155" lon="6.24634">
        <ele>1814.63</ele>
        <time>2017-08-04T19:00:03Z</time>
      </trkpt>
      <trkpt lat="45.94155" lon="6.24633">
        <ele>1815.11</ele>
        <time>2017-08-04T19:00:04Z</time>
      </trkpt>
      <trkpt lat="45.94155" lon="6.24632">
        <ele>1815.11</ele>
        <time>2017-08-04T19:00:05Z</time>
      </trkpt>
      <trkpt lat="45.94155" lon="6.24631">
        <ele>1815.59</ele>
        <time>2017-08-04T19:00:06Z</time>
      </trkpt>
      <trkpt lat="45.94155" lon="6.2463">
        <ele>1815.59</ele>
        <time>2017-08-04T19:00:07Z</time>
      </trkpt>
      <trkpt lat="45.94154" lon="6.24629">
        <ele>1815.59</ele>
        <time>2017-08-04T19:00:08Z</time>
      </trkpt>
      <trkpt lat="45.94154" lon="6.2462">
        <ele>1817.03</ele>
        <time>2017-08-04T19:00:15Z</time>
      </trkpt>
      <trkpt lat="45.94154" lon="6.24619">
        <ele>1817.03</ele>
        <time>2017-08-04T19:00:16Z</time>
      </trkpt>
      <trkpt lat="45.94154" lon="6.24618">
        <ele>1817.03</ele>
        <time>2017-08-04T19:00:17Z</time>
      </trkpt>
      <trkpt lat="45.94154" lon="6.24616">
        <ele>1817.51</ele>
        <time>2017-08-04T19:00:18Z</time>
      </trkpt>
      <trkpt lat="45.94155" lon="6.24615">
        <ele>1817.99</ele>
        <time>2017-08-04T19:00:19Z</time>
      </trkpt>
      <trkpt lat="45.94155" lon="6.24613">
        <ele>1817.99</ele>
        <time>2017-08-04T19:00:20Z</time>
      </trkpt>
      <trkpt lat="45.94161" lon="6.24596">
        <ele>1819.91</ele>
        <time>2017-08-04T19:00:35Z</time>
      </trkpt>
      <trkpt lat="45.94161" lon="6.24595">
        <ele>1820.39</ele>
        <time>2017-08-04T19:00:36Z</time>
      </trkpt>
      <trkpt lat="45.94162" lon="6.24591">
        <ele>1821.35</ele>
        <time>2017-08-04T19:00:40Z</time>
      </trkpt>
      <trkpt lat="45.94165" lon="6.24579">
        <ele>1824.24</ele>
        <time>2017-08-04T19:00:55Z</time>
      </trkpt>
      <trkpt lat="45.94168" lon="6.24572">
        <ele>1826.16</ele>
        <time>2017-08-04T19:01:04Z</time>
      </trkpt>
      <trkpt lat="45.94173" lon="6.24564">
        <ele>1828.08</ele>
        <time>2017-08-04T19:01:15Z</time>
      </trkpt>
      <trkpt lat="45.94173" lon="6.24562">
        <ele>1828.56</ele>
        <time>2017-08-04T19:01:16Z</time>
      </trkpt>
      <trkpt lat="45.94177" lon="6.24543">
        <ele>1830.01</ele>
        <time>2017-08-04T19:01:35Z</time>
      </trkpt>
      <trkpt lat="45.94181" lon="6.24537">
        <ele>1828.56</ele>
        <time>2017-08-04T19:01:38Z</time>
      </trkpt>
      <trkpt lat="45.94198" lon="6.24518">
        <ele>1828.56</ele>
        <time>2017-08-04T19:01:48Z</time>
      </trkpt>
      <trkpt lat="45.94204" lon="6.24505">
        <ele>1828.08</ele>
        <time>2017-08-04T19:01:56Z</time>
      </trkpt>
      <trkpt lat="45.94205" lon="6.24503">
        <ele>1827.6</ele>
        <time>2017-08-04T19:01:57Z</time>
      </trkpt>
      <trkpt lat="45.94205" lon="6.24502">
        <ele>1827.12</ele>
        <time>2017-08-04T19:01:58Z</time>
      </trkpt>
      <trkpt lat="45.94206" lon="6.24501">
        <ele>1827.12</ele>
        <time>2017-08-04T19:01:59Z</time>
      </trkpt>
      <trkpt lat="45.94207" lon="6.245">
        <ele>1826.64</ele>
        <time>2017-08-04T19:02:00Z</time>
      </trkpt>
      <trkpt lat="45.94208" lon="6.24499">
        <ele>1826.16</ele>
        <time>2017-08-04T19:02:01Z</time>
      </trkpt>
      <trkpt lat="45.9421" lon="6.24497">
        <ele>1825.68</ele>
        <time>2017-08-04T19:02:02Z</time>
      </trkpt>
      <trkpt lat="45.94211" lon="6.24496">
        <ele>1825.2</ele>
        <time>2017-08-04T19:02:03Z</time>
      </trkpt>
      <trkpt lat="45.94213" lon="6.24495">
        <ele>1824.72</ele>
        <time>2017-08-04T19:02:04Z</time>
      </trkpt>
      <trkpt lat="45.94214" lon="6.24493">
        <ele>1824.24</ele>
        <time>2017-08-04T19:02:05Z</time>
      </trkpt>
      <trkpt lat="45.94215" lon="6.24492">
        <ele>1823.76</ele>
        <time>2017-08-04T19:02:06Z</time>
      </trkpt>
      <trkpt lat="45.94216" lon="6.24491">
        <ele>1823.28</ele>
        <time>2017-08-04T19:02:07Z</time>
      </trkpt>
      <trkpt lat="45.94217" lon="6.24489">
        <ele>1822.8</ele>
        <time>2017-08-04T19:02:08Z</time>
      </trkpt>
      <trkpt lat="45.94219" lon="6.24486">
        <ele>1822.8</ele>
        <time>2017-08-04T19:02:09Z</time>
      </trkpt>
      <trkpt lat="45.94221" lon="6.24484">
        <ele>1822.32</ele>
        <time>2017-08-04T19:02:10Z</time>
      </trkpt>
      <trkpt lat="45.94236" lon="6.2448">
        <ele>1820.39</ele>
        <time>2017-08-04T19:02:16Z</time>
      </trkpt>
      <trkpt lat="45.94238" lon="6.24479">
        <ele>1820.87</ele>
        <time>2017-08-04T19:02:17Z</time>
      </trkpt>
      <trkpt lat="45.9424" lon="6.24478">
        <ele>1820.87</ele>
        <time>2017-08-04T19:02:18Z</time>
      </trkpt>
      <trkpt lat="45.94251" lon="6.24472">
        <ele>1820.87</ele>
        <time>2017-08-04T19:02:31Z</time>
      </trkpt>
      <trkpt lat="45.94252" lon="6.24471">
        <ele>1820.87</ele>
        <time>2017-08-04T19:02:32Z</time>
      </trkpt>
      <trkpt lat="45.94254" lon="6.24463">
        <ele>1819.91</ele>
        <time>2017-08-04T19:02:37Z</time>
      </trkpt>
      <trkpt lat="45.94257" lon="6.24459">
        <ele>1819.91</ele>
        <time>2017-08-04T19:02:40Z</time>
      </trkpt>
      <trkpt lat="45.94259" lon="6.24458">
        <ele>1819.43</ele>
        <time>2017-08-04T19:02:41Z</time>
      </trkpt>
      <trkpt lat="45.9426" lon="6.24458">
        <ele>1819.43</ele>
        <time>2017-08-04T19:02:42Z</time>
      </trkpt>
      <trkpt lat="45.94261" lon="6.24457">
        <ele>1818.95</ele>
        <time>2017-08-04T19:02:43Z</time>
      </trkpt>
      <trkpt lat="45.94262" lon="6.24456">
        <ele>1818.95</ele>
        <time>2017-08-04T19:02:44Z</time>
      </trkpt>
      <trkpt lat="45.94263" lon="6.24455">
        <ele>1818.95</ele>
        <time>2017-08-04T19:02:45Z</time>
      </trkpt>
      <trkpt lat="45.94281" lon="6.24439">
        <ele>1818.47</ele>
        <time>2017-08-04T19:02:54Z</time>
      </trkpt>
      <trkpt lat="45.94287" lon="6.24433">
        <ele>1818.47</ele>
        <time>2017-08-04T19:02:57Z</time>
      </trkpt>
      <trkpt lat="45.9429" lon="6.24432">
        <ele>1817.99</ele>
        <time>2017-08-04T19:02:58Z</time>
      </trkpt>
      <trkpt lat="45.94293" lon="6.24432">
        <ele>1817.99</ele>
        <time>2017-08-04T19:02:59Z</time>
      </trkpt>
      <trkpt lat="45.94295" lon="6.2443">
        <ele>1817.99</ele>
        <time>2017-08-04T19:03:00Z</time>
      </trkpt>
      <trkpt lat="45.94297" lon="6.24429">
        <ele>1817.51</ele>
        <time>2017-08-04T19:03:01Z</time>
      </trkpt>
      <trkpt lat="45.94299" lon="6.24427">
        <ele>1817.51</ele>
        <time>2017-08-04T19:03:02Z</time>
      </trkpt>
      <trkpt lat="45.94316" lon="6.24414">
        <ele>1816.55</ele>
        <time>2017-08-04T19:03:09Z</time>
      </trkpt>
      <trkpt lat="45.94331" lon="6.24406">
        <ele>1816.55</ele>
        <time>2017-08-04T19:03:16Z</time>
      </trkpt>
      <trkpt lat="45.94349" lon="6.24393">
        <ele>1815.59</ele>
        <time>2017-08-04T19:03:24Z</time>
      </trkpt>
      <trkpt lat="45.94355" lon="6.24389">
        <ele>1815.59</ele>
        <time>2017-08-04T19:03:27Z</time>
      </trkpt>
      <trkpt lat="45.94356" lon="6.24387">
        <ele>1815.59</ele>
        <time>2017-08-04T19:03:28Z</time>
      </trkpt>
      <trkpt lat="45.94358" lon="6.24385">
        <ele>1815.59</ele>
        <time>2017-08-04T19:03:29Z</time>
      </trkpt>
      <trkpt lat="45.94372" lon="6.24372">
        <ele>1815.11</ele>
        <time>2017-08-04T19:03:36Z</time>
      </trkpt>
      <trkpt lat="45.94374" lon="6.24368">
        <ele>1814.63</ele>
        <time>2017-08-04T19:03:38Z</time>
      </trkpt>
      <trkpt lat="45.94377" lon="6.24363">
        <ele>1814.15</ele>
        <time>2017-08-04T19:03:41Z</time>
      </trkpt>
      <trkpt lat="45.94379" lon="6.24358">
        <ele>1814.15</ele>
        <time>2017-08-04T19:03:44Z</time>
      </trkpt>
      <trkpt lat="45.9438" lon="6.24357">
        <ele>1813.18</ele>
        <time>2017-08-04T19:03:45Z</time>
      </trkpt>
      <trkpt lat="45.94381" lon="6.24356">
        <ele>1812.7</ele>
        <time>2017-08-04T19:03:46Z</time>
      </trkpt>
      <trkpt lat="45.94382" lon="6.24354">
        <ele>1812.22</ele>
        <time>2017-08-04T19:03:47Z</time>
      </trkpt>
      <trkpt lat="45.94383" lon="6.24351">
        <ele>1812.22</ele>
        <time>2017-08-04T19:03:48Z</time>
      </trkpt>
      <trkpt lat="45.94384" lon="6.24348">
        <ele>1811.74</ele>
        <time>2017-08-04T19:03:49Z</time>
      </trkpt>
      <trkpt lat="45.94385" lon="6.24345">
        <ele>1811.26</ele>
        <time>2017-08-04T19:03:50Z</time>
      </trkpt>
      <trkpt lat="45.94386" lon="6.24343">
        <ele>1810.78</ele>
        <time>2017-08-04T19:03:51Z</time>
      </trkpt>
      <trkpt lat="45.94387" lon="6.2434">
        <ele>1810.78</ele>
        <time>2017-08-04T19:03:52Z</time>
      </trkpt>
      <trkpt lat="45.94387" lon="6.24337">
        <ele>1810.78</ele>
        <time>2017-08-04T19:03:53Z</time>
      </trkpt>
      <trkpt lat="45.94388" lon="6.24334">
        <ele>1810.78</ele>
        <time>2017-08-04T19:03:54Z</time>
      </trkpt>
      <trkpt lat="45.94389" lon="6.24332">
        <ele>1810.78</ele>
        <time>2017-08-04T19:03:55Z</time>
      </trkpt>
      <trkpt lat="45.9439" lon="6.2433">
        <ele>1810.78</ele>
        <time>2017-08-04T19:03:56Z</time>
      </trkpt>
      <trkpt lat="45.94404" lon="6.24313">
        <ele>1808.86</ele>
        <time>2017-08-04T19:04:05Z</time>
      </trkpt>
      <trkpt lat="45.94409" lon="6.24309">
        <ele>1808.38</ele>
        <time>2017-08-04T19:04:08Z</time>
      </trkpt>
      <trkpt lat="45.94413" lon="6.24301">
        <ele>1806.94</ele>
        <time>2017-08-04T19:04:12Z</time>
      </trkpt>
      <trkpt lat="45.94414" lon="6.243">
        <ele>1806.45</ele>
        <time>2017-08-04T19:04:13Z</time>
      </trkpt>
      <trkpt lat="45.94415" lon="6.24298">
        <ele>1805.97</ele>
        <time>2017-08-04T19:04:14Z</time>
      </trkpt>
      <trkpt lat="45.94416" lon="6.24296">
        <ele>1805.97</ele>
        <time>2017-08-04T19:04:15Z</time>
      </trkpt>
      <trkpt lat="45.94417" lon="6.24293">
        <ele>1805.49</ele>
        <time>2017-08-04T19:04:16Z</time>
      </trkpt>
      <trkpt lat="45.94416" lon="6.24291">
        <ele>1805.49</ele>
        <time>2017-08-04T19:04:17Z</time>
      </trkpt>
      <trkpt lat="45.94416" lon="6.24288">
        <ele>1805.01</ele>
        <time>2017-08-04T19:04:18Z</time>
      </trkpt>
      <trkpt lat="45.94417" lon="6.24286">
        <ele>1805.01</ele>
        <time>2017-08-04T19:04:19Z</time>
      </trkpt>
      <trkpt lat="45.94417" lon="6.24284">
        <ele>1804.53</ele>
        <time>2017-08-04T19:04:20Z</time>
      </trkpt>
      <trkpt lat="45.94418" lon="6.24282">
        <ele>1804.05</ele>
        <time>2017-08-04T19:04:21Z</time>
      </trkpt>
      <trkpt lat="45.94418" lon="6.2428">
        <ele>1804.05</ele>
        <time>2017-08-04T19:04:22Z</time>
      </trkpt>
      <trkpt lat="45.94418" lon="6.24278">
        <ele>1803.57</ele>
        <time>2017-08-04T19:04:23Z</time>
      </trkpt>
      <trkpt lat="45.94418" lon="6.24276">
        <ele>1803.09</ele>
        <time>2017-08-04T19:04:24Z</time>
      </trkpt>
      <trkpt lat="45.94417" lon="6.24274">
        <ele>1802.61</ele>
        <time>2017-08-04T19:04:25Z</time>
      </trkpt>
      <trkpt lat="45.94417" lon="6.24266">
        <ele>1800.69</ele>
        <time>2017-08-04T19:04:29Z</time>
      </trkpt>
      <trkpt lat="45.94418" lon="6.24265">
        <ele>1800.21</ele>
        <time>2017-08-04T19:04:30Z</time>
      </trkpt>
      <trkpt lat="45.9442" lon="6.24265">
        <ele>1799.73</ele>
        <time>2017-08-04T19:04:31Z</time>
      </trkpt>
      <trkpt lat="45.94421" lon="6.24264">
        <ele>1799.24</ele>
        <time>2017-08-04T19:04:32Z</time>
      </trkpt>
      <trkpt lat="45.94422" lon="6.24264">
        <ele>1798.76</ele>
        <time>2017-08-04T19:04:33Z</time>
      </trkpt>
      <trkpt lat="45.94423" lon="6.24263">
        <ele>1798.28</ele>
        <time>2017-08-04T19:04:34Z</time>
      </trkpt>
      <trkpt lat="45.94425" lon="6.24263">
        <ele>1797.8</ele>
        <time>2017-08-04T19:04:35Z</time>
      </trkpt>
      <trkpt lat="45.94427" lon="6.24263">
        <ele>1797.32</ele>
        <time>2017-08-04T19:04:36Z</time>
      </trkpt>
      <trkpt lat="45.94429" lon="6.24264">
        <ele>1796.36</ele>
        <time>2017-08-04T19:04:37Z</time>
      </trkpt>
      <trkpt lat="45.94435" lon="6.24268">
        <ele>1794.92</ele>
        <time>2017-08-04T19:04:41Z</time>
      </trkpt>
      <trkpt lat="45.94445" lon="6.24276">
        <ele>1791.55</ele>
        <time>2017-08-04T19:04:48Z</time>
      </trkpt>
      <trkpt lat="45.9446" lon="6.24295">
        <ele>1789.63</ele>
        <time>2017-08-04T19:04:57Z</time>
      </trkpt>
      <trkpt lat="45.94471" lon="6.24312">
        <ele>1786.27</ele>
        <time>2017-08-04T19:05:05Z</time>
      </trkpt>
      <trkpt lat="45.94472" lon="6.24313">
        <ele>1786.27</ele>
        <time>2017-08-04T19:05:06Z</time>
      </trkpt>
      <trkpt lat="45.94472" lon="6.24319">
        <ele>1785.31</ele>
        <time>2017-08-04T19:05:09Z</time>
      </trkpt>
      <trkpt lat="45.94473" lon="6.24319">
        <ele>1784.82</ele>
        <time>2017-08-04T19:05:11Z</time>
      </trkpt>
      <trkpt lat="45.94472" lon="6.24309">
        <ele>1782.9</ele>
        <time>2017-08-04T19:05:16Z</time>
      </trkpt>
      <trkpt lat="45.94471" lon="6.24307">
        <ele>1782.42</ele>
        <time>2017-08-04T19:05:17Z</time>
      </trkpt>
      <trkpt lat="45.94471" lon="6.24305">
        <ele>1781.94</ele>
        <time>2017-08-04T19:05:18Z</time>
      </trkpt>
      <trkpt lat="45.94471" lon="6.24304">
        <ele>1781.46</ele>
        <time>2017-08-04T19:05:19Z</time>
      </trkpt>
      <trkpt lat="45.94472" lon="6.24303">
        <ele>1780.98</ele>
        <time>2017-08-04T19:05:20Z</time>
      </trkpt>
      <trkpt lat="45.94473" lon="6.24302">
        <ele>1780.98</ele>
        <time>2017-08-04T19:05:21Z</time>
      </trkpt>
      <trkpt lat="45.94474" lon="6.24301">
        <ele>1780.02</ele>
        <time>2017-08-04T19:05:22Z</time>
      </trkpt>
      <trkpt lat="45.94475" lon="6.24299">
        <ele>1779.54</ele>
        <time>2017-08-04T19:05:23Z</time>
      </trkpt>
      <trkpt lat="45.94476" lon="6.24296">
        <ele>1779.06</ele>
        <time>2017-08-04T19:05:24Z</time>
      </trkpt>
      <trkpt lat="45.94476" lon="6.24295">
        <ele>1778.58</ele>
        <time>2017-08-04T19:05:25Z</time>
      </trkpt>
      <trkpt lat="45.94477" lon="6.24293">
        <ele>1778.58</ele>
        <time>2017-08-04T19:05:26Z</time>
      </trkpt>
      <trkpt lat="45.94478" lon="6.2429">
        <ele>1778.1</ele>
        <time>2017-08-04T19:05:27Z</time>
      </trkpt>
      <trkpt lat="45.94478" lon="6.24287">
        <ele>1777.61</ele>
        <time>2017-08-04T19:05:28Z</time>
      </trkpt>
      <trkpt lat="45.94478" lon="6.24283">
        <ele>1777.13</ele>
        <time>2017-08-04T19:05:29Z</time>
      </trkpt>
      <trkpt lat="45.94477" lon="6.24279">
        <ele>1776.65</ele>
        <time>2017-08-04T19:05:30Z</time>
      </trkpt>
      <trkpt lat="45.94477" lon="6.24255">
        <ele>1773.29</ele>
        <time>2017-08-04T19:05:40Z</time>
      </trkpt>
      <trkpt lat="45.94481" lon="6.24247">
        <ele>1771.37</ele>
        <time>2017-08-04T19:05:46Z</time>
      </trkpt>
      <trkpt lat="45.94483" lon="6.24242">
        <ele>1770.41</ele>
        <time>2017-08-04T19:05:48Z</time>
      </trkpt>
      <trkpt lat="45.94496" lon="6.2423">
        <ele>1769.44</ele>
        <time>2017-08-04T19:05:53Z</time>
      </trkpt>
      <trkpt lat="45.945" lon="6.24229">
        <ele>1769.44</ele>
        <time>2017-08-04T19:05:55Z</time>
      </trkpt>
      <trkpt lat="45.94511" lon="6.24224">
        <ele>1770.41</ele>
        <time>2017-08-04T19:06:01Z</time>
      </trkpt>
      <trkpt lat="45.94515" lon="6.24221">
        <ele>1772.33</ele>
        <time>2017-08-04T19:06:05Z</time>
      </trkpt>
      <trkpt lat="45.94518" lon="6.24219">
        <ele>1772.81</ele>
        <time>2017-08-04T19:06:07Z</time>
      </trkpt>
      <trkpt lat="45.9452" lon="6.24218">
        <ele>1772.81</ele>
        <time>2017-08-04T19:06:08Z</time>
      </trkpt>
      <trkpt lat="45.94521" lon="6.24217">
        <ele>1772.81</ele>
        <time>2017-08-04T19:06:09Z</time>
      </trkpt>
      <trkpt lat="45.94523" lon="6.24216">
        <ele>1773.29</ele>
        <time>2017-08-04T19:06:10Z</time>
      </trkpt>
      <trkpt lat="45.94524" lon="6.24216">
        <ele>1773.29</ele>
        <time>2017-08-04T19:06:11Z</time>
      </trkpt>
      <trkpt lat="45.94525" lon="6.24215">
        <ele>1773.77</ele>
        <time>2017-08-04T19:06:12Z</time>
      </trkpt>
      <trkpt lat="45.94526" lon="6.24214">
        <ele>1773.77</ele>
        <time>2017-08-04T19:06:13Z</time>
      </trkpt>
      <trkpt lat="45.94535" lon="6.24206">
        <ele>1774.73</ele>
        <time>2017-08-04T19:06:21Z</time>
      </trkpt>
      <trkpt lat="45.94542" lon="6.24198">
        <ele>1774.25</ele>
        <time>2017-08-04T19:06:26Z</time>
      </trkpt>
      <trkpt lat="45.94543" lon="6.24196">
        <ele>1774.25</ele>
        <time>2017-08-04T19:06:27Z</time>
      </trkpt>
      <trkpt lat="45.94544" lon="6.24193">
        <ele>1774.25</ele>
        <time>2017-08-04T19:06:28Z</time>
      </trkpt>
      <trkpt lat="45.94545" lon="6.24191">
        <ele>1774.25</ele>
        <time>2017-08-04T19:06:29Z</time>
      </trkpt>
      <trkpt lat="45.94546" lon="6.24189">
        <ele>1774.25</ele>
        <time>2017-08-04T19:06:30Z</time>
      </trkpt>
      <trkpt lat="45.94547" lon="6.24187">
        <ele>1774.25</ele>
        <time>2017-08-04T19:06:31Z</time>
      </trkpt>
      <trkpt lat="45.9455" lon="6.24165">
        <ele>1771.37</ele>
        <time>2017-08-04T19:06:46Z</time>
      </trkpt>
      <trkpt lat="45.94551" lon="6.24161">
        <ele>1770.89</ele>
        <time>2017-08-04T19:06:51Z</time>
      </trkpt>
      <trkpt lat="45.94552" lon="6.24159">
        <ele>1770.89</ele>
        <time>2017-08-04T19:06:52Z</time>
      </trkpt>
      <trkpt lat="45.94553" lon="6.24156">
        <ele>1770.41</ele>
        <time>2017-08-04T19:06:53Z</time>
      </trkpt>
      <trkpt lat="45.94554" lon="6.24153">
        <ele>1770.41</ele>
        <time>2017-08-04T19:06:54Z</time>
      </trkpt>
      <trkpt lat="45.94556" lon="6.24151">
        <ele>1769.92</ele>
        <time>2017-08-04T19:06:55Z</time>
      </trkpt>
      <trkpt lat="45.94558" lon="6.2415">
        <ele>1769.44</ele>
        <time>2017-08-04T19:06:56Z</time>
      </trkpt>
      <trkpt lat="45.9456" lon="6.24148">
        <ele>1768.96</ele>
        <time>2017-08-04T19:06:57Z</time>
      </trkpt>
      <trkpt lat="45.94561" lon="6.24147">
        <ele>1768.96</ele>
        <time>2017-08-04T19:06:58Z</time>
      </trkpt>
      <trkpt lat="45.94563" lon="6.24145">
        <ele>1769.44</ele>
        <time>2017-08-04T19:06:59Z</time>
      </trkpt>
      <trkpt lat="45.94563" lon="6.24143">
        <ele>1769.44</ele>
        <time>2017-08-04T19:07:00Z</time>
      </trkpt>
      <trkpt lat="45.94563" lon="6.24141">
        <ele>1769.92</ele>
        <time>2017-08-04T19:07:01Z</time>
      </trkpt>
      <trkpt lat="45.94563" lon="6.24132">
        <ele>1770.89</ele>
        <time>2017-08-04T19:07:05Z</time>
      </trkpt>
      <trkpt lat="45.94563" lon="6.2413">
        <ele>1771.37</ele>
        <time>2017-08-04T19:07:06Z</time>
      </trkpt>
      <trkpt lat="45.94564" lon="6.24128">
        <ele>1771.37</ele>
        <time>2017-08-04T19:07:07Z</time>
      </trkpt>
      <trkpt lat="45.94565" lon="6.24127">
        <ele>1771.85</ele>
        <time>2017-08-04T19:07:08Z</time>
      </trkpt>
      <trkpt lat="45.94566" lon="6.24126">
        <ele>1771.85</ele>
        <time>2017-08-04T19:07:09Z</time>
      </trkpt>
      <trkpt lat="45.94568" lon="6.24124">
        <ele>1772.33</ele>
        <time>2017-08-04T19:07:10Z</time>
      </trkpt>
      <trkpt lat="45.94573" lon="6.24115">
        <ele>1773.29</ele>
        <time>2017-08-04T19:07:16Z</time>
      </trkpt>
      <trkpt lat="45.94575" lon="6.24115">
        <ele>1773.29</ele>
        <time>2017-08-04T19:07:17Z</time>
      </trkpt>
      <trkpt lat="45.94576" lon="6.24114">
        <ele>1773.77</ele>
        <time>2017-08-04T19:07:18Z</time>
      </trkpt>
      <trkpt lat="45.94576" lon="6.24113">
        <ele>1774.25</ele>
        <time>2017-08-04T19:07:19Z</time>
      </trkpt>
      <trkpt lat="45.94577" lon="6.24112">
        <ele>1774.73</ele>
        <time>2017-08-04T19:07:20Z</time>
      </trkpt>
      <trkpt lat="45.94578" lon="6.24111">
        <ele>1775.21</ele>
        <time>2017-08-04T19:07:21Z</time>
      </trkpt>
      <trkpt lat="45.94578" lon="6.2411">
        <ele>1775.69</ele>
        <time>2017-08-04T19:07:22Z</time>
      </trkpt>
      <trkpt lat="45.94579" lon="6.24109">
        <ele>1776.17</ele>
        <time>2017-08-04T19:07:23Z</time>
      </trkpt>
      <trkpt lat="45.94579" lon="6.24107">
        <ele>1777.61</ele>
        <time>2017-08-04T19:07:26Z</time>
      </trkpt>
      <trkpt lat="45.94577" lon="6.24105">
        <ele>1777.61</ele>
        <time>2017-08-04T19:07:28Z</time>
      </trkpt>
      <trkpt lat="45.94578" lon="6.24104">
        <ele>1778.1</ele>
        <time>2017-08-04T19:07:29Z</time>
      </trkpt>
      <trkpt lat="45.94579" lon="6.24103">
        <ele>1778.58</ele>
        <time>2017-08-04T19:07:30Z</time>
      </trkpt>
      <trkpt lat="45.9458" lon="6.24102">
        <ele>1778.58</ele>
        <time>2017-08-04T19:07:31Z</time>
      </trkpt>
      <trkpt lat="45.94581" lon="6.24102">
        <ele>1779.06</ele>
        <time>2017-08-04T19:07:32Z</time>
      </trkpt>
      <trkpt lat="45.94582" lon="6.24102">
        <ele>1779.54</ele>
        <time>2017-08-04T19:07:33Z</time>
      </trkpt>
      <trkpt lat="45.94584" lon="6.24102">
        <ele>1780.02</ele>
        <time>2017-08-04T19:07:34Z</time>
      </trkpt>
      <trkpt lat="45.94585" lon="6.24102">
        <ele>1780.02</ele>
        <time>2017-08-04T19:07:35Z</time>
      </trkpt>
      <trkpt lat="45.94586" lon="6.24102">
        <ele>1780.5</ele>
        <time>2017-08-04T19:07:36Z</time>
      </trkpt>
      <trkpt lat="45.94584" lon="6.24096">
        <ele>1782.9</ele>
        <time>2017-08-04T19:07:50Z</time>
      </trkpt>
      <trkpt lat="45.94583" lon="6.24095">
        <ele>1782.9</ele>
        <time>2017-08-04T19:07:51Z</time>
      </trkpt>
      <trkpt lat="45.9458" lon="6.24083">
        <ele>1785.31</ele>
        <time>2017-08-04T19:08:04Z</time>
      </trkpt>
      <trkpt lat="45.94578" lon="6.24079">
        <ele>1785.79</ele>
        <time>2017-08-04T19:08:12Z</time>
      </trkpt>
      <trkpt lat="45.94577" lon="6.24078">
        <ele>1785.79</ele>
        <time>2017-08-04T19:08:13Z</time>
      </trkpt>
      <trkpt lat="45.94577" lon="6.24076">
        <ele>1785.79</ele>
        <time>2017-08-04T19:08:14Z</time>
      </trkpt>
      <trkpt lat="45.94572" lon="6.24063">
        <ele>1784.82</ele>
        <time>2017-08-04T19:08:20Z</time>
      </trkpt>
      <trkpt lat="45.94571" lon="6.24062">
        <ele>1784.82</ele>
        <time>2017-08-04T19:08:21Z</time>
      </trkpt>
      <trkpt lat="45.94569" lon="6.24063">
        <ele>1785.31</ele>
        <time>2017-08-04T19:08:22Z</time>
      </trkpt>
      <trkpt lat="45.94568" lon="6.24063">
        <ele>1785.31</ele>
        <time>2017-08-04T19:08:23Z</time>
      </trkpt>
      <trkpt lat="45.94564" lon="6.24063">
        <ele>1787.23</ele>
        <time>2017-08-04T19:08:29Z</time>
      </trkpt>
      <trkpt lat="45.94562" lon="6.24063">
        <ele>1787.71</ele>
        <time>2017-08-04T19:08:32Z</time>
      </trkpt>
      <trkpt lat="45.9455" lon="6.24057">
        <ele>1789.63</ele>
        <time>2017-08-04T19:08:44Z</time>
      </trkpt>
      <trkpt lat="45.94549" lon="6.24055">
        <ele>1789.63</ele>
        <time>2017-08-04T19:08:45Z</time>
      </trkpt>
      <trkpt lat="45.94549" lon="6.24053">
        <ele>1789.63</ele>
        <time>2017-08-04T19:08:46Z</time>
      </trkpt>
      <trkpt lat="45.9455" lon="6.24052">
        <ele>1790.11</ele>
        <time>2017-08-04T19:08:47Z</time>
      </trkpt>
      <trkpt lat="45.94551" lon="6.2405">
        <ele>1790.59</ele>
        <time>2017-08-04T19:08:48Z</time>
      </trkpt>
      <trkpt lat="45.94552" lon="6.24049">
        <ele>1790.59</ele>
        <time>2017-08-04T19:08:49Z</time>
      </trkpt>
      <trkpt lat="45.94561" lon="6.24039">
        <ele>1793</ele>
        <time>2017-08-04T19:08:59Z</time>
      </trkpt>
      <trkpt lat="45.94579" lon="6.24021">
        <ele>1796.36</ele>
        <time>2017-08-04T19:09:15Z</time>
      </trkpt>
      <trkpt lat="45.9458" lon="6.2402">
        <ele>1796.84</ele>
        <time>2017-08-04T19:09:16Z</time>
      </trkpt>
      <trkpt lat="45.94584" lon="6.24016">
        <ele>1798.76</ele>
        <time>2017-08-04T19:09:20Z</time>
      </trkpt>
      <trkpt lat="45.94586" lon="6.24016">
        <ele>1798.76</ele>
        <time>2017-08-04T19:09:21Z</time>
      </trkpt>
      <trkpt lat="45.94587" lon="6.24018">
        <ele>1799.24</ele>
        <time>2017-08-04T19:09:22Z</time>
      </trkpt>
      <trkpt lat="45.94589" lon="6.24019">
        <ele>1799.73</ele>
        <time>2017-08-04T19:09:23Z</time>
      </trkpt>
      <trkpt lat="45.94591" lon="6.24019">
        <ele>1799.73</ele>
        <time>2017-08-04T19:09:24Z</time>
      </trkpt>
      <trkpt lat="45.94592" lon="6.2402">
        <ele>1800.21</ele>
        <time>2017-08-04T19:09:25Z</time>
      </trkpt>
      <trkpt lat="45.94594" lon="6.2402">
        <ele>1800.21</ele>
        <time>2017-08-04T19:09:26Z</time>
      </trkpt>
      <trkpt lat="45.94595" lon="6.24019">
        <ele>1800.21</ele>
        <time>2017-08-04T19:09:27Z</time>
      </trkpt>
      <trkpt lat="45.94597" lon="6.24019">
        <ele>1800.69</ele>
        <time>2017-08-04T19:09:28Z</time>
      </trkpt>
      <trkpt lat="45.94598" lon="6.24019">
        <ele>1800.69</ele>
        <time>2017-08-04T19:09:29Z</time>
      </trkpt>
      <trkpt lat="45.94613" lon="6.24013">
        <ele>1801.65</ele>
        <time>2017-08-04T19:09:38Z</time>
      </trkpt>
      <trkpt lat="45.94614" lon="6.24011">
        <ele>1802.13</ele>
        <time>2017-08-04T19:09:39Z</time>
      </trkpt>
      <trkpt lat="45.94618" lon="6.23994">
        <ele>1803.57</ele>
        <time>2017-08-04T19:09:46Z</time>
      </trkpt>
      <trkpt lat="45.94619" lon="6.23992">
        <ele>1803.57</ele>
        <time>2017-08-04T19:09:47Z</time>
      </trkpt>
      <trkpt lat="45.94636" lon="6.23983">
        <ele>1805.49</ele>
        <time>2017-08-04T19:09:57Z</time>
      </trkpt>
      <trkpt lat="45.94657" lon="6.23982">
        <ele>1805.97</ele>
        <time>2017-08-04T19:10:07Z</time>
      </trkpt>
      <trkpt lat="45.94677" lon="6.23985">
        <ele>1806.45</ele>
        <time>2017-08-04T19:10:16Z</time>
      </trkpt>
      <trkpt lat="45.94698" lon="6.23976">
        <ele>1803.57</ele>
        <time>2017-08-04T19:10:25Z</time>
      </trkpt>
      <trkpt lat="45.94708" lon="6.23967">
        <ele>1801.65</ele>
        <time>2017-08-04T19:10:29Z</time>
      </trkpt>
      <trkpt lat="45.94723" lon="6.23945">
        <ele>1799.24</ele>
        <time>2017-08-04T19:10:35Z</time>
      </trkpt>
      <trkpt lat="45.94732" lon="6.23919">
        <ele>1799.24</ele>
        <time>2017-08-04T19:10:42Z</time>
      </trkpt>
      <trkpt lat="45.94743" lon="6.23896">
        <ele>1801.65</ele>
        <time>2017-08-04T19:10:51Z</time>
      </trkpt>
      <trkpt lat="45.94757" lon="6.23883">
        <ele>1801.17</ele>
        <time>2017-08-04T19:10:58Z</time>
      </trkpt>
      <trkpt lat="45.94759" lon="6.2388">
        <ele>1801.17</ele>
        <time>2017-08-04T19:10:59Z</time>
      </trkpt>
      <trkpt lat="45.9476" lon="6.23879">
        <ele>1800.69</ele>
        <time>2017-08-04T19:11:00Z</time>
      </trkpt>
      <trkpt lat="45.94762" lon="6.23877">
        <ele>1800.69</ele>
        <time>2017-08-04T19:11:01Z</time>
      </trkpt>
      <trkpt lat="45.94763" lon="6.23875">
        <ele>1800.69</ele>
        <time>2017-08-04T19:11:02Z</time>
      </trkpt>
      <trkpt lat="45.94762" lon="6.23873">
        <ele>1800.69</ele>
        <time>2017-08-04T19:11:03Z</time>
      </trkpt>
      <trkpt lat="45.94762" lon="6.23871">
        <ele>1801.17</ele>
        <time>2017-08-04T19:11:04Z</time>
      </trkpt>
      <trkpt lat="45.94763" lon="6.2387">
        <ele>1801.17</ele>
        <time>2017-08-04T19:11:05Z</time>
      </trkpt>
      <trkpt lat="45.94763" lon="6.23868">
        <ele>1802.13</ele>
        <time>2017-08-04T19:11:06Z</time>
      </trkpt>
      <trkpt lat="45.94763" lon="6.23865">
        <ele>1803.09</ele>
        <time>2017-08-04T19:11:08Z</time>
      </trkpt>
      <trkpt lat="45.94762" lon="6.23863">
        <ele>1803.57</ele>
        <time>2017-08-04T19:11:09Z</time>
      </trkpt>
      <trkpt lat="45.94762" lon="6.23862">
        <ele>1804.05</ele>
        <time>2017-08-04T19:11:10Z</time>
      </trkpt>
      <trkpt lat="45.94762" lon="6.2386">
        <ele>1804.05</ele>
        <time>2017-08-04T19:11:11Z</time>
      </trkpt>
      <trkpt lat="45.94762" lon="6.23857">
        <ele>1804.05</ele>
        <time>2017-08-04T19:11:12Z</time>
      </trkpt>
      <trkpt lat="45.94762" lon="6.23854">
        <ele>1804.53</ele>
        <time>2017-08-04T19:11:13Z</time>
      </trkpt>
      <trkpt lat="45.94763" lon="6.23852">
        <ele>1804.53</ele>
        <time>2017-08-04T19:11:14Z</time>
      </trkpt>
      <trkpt lat="45.94765" lon="6.2385">
        <ele>1804.53</ele>
        <time>2017-08-04T19:11:15Z</time>
      </trkpt>
      <trkpt lat="45.94766" lon="6.23849">
        <ele>1805.01</ele>
        <time>2017-08-04T19:11:16Z</time>
      </trkpt>
      <trkpt lat="45.94766" lon="6.23847">
        <ele>1805.01</ele>
        <time>2017-08-04T19:11:17Z</time>
      </trkpt>
      <trkpt lat="45.94766" lon="6.23844">
        <ele>1805.49</ele>
        <time>2017-08-04T19:11:18Z</time>
      </trkpt>
      <trkpt lat="45.94766" lon="6.23842">
        <ele>1805.97</ele>
        <time>2017-08-04T19:11:19Z</time>
      </trkpt>
      <trkpt lat="45.94766" lon="6.23841">
        <ele>1805.97</ele>
        <time>2017-08-04T19:11:20Z</time>
      </trkpt>
      <trkpt lat="45.94765" lon="6.23839">
        <ele>1806.45</ele>
        <time>2017-08-04T19:11:21Z</time>
      </trkpt>
      <trkpt lat="45.94765" lon="6.23838">
        <ele>1807.42</ele>
        <time>2017-08-04T19:11:22Z</time>
      </trkpt>
      <trkpt lat="45.94766" lon="6.23837">
        <ele>1807.42</ele>
        <time>2017-08-04T19:11:23Z</time>
      </trkpt>
      <trkpt lat="45.94766" lon="6.23835">
        <ele>1807.9</ele>
        <time>2017-08-04T19:11:24Z</time>
      </trkpt>
      <trkpt lat="45.94767" lon="6.23833">
        <ele>1808.38</ele>
        <time>2017-08-04T19:11:25Z</time>
      </trkpt>
      <trkpt lat="45.94776" lon="6.2382">
        <ele>1808.86</ele>
        <time>2017-08-04T19:11:32Z</time>
      </trkpt>
      <trkpt lat="45.94777" lon="6.23819">
        <ele>1808.86</ele>
        <time>2017-08-04T19:11:33Z</time>
      </trkpt>
      <trkpt lat="45.94779" lon="6.23818">
        <ele>1809.34</ele>
        <time>2017-08-04T19:11:34Z</time>
      </trkpt>
      <trkpt lat="45.9478" lon="6.23817">
        <ele>1809.82</ele>
        <time>2017-08-04T19:11:35Z</time>
      </trkpt>
      <trkpt lat="45.94782" lon="6.23816">
        <ele>1809.82</ele>
        <time>2017-08-04T19:11:36Z</time>
      </trkpt>
      <trkpt lat="45.94783" lon="6.23815">
        <ele>1809.82</ele>
        <time>2017-08-04T19:11:37Z</time>
      </trkpt>
      <trkpt lat="45.94783" lon="6.23814">
        <ele>1809.82</ele>
        <time>2017-08-04T19:11:38Z</time>
      </trkpt>
      <trkpt lat="45.94785" lon="6.23809">
        <ele>1810.3</ele>
        <time>2017-08-04T19:11:44Z</time>
      </trkpt>
      <trkpt lat="45.94787" lon="6.23804">
        <ele>1809.82</ele>
        <time>2017-08-04T19:11:51Z</time>
      </trkpt>
      <trkpt lat="45.94787" lon="6.23803">
        <ele>1809.82</ele>
        <time>2017-08-04T19:11:52Z</time>
      </trkpt>
      <trkpt lat="45.9479" lon="6.23802">
        <ele>1809.34</ele>
        <time>2017-08-04T19:11:56Z</time>
      </trkpt>
      <trkpt lat="45.94791" lon="6.23802">
        <ele>1809.34</ele>
        <time>2017-08-04T19:12:00Z</time>
      </trkpt>
      <trkpt lat="45.94791" lon="6.23803">
        <ele>1809.34</ele>
        <time>2017-08-04T19:12:05Z</time>
      </trkpt>
      <trkpt lat="45.9479" lon="6.23803">
        <ele>1808.86</ele>
        <time>2017-08-04T19:12:11Z</time>
      </trkpt>
      <trkpt lat="45.94791" lon="6.23803">
        <ele>1808.86</ele>
        <time>2017-08-04T19:12:15Z</time>
      </trkpt>
      <trkpt lat="45.94791" lon="6.23803">
        <ele>1808.86</ele>
        <time>2017-08-04T19:12:17Z</time>
      </trkpt>
      <trkpt lat="45.94791" lon="6.23803">
        <ele>1808.86</ele>
        <time>2017-08-04T19:12:20Z</time>
      </trkpt>
      <trkpt lat="45.94791" lon="6.23803">
        <ele>1808.86</ele>
        <time>2017-08-04T19:12:23Z</time>
      </trkpt>
      <trkpt lat="45.94791" lon="6.23803">
        <ele>1808.86</ele>
        <time>2017-08-04T19:12:26Z</time>
      </trkpt>
      <trkpt lat="45.94791" lon="6.23803">
        <ele>1808.38</ele>
        <time>2017-08-04T19:12:28Z</time>
      </trkpt>
      <trkpt lat="45.94791" lon="6.23804">
        <ele>1808.86</ele>
        <time>2017-08-04T19:12:33Z</time>
      </trkpt>
      <trkpt lat="45.94792" lon="6.23804">
        <ele>1808.86</ele>
        <time>2017-08-04T19:12:35Z</time>
      </trkpt>
      <trkpt lat="45.94791" lon="6.23804">
        <ele>1808.86</ele>
        <time>2017-08-04T19:12:38Z</time>
      </trkpt>
      <trkpt lat="45.94792" lon="6.23804">
        <ele>1808.86</ele>
        <time>2017-08-04T19:12:42Z</time>
      </trkpt>
      <trkpt lat="45.94792" lon="6.23805">
        <ele>1808.38</ele>
        <time>2017-08-04T19:12:47Z</time>
      </trkpt>
      <trkpt lat="45.94792" lon="6.23804">
        <ele>1808.38</ele>
        <time>2017-08-04T19:12:54Z</time>
      </trkpt>
      <trkpt lat="45.94792" lon="6.23805">
        <ele>1808.38</ele>
        <time>2017-08-04T19:13:09Z</time>
      </trkpt>
      <trkpt lat="45.94792" lon="6.23804">
        <ele>1808.38</ele>
        <time>2017-08-04T19:13:11Z</time>
      </trkpt>
      <trkpt lat="45.94792" lon="6.23804">
        <ele>1808.38</ele>
        <time>2017-08-04T19:13:16Z</time>
      </trkpt>
      <trkpt lat="45.94792" lon="6.23803">
        <ele>1809.34</ele>
        <time>2017-08-04T19:13:56Z</time>
      </trkpt>
      <trkpt lat="45.94791" lon="6.23803">
        <ele>1808.86</ele>
        <time>2017-08-04T19:14:05Z</time>
      </trkpt>
      <trkpt lat="45.94791" lon="6.23803">
        <ele>1808.38</ele>
        <time>2017-08-04T19:14:16Z</time>
      </trkpt>
      <trkpt lat="45.94791" lon="6.23804">
        <ele>1808.86</ele>
        <time>2017-08-04T19:14:35Z</time>
      </trkpt>
      <trkpt lat="45.94792" lon="6.23803">
        <ele>1809.34</ele>
        <time>2017-08-04T19:15:06Z</time>
      </trkpt>
      <trkpt lat="45.94792" lon="6.23803">
        <ele>1809.82</ele>
        <time>2017-08-04T19:15:17Z</time>
      </trkpt>
      <trkpt lat="45.94792" lon="6.23803">
        <ele>1809.34</ele>
        <time>2017-08-04T19:15:19Z</time>
      </trkpt>
      <trkpt lat="45.94792" lon="6.23802">
        <ele>1809.34</ele>
        <time>2017-08-04T19:15:21Z</time>
      </trkpt>
      <trkpt lat="45.94792" lon="6.23802">
        <ele>1809.82</ele>
        <time>2017-08-04T19:15:24Z</time>
      </trkpt>
      <trkpt lat="45.94792" lon="6.23803">
        <ele>1809.34</ele>
        <time>2017-08-04T19:15:29Z</time>
      </trkpt>
      <trkpt lat="45.94791" lon="6.23804">
        <ele>1808.86</ele>
        <time>2017-08-04T19:15:48Z</time>
      </trkpt>
      <trkpt lat="45.94791" lon="6.23805">
        <ele>1809.34</ele>
        <time>2017-08-04T19:15:59Z</time>
      </trkpt>
      <trkpt lat="45.94793" lon="6.23806">
        <ele>1809.34</ele>
        <time>2017-08-04T19:16:13Z</time>
      </trkpt>
      <trkpt lat="45.94795" lon="6.23806">
        <ele>1809.34</ele>
        <time>2017-08-04T19:16:15Z</time>
      </trkpt>
      <trkpt lat="45.94796" lon="6.23806">
        <ele>1809.34</ele>
        <time>2017-08-04T19:16:16Z</time>
      </trkpt>
      <trkpt lat="45.94797" lon="6.23806">
        <ele>1809.34</ele>
        <time>2017-08-04T19:16:17Z</time>
      </trkpt>
      <trkpt lat="45.94797" lon="6.23807">
        <ele>1809.34</ele>
        <time>2017-08-04T19:16:18Z</time>
      </trkpt>
      <trkpt lat="45.94798" lon="6.23807">
        <ele>1809.82</ele>
        <time>2017-08-04T19:16:19Z</time>
      </trkpt>
      <trkpt lat="45.94799" lon="6.23808">
        <ele>1809.82</ele>
        <time>2017-08-04T19:16:20Z</time>
      </trkpt>
      <trkpt lat="45.94803" lon="6.23812">
        <ele>1809.82</ele>
        <time>2017-08-04T19:16:27Z</time>
      </trkpt>
      <trkpt lat="45.94806" lon="6.23812">
        <ele>1809.82</ele>
        <time>2017-08-04T19:16:32Z</time>
      </trkpt>
      <trkpt lat="45.94807" lon="6.23814">
        <ele>1809.82</ele>
        <time>2017-08-04T19:16:34Z</time>
      </trkpt>
      <trkpt lat="45.94807" lon="6.23818">
        <ele>1809.82</ele>
        <time>2017-08-04T19:16:38Z</time>
      </trkpt>
      <trkpt lat="45.94808" lon="6.23819">
        <ele>1809.82</ele>
        <time>2017-08-04T19:16:39Z</time>
      </trkpt>
      <trkpt lat="45.9481" lon="6.23827">
        <ele>1809.82</ele>
        <time>2017-08-04T19:16:44Z</time>
      </trkpt>
      <trkpt lat="45.9481" lon="6.23829">
        <ele>1809.82</ele>
        <time>2017-08-04T19:16:45Z</time>
      </trkpt>
      <trkpt lat="45.9481" lon="6.23831">
        <ele>1810.3</ele>
        <time>2017-08-04T19:16:46Z</time>
      </trkpt>
      <trkpt lat="45.9481" lon="6.23833">
        <ele>1810.3</ele>
        <time>2017-08-04T19:16:47Z</time>
      </trkpt>
      <trkpt lat="45.9481" lon="6.23834">
        <ele>1810.3</ele>
        <time>2017-08-04T19:16:48Z</time>
      </trkpt>
      <trkpt lat="45.94811" lon="6.23836">
        <ele>1810.78</ele>
        <time>2017-08-04T19:16:52Z</time>
      </trkpt>
      <trkpt lat="45.94813" lon="6.23837">
        <ele>1810.3</ele>
        <time>2017-08-04T19:17:01Z</time>
      </trkpt>
      <trkpt lat="45.94817" lon="6.23837">
        <ele>1809.82</ele>
        <time>2017-08-04T19:17:06Z</time>
      </trkpt>
      <trkpt lat="45.94819" lon="6.23838">
        <ele>1809.82</ele>
        <time>2017-08-04T19:17:08Z</time>
      </trkpt>
      <trkpt lat="45.9482" lon="6.2384">
        <ele>1809.82</ele>
        <time>2017-08-04T19:17:09Z</time>
      </trkpt>
      <trkpt lat="45.94821" lon="6.23841">
        <ele>1809.82</ele>
        <time>2017-08-04T19:17:10Z</time>
      </trkpt>
      <trkpt lat="45.94821" lon="6.23843">
        <ele>1809.34</ele>
        <time>2017-08-04T19:17:11Z</time>
      </trkpt>
      <trkpt lat="45.94821" lon="6.23845">
        <ele>1809.34</ele>
        <time>2017-08-04T19:17:12Z</time>
      </trkpt>
      <trkpt lat="45.94821" lon="6.23847">
        <ele>1809.34</ele>
        <time>2017-08-04T19:17:13Z</time>
      </trkpt>
      <trkpt lat="45.94821" lon="6.23849">
        <ele>1809.34</ele>
        <time>2017-08-04T19:17:14Z</time>
      </trkpt>
      <trkpt lat="45.9482" lon="6.23852">
        <ele>1809.34</ele>
        <time>2017-08-04T19:17:15Z</time>
      </trkpt>
      <trkpt lat="45.9482" lon="6.23853">
        <ele>1809.34</ele>
        <time>2017-08-04T19:17:16Z</time>
      </trkpt>
      <trkpt lat="45.94819" lon="6.23855">
        <ele>1809.34</ele>
        <time>2017-08-04T19:17:17Z</time>
      </trkpt>
      <trkpt lat="45.94818" lon="6.23856">
        <ele>1808.86</ele>
        <time>2017-08-04T19:17:18Z</time>
      </trkpt>
      <trkpt lat="45.94817" lon="6.23857">
        <ele>1808.86</ele>
        <time>2017-08-04T19:17:19Z</time>
      </trkpt>
      <trkpt lat="45.94816" lon="6.23858">
        <ele>1808.38</ele>
        <time>2017-08-04T19:17:20Z</time>
      </trkpt>
      <trkpt lat="45.94815" lon="6.23859">
        <ele>1807.9</ele>
        <time>2017-08-04T19:17:21Z</time>
      </trkpt>
      <trkpt lat="45.94815" lon="6.23861">
        <ele>1807.42</ele>
        <time>2017-08-04T19:17:22Z</time>
      </trkpt>
      <trkpt lat="45.94815" lon="6.23864">
        <ele>1807.42</ele>
        <time>2017-08-04T19:17:23Z</time>
      </trkpt>
      <trkpt lat="45.94815" lon="6.23867">
        <ele>1806.94</ele>
        <time>2017-08-04T19:17:24Z</time>
      </trkpt>
      <trkpt lat="45.94815" lon="6.2387">
        <ele>1805.97</ele>
        <time>2017-08-04T19:17:25Z</time>
      </trkpt>
      <trkpt lat="45.94815" lon="6.23873">
        <ele>1805.49</ele>
        <time>2017-08-04T19:17:26Z</time>
      </trkpt>
      <trkpt lat="45.94815" lon="6.23876">
        <ele>1805.49</ele>
        <time>2017-08-04T19:17:27Z</time>
      </trkpt>
      <trkpt lat="45.94815" lon="6.23879">
        <ele>1805.49</ele>
        <time>2017-08-04T19:17:28Z</time>
      </trkpt>
      <trkpt lat="45.94815" lon="6.23882">
        <ele>1805.97</ele>
        <time>2017-08-04T19:17:29Z</time>
      </trkpt>
      <trkpt lat="45.94814" lon="6.23884">
        <ele>1805.97</ele>
        <time>2017-08-04T19:17:30Z</time>
      </trkpt>
      <trkpt lat="45.94813" lon="6.23887">
        <ele>1805.97</ele>
        <time>2017-08-04T19:17:31Z</time>
      </trkpt>
      <trkpt lat="45.94813" lon="6.23889">
        <ele>1805.97</ele>
        <time>2017-08-04T19:17:32Z</time>
      </trkpt>
      <trkpt lat="45.94811" lon="6.23895">
        <ele>1806.45</ele>
        <time>2017-08-04T19:17:35Z</time>
      </trkpt>
      <trkpt lat="45.94807" lon="6.23901">
        <ele>1805.97</ele>
        <time>2017-08-04T19:17:38Z</time>
      </trkpt>
      <trkpt lat="45.94805" lon="6.23903">
        <ele>1805.49</ele>
        <time>2017-08-04T19:17:39Z</time>
      </trkpt>
      <trkpt lat="45.94804" lon="6.23904">
        <ele>1805.01</ele>
        <time>2017-08-04T19:17:40Z</time>
      </trkpt>
      <trkpt lat="45.94803" lon="6.23906">
        <ele>1804.53</ele>
        <time>2017-08-04T19:17:41Z</time>
      </trkpt>
      <trkpt lat="45.94802" lon="6.23907">
        <ele>1804.05</ele>
        <time>2017-08-04T19:17:42Z</time>
      </trkpt>
      <trkpt lat="45.94801" lon="6.23909">
        <ele>1803.57</ele>
        <time>2017-08-04T19:17:43Z</time>
      </trkpt>
      <trkpt lat="45.94801" lon="6.23911">
        <ele>1803.57</ele>
        <time>2017-08-04T19:17:44Z</time>
      </trkpt>
      <trkpt lat="45.94801" lon="6.23914">
        <ele>1803.09</ele>
        <time>2017-08-04T19:17:45Z</time>
      </trkpt>
      <trkpt lat="45.94801" lon="6.23916">
        <ele>1802.61</ele>
        <time>2017-08-04T19:17:46Z</time>
      </trkpt>
      <trkpt lat="45.94801" lon="6.23917">
        <ele>1802.61</ele>
        <time>2017-08-04T19:17:47Z</time>
      </trkpt>
      <trkpt lat="45.94801" lon="6.23919">
        <ele>1802.13</ele>
        <time>2017-08-04T19:17:48Z</time>
      </trkpt>
      <trkpt lat="45.94799" lon="6.23922">
        <ele>1801.17</ele>
        <time>2017-08-04T19:17:50Z</time>
      </trkpt>
      <trkpt lat="45.94798" lon="6.23924">
        <ele>1800.21</ele>
        <time>2017-08-04T19:17:53Z</time>
      </trkpt>
      <trkpt lat="45.94797" lon="6.23927">
        <ele>1799.73</ele>
        <time>2017-08-04T19:17:54Z</time>
      </trkpt>
      <trkpt lat="45.94797" lon="6.23929">
        <ele>1799.24</ele>
        <time>2017-08-04T19:17:55Z</time>
      </trkpt>
      <trkpt lat="45.94796" lon="6.23931">
        <ele>1798.76</ele>
        <time>2017-08-04T19:17:56Z</time>
      </trkpt>
      <trkpt lat="45.94795" lon="6.23931">
        <ele>1798.76</ele>
        <time>2017-08-04T19:17:57Z</time>
      </trkpt>
      <trkpt lat="45.94794" lon="6.23933">
        <ele>1798.28</ele>
        <time>2017-08-04T19:17:58Z</time>
      </trkpt>
      <trkpt lat="45.94793" lon="6.23934">
        <ele>1797.8</ele>
        <time>2017-08-04T19:17:59Z</time>
      </trkpt>
      <trkpt lat="45.94792" lon="6.23936">
        <ele>1797.32</ele>
        <time>2017-08-04T19:18:00Z</time>
      </trkpt>
      <trkpt lat="45.9479" lon="6.23939">
        <ele>1796.84</ele>
        <time>2017-08-04T19:18:01Z</time>
      </trkpt>
      <trkpt lat="45.9479" lon="6.23942">
        <ele>1796.84</ele>
        <time>2017-08-04T19:18:02Z</time>
      </trkpt>
      <trkpt lat="45.9479" lon="6.23944">
        <ele>1796.36</ele>
        <time>2017-08-04T19:18:03Z</time>
      </trkpt>
      <trkpt lat="45.94791" lon="6.23946">
        <ele>1796.36</ele>
        <time>2017-08-04T19:18:04Z</time>
      </trkpt>
      <trkpt lat="45.9479" lon="6.23948">
        <ele>1796.36</ele>
        <time>2017-08-04T19:18:05Z</time>
      </trkpt>
      <trkpt lat="45.94789" lon="6.23949">
        <ele>1795.88</ele>
        <time>2017-08-04T19:18:06Z</time>
      </trkpt>
      <trkpt lat="45.94788" lon="6.23951">
        <ele>1795.4</ele>
        <time>2017-08-04T19:18:07Z</time>
      </trkpt>
      <trkpt lat="45.94787" lon="6.23953">
        <ele>1794.92</ele>
        <time>2017-08-04T19:18:08Z</time>
      </trkpt>
      <trkpt lat="45.94785" lon="6.23955">
        <ele>1794.44</ele>
        <time>2017-08-04T19:18:09Z</time>
      </trkpt>
      <trkpt lat="45.94781" lon="6.23953">
        <ele>1793</ele>
        <time>2017-08-04T19:18:17Z</time>
      </trkpt>
      <trkpt lat="45.94778" lon="6.23953">
        <ele>1793.96</ele>
        <time>2017-08-04T19:18:22Z</time>
      </trkpt>
      <trkpt lat="45.94777" lon="6.23954">
        <ele>1793.96</ele>
        <time>2017-08-04T19:18:23Z</time>
      </trkpt>
      <trkpt lat="45.94776" lon="6.23955">
        <ele>1793.48</ele>
        <time>2017-08-04T19:18:24Z</time>
      </trkpt>
      <trkpt lat="45.94772" lon="6.23956">
        <ele>1792.52</ele>
        <time>2017-08-04T19:18:27Z</time>
      </trkpt>
      <trkpt lat="45.94771" lon="6.23955">
        <ele>1792.03</ele>
        <time>2017-08-04T19:18:28Z</time>
      </trkpt>
      <trkpt lat="45.9477" lon="6.23953">
        <ele>1792.03</ele>
        <time>2017-08-04T19:18:29Z</time>
      </trkpt>
      <trkpt lat="45.94769" lon="6.23951">
        <ele>1791.55</ele>
        <time>2017-08-04T19:18:30Z</time>
      </trkpt>
      <trkpt lat="45.94768" lon="6.23949">
        <ele>1791.07</ele>
        <time>2017-08-04T19:18:31Z</time>
      </trkpt>
      <trkpt lat="45.94767" lon="6.23949">
        <ele>1791.07</ele>
        <time>2017-08-04T19:18:32Z</time>
      </trkpt>
      <trkpt lat="45.94767" lon="6.2395">
        <ele>1791.07</ele>
        <time>2017-08-04T19:18:33Z</time>
      </trkpt>
      <trkpt lat="45.94767" lon="6.23952">
        <ele>1790.59</ele>
        <time>2017-08-04T19:18:34Z</time>
      </trkpt>
      <trkpt lat="45.94767" lon="6.23955">
        <ele>1790.11</ele>
        <time>2017-08-04T19:18:35Z</time>
      </trkpt>
      <trkpt lat="45.94768" lon="6.23957">
        <ele>1789.63</ele>
        <time>2017-08-04T19:18:36Z</time>
      </trkpt>
      <trkpt lat="45.94767" lon="6.2396">
        <ele>1789.15</ele>
        <time>2017-08-04T19:18:37Z</time>
      </trkpt>
      <trkpt lat="45.94767" lon="6.23966">
        <ele>1787.23</ele>
        <time>2017-08-04T19:18:40Z</time>
      </trkpt>
      <trkpt lat="45.94767" lon="6.23967">
        <ele>1787.23</ele>
        <time>2017-08-04T19:18:41Z</time>
      </trkpt>
      <trkpt lat="45.94768" lon="6.23968">
        <ele>1786.27</ele>
        <time>2017-08-04T19:18:42Z</time>
      </trkpt>
      <trkpt lat="45.94769" lon="6.23969">
        <ele>1785.79</ele>
        <time>2017-08-04T19:18:43Z</time>
      </trkpt>
      <trkpt lat="45.9477" lon="6.2397">
        <ele>1785.31</ele>
        <time>2017-08-04T19:18:44Z</time>
      </trkpt>
      <trkpt lat="45.9477" lon="6.23972">
        <ele>1784.82</ele>
        <time>2017-08-04T19:18:45Z</time>
      </trkpt>
      <trkpt lat="45.94771" lon="6.23973">
        <ele>1784.34</ele>
        <time>2017-08-04T19:18:46Z</time>
      </trkpt>
      <trkpt lat="45.94771" lon="6.23974">
        <ele>1783.86</ele>
        <time>2017-08-04T19:18:47Z</time>
      </trkpt>
      <trkpt lat="45.9477" lon="6.23976">
        <ele>1783.86</ele>
        <time>2017-08-04T19:18:48Z</time>
      </trkpt>
      <trkpt lat="45.9477" lon="6.23978">
        <ele>1783.38</ele>
        <time>2017-08-04T19:18:49Z</time>
      </trkpt>
      <trkpt lat="45.94767" lon="6.23986">
        <ele>1781.46</ele>
        <time>2017-08-04T19:18:53Z</time>
      </trkpt>
      <trkpt lat="45.94766" lon="6.23989">
        <ele>1780.98</ele>
        <time>2017-08-04T19:18:54Z</time>
      </trkpt>
      <trkpt lat="45.94766" lon="6.23991">
        <ele>1780.98</ele>
        <time>2017-08-04T19:18:55Z</time>
      </trkpt>
      <trkpt lat="45.94765" lon="6.23993">
        <ele>1780.02</ele>
        <time>2017-08-04T19:18:56Z</time>
      </trkpt>
      <trkpt lat="45.94764" lon="6.23995">
        <ele>1780.02</ele>
        <time>2017-08-04T19:18:57Z</time>
      </trkpt>
      <trkpt lat="45.94764" lon="6.23996">
        <ele>1779.06</ele>
        <time>2017-08-04T19:18:58Z</time>
      </trkpt>
      <trkpt lat="45.94764" lon="6.23997">
        <ele>1778.58</ele>
        <time>2017-08-04T19:18:59Z</time>
      </trkpt>
      <trkpt lat="45.94765" lon="6.23997">
        <ele>1778.1</ele>
        <time>2017-08-04T19:19:00Z</time>
      </trkpt>
      <trkpt lat="45.94767" lon="6.23997">
        <ele>1777.61</ele>
        <time>2017-08-04T19:19:01Z</time>
      </trkpt>
      <trkpt lat="45.94781" lon="6.23995">
        <ele>1774.25</ele>
        <time>2017-08-04T19:19:08Z</time>
      </trkpt>
      <trkpt lat="45.94785" lon="6.23998">
        <ele>1773.77</ele>
        <time>2017-08-04T19:19:10Z</time>
      </trkpt>
      <trkpt lat="45.94787" lon="6.24">
        <ele>1773.29</ele>
        <time>2017-08-04T19:19:11Z</time>
      </trkpt>
      <trkpt lat="45.94789" lon="6.24001">
        <ele>1772.81</ele>
        <time>2017-08-04T19:19:12Z</time>
      </trkpt>
      <trkpt lat="45.94791" lon="6.24003">
        <ele>1772.33</ele>
        <time>2017-08-04T19:19:13Z</time>
      </trkpt>
      <trkpt lat="45.94793" lon="6.24004">
        <ele>1771.85</ele>
        <time>2017-08-04T19:19:14Z</time>
      </trkpt>
      <trkpt lat="45.94795" lon="6.24005">
        <ele>1771.85</ele>
        <time>2017-08-04T19:19:15Z</time>
      </trkpt>
      <trkpt lat="45.94808" lon="6.24009">
        <ele>1768.48</ele>
        <time>2017-08-04T19:19:21Z</time>
      </trkpt>
      <trkpt lat="45.94819" lon="6.2401">
        <ele>1766.56</ele>
        <time>2017-08-04T19:19:26Z</time>
      </trkpt>
      <trkpt lat="45.94831" lon="6.2401">
        <ele>1763.68</ele>
        <time>2017-08-04T19:19:31Z</time>
      </trkpt>
      <trkpt lat="45.94841" lon="6.24006">
        <ele>1761.27</ele>
        <time>2017-08-04T19:19:36Z</time>
      </trkpt>
      <trkpt lat="45.94851" lon="6.24003">
        <ele>1759.35</ele>
        <time>2017-08-04T19:19:40Z</time>
      </trkpt>
      <trkpt lat="45.94854" lon="6.24005">
        <ele>1758.87</ele>
        <time>2017-08-04T19:19:41Z</time>
      </trkpt>
      <trkpt lat="45.94856" lon="6.24008">
        <ele>1758.39</ele>
        <time>2017-08-04T19:19:42Z</time>
      </trkpt>
      <trkpt lat="45.94858" lon="6.24011">
        <ele>1757.91</ele>
        <time>2017-08-04T19:19:43Z</time>
      </trkpt>
      <trkpt lat="45.94859" lon="6.24015">
        <ele>1757.43</ele>
        <time>2017-08-04T19:19:44Z</time>
      </trkpt>
      <trkpt lat="45.94861" lon="6.24018">
        <ele>1757.43</ele>
        <time>2017-08-04T19:19:45Z</time>
      </trkpt>
      <trkpt lat="45.94863" lon="6.24021">
        <ele>1756.95</ele>
        <time>2017-08-04T19:19:46Z</time>
      </trkpt>
      <trkpt lat="45.94864" lon="6.24024">
        <ele>1756.95</ele>
        <time>2017-08-04T19:19:47Z</time>
      </trkpt>
      <trkpt lat="45.94865" lon="6.24027">
        <ele>1756.47</ele>
        <time>2017-08-04T19:19:48Z</time>
      </trkpt>
      <trkpt lat="45.94882" lon="6.24047">
        <ele>1753.58</ele>
        <time>2017-08-04T19:19:58Z</time>
      </trkpt>
      <trkpt lat="45.94884" lon="6.24048">
        <ele>1753.58</ele>
        <time>2017-08-04T19:19:59Z</time>
      </trkpt>
      <trkpt lat="45.94902" lon="6.24055">
        <ele>1750.22</ele>
        <time>2017-08-04T19:20:06Z</time>
      </trkpt>
      <trkpt lat="45.94922" lon="6.2406">
        <ele>1747.81</ele>
        <time>2017-08-04T19:20:14Z</time>
      </trkpt>
      <trkpt lat="45.9494" lon="6.2406">
        <ele>1744.45</ele>
        <time>2017-08-04T19:20:22Z</time>
      </trkpt>
      <trkpt lat="45.94959" lon="6.24053">
        <ele>1741.57</ele>
        <time>2017-08-04T19:20:31Z</time>
      </trkpt>
      <trkpt lat="45.94968" lon="6.24052">
        <ele>1738.68</ele>
        <time>2017-08-04T19:20:36Z</time>
      </trkpt>
      <trkpt lat="45.94971" lon="6.24052">
        <ele>1738.2</ele>
        <time>2017-08-04T19:20:38Z</time>
      </trkpt>
      <trkpt lat="45.94973" lon="6.24051">
        <ele>1737.72</ele>
        <time>2017-08-04T19:20:39Z</time>
      </trkpt>
      <trkpt lat="45.94974" lon="6.2405">
        <ele>1737.24</ele>
        <time>2017-08-04T19:20:40Z</time>
      </trkpt>
      <trkpt lat="45.94989" lon="6.24042">
        <ele>1733.88</ele>
        <time>2017-08-04T19:20:49Z</time>
      </trkpt>
      <trkpt lat="45.95003" lon="6.24036">
        <ele>1730.51</ele>
        <time>2017-08-04T19:20:59Z</time>
      </trkpt>
      <trkpt lat="45.95009" lon="6.2404">
        <ele>1728.59</ele>
        <time>2017-08-04T19:21:02Z</time>
      </trkpt>
      <trkpt lat="45.95011" lon="6.24041">
        <ele>1728.11</ele>
        <time>2017-08-04T19:21:03Z</time>
      </trkpt>
      <trkpt lat="45.95012" lon="6.24041">
        <ele>1728.11</ele>
        <time>2017-08-04T19:21:04Z</time>
      </trkpt>
      <trkpt lat="45.95014" lon="6.24041">
        <ele>1727.63</ele>
        <time>2017-08-04T19:21:05Z</time>
      </trkpt>
      <trkpt lat="45.95016" lon="6.24041">
        <ele>1727.15</ele>
        <time>2017-08-04T19:21:06Z</time>
      </trkpt>
      <trkpt lat="45.95017" lon="6.24041">
        <ele>1726.67</ele>
        <time>2017-08-04T19:21:07Z</time>
      </trkpt>
      <trkpt lat="45.95019" lon="6.2404">
        <ele>1726.67</ele>
        <time>2017-08-04T19:21:08Z</time>
      </trkpt>
      <trkpt lat="45.9502" lon="6.2404">
        <ele>1726.67</ele>
        <time>2017-08-04T19:21:09Z</time>
      </trkpt>
      <trkpt lat="45.95022" lon="6.24039">
        <ele>1726.18</ele>
        <time>2017-08-04T19:21:10Z</time>
      </trkpt>
      <trkpt lat="45.95031" lon="6.24033">
        <ele>1723.3</ele>
        <time>2017-08-04T19:21:16Z</time>
      </trkpt>
      <trkpt lat="45.95033" lon="6.24034">
        <ele>1722.82</ele>
        <time>2017-08-04T19:21:17Z</time>
      </trkpt>
      <trkpt lat="45.95035" lon="6.24036">
        <ele>1722.34</ele>
        <time>2017-08-04T19:21:18Z</time>
      </trkpt>
      <trkpt lat="45.95037" lon="6.24037">
        <ele>1721.86</ele>
        <time>2017-08-04T19:21:19Z</time>
      </trkpt>
      <trkpt lat="45.95038" lon="6.24039">
        <ele>1721.38</ele>
        <time>2017-08-04T19:21:20Z</time>
      </trkpt>
      <trkpt lat="45.9504" lon="6.2404">
        <ele>1721.38</ele>
        <time>2017-08-04T19:21:21Z</time>
      </trkpt>
      <trkpt lat="45.95042" lon="6.24041">
        <ele>1720.42</ele>
        <time>2017-08-04T19:21:22Z</time>
      </trkpt>
      <trkpt lat="45.95043" lon="6.24043">
        <ele>1720.42</ele>
        <time>2017-08-04T19:21:23Z</time>
      </trkpt>
      <trkpt lat="45.95044" lon="6.24045">
        <ele>1719.94</ele>
        <time>2017-08-04T19:21:24Z</time>
      </trkpt>
      <trkpt lat="45.95044" lon="6.24047">
        <ele>1719.46</ele>
        <time>2017-08-04T19:21:25Z</time>
      </trkpt>
      <trkpt lat="45.95044" lon="6.24048">
        <ele>1719.46</ele>
        <time>2017-08-04T19:21:26Z</time>
      </trkpt>
      <trkpt lat="45.95045" lon="6.24051">
        <ele>1718.97</ele>
        <time>2017-08-04T19:21:27Z</time>
      </trkpt>
      <trkpt lat="45.95047" lon="6.24057">
        <ele>1718.01</ele>
        <time>2017-08-04T19:21:30Z</time>
      </trkpt>
      <trkpt lat="45.95051" lon="6.24061">
        <ele>1717.05</ele>
        <time>2017-08-04T19:21:33Z</time>
      </trkpt>
      <trkpt lat="45.95054" lon="6.24061">
        <ele>1716.57</ele>
        <time>2017-08-04T19:21:34Z</time>
      </trkpt>
      <trkpt lat="45.95056" lon="6.2406">
        <ele>1716.09</ele>
        <time>2017-08-04T19:21:35Z</time>
      </trkpt>
      <trkpt lat="45.95058" lon="6.24057">
        <ele>1715.61</ele>
        <time>2017-08-04T19:21:36Z</time>
      </trkpt>
      <trkpt lat="45.9506" lon="6.24055">
        <ele>1715.61</ele>
        <time>2017-08-04T19:21:37Z</time>
      </trkpt>
      <trkpt lat="45.95063" lon="6.24054">
        <ele>1715.13</ele>
        <time>2017-08-04T19:21:38Z</time>
      </trkpt>
      <trkpt lat="45.95065" lon="6.24052">
        <ele>1714.65</ele>
        <time>2017-08-04T19:21:39Z</time>
      </trkpt>
      <trkpt lat="45.95068" lon="6.24051">
        <ele>1714.17</ele>
        <time>2017-08-04T19:21:40Z</time>
      </trkpt>
      <trkpt lat="45.95071" lon="6.24051">
        <ele>1714.17</ele>
        <time>2017-08-04T19:21:41Z</time>
      </trkpt>
      <trkpt lat="45.95073" lon="6.24052">
        <ele>1714.17</ele>
        <time>2017-08-04T19:21:42Z</time>
      </trkpt>
      <trkpt lat="45.95075" lon="6.24054">
        <ele>1714.17</ele>
        <time>2017-08-04T19:21:43Z</time>
      </trkpt>
      <trkpt lat="45.95077" lon="6.24055">
        <ele>1714.17</ele>
        <time>2017-08-04T19:21:44Z</time>
      </trkpt>
      <trkpt lat="45.95079" lon="6.24057">
        <ele>1714.17</ele>
        <time>2017-08-04T19:21:45Z</time>
      </trkpt>
      <trkpt lat="45.95085" lon="6.24062">
        <ele>1714.17</ele>
        <time>2017-08-04T19:21:48Z</time>
      </trkpt>
      <trkpt lat="45.95084" lon="6.24064">
        <ele>1714.65</ele>
        <time>2017-08-04T19:21:49Z</time>
      </trkpt>
      <trkpt lat="45.95083" lon="6.24067">
        <ele>1714.65</ele>
        <time>2017-08-04T19:21:50Z</time>
      </trkpt>
      <trkpt lat="45.95083" lon="6.2407">
        <ele>1715.13</ele>
        <time>2017-08-04T19:21:51Z</time>
      </trkpt>
      <trkpt lat="45.95082" lon="6.24073">
        <ele>1715.13</ele>
        <time>2017-08-04T19:21:52Z</time>
      </trkpt>
      <trkpt lat="45.95082" lon="6.24075">
        <ele>1715.61</ele>
        <time>2017-08-04T19:21:53Z</time>
      </trkpt>
      <trkpt lat="45.95082" lon="6.24078">
        <ele>1715.61</ele>
        <time>2017-08-04T19:21:54Z</time>
      </trkpt>
      <trkpt lat="45.95083" lon="6.2408">
        <ele>1715.61</ele>
        <time>2017-08-04T19:21:55Z</time>
      </trkpt>
      <trkpt lat="45.95084" lon="6.24082">
        <ele>1715.61</ele>
        <time>2017-08-04T19:21:56Z</time>
      </trkpt>
      <trkpt lat="45.95085" lon="6.24084">
        <ele>1715.61</ele>
        <time>2017-08-04T19:21:57Z</time>
      </trkpt>
      <trkpt lat="45.95087" lon="6.24085">
        <ele>1715.13</ele>
        <time>2017-08-04T19:21:58Z</time>
      </trkpt>
      <trkpt lat="45.95089" lon="6.24086">
        <ele>1715.13</ele>
        <time>2017-08-04T19:21:59Z</time>
      </trkpt>
      <trkpt lat="45.9509" lon="6.24087">
        <ele>1714.65</ele>
        <time>2017-08-04T19:22:00Z</time>
      </trkpt>
      <trkpt lat="45.95092" lon="6.24088">
        <ele>1714.17</ele>
        <time>2017-08-04T19:22:01Z</time>
      </trkpt>
      <trkpt lat="45.95098" lon="6.24092">
        <ele>1712.73</ele>
        <time>2017-08-04T19:22:05Z</time>
      </trkpt>
      <trkpt lat="45.951" lon="6.24093">
        <ele>1712.25</ele>
        <time>2017-08-04T19:22:06Z</time>
      </trkpt>
      <trkpt lat="45.95101" lon="6.24094">
        <ele>1711.76</ele>
        <time>2017-08-04T19:22:07Z</time>
      </trkpt>
      <trkpt lat="45.95102" lon="6.24094">
        <ele>1711.76</ele>
        <time>2017-08-04T19:22:08Z</time>
      </trkpt>
      <trkpt lat="45.95103" lon="6.24095">
        <ele>1711.28</ele>
        <time>2017-08-04T19:22:09Z</time>
      </trkpt>
      <trkpt lat="45.95107" lon="6.241">
        <ele>1708.4</ele>
        <time>2017-08-04T19:22:16Z</time>
      </trkpt>
      <trkpt lat="45.95109" lon="6.24101">
        <ele>1707.92</ele>
        <time>2017-08-04T19:22:17Z</time>
      </trkpt>
      <trkpt lat="45.9511" lon="6.24101">
        <ele>1707.92</ele>
        <time>2017-08-04T19:22:18Z</time>
      </trkpt>
      <trkpt lat="45.95112" lon="6.24102">
        <ele>1707.44</ele>
        <time>2017-08-04T19:22:19Z</time>
      </trkpt>
      <trkpt lat="45.95114" lon="6.24102">
        <ele>1706.96</ele>
        <time>2017-08-04T19:22:20Z</time>
      </trkpt>
      <trkpt lat="45.95116" lon="6.24102">
        <ele>1706</ele>
        <time>2017-08-04T19:22:21Z</time>
      </trkpt>
      <trkpt lat="45.95117" lon="6.24102">
        <ele>1705.52</ele>
        <time>2017-08-04T19:22:22Z</time>
      </trkpt>
      <trkpt lat="45.95127" lon="6.24111">
        <ele>1702.15</ele>
        <time>2017-08-04T19:22:29Z</time>
      </trkpt>
      <trkpt lat="45.95136" lon="6.24119">
        <ele>1698.79</ele>
        <time>2017-08-04T19:22:35Z</time>
      </trkpt>
      <trkpt lat="45.95148" lon="6.24125">
        <ele>1695.42</ele>
        <time>2017-08-04T19:22:42Z</time>
      </trkpt>
      <trkpt lat="45.9515" lon="6.24125">
        <ele>1694.94</ele>
        <time>2017-08-04T19:22:43Z</time>
      </trkpt>
      <trkpt lat="45.95152" lon="6.24125">
        <ele>1694.46</ele>
        <time>2017-08-04T19:22:44Z</time>
      </trkpt>
      <trkpt lat="45.95156" lon="6.24124">
        <ele>1693.98</ele>
        <time>2017-08-04T19:22:46Z</time>
      </trkpt>
      <trkpt lat="45.95157" lon="6.24124">
        <ele>1693.5</ele>
        <time>2017-08-04T19:22:47Z</time>
      </trkpt>
      <trkpt lat="45.95159" lon="6.24124">
        <ele>1693.02</ele>
        <time>2017-08-04T19:22:48Z</time>
      </trkpt>
      <trkpt lat="45.95161" lon="6.24125">
        <ele>1693.02</ele>
        <time>2017-08-04T19:22:49Z</time>
      </trkpt>
      <trkpt lat="45.95162" lon="6.24126">
        <ele>1692.06</ele>
        <time>2017-08-04T19:22:50Z</time>
      </trkpt>
      <trkpt lat="45.95164" lon="6.24127">
        <ele>1691.58</ele>
        <time>2017-08-04T19:22:51Z</time>
      </trkpt>
      <trkpt lat="45.95166" lon="6.24127">
        <ele>1691.58</ele>
        <time>2017-08-04T19:22:52Z</time>
      </trkpt>
      <trkpt lat="45.95167" lon="6.24127">
        <ele>1691.1</ele>
        <time>2017-08-04T19:22:53Z</time>
      </trkpt>
      <trkpt lat="45.95169" lon="6.24127">
        <ele>1690.62</ele>
        <time>2017-08-04T19:22:54Z</time>
      </trkpt>
      <trkpt lat="45.9517" lon="6.24127">
        <ele>1690.14</ele>
        <time>2017-08-04T19:22:55Z</time>
      </trkpt>
      <trkpt lat="45.95172" lon="6.24127">
        <ele>1689.65</ele>
        <time>2017-08-04T19:22:56Z</time>
      </trkpt>
      <trkpt lat="45.95173" lon="6.24126">
        <ele>1689.17</ele>
        <time>2017-08-04T19:22:57Z</time>
      </trkpt>
      <trkpt lat="45.95187" lon="6.2412">
        <ele>1686.77</ele>
        <time>2017-08-04T19:23:04Z</time>
      </trkpt>
      <trkpt lat="45.95198" lon="6.24119">
        <ele>1684.37</ele>
        <time>2017-08-04T19:23:09Z</time>
      </trkpt>
      <trkpt lat="45.95203" lon="6.24117">
        <ele>1682.93</ele>
        <time>2017-08-04T19:23:12Z</time>
      </trkpt>
      <trkpt lat="45.95204" lon="6.24118">
        <ele>1682.44</ele>
        <time>2017-08-04T19:23:13Z</time>
      </trkpt>
      <trkpt lat="45.95205" lon="6.24118">
        <ele>1681.96</ele>
        <time>2017-08-04T19:23:14Z</time>
      </trkpt>
      <trkpt lat="45.95207" lon="6.24119">
        <ele>1681.48</ele>
        <time>2017-08-04T19:23:15Z</time>
      </trkpt>
      <trkpt lat="45.95207" lon="6.2412">
        <ele>1681</ele>
        <time>2017-08-04T19:23:16Z</time>
      </trkpt>
      <trkpt lat="45.95207" lon="6.24122">
        <ele>1680.04</ele>
        <time>2017-08-04T19:23:17Z</time>
      </trkpt>
      <trkpt lat="45.95206" lon="6.24124">
        <ele>1679.56</ele>
        <time>2017-08-04T19:23:18Z</time>
      </trkpt>
      <trkpt lat="45.95205" lon="6.24125">
        <ele>1679.08</ele>
        <time>2017-08-04T19:23:19Z</time>
      </trkpt>
      <trkpt lat="45.95205" lon="6.24127">
        <ele>1678.6</ele>
        <time>2017-08-04T19:23:20Z</time>
      </trkpt>
      <trkpt lat="45.95204" lon="6.24129">
        <ele>1678.12</ele>
        <time>2017-08-04T19:23:21Z</time>
      </trkpt>
      <trkpt lat="45.95202" lon="6.2413">
        <ele>1677.64</ele>
        <time>2017-08-04T19:23:22Z</time>
      </trkpt>
      <trkpt lat="45.952" lon="6.24131">
        <ele>1677.16</ele>
        <time>2017-08-04T19:23:23Z</time>
      </trkpt>
      <trkpt lat="45.95184" lon="6.24143">
        <ele>1674.27</ele>
        <time>2017-08-04T19:23:31Z</time>
      </trkpt>
      <trkpt lat="45.95166" lon="6.24154">
        <ele>1672.35</ele>
        <time>2017-08-04T19:23:38Z</time>
      </trkpt>
      <trkpt lat="45.95162" lon="6.24158">
        <ele>1672.35</ele>
        <time>2017-08-04T19:23:40Z</time>
      </trkpt>
      <trkpt lat="45.95161" lon="6.24159">
        <ele>1671.87</ele>
        <time>2017-08-04T19:23:41Z</time>
      </trkpt>
      <trkpt lat="45.95161" lon="6.24161">
        <ele>1671.39</ele>
        <time>2017-08-04T19:23:42Z</time>
      </trkpt>
      <trkpt lat="45.95161" lon="6.24165">
        <ele>1671.39</ele>
        <time>2017-08-04T19:23:43Z</time>
      </trkpt>
      <trkpt lat="45.9516" lon="6.24169">
        <ele>1671.39</ele>
        <time>2017-08-04T19:23:44Z</time>
      </trkpt>
      <trkpt lat="45.95164" lon="6.24183">
        <ele>1669.47</ele>
        <time>2017-08-04T19:23:49Z</time>
      </trkpt>
      <trkpt lat="45.95166" lon="6.24184">
        <ele>1668.99</ele>
        <time>2017-08-04T19:23:50Z</time>
      </trkpt>
      <trkpt lat="45.95168" lon="6.24184">
        <ele>1668.99</ele>
        <time>2017-08-04T19:23:51Z</time>
      </trkpt>
      <trkpt lat="45.95185" lon="6.24178">
        <ele>1666.1</ele>
        <time>2017-08-04T19:23:58Z</time>
      </trkpt>
      <trkpt lat="45.95195" lon="6.24174">
        <ele>1664.18</ele>
        <time>2017-08-04T19:24:02Z</time>
      </trkpt>
      <trkpt lat="45.952" lon="6.24173">
        <ele>1663.22</ele>
        <time>2017-08-04T19:24:04Z</time>
      </trkpt>
      <trkpt lat="45.95214" lon="6.24178">
        <ele>1659.85</ele>
        <time>2017-08-04T19:24:11Z</time>
      </trkpt>
      <trkpt lat="45.95215" lon="6.2418">
        <ele>1659.37</ele>
        <time>2017-08-04T19:24:12Z</time>
      </trkpt>
      <trkpt lat="45.95216" lon="6.24183">
        <ele>1659.37</ele>
        <time>2017-08-04T19:24:13Z</time>
      </trkpt>
      <trkpt lat="45.95217" lon="6.24186">
        <ele>1658.89</ele>
        <time>2017-08-04T19:24:14Z</time>
      </trkpt>
      <trkpt lat="45.9523" lon="6.24209">
        <ele>1656.49</ele>
        <time>2017-08-04T19:24:23Z</time>
      </trkpt>
      <trkpt lat="45.95232" lon="6.2421">
        <ele>1656.01</ele>
        <time>2017-08-04T19:24:24Z</time>
      </trkpt>
      <trkpt lat="45.95244" lon="6.24219">
        <ele>1654.09</ele>
        <time>2017-08-04T19:24:30Z</time>
      </trkpt>
      <trkpt lat="45.95245" lon="6.24223">
        <ele>1653.6</ele>
        <time>2017-08-04T19:24:31Z</time>
      </trkpt>
      <trkpt lat="45.95245" lon="6.24227">
        <ele>1653.6</ele>
        <time>2017-08-04T19:24:32Z</time>
      </trkpt>
      <trkpt lat="45.95239" lon="6.24256">
        <ele>1654.57</ele>
        <time>2017-08-04T19:24:43Z</time>
      </trkpt>
      <trkpt lat="45.95232" lon="6.24278">
        <ele>1657.45</ele>
        <time>2017-08-04T19:24:53Z</time>
      </trkpt>
      <trkpt lat="45.95232" lon="6.2428">
        <ele>1657.93</ele>
        <time>2017-08-04T19:24:54Z</time>
      </trkpt>
      <trkpt lat="45.95232" lon="6.24281">
        <ele>1658.41</ele>
        <time>2017-08-04T19:24:55Z</time>
      </trkpt>
      <trkpt lat="45.95231" lon="6.24283">
        <ele>1658.89</ele>
        <time>2017-08-04T19:24:56Z</time>
      </trkpt>
      <trkpt lat="45.95231" lon="6.24284">
        <ele>1659.37</ele>
        <time>2017-08-04T19:24:57Z</time>
      </trkpt>
      <trkpt lat="45.95231" lon="6.24286">
        <ele>1659.37</ele>
        <time>2017-08-04T19:24:58Z</time>
      </trkpt>
      <trkpt lat="45.95228" lon="6.243">
        <ele>1659.37</ele>
        <time>2017-08-04T19:25:03Z</time>
      </trkpt>
      <trkpt lat="45.95227" lon="6.24303">
        <ele>1659.37</ele>
        <time>2017-08-04T19:25:04Z</time>
      </trkpt>
      <trkpt lat="45.95226" lon="6.24306">
        <ele>1659.37</ele>
        <time>2017-08-04T19:25:05Z</time>
      </trkpt>
      <trkpt lat="45.95224" lon="6.24309">
        <ele>1659.37</ele>
        <time>2017-08-04T19:25:06Z</time>
      </trkpt>
      <trkpt lat="45.95223" lon="6.24312">
        <ele>1659.37</ele>
        <time>2017-08-04T19:25:07Z</time>
      </trkpt>
      <trkpt lat="45.95223" lon="6.24313">
        <ele>1659.37</ele>
        <time>2017-08-04T19:25:08Z</time>
      </trkpt>
      <trkpt lat="45.95214" lon="6.2433">
        <ele>1659.37</ele>
        <time>2017-08-04T19:25:26Z</time>
      </trkpt>
      <trkpt lat="45.95211" lon="6.24345">
        <ele>1658.41</ele>
        <time>2017-08-04T19:25:33Z</time>
      </trkpt>
      <trkpt lat="45.95203" lon="6.24359">
        <ele>1657.45</ele>
        <time>2017-08-04T19:25:40Z</time>
      </trkpt>
      <trkpt lat="45.95204" lon="6.24361">
        <ele>1656.97</ele>
        <time>2017-08-04T19:25:41Z</time>
      </trkpt>
      <trkpt lat="45.95205" lon="6.24366">
        <ele>1656.01</ele>
        <time>2017-08-04T19:25:46Z</time>
      </trkpt>
      <trkpt lat="45.95203" lon="6.24381">
        <ele>1654.57</ele>
        <time>2017-08-04T19:25:53Z</time>
      </trkpt>
      <trkpt lat="45.95209" lon="6.24412">
        <ele>1655.05</ele>
        <time>2017-08-04T19:26:04Z</time>
      </trkpt>
      <trkpt lat="45.95219" lon="6.24425">
        <ele>1654.09</ele>
        <time>2017-08-04T19:26:11Z</time>
      </trkpt>
      <trkpt lat="45.95229" lon="6.24432">
        <ele>1652.16</ele>
        <time>2017-08-04T19:26:18Z</time>
      </trkpt>
      <trkpt lat="45.95236" lon="6.24441">
        <ele>1650.72</ele>
        <time>2017-08-04T19:26:24Z</time>
      </trkpt>
      <trkpt lat="45.95238" lon="6.24441">
        <ele>1650.24</ele>
        <time>2017-08-04T19:26:25Z</time>
      </trkpt>
      <trkpt lat="45.95239" lon="6.24441">
        <ele>1649.76</ele>
        <time>2017-08-04T19:26:26Z</time>
      </trkpt>
      <trkpt lat="45.95242" lon="6.24441">
        <ele>1649.28</ele>
        <time>2017-08-04T19:26:27Z</time>
      </trkpt>
      <trkpt lat="45.95243" lon="6.24441">
        <ele>1649.28</ele>
        <time>2017-08-04T19:26:28Z</time>
      </trkpt>
      <trkpt lat="45.95245" lon="6.24441">
        <ele>1648.8</ele>
        <time>2017-08-04T19:26:29Z</time>
      </trkpt>
      <trkpt lat="45.95247" lon="6.24442">
        <ele>1648.32</ele>
        <time>2017-08-04T19:26:30Z</time>
      </trkpt>
      <trkpt lat="45.95249" lon="6.24443">
        <ele>1647.84</ele>
        <time>2017-08-04T19:26:31Z</time>
      </trkpt>
      <trkpt lat="45.9525" lon="6.24444">
        <ele>1647.36</ele>
        <time>2017-08-04T19:26:32Z</time>
      </trkpt>
      <trkpt lat="45.95251" lon="6.24446">
        <ele>1647.36</ele>
        <time>2017-08-04T19:26:33Z</time>
      </trkpt>
      <trkpt lat="45.95252" lon="6.24449">
        <ele>1646.88</ele>
        <time>2017-08-04T19:26:34Z</time>
      </trkpt>
      <trkpt lat="45.95252" lon="6.24452">
        <ele>1646.4</ele>
        <time>2017-08-04T19:26:35Z</time>
      </trkpt>
      <trkpt lat="45.95253" lon="6.24454">
        <ele>1646.4</ele>
        <time>2017-08-04T19:26:36Z</time>
      </trkpt>
      <trkpt lat="45.95253" lon="6.24457">
        <ele>1645.91</ele>
        <time>2017-08-04T19:26:37Z</time>
      </trkpt>
      <trkpt lat="45.95253" lon="6.2446">
        <ele>1645.43</ele>
        <time>2017-08-04T19:26:38Z</time>
      </trkpt>
      <trkpt lat="45.95254" lon="6.24462">
        <ele>1644.95</ele>
        <time>2017-08-04T19:26:39Z</time>
      </trkpt>
      <trkpt lat="45.95255" lon="6.24464">
        <ele>1644.95</ele>
        <time>2017-08-04T19:26:40Z</time>
      </trkpt>
      <trkpt lat="45.95256" lon="6.24465">
        <ele>1644.47</ele>
        <time>2017-08-04T19:26:41Z</time>
      </trkpt>
      <trkpt lat="45.95258" lon="6.24466">
        <ele>1643.99</ele>
        <time>2017-08-04T19:26:42Z</time>
      </trkpt>
      <trkpt lat="45.9526" lon="6.24467">
        <ele>1643.51</ele>
        <time>2017-08-04T19:26:43Z</time>
      </trkpt>
      <trkpt lat="45.95262" lon="6.24468">
        <ele>1643.03</ele>
        <time>2017-08-04T19:26:44Z</time>
      </trkpt>
      <trkpt lat="45.95265" lon="6.2447">
        <ele>1643.03</ele>
        <time>2017-08-04T19:26:45Z</time>
      </trkpt>
      <trkpt lat="45.95273" lon="6.24478">
        <ele>1641.59</ele>
        <time>2017-08-04T19:26:50Z</time>
      </trkpt>
      <trkpt lat="45.95289" lon="6.24495">
        <ele>1639.19</ele>
        <time>2017-08-04T19:26:58Z</time>
      </trkpt>
      <trkpt lat="45.95303" lon="6.24517">
        <ele>1638.22</ele>
        <time>2017-08-04T19:27:06Z</time>
      </trkpt>
      <trkpt lat="45.95321" lon="6.24533">
        <ele>1636.78</ele>
        <time>2017-08-04T19:27:16Z</time>
      </trkpt>
      <trkpt lat="45.95339" lon="6.24545">
        <ele>1634.38</ele>
        <time>2017-08-04T19:27:26Z</time>
      </trkpt>
      <trkpt lat="45.95349" lon="6.24549">
        <ele>1633.42</ele>
        <time>2017-08-04T19:27:32Z</time>
      </trkpt>
      <trkpt lat="45.9535" lon="6.24547">
        <ele>1632.94</ele>
        <time>2017-08-04T19:27:33Z</time>
      </trkpt>
      <trkpt lat="45.95357" lon="6.2454">
        <ele>1631.01</ele>
        <time>2017-08-04T19:27:38Z</time>
      </trkpt>
      <trkpt lat="45.95359" lon="6.24539">
        <ele>1630.53</ele>
        <time>2017-08-04T19:27:39Z</time>
      </trkpt>
      <trkpt lat="45.9536" lon="6.24539">
        <ele>1629.57</ele>
        <time>2017-08-04T19:27:40Z</time>
      </trkpt>
      <trkpt lat="45.95362" lon="6.24539">
        <ele>1629.57</ele>
        <time>2017-08-04T19:27:41Z</time>
      </trkpt>
      <trkpt lat="45.95363" lon="6.24539">
        <ele>1629.57</ele>
        <time>2017-08-04T19:27:42Z</time>
      </trkpt>
      <trkpt lat="45.95364" lon="6.24538">
        <ele>1629.57</ele>
        <time>2017-08-04T19:27:43Z</time>
      </trkpt>
      <trkpt lat="45.95366" lon="6.24538">
        <ele>1629.57</ele>
        <time>2017-08-04T19:27:44Z</time>
      </trkpt>
      <trkpt lat="45.95367" lon="6.24537">
        <ele>1629.57</ele>
        <time>2017-08-04T19:27:45Z</time>
      </trkpt>
      <trkpt lat="45.95369" lon="6.24537">
        <ele>1629.57</ele>
        <time>2017-08-04T19:27:46Z</time>
      </trkpt>
      <trkpt lat="45.95371" lon="6.24538">
        <ele>1629.09</ele>
        <time>2017-08-04T19:27:47Z</time>
      </trkpt>
      <trkpt lat="45.95373" lon="6.24539">
        <ele>1628.61</ele>
        <time>2017-08-04T19:27:48Z</time>
      </trkpt>
      <trkpt lat="45.95375" lon="6.2454">
        <ele>1628.61</ele>
        <time>2017-08-04T19:27:49Z</time>
      </trkpt>
      <trkpt lat="45.95377" lon="6.24541">
        <ele>1628.13</ele>
        <time>2017-08-04T19:27:50Z</time>
      </trkpt>
      <trkpt lat="45.95395" lon="6.24535">
        <ele>1624.77</ele>
        <time>2017-08-04T19:27:58Z</time>
      </trkpt>
      <trkpt lat="45.95409" lon="6.24523">
        <ele>1622.84</ele>
        <time>2017-08-04T19:28:06Z</time>
      </trkpt>
      <trkpt lat="45.9541" lon="6.24523">
        <ele>1622.36</ele>
        <time>2017-08-04T19:28:07Z</time>
      </trkpt>
      <trkpt lat="45.95426" lon="6.24541">
        <ele>1620.44</ele>
        <time>2017-08-04T19:28:18Z</time>
      </trkpt>
      <trkpt lat="45.95429" lon="6.24543">
        <ele>1620.44</ele>
        <time>2017-08-04T19:28:19Z</time>
      </trkpt>
      <trkpt lat="45.95432" lon="6.24543">
        <ele>1619.48</ele>
        <time>2017-08-04T19:28:20Z</time>
      </trkpt>
      <trkpt lat="45.95434" lon="6.24543">
        <ele>1618.52</ele>
        <time>2017-08-04T19:28:21Z</time>
      </trkpt>
      <trkpt lat="45.95433" lon="6.24543">
        <ele>1618.04</ele>
        <time>2017-08-04T19:28:22Z</time>
      </trkpt>
      <trkpt lat="45.95432" lon="6.24544">
        <ele>1619</ele>
        <time>2017-08-04T19:28:30Z</time>
      </trkpt>
      <trkpt lat="45.95433" lon="6.24547">
        <ele>1619</ele>
        <time>2017-08-04T19:28:33Z</time>
      </trkpt>
      <trkpt lat="45.95435" lon="6.24547">
        <ele>1619</ele>
        <time>2017-08-04T19:28:36Z</time>
      </trkpt>
      <trkpt lat="45.95453" lon="6.24559">
        <ele>1620.44</ele>
        <time>2017-08-04T19:28:55Z</time>
      </trkpt>
      <trkpt lat="45.95465" lon="6.24579">
        <ele>1620.44</ele>
        <time>2017-08-04T19:29:10Z</time>
      </trkpt>
      <trkpt lat="45.95466" lon="6.24582">
        <ele>1620.92</ele>
        <time>2017-08-04T19:29:11Z</time>
      </trkpt>
      <trkpt lat="45.95466" lon="6.24585">
        <ele>1620.92</ele>
        <time>2017-08-04T19:29:12Z</time>
      </trkpt>
      <trkpt lat="45.95467" lon="6.24588">
        <ele>1621.4</ele>
        <time>2017-08-04T19:29:13Z</time>
      </trkpt>
      <trkpt lat="45.95467" lon="6.2459">
        <ele>1621.4</ele>
        <time>2017-08-04T19:29:14Z</time>
      </trkpt>
      <trkpt lat="45.95473" lon="6.24601">
        <ele>1620.44</ele>
        <time>2017-08-04T19:29:22Z</time>
      </trkpt>
      <trkpt lat="45.95475" lon="6.24604">
        <ele>1619.96</ele>
        <time>2017-08-04T19:29:27Z</time>
      </trkpt>
      <trkpt lat="45.95476" lon="6.24605">
        <ele>1619.96</ele>
        <time>2017-08-04T19:29:29Z</time>
      </trkpt>
      <trkpt lat="45.95476" lon="6.24607">
        <ele>1619.96</ele>
        <time>2017-08-04T19:29:30Z</time>
      </trkpt>
      <trkpt lat="45.95477" lon="6.24608">
        <ele>1619.96</ele>
        <time>2017-08-04T19:29:31Z</time>
      </trkpt>
      <trkpt lat="45.95478" lon="6.24609">
        <ele>1619.48</ele>
        <time>2017-08-04T19:29:32Z</time>
      </trkpt>
      <trkpt lat="45.95479" lon="6.2461">
        <ele>1619</ele>
        <time>2017-08-04T19:29:33Z</time>
      </trkpt>
      <trkpt lat="45.9548" lon="6.2461">
        <ele>1619</ele>
        <time>2017-08-04T19:29:34Z</time>
      </trkpt>
      <trkpt lat="45.95481" lon="6.24611">
        <ele>1618.52</ele>
        <time>2017-08-04T19:29:35Z</time>
      </trkpt>
      <trkpt lat="45.95482" lon="6.24611">
        <ele>1618.04</ele>
        <time>2017-08-04T19:29:36Z</time>
      </trkpt>
      <trkpt lat="45.95483" lon="6.24611">
        <ele>1618.04</ele>
        <time>2017-08-04T19:29:37Z</time>
      </trkpt>
      <trkpt lat="45.95484" lon="6.24612">
        <ele>1618.04</ele>
        <time>2017-08-04T19:29:38Z</time>
      </trkpt>
      <trkpt lat="45.95487" lon="6.24614">
        <ele>1617.07</ele>
        <time>2017-08-04T19:29:40Z</time>
      </trkpt>
      <trkpt lat="45.95488" lon="6.24616">
        <ele>1616.59</ele>
        <time>2017-08-04T19:29:41Z</time>
      </trkpt>
      <trkpt lat="45.95489" lon="6.24618">
        <ele>1616.59</ele>
        <time>2017-08-04T19:29:42Z</time>
      </trkpt>
      <trkpt lat="45.95491" lon="6.24619">
        <ele>1616.11</ele>
        <time>2017-08-04T19:29:43Z</time>
      </trkpt>
      <trkpt lat="45.95492" lon="6.24621">
        <ele>1616.11</ele>
        <time>2017-08-04T19:29:44Z</time>
      </trkpt>
      <trkpt lat="45.95493" lon="6.24624">
        <ele>1615.63</ele>
        <time>2017-08-04T19:29:45Z</time>
      </trkpt>
      <trkpt lat="45.95495" lon="6.24627">
        <ele>1615.63</ele>
        <time>2017-08-04T19:29:46Z</time>
      </trkpt>
      <trkpt lat="45.95509" lon="6.24646">
        <ele>1613.23</ele>
        <time>2017-08-04T19:29:57Z</time>
      </trkpt>
      <trkpt lat="45.95514" lon="6.24644">
        <ele>1610.83</ele>
        <time>2017-08-04T19:30:02Z</time>
      </trkpt>
      <trkpt lat="45.95515" lon="6.24644">
        <ele>1610.83</ele>
        <time>2017-08-04T19:30:03Z</time>
      </trkpt>
      <trkpt lat="45.95518" lon="6.24644">
        <ele>1609.86</ele>
        <time>2017-08-04T19:30:06Z</time>
      </trkpt>
      <trkpt lat="45.95519" lon="6.24643">
        <ele>1609.38</ele>
        <time>2017-08-04T19:30:07Z</time>
      </trkpt>
      <trkpt lat="45.9552" lon="6.24642">
        <ele>1608.9</ele>
        <time>2017-08-04T19:30:08Z</time>
      </trkpt>
      <trkpt lat="45.95521" lon="6.24642">
        <ele>1608.42</ele>
        <time>2017-08-04T19:30:09Z</time>
      </trkpt>
      <trkpt lat="45.95523" lon="6.24642">
        <ele>1608.42</ele>
        <time>2017-08-04T19:30:10Z</time>
      </trkpt>
      <trkpt lat="45.95526" lon="6.24643">
        <ele>1607.94</ele>
        <time>2017-08-04T19:30:11Z</time>
      </trkpt>
      <trkpt lat="45.95528" lon="6.24643">
        <ele>1607.46</ele>
        <time>2017-08-04T19:30:12Z</time>
      </trkpt>
      <trkpt lat="45.95546" lon="6.24645">
        <ele>1604.58</ele>
        <time>2017-08-04T19:30:20Z</time>
      </trkpt>
      <trkpt lat="45.95565" lon="6.2463">
        <ele>1602.17</ele>
        <time>2017-08-04T19:30:28Z</time>
      </trkpt>
      <trkpt lat="45.95577" lon="6.24612">
        <ele>1598.81</ele>
        <time>2017-08-04T19:30:35Z</time>
      </trkpt>
      <trkpt lat="45.95585" lon="6.24593">
        <ele>1595.93</ele>
        <time>2017-08-04T19:30:41Z</time>
      </trkpt>
      <trkpt lat="45.9559" lon="6.24577">
        <ele>1593.52</ele>
        <time>2017-08-04T19:30:46Z</time>
      </trkpt>
      <trkpt lat="45.95602" lon="6.24553">
        <ele>1590.16</ele>
        <time>2017-08-04T19:30:53Z</time>
      </trkpt>
      <trkpt lat="45.95617" lon="6.24531">
        <ele>1586.79</ele>
        <time>2017-08-04T19:31:01Z</time>
      </trkpt>
      <trkpt lat="45.95621" lon="6.2452">
        <ele>1584.87</ele>
        <time>2017-08-04T19:31:05Z</time>
      </trkpt>
      <trkpt lat="45.95631" lon="6.24501">
        <ele>1581.99</ele>
        <time>2017-08-04T19:31:12Z</time>
      </trkpt>
      <trkpt lat="45.95644" lon="6.2448">
        <ele>1578.62</ele>
        <time>2017-08-04T19:31:20Z</time>
      </trkpt>
      <trkpt lat="45.95645" lon="6.24479">
        <ele>1578.62</ele>
        <time>2017-08-04T19:31:21Z</time>
      </trkpt>
      <trkpt lat="45.95646" lon="6.24478">
        <ele>1578.62</ele>
        <time>2017-08-04T19:31:22Z</time>
      </trkpt>
      <trkpt lat="45.95648" lon="6.24477">
        <ele>1578.62</ele>
        <time>2017-08-04T19:31:23Z</time>
      </trkpt>
      <trkpt lat="45.95649" lon="6.24477">
        <ele>1578.14</ele>
        <time>2017-08-04T19:31:24Z</time>
      </trkpt>
      <trkpt lat="45.95652" lon="6.24478">
        <ele>1578.14</ele>
        <time>2017-08-04T19:31:30Z</time>
      </trkpt>
      <trkpt lat="45.95668" lon="6.24484">
        <ele>1576.22</ele>
        <time>2017-08-04T19:31:41Z</time>
      </trkpt>
      <trkpt lat="45.9567" lon="6.24485">
        <ele>1576.22</ele>
        <time>2017-08-04T19:31:42Z</time>
      </trkpt>
      <trkpt lat="45.95671" lon="6.24487">
        <ele>1575.74</ele>
        <time>2017-08-04T19:31:43Z</time>
      </trkpt>
      <trkpt lat="45.95673" lon="6.24487">
        <ele>1575.26</ele>
        <time>2017-08-04T19:31:44Z</time>
      </trkpt>
      <trkpt lat="45.95675" lon="6.24488">
        <ele>1575.26</ele>
        <time>2017-08-04T19:31:45Z</time>
      </trkpt>
      <trkpt lat="45.95677" lon="6.24487">
        <ele>1575.26</ele>
        <time>2017-08-04T19:31:46Z</time>
      </trkpt>
      <trkpt lat="45.95679" lon="6.24487">
        <ele>1574.78</ele>
        <time>2017-08-04T19:31:47Z</time>
      </trkpt>
      <trkpt lat="45.95681" lon="6.24487">
        <ele>1574.78</ele>
        <time>2017-08-04T19:31:48Z</time>
      </trkpt>
      <trkpt lat="45.95683" lon="6.24488">
        <ele>1574.78</ele>
        <time>2017-08-04T19:31:49Z</time>
      </trkpt>
      <trkpt lat="45.95684" lon="6.2449">
        <ele>1574.3</ele>
        <time>2017-08-04T19:31:50Z</time>
      </trkpt>
      <trkpt lat="45.95685" lon="6.24493">
        <ele>1574.3</ele>
        <time>2017-08-04T19:31:51Z</time>
      </trkpt>
      <trkpt lat="45.95687" lon="6.24495">
        <ele>1574.3</ele>
        <time>2017-08-04T19:31:52Z</time>
      </trkpt>
      <trkpt lat="45.95688" lon="6.24496">
        <ele>1573.82</ele>
        <time>2017-08-04T19:31:53Z</time>
      </trkpt>
      <trkpt lat="45.9569" lon="6.24496">
        <ele>1573.82</ele>
        <time>2017-08-04T19:31:54Z</time>
      </trkpt>
      <trkpt lat="45.95692" lon="6.24497">
        <ele>1573.33</ele>
        <time>2017-08-04T19:31:55Z</time>
      </trkpt>
      <trkpt lat="45.95693" lon="6.24497">
        <ele>1573.33</ele>
        <time>2017-08-04T19:31:56Z</time>
      </trkpt>
      <trkpt lat="45.95695" lon="6.24497">
        <ele>1573.33</ele>
        <time>2017-08-04T19:31:57Z</time>
      </trkpt>
      <trkpt lat="45.95697" lon="6.24497">
        <ele>1572.85</ele>
        <time>2017-08-04T19:31:58Z</time>
      </trkpt>
      <trkpt lat="45.957" lon="6.24497">
        <ele>1572.85</ele>
        <time>2017-08-04T19:31:59Z</time>
      </trkpt>
      <trkpt lat="45.95702" lon="6.24497">
        <ele>1572.37</ele>
        <time>2017-08-04T19:32:00Z</time>
      </trkpt>
      <trkpt lat="45.95705" lon="6.24498">
        <ele>1571.89</ele>
        <time>2017-08-04T19:32:01Z</time>
      </trkpt>
      <trkpt lat="45.95707" lon="6.245">
        <ele>1571.89</ele>
        <time>2017-08-04T19:32:02Z</time>
      </trkpt>
      <trkpt lat="45.95709" lon="6.24502">
        <ele>1571.41</ele>
        <time>2017-08-04T19:32:03Z</time>
      </trkpt>
      <trkpt lat="45.95711" lon="6.24504">
        <ele>1571.89</ele>
        <time>2017-08-04T19:32:04Z</time>
      </trkpt>
      <trkpt lat="45.95713" lon="6.24506">
        <ele>1571.41</ele>
        <time>2017-08-04T19:32:05Z</time>
      </trkpt>
      <trkpt lat="45.95715" lon="6.24508">
        <ele>1571.41</ele>
        <time>2017-08-04T19:32:06Z</time>
      </trkpt>
      <trkpt lat="45.95716" lon="6.2451">
        <ele>1570.93</ele>
        <time>2017-08-04T19:32:07Z</time>
      </trkpt>
      <trkpt lat="45.95717" lon="6.24513">
        <ele>1570.93</ele>
        <time>2017-08-04T19:32:08Z</time>
      </trkpt>
      <trkpt lat="45.95718" lon="6.24514">
        <ele>1570.93</ele>
        <time>2017-08-04T19:32:09Z</time>
      </trkpt>
      <trkpt lat="45.95719" lon="6.24515">
        <ele>1570.93</ele>
        <time>2017-08-04T19:32:10Z</time>
      </trkpt>
      <trkpt lat="45.95721" lon="6.24516">
        <ele>1570.45</ele>
        <time>2017-08-04T19:32:11Z</time>
      </trkpt>
      <trkpt lat="45.95726" lon="6.24517">
        <ele>1569.97</ele>
        <time>2017-08-04T19:32:13Z</time>
      </trkpt>
      <trkpt lat="45.95728" lon="6.24519">
        <ele>1569.49</ele>
        <time>2017-08-04T19:32:14Z</time>
      </trkpt>
      <trkpt lat="45.9573" lon="6.24521">
        <ele>1569.49</ele>
        <time>2017-08-04T19:32:15Z</time>
      </trkpt>
      <trkpt lat="45.95733" lon="6.24522">
        <ele>1569.01</ele>
        <time>2017-08-04T19:32:16Z</time>
      </trkpt>
      <trkpt lat="45.95735" lon="6.24523">
        <ele>1569.01</ele>
        <time>2017-08-04T19:32:17Z</time>
      </trkpt>
      <trkpt lat="45.95738" lon="6.24525">
        <ele>1568.05</ele>
        <time>2017-08-04T19:32:18Z</time>
      </trkpt>
      <trkpt lat="45.95741" lon="6.24526">
        <ele>1567.57</ele>
        <time>2017-08-04T19:32:19Z</time>
      </trkpt>
      <trkpt lat="45.95743" lon="6.24527">
        <ele>1567.57</ele>
        <time>2017-08-04T19:32:20Z</time>
      </trkpt>
      <trkpt lat="45.95753" lon="6.24537">
        <ele>1567.09</ele>
        <time>2017-08-04T19:32:25Z</time>
      </trkpt>
      <trkpt lat="45.95755" lon="6.24539">
        <ele>1567.09</ele>
        <time>2017-08-04T19:32:26Z</time>
      </trkpt>
      <trkpt lat="45.95757" lon="6.24541">
        <ele>1566.61</ele>
        <time>2017-08-04T19:32:27Z</time>
      </trkpt>
      <trkpt lat="45.95759" lon="6.24541">
        <ele>1566.61</ele>
        <time>2017-08-04T19:32:28Z</time>
      </trkpt>
      <trkpt lat="45.9576" lon="6.24542">
        <ele>1566.61</ele>
        <time>2017-08-04T19:32:29Z</time>
      </trkpt>
      <trkpt lat="45.95774" lon="6.2455">
        <ele>1564.68</ele>
        <time>2017-08-04T19:32:39Z</time>
      </trkpt>
      <trkpt lat="45.95786" lon="6.24551">
        <ele>1564.68</ele>
        <time>2017-08-04T19:32:47Z</time>
      </trkpt>
      <trkpt lat="45.95787" lon="6.24551">
        <ele>1564.68</ele>
        <time>2017-08-04T19:32:48Z</time>
      </trkpt>
      <trkpt lat="45.95789" lon="6.2455">
        <ele>1564.68</ele>
        <time>2017-08-04T19:32:49Z</time>
      </trkpt>
      <trkpt lat="45.9579" lon="6.2455">
        <ele>1564.68</ele>
        <time>2017-08-04T19:32:50Z</time>
      </trkpt>
      <trkpt lat="45.95792" lon="6.24548">
        <ele>1564.68</ele>
        <time>2017-08-04T19:32:51Z</time>
      </trkpt>
      <trkpt lat="45.95794" lon="6.24547">
        <ele>1564.68</ele>
        <time>2017-08-04T19:32:52Z</time>
      </trkpt>
      <trkpt lat="45.95796" lon="6.24546">
        <ele>1564.68</ele>
        <time>2017-08-04T19:32:53Z</time>
      </trkpt>
      <trkpt lat="45.95798" lon="6.24545">
        <ele>1564.68</ele>
        <time>2017-08-04T19:32:54Z</time>
      </trkpt>
      <trkpt lat="45.958" lon="6.24545">
        <ele>1564.68</ele>
        <time>2017-08-04T19:32:55Z</time>
      </trkpt>
      <trkpt lat="45.95802" lon="6.24545">
        <ele>1565.16</ele>
        <time>2017-08-04T19:32:56Z</time>
      </trkpt>
      <trkpt lat="45.95809" lon="6.24547">
        <ele>1565.64</ele>
        <time>2017-08-04T19:33:00Z</time>
      </trkpt>
      <trkpt lat="45.95811" lon="6.24546">
        <ele>1566.12</ele>
        <time>2017-08-04T19:33:01Z</time>
      </trkpt>
      <trkpt lat="45.95813" lon="6.24546">
        <ele>1566.12</ele>
        <time>2017-08-04T19:33:02Z</time>
      </trkpt>
      <trkpt lat="45.95815" lon="6.24546">
        <ele>1566.61</ele>
        <time>2017-08-04T19:33:03Z</time>
      </trkpt>
      <trkpt lat="45.95816" lon="6.24546">
        <ele>1566.61</ele>
        <time>2017-08-04T19:33:04Z</time>
      </trkpt>
      <trkpt lat="45.95821" lon="6.24546">
        <ele>1567.57</ele>
        <time>2017-08-04T19:33:08Z</time>
      </trkpt>
      <trkpt lat="45.95821" lon="6.24544">
        <ele>1567.57</ele>
        <time>2017-08-04T19:33:09Z</time>
      </trkpt>
      <trkpt lat="45.95826" lon="6.24538">
        <ele>1569.01</ele>
        <time>2017-08-04T19:33:14Z</time>
      </trkpt>
      <trkpt lat="45.95827" lon="6.24537">
        <ele>1569.01</ele>
        <time>2017-08-04T19:33:15Z</time>
      </trkpt>
      <trkpt lat="45.95828" lon="6.24537">
        <ele>1569.01</ele>
        <time>2017-08-04T19:33:16Z</time>
      </trkpt>
      <trkpt lat="45.95847" lon="6.24528">
        <ele>1570.93</ele>
        <time>2017-08-04T19:33:34Z</time>
      </trkpt>
      <trkpt lat="45.9585" lon="6.24524">
        <ele>1570.93</ele>
        <time>2017-08-04T19:33:36Z</time>
      </trkpt>
      <trkpt lat="45.95867" lon="6.24519">
        <ele>1574.3</ele>
        <time>2017-08-04T19:33:52Z</time>
      </trkpt>
      <trkpt lat="45.95881" lon="6.24507">
        <ele>1577.18</ele>
        <time>2017-08-04T19:34:11Z</time>
      </trkpt>
      <trkpt lat="45.95888" lon="6.24494">
        <ele>1580.54</ele>
        <time>2017-08-04T19:34:27Z</time>
      </trkpt>
      <trkpt lat="45.95896" lon="6.24485">
        <ele>1582.95</ele>
        <time>2017-08-04T19:34:40Z</time>
      </trkpt>
      <trkpt lat="45.95897" lon="6.24484">
        <ele>1582.95</ele>
        <time>2017-08-04T19:34:41Z</time>
      </trkpt>
      <trkpt lat="45.95897" lon="6.24483">
        <ele>1582.95</ele>
        <time>2017-08-04T19:34:42Z</time>
      </trkpt>
      <trkpt lat="45.95898" lon="6.24482">
        <ele>1583.43</ele>
        <time>2017-08-04T19:34:43Z</time>
      </trkpt>
      <trkpt lat="45.95907" lon="6.24471">
        <ele>1586.31</ele>
        <time>2017-08-04T19:34:58Z</time>
      </trkpt>
      <trkpt lat="45.95918" lon="6.24463">
        <ele>1588.24</ele>
        <time>2017-08-04T19:35:11Z</time>
      </trkpt>
      <trkpt lat="45.9593" lon="6.2446">
        <ele>1591.12</ele>
        <time>2017-08-04T19:35:26Z</time>
      </trkpt>
      <trkpt lat="45.95948" lon="6.24464">
        <ele>1593.52</ele>
        <time>2017-08-04T19:35:43Z</time>
      </trkpt>
      <trkpt lat="45.95949" lon="6.24465">
        <ele>1594</ele>
        <time>2017-08-04T19:35:44Z</time>
      </trkpt>
      <trkpt lat="45.9595" lon="6.24466">
        <ele>1594</ele>
        <time>2017-08-04T19:35:45Z</time>
      </trkpt>
      <trkpt lat="45.95959" lon="6.2447">
        <ele>1596.89</ele>
        <time>2017-08-04T19:36:01Z</time>
      </trkpt>
      <trkpt lat="45.95968" lon="6.24474">
        <ele>1600.25</ele>
        <time>2017-08-04T19:36:17Z</time>
      </trkpt>
      <trkpt lat="45.95984" lon="6.24483">
        <ele>1603.14</ele>
        <time>2017-08-04T19:36:34Z</time>
      </trkpt>
      <trkpt lat="45.95985" lon="6.24484">
        <ele>1603.62</ele>
        <time>2017-08-04T19:36:36Z</time>
      </trkpt>
      <trkpt lat="45.95994" lon="6.24485">
        <ele>1604.58</ele>
        <time>2017-08-04T19:36:53Z</time>
      </trkpt>
      <trkpt lat="45.95996" lon="6.24481">
        <ele>1605.06</ele>
        <time>2017-08-04T19:36:57Z</time>
      </trkpt>
      <trkpt lat="45.96001" lon="6.24456">
        <ele>1606.98</ele>
        <time>2017-08-04T19:37:18Z</time>
      </trkpt>
      <trkpt lat="45.96" lon="6.24454">
        <ele>1607.46</ele>
        <time>2017-08-04T19:37:22Z</time>
      </trkpt>
      <trkpt lat="45.96002" lon="6.24446">
        <ele>1606.02</ele>
        <time>2017-08-04T19:37:28Z</time>
      </trkpt>
      <trkpt lat="45.96002" lon="6.24444">
        <ele>1606.02</ele>
        <time>2017-08-04T19:37:29Z</time>
      </trkpt>
      <trkpt lat="45.96002" lon="6.24442">
        <ele>1605.54</ele>
        <time>2017-08-04T19:37:30Z</time>
      </trkpt>
      <trkpt lat="45.96002" lon="6.24439">
        <ele>1605.06</ele>
        <time>2017-08-04T19:37:31Z</time>
      </trkpt>
      <trkpt lat="45.96003" lon="6.24437">
        <ele>1604.58</ele>
        <time>2017-08-04T19:37:32Z</time>
      </trkpt>
      <trkpt lat="45.96004" lon="6.24435">
        <ele>1604.58</ele>
        <time>2017-08-04T19:37:33Z</time>
      </trkpt>
      <trkpt lat="45.96005" lon="6.24433">
        <ele>1604.1</ele>
        <time>2017-08-04T19:37:34Z</time>
      </trkpt>
      <trkpt lat="45.96005" lon="6.24432">
        <ele>1603.62</ele>
        <time>2017-08-04T19:37:35Z</time>
      </trkpt>
      <trkpt lat="45.96006" lon="6.2443">
        <ele>1603.62</ele>
        <time>2017-08-04T19:37:36Z</time>
      </trkpt>
      <trkpt lat="45.96006" lon="6.24429">
        <ele>1603.14</ele>
        <time>2017-08-04T19:37:37Z</time>
      </trkpt>
      <trkpt lat="45.96007" lon="6.24426">
        <ele>1602.17</ele>
        <time>2017-08-04T19:37:39Z</time>
      </trkpt>
      <trkpt lat="45.96007" lon="6.24424">
        <ele>1601.69</ele>
        <time>2017-08-04T19:37:40Z</time>
      </trkpt>
      <trkpt lat="45.96007" lon="6.24423">
        <ele>1601.21</ele>
        <time>2017-08-04T19:37:41Z</time>
      </trkpt>
      <trkpt lat="45.96008" lon="6.24419">
        <ele>1600.73</ele>
        <time>2017-08-04T19:37:43Z</time>
      </trkpt>
      <trkpt lat="45.96009" lon="6.24418">
        <ele>1600.25</ele>
        <time>2017-08-04T19:37:44Z</time>
      </trkpt>
      <trkpt lat="45.9601" lon="6.24416">
        <ele>1599.77</ele>
        <time>2017-08-04T19:37:45Z</time>
      </trkpt>
      <trkpt lat="45.96011" lon="6.24415">
        <ele>1599.77</ele>
        <time>2017-08-04T19:37:46Z</time>
      </trkpt>
      <trkpt lat="45.96011" lon="6.24413">
        <ele>1598.81</ele>
        <time>2017-08-04T19:37:48Z</time>
      </trkpt>
      <trkpt lat="45.96012" lon="6.24411">
        <ele>1597.85</ele>
        <time>2017-08-04T19:37:50Z</time>
      </trkpt>
      <trkpt lat="45.96015" lon="6.24401">
        <ele>1594.96</ele>
        <time>2017-08-04T19:37:57Z</time>
      </trkpt>
      <trkpt lat="45.9602" lon="6.24395">
        <ele>1593.52</ele>
        <time>2017-08-04T19:38:01Z</time>
      </trkpt>
      <trkpt lat="45.96023" lon="6.24392">
        <ele>1592.56</ele>
        <time>2017-08-04T19:38:03Z</time>
      </trkpt>
      <trkpt lat="45.96024" lon="6.2439">
        <ele>1592.56</ele>
        <time>2017-08-04T19:38:04Z</time>
      </trkpt>
      <trkpt lat="45.96025" lon="6.24389">
        <ele>1592.08</ele>
        <time>2017-08-04T19:38:05Z</time>
      </trkpt>
      <trkpt lat="45.96026" lon="6.24388">
        <ele>1591.6</ele>
        <time>2017-08-04T19:38:06Z</time>
      </trkpt>
      <trkpt lat="45.96027" lon="6.24387">
        <ele>1591.12</ele>
        <time>2017-08-04T19:38:07Z</time>
      </trkpt>
      <trkpt lat="45.96029" lon="6.24387">
        <ele>1591.12</ele>
        <time>2017-08-04T19:38:08Z</time>
      </trkpt>
      <trkpt lat="45.9603" lon="6.24388">
        <ele>1591.12</ele>
        <time>2017-08-04T19:38:09Z</time>
      </trkpt>
      <trkpt lat="45.96032" lon="6.24389">
        <ele>1590.64</ele>
        <time>2017-08-04T19:38:10Z</time>
      </trkpt>
      <trkpt lat="45.96035" lon="6.24389">
        <ele>1589.68</ele>
        <time>2017-08-04T19:38:12Z</time>
      </trkpt>
      <trkpt lat="45.96037" lon="6.24388">
        <ele>1588.72</ele>
        <time>2017-08-04T19:38:13Z</time>
      </trkpt>
      <trkpt lat="45.96039" lon="6.24388">
        <ele>1587.75</ele>
        <time>2017-08-04T19:38:14Z</time>
      </trkpt>
      <trkpt lat="45.96039" lon="6.24389">
        <ele>1587.27</ele>
        <time>2017-08-04T19:38:15Z</time>
      </trkpt>
      <trkpt lat="45.9604" lon="6.24391">
        <ele>1586.79</ele>
        <time>2017-08-04T19:38:16Z</time>
      </trkpt>
      <trkpt lat="45.96041" lon="6.24391">
        <ele>1585.83</ele>
        <time>2017-08-04T19:38:17Z</time>
      </trkpt>
      <trkpt lat="45.96042" lon="6.24389">
        <ele>1585.83</ele>
        <time>2017-08-04T19:38:18Z</time>
      </trkpt>
      <trkpt lat="45.96043" lon="6.24387">
        <ele>1585.83</ele>
        <time>2017-08-04T19:38:19Z</time>
      </trkpt>
      <trkpt lat="45.96043" lon="6.24384">
        <ele>1584.39</ele>
        <time>2017-08-04T19:38:20Z</time>
      </trkpt>
      <trkpt lat="45.96044" lon="6.2438">
        <ele>1583.91</ele>
        <time>2017-08-04T19:38:21Z</time>
      </trkpt>
      <trkpt lat="45.96045" lon="6.24378">
        <ele>1583.43</ele>
        <time>2017-08-04T19:38:22Z</time>
      </trkpt>
      <trkpt lat="45.96047" lon="6.24375">
        <ele>1582.47</ele>
        <time>2017-08-04T19:38:23Z</time>
      </trkpt>
      <trkpt lat="45.96048" lon="6.24374">
        <ele>1581.99</ele>
        <time>2017-08-04T19:38:24Z</time>
      </trkpt>
      <trkpt lat="45.96049" lon="6.24372">
        <ele>1581.99</ele>
        <time>2017-08-04T19:38:25Z</time>
      </trkpt>
      <trkpt lat="45.96053" lon="6.24364">
        <ele>1580.06</ele>
        <time>2017-08-04T19:38:29Z</time>
      </trkpt>
      <trkpt lat="45.96054" lon="6.24362">
        <ele>1579.58</ele>
        <time>2017-08-04T19:38:30Z</time>
      </trkpt>
      <trkpt lat="45.96055" lon="6.24361">
        <ele>1579.1</ele>
        <time>2017-08-04T19:38:31Z</time>
      </trkpt>
      <trkpt lat="45.96057" lon="6.24359">
        <ele>1578.62</ele>
        <time>2017-08-04T19:38:32Z</time>
      </trkpt>
      <trkpt lat="45.96058" lon="6.24357">
        <ele>1578.62</ele>
        <time>2017-08-04T19:38:33Z</time>
      </trkpt>
      <trkpt lat="45.96058" lon="6.24355">
        <ele>1577.66</ele>
        <time>2017-08-04T19:38:34Z</time>
      </trkpt>
      <trkpt lat="45.96059" lon="6.24353">
        <ele>1577.18</ele>
        <time>2017-08-04T19:38:35Z</time>
      </trkpt>
      <trkpt lat="45.9606" lon="6.24352">
        <ele>1576.22</ele>
        <time>2017-08-04T19:38:36Z</time>
      </trkpt>
      <trkpt lat="45.96062" lon="6.24352">
        <ele>1576.22</ele>
        <time>2017-08-04T19:38:37Z</time>
      </trkpt>
      <trkpt lat="45.96071" lon="6.24344">
        <ele>1572.37</ele>
        <time>2017-08-04T19:38:43Z</time>
      </trkpt>
      <trkpt lat="45.96085" lon="6.24339">
        <ele>1569.01</ele>
        <time>2017-08-04T19:38:49Z</time>
      </trkpt>
      <trkpt lat="45.961" lon="6.24336">
        <ele>1566.12</ele>
        <time>2017-08-04T19:38:57Z</time>
      </trkpt>
      <trkpt lat="45.96112" lon="6.24334">
        <ele>1562.76</ele>
        <time>2017-08-04T19:39:04Z</time>
      </trkpt>
      <trkpt lat="45.96118" lon="6.24331">
        <ele>1561.32</ele>
        <time>2017-08-04T19:39:08Z</time>
      </trkpt>
      <trkpt lat="45.9612" lon="6.24331">
        <ele>1560.84</ele>
        <time>2017-08-04T19:39:09Z</time>
      </trkpt>
      <trkpt lat="45.96121" lon="6.2433">
        <ele>1560.36</ele>
        <time>2017-08-04T19:39:10Z</time>
      </trkpt>
      <trkpt lat="45.96122" lon="6.24328">
        <ele>1559.88</ele>
        <time>2017-08-04T19:39:11Z</time>
      </trkpt>
      <trkpt lat="45.96122" lon="6.24325">
        <ele>1559.4</ele>
        <time>2017-08-04T19:39:12Z</time>
      </trkpt>
      <trkpt lat="45.96129" lon="6.24313">
        <ele>1556.51</ele>
        <time>2017-08-04T19:39:19Z</time>
      </trkpt>
      <trkpt lat="45.96133" lon="6.24313">
        <ele>1556.03</ele>
        <time>2017-08-04T19:39:21Z</time>
      </trkpt>
      <trkpt lat="45.96136" lon="6.24312">
        <ele>1555.07</ele>
        <time>2017-08-04T19:39:23Z</time>
      </trkpt>
      <trkpt lat="45.96138" lon="6.24311">
        <ele>1554.59</ele>
        <time>2017-08-04T19:39:24Z</time>
      </trkpt>
      <trkpt lat="45.9614" lon="6.24311">
        <ele>1553.63</ele>
        <time>2017-08-04T19:39:25Z</time>
      </trkpt>
      <trkpt lat="45.96141" lon="6.24311">
        <ele>1553.15</ele>
        <time>2017-08-04T19:39:26Z</time>
      </trkpt>
      <trkpt lat="45.96143" lon="6.24312">
        <ele>1552.67</ele>
        <time>2017-08-04T19:39:27Z</time>
      </trkpt>
      <trkpt lat="45.96144" lon="6.24313">
        <ele>1552.67</ele>
        <time>2017-08-04T19:39:28Z</time>
      </trkpt>
      <trkpt lat="45.96146" lon="6.24315">
        <ele>1552.19</ele>
        <time>2017-08-04T19:39:29Z</time>
      </trkpt>
      <trkpt lat="45.96147" lon="6.24317">
        <ele>1552.19</ele>
        <time>2017-08-04T19:39:30Z</time>
      </trkpt>
      <trkpt lat="45.96149" lon="6.24317">
        <ele>1551.22</ele>
        <time>2017-08-04T19:39:31Z</time>
      </trkpt>
      <trkpt lat="45.9615" lon="6.24318">
        <ele>1550.74</ele>
        <time>2017-08-04T19:39:32Z</time>
      </trkpt>
      <trkpt lat="45.96152" lon="6.2432">
        <ele>1549.78</ele>
        <time>2017-08-04T19:39:33Z</time>
      </trkpt>
      <trkpt lat="45.96153" lon="6.24321">
        <ele>1549.78</ele>
        <time>2017-08-04T19:39:34Z</time>
      </trkpt>
      <trkpt lat="45.96162" lon="6.24329">
        <ele>1546.42</ele>
        <time>2017-08-04T19:39:41Z</time>
      </trkpt>
      <trkpt lat="45.96165" lon="6.2433">
        <ele>1545.94</ele>
        <time>2017-08-04T19:39:43Z</time>
      </trkpt>
      <trkpt lat="45.96166" lon="6.24329">
        <ele>1545.46</ele>
        <time>2017-08-04T19:39:44Z</time>
      </trkpt>
      <trkpt lat="45.96168" lon="6.24329">
        <ele>1544.98</ele>
        <time>2017-08-04T19:39:45Z</time>
      </trkpt>
      <trkpt lat="45.9617" lon="6.24329">
        <ele>1544.5</ele>
        <time>2017-08-04T19:39:47Z</time>
      </trkpt>
      <trkpt lat="45.96174" lon="6.2433">
        <ele>1543.05</ele>
        <time>2017-08-04T19:39:50Z</time>
      </trkpt>
      <trkpt lat="45.96176" lon="6.24329">
        <ele>1542.57</ele>
        <time>2017-08-04T19:39:51Z</time>
      </trkpt>
      <trkpt lat="45.96182" lon="6.24329">
        <ele>1542.57</ele>
        <time>2017-08-04T19:39:55Z</time>
      </trkpt>
      <trkpt lat="45.96183" lon="6.24328">
        <ele>1542.09</ele>
        <time>2017-08-04T19:39:56Z</time>
      </trkpt>
      <trkpt lat="45.96185" lon="6.24328">
        <ele>1541.61</ele>
        <time>2017-08-04T19:39:57Z</time>
      </trkpt>
      <trkpt lat="45.96187" lon="6.24327">
        <ele>1540.17</ele>
        <time>2017-08-04T19:39:58Z</time>
      </trkpt>
      <trkpt lat="45.96188" lon="6.24325">
        <ele>1539.21</ele>
        <time>2017-08-04T19:39:59Z</time>
      </trkpt>
      <trkpt lat="45.9619" lon="6.24324">
        <ele>1538.25</ele>
        <time>2017-08-04T19:40:00Z</time>
      </trkpt>
      <trkpt lat="45.96193" lon="6.24321">
        <ele>1537.77</ele>
        <time>2017-08-04T19:40:02Z</time>
      </trkpt>
      <trkpt lat="45.96204" lon="6.24313">
        <ele>1533.92</ele>
        <time>2017-08-04T19:40:09Z</time>
      </trkpt>
      <trkpt lat="45.96206" lon="6.24312">
        <ele>1533.44</ele>
        <time>2017-08-04T19:40:10Z</time>
      </trkpt>
      <trkpt lat="45.96207" lon="6.24311">
        <ele>1532.48</ele>
        <time>2017-08-04T19:40:11Z</time>
      </trkpt>
      <trkpt lat="45.96209" lon="6.24311">
        <ele>1532</ele>
        <time>2017-08-04T19:40:12Z</time>
      </trkpt>
      <trkpt lat="45.9621" lon="6.2431">
        <ele>1532</ele>
        <time>2017-08-04T19:40:13Z</time>
      </trkpt>
      <trkpt lat="45.96212" lon="6.2431">
        <ele>1531.52</ele>
        <time>2017-08-04T19:40:14Z</time>
      </trkpt>
      <trkpt lat="45.96214" lon="6.24309">
        <ele>1531.52</ele>
        <time>2017-08-04T19:40:15Z</time>
      </trkpt>
      <trkpt lat="45.96216" lon="6.24309">
        <ele>1530.56</ele>
        <time>2017-08-04T19:40:16Z</time>
      </trkpt>
      <trkpt lat="45.96218" lon="6.24308">
        <ele>1530.08</ele>
        <time>2017-08-04T19:40:17Z</time>
      </trkpt>
      <trkpt lat="45.9622" lon="6.24307">
        <ele>1529.59</ele>
        <time>2017-08-04T19:40:18Z</time>
      </trkpt>
      <trkpt lat="45.96222" lon="6.24307">
        <ele>1529.11</ele>
        <time>2017-08-04T19:40:19Z</time>
      </trkpt>
      <trkpt lat="45.96224" lon="6.24307">
        <ele>1528.63</ele>
        <time>2017-08-04T19:40:20Z</time>
      </trkpt>
      <trkpt lat="45.96226" lon="6.24306">
        <ele>1528.15</ele>
        <time>2017-08-04T19:40:21Z</time>
      </trkpt>
      <trkpt lat="45.96228" lon="6.24305">
        <ele>1527.67</ele>
        <time>2017-08-04T19:40:22Z</time>
      </trkpt>
      <trkpt lat="45.9623" lon="6.24306">
        <ele>1527.19</ele>
        <time>2017-08-04T19:40:23Z</time>
      </trkpt>
      <trkpt lat="45.96232" lon="6.24305">
        <ele>1526.71</ele>
        <time>2017-08-04T19:40:24Z</time>
      </trkpt>
      <trkpt lat="45.96234" lon="6.24305">
        <ele>1526.23</ele>
        <time>2017-08-04T19:40:25Z</time>
      </trkpt>
      <trkpt lat="45.96235" lon="6.24304">
        <ele>1526.23</ele>
        <time>2017-08-04T19:40:26Z</time>
      </trkpt>
      <trkpt lat="45.96246" lon="6.24308">
        <ele>1522.87</ele>
        <time>2017-08-04T19:40:31Z</time>
      </trkpt>
      <trkpt lat="45.96249" lon="6.24308">
        <ele>1522.39</ele>
        <time>2017-08-04T19:40:32Z</time>
      </trkpt>
      <trkpt lat="45.9626" lon="6.24312">
        <ele>1519.98</ele>
        <time>2017-08-04T19:40:39Z</time>
      </trkpt>
      <trkpt lat="45.96262" lon="6.24313">
        <ele>1519.5</ele>
        <time>2017-08-04T19:40:40Z</time>
      </trkpt>
      <trkpt lat="45.96263" lon="6.24315">
        <ele>1519.02</ele>
        <time>2017-08-04T19:40:41Z</time>
      </trkpt>
      <trkpt lat="45.96264" lon="6.24316">
        <ele>1518.06</ele>
        <time>2017-08-04T19:40:42Z</time>
      </trkpt>
      <trkpt lat="45.96265" lon="6.24317">
        <ele>1517.58</ele>
        <time>2017-08-04T19:40:43Z</time>
      </trkpt>
      <trkpt lat="45.96267" lon="6.24317">
        <ele>1517.58</ele>
        <time>2017-08-04T19:40:44Z</time>
      </trkpt>
      <trkpt lat="45.96268" lon="6.24318">
        <ele>1516.62</ele>
        <time>2017-08-04T19:40:45Z</time>
      </trkpt>
      <trkpt lat="45.9627" lon="6.24318">
        <ele>1516.62</ele>
        <time>2017-08-04T19:40:46Z</time>
      </trkpt>
      <trkpt lat="45.96278" lon="6.2432">
        <ele>1513.25</ele>
        <time>2017-08-04T19:40:51Z</time>
      </trkpt>
      <trkpt lat="45.96285" lon="6.24322">
        <ele>1511.81</ele>
        <time>2017-08-04T19:40:54Z</time>
      </trkpt>
      <trkpt lat="45.96298" lon="6.24327">
        <ele>1508.93</ele>
        <time>2017-08-04T19:41:00Z</time>
      </trkpt>
      <trkpt lat="45.9631" lon="6.2433">
        <ele>1506.52</ele>
        <time>2017-08-04T19:41:05Z</time>
      </trkpt>
      <trkpt lat="45.96324" lon="6.24331">
        <ele>1503.64</ele>
        <time>2017-08-04T19:41:11Z</time>
      </trkpt>
      <trkpt lat="45.96339" lon="6.24334">
        <ele>1500.27</ele>
        <time>2017-08-04T19:41:17Z</time>
      </trkpt>
      <trkpt lat="45.96346" lon="6.24332">
        <ele>1499.31</ele>
        <time>2017-08-04T19:41:20Z</time>
      </trkpt>
      <trkpt lat="45.96348" lon="6.24332">
        <ele>1499.31</ele>
        <time>2017-08-04T19:41:21Z</time>
      </trkpt>
      <trkpt lat="45.96351" lon="6.24333">
        <ele>1498.83</ele>
        <time>2017-08-04T19:41:23Z</time>
      </trkpt>
      <trkpt lat="45.96352" lon="6.24333">
        <ele>1498.83</ele>
        <time>2017-08-04T19:41:24Z</time>
      </trkpt>
      <trkpt lat="45.96354" lon="6.24334">
        <ele>1498.35</ele>
        <time>2017-08-04T19:41:25Z</time>
      </trkpt>
      <trkpt lat="45.9636" lon="6.24336">
        <ele>1496.43</ele>
        <time>2017-08-04T19:41:28Z</time>
      </trkpt>
      <trkpt lat="45.96362" lon="6.24339">
        <ele>1495.47</ele>
        <time>2017-08-04T19:41:29Z</time>
      </trkpt>
      <trkpt lat="45.96363" lon="6.24343">
        <ele>1494.99</ele>
        <time>2017-08-04T19:41:30Z</time>
      </trkpt>
      <trkpt lat="45.96366" lon="6.24346">
        <ele>1494.99</ele>
        <time>2017-08-04T19:41:31Z</time>
      </trkpt>
      <trkpt lat="45.96368" lon="6.24349">
        <ele>1494.51</ele>
        <time>2017-08-04T19:41:32Z</time>
      </trkpt>
      <trkpt lat="45.9637" lon="6.24352">
        <ele>1494.03</ele>
        <time>2017-08-04T19:41:33Z</time>
      </trkpt>
      <trkpt lat="45.96372" lon="6.24354">
        <ele>1494.03</ele>
        <time>2017-08-04T19:41:34Z</time>
      </trkpt>
      <trkpt lat="45.9639" lon="6.24364">
        <ele>1492.58</ele>
        <time>2017-08-04T19:41:41Z</time>
      </trkpt>
      <trkpt lat="45.96411" lon="6.24368">
        <ele>1491.14</ele>
        <time>2017-08-04T19:41:49Z</time>
      </trkpt>
      <trkpt lat="45.96417" lon="6.24369">
        <ele>1490.66</ele>
        <time>2017-08-04T19:41:52Z</time>
      </trkpt>
    </trkseg>
  </trk>
</gpx>